<?xml version='1.0' encoding='UTF-8'?><gpx version="1.1" creator="JPX - https://github.com/jenetics/jpx" xmlns="http://www.topografix.com/GPX/1/1"><trk><trkseg><trkpt lat="43.6441224" lon="11.4497708"><ele>127.00000000000001</ele><time>2026-05-02T10:27:42.971Z</time></trkpt><trkpt lat="43.6440381" lon="11.4497965"><ele>127.0</ele><time>2026-05-02T10:27:43.972Z</time></trkpt><trkpt lat="43.6439618" lon="11.4498124"><ele>127.0</ele><time>2026-05-02T10:27:44.971Z</time></trkpt><trkpt lat="43.6438857" lon="11.4498234"><ele>127.0</ele><time>2026-05-02T10:27:45.971Z</time></trkpt><trkpt lat="43.6438116" lon="11.4498366"><ele>127.00000000000001</ele><time>2026-05-02T10:27:46.972Z</time></trkpt><trkpt lat="43.6437298" lon="11.4499318"><ele>127.0</ele><time>2026-05-02T10:27:48.971Z</time></trkpt><trkpt lat="43.6436652" lon="11.4500633"><ele>126.83333333333334</ele><time>2026-05-02T10:27:50.971Z</time></trkpt><trkpt lat="43.6435997" lon="11.4500832"><ele>126.66666666666667</ele><time>2026-05-02T10:27:51.972Z</time></trkpt><trkpt lat="43.6435179" lon="11.4500783"><ele>126.5</ele><time>2026-05-02T10:27:52.971Z</time></trkpt><trkpt lat="43.6434384" lon="11.4500761"><ele>126.33333333333334</ele><time>2026-05-02T10:27:53.972Z</time></trkpt><trkpt lat="43.6433753" lon="11.4500937"><ele>126.16666666666667</ele><time>2026-05-02T10:27:54.971Z</time></trkpt><trkpt lat="43.6433331" lon="11.4501896"><ele>126.0</ele><time>2026-05-02T10:27:56.971Z</time></trkpt><trkpt lat="43.643421" lon="11.4502785"><ele>126.0</ele><time>2026-05-02T10:27:58.971Z</time></trkpt><trkpt lat="43.6435047" lon="11.450261"><ele>126.0</ele><time>2026-05-02T10:27:59.972Z</time></trkpt><trkpt lat="43.6435952" lon="11.4502477"><ele>126.0</ele><time>2026-05-02T10:28:00.971Z</time></trkpt><trkpt lat="43.6436909" lon="11.450246"><ele>126.0</ele><time>2026-05-02T10:28:01.971Z</time></trkpt><trkpt lat="43.6437847" lon="11.4502396"><ele>126.0</ele><time>2026-05-02T10:28:02.971Z</time></trkpt><trkpt lat="43.6438887" lon="11.4502259"><ele>126.19999999999999</ele><time>2026-05-02T10:28:03.971Z</time></trkpt><trkpt lat="43.643997" lon="11.4502084"><ele>126.39999999999999</ele><time>2026-05-02T10:28:04.971Z</time></trkpt><trkpt lat="43.6441062" lon="11.4501923"><ele>126.6</ele><time>2026-05-02T10:28:05.971Z</time></trkpt><trkpt lat="43.6442105" lon="11.4501778"><ele>126.8</ele><time>2026-05-02T10:28:06.971Z</time></trkpt><trkpt lat="43.644308" lon="11.4501627"><ele>127.0</ele><time>2026-05-02T10:28:07.971Z</time></trkpt><trkpt lat="43.6443785" lon="11.4501576"><ele>127.0</ele><time>2026-05-02T10:28:08.972Z</time></trkpt><trkpt lat="43.6444666" lon="11.4502028"><ele>126.99999999999999</ele><time>2026-05-02T10:28:10.972Z</time></trkpt><trkpt lat="43.6444803" lon="11.4502983"><ele>126.99999999999999</ele><time>2026-05-02T10:28:11.971Z</time></trkpt><trkpt lat="43.644494" lon="11.4504261"><ele>127.0</ele><time>2026-05-02T10:28:13.971Z</time></trkpt><trkpt lat="43.6445552" lon="11.4503997"><ele>127.0</ele><time>2026-05-02T10:28:15.971Z</time></trkpt><trkpt lat="43.6446761" lon="11.450306"><ele>127.0</ele><time>2026-05-02T10:28:17.972Z</time></trkpt><trkpt lat="43.644765" lon="11.4502908"><ele>126.99999999999999</ele><time>2026-05-02T10:28:18.971Z</time></trkpt><trkpt lat="43.644869" lon="11.4502883"><ele>126.99999999999999</ele><time>2026-05-02T10:28:19.971Z</time></trkpt><trkpt lat="43.6449729" lon="11.4502771"><ele>127.0</ele><time>2026-05-02T10:28:20.971Z</time></trkpt><trkpt lat="43.6450818" lon="11.4502772"><ele>127.0</ele><time>2026-05-02T10:28:21.972Z</time></trkpt><trkpt lat="43.6451842" lon="11.450278"><ele>127.00000000000001</ele><time>2026-05-02T10:28:22.971Z</time></trkpt><trkpt lat="43.6452743" lon="11.4502694"><ele>127.0</ele><time>2026-05-02T10:28:23.971Z</time></trkpt><trkpt lat="43.6453632" lon="11.4502672"><ele>127.0</ele><time>2026-05-02T10:28:24.971Z</time></trkpt><trkpt lat="43.6454414" lon="11.4502707"><ele>127.0</ele><time>2026-05-02T10:28:25.971Z</time></trkpt><trkpt lat="43.6455255" lon="11.4502828"><ele>127.00000000000001</ele><time>2026-05-02T10:28:27.971Z</time></trkpt><trkpt lat="43.6455797" lon="11.4502031"><ele>127.0</ele><time>2026-05-02T10:28:32.972Z</time></trkpt><trkpt lat="43.6455726" lon="11.4501117"><ele>127.16666666666667</ele><time>2026-05-02T10:28:33.971Z</time></trkpt><trkpt lat="43.6455553" lon="11.4500129"><ele>127.33333333333334</ele><time>2026-05-02T10:28:34.971Z</time></trkpt><trkpt lat="43.6455191" lon="11.4498967"><ele>127.5</ele><time>2026-05-02T10:28:35.971Z</time></trkpt><trkpt lat="43.6454933" lon="11.4497864"><ele>127.66666666666666</ele><time>2026-05-02T10:28:36.971Z</time></trkpt><trkpt lat="43.6454728" lon="11.4496711"><ele>127.83333333333333</ele><time>2026-05-02T10:28:37.971Z</time></trkpt><trkpt lat="43.6454525" lon="11.4495649"><ele>128.0</ele><time>2026-05-02T10:28:38.972Z</time></trkpt><trkpt lat="43.6454316" lon="11.4494555"><ele>129.42857142857142</ele><time>2026-05-02T10:28:39.972Z</time></trkpt><trkpt lat="43.6454126" lon="11.4493564"><ele>130.85714285714283</ele><time>2026-05-02T10:28:40.972Z</time></trkpt><trkpt lat="43.6454127" lon="11.4492688"><ele>132.28571428571428</ele><time>2026-05-02T10:28:41.971Z</time></trkpt><trkpt lat="43.6454297" lon="11.4491824"><ele>133.71428571428572</ele><time>2026-05-02T10:28:42.971Z</time></trkpt><trkpt lat="43.6454727" lon="11.4491025"><ele>135.14285714285717</ele><time>2026-05-02T10:28:43.971Z</time></trkpt><trkpt lat="43.6455276" lon="11.4490316"><ele>136.57142857142858</ele><time>2026-05-02T10:28:44.971Z</time></trkpt><trkpt lat="43.6455922" lon="11.4489629"><ele>138.0</ele><time>2026-05-02T10:28:45.972Z</time></trkpt><trkpt lat="43.6456588" lon="11.448889"><ele>138.0</ele><time>2026-05-02T10:28:46.972Z</time></trkpt><trkpt lat="43.6457202" lon="11.4487954"><ele>138.0</ele><time>2026-05-02T10:28:47.971Z</time></trkpt><trkpt lat="43.6457946" lon="11.4486973"><ele>138.0</ele><time>2026-05-02T10:28:48.972Z</time></trkpt><trkpt lat="43.6458636" lon="11.448612"><ele>138.0</ele><time>2026-05-02T10:28:49.972Z</time></trkpt><trkpt lat="43.6459289" lon="11.4485492"><ele>138.0</ele><time>2026-05-02T10:28:50.971Z</time></trkpt><trkpt lat="43.6459991" lon="11.4485322"><ele>138.0</ele><time>2026-05-02T10:28:51.971Z</time></trkpt><trkpt lat="43.6460761" lon="11.4485568"><ele>140.0</ele><time>2026-05-02T10:28:52.971Z</time></trkpt><trkpt lat="43.6461423" lon="11.4485886"><ele>142.0</ele><time>2026-05-02T10:28:53.971Z</time></trkpt><trkpt lat="43.6462177" lon="11.4486512"><ele>144.0</ele><time>2026-05-02T10:28:54.971Z</time></trkpt><trkpt lat="43.6462873" lon="11.4487044"><ele>146.0</ele><time>2026-05-02T10:28:55.971Z</time></trkpt><trkpt lat="43.6463617" lon="11.4487262"><ele>148.0</ele><time>2026-05-02T10:28:56.972Z</time></trkpt><trkpt lat="43.6464246" lon="11.4487199"><ele>150.0</ele><time>2026-05-02T10:28:57.972Z</time></trkpt><trkpt lat="43.6464859" lon="11.4486766"><ele>152.0</ele><time>2026-05-02T10:28:58.971Z</time></trkpt><trkpt lat="43.6465527" lon="11.4485939"><ele>152.0</ele><time>2026-05-02T10:28:59.971Z</time></trkpt><trkpt lat="43.6466182" lon="11.4484888"><ele>152.0</ele><time>2026-05-02T10:29:00.971Z</time></trkpt><trkpt lat="43.646687" lon="11.4483901"><ele>152.0</ele><time>2026-05-02T10:29:01.971Z</time></trkpt><trkpt lat="43.6467568" lon="11.448287"><ele>152.0</ele><time>2026-05-02T10:29:02.971Z</time></trkpt><trkpt lat="43.6468021" lon="11.4481872"><ele>152.0</ele><time>2026-05-02T10:29:03.972Z</time></trkpt><trkpt lat="43.646832" lon="11.4480831"><ele>154.0</ele><time>2026-05-02T10:29:04.971Z</time></trkpt><trkpt lat="43.6468547" lon="11.4479583"><ele>156.0</ele><time>2026-05-02T10:29:05.971Z</time></trkpt><trkpt lat="43.6468677" lon="11.4478252"><ele>158.0</ele><time>2026-05-02T10:29:06.971Z</time></trkpt><trkpt lat="43.6468694" lon="11.4476937"><ele>160.0</ele><time>2026-05-02T10:29:07.972Z</time></trkpt><trkpt lat="43.6468735" lon="11.4475648"><ele>162.0</ele><time>2026-05-02T10:29:08.971Z</time></trkpt><trkpt lat="43.6468743" lon="11.4474438"><ele>162.0</ele><time>2026-05-02T10:29:09.972Z</time></trkpt><trkpt lat="43.6468528" lon="11.4473257"><ele>162.0</ele><time>2026-05-02T10:29:10.972Z</time></trkpt><trkpt lat="43.6468188" lon="11.4472115"><ele>162.0</ele><time>2026-05-02T10:29:11.971Z</time></trkpt><trkpt lat="43.6467724" lon="11.4470895"><ele>162.0</ele><time>2026-05-02T10:29:12.971Z</time></trkpt><trkpt lat="43.6467149" lon="11.4469881"><ele>162.0</ele><time>2026-05-02T10:29:13.971Z</time></trkpt><trkpt lat="43.6466379" lon="11.4469031"><ele>162.6</ele><time>2026-05-02T10:29:14.971Z</time></trkpt><trkpt lat="43.6465431" lon="11.446813"><ele>163.2</ele><time>2026-05-02T10:29:15.971Z</time></trkpt><trkpt lat="43.6464425" lon="11.4467286"><ele>163.8</ele><time>2026-05-02T10:29:16.972Z</time></trkpt><trkpt lat="43.6463478" lon="11.4466482"><ele>164.4</ele><time>2026-05-02T10:29:17.971Z</time></trkpt><trkpt lat="43.6462613" lon="11.4465671"><ele>165.0</ele><time>2026-05-02T10:29:18.971Z</time></trkpt><trkpt lat="43.6461798" lon="11.4464812"><ele>167.6</ele><time>2026-05-02T10:29:19.972Z</time></trkpt><trkpt lat="43.646096" lon="11.4463997"><ele>170.2</ele><time>2026-05-02T10:29:20.972Z</time></trkpt><trkpt lat="43.6460231" lon="11.4462943"><ele>172.8</ele><time>2026-05-02T10:29:21.971Z</time></trkpt><trkpt lat="43.6459594" lon="11.4461941"><ele>175.4</ele><time>2026-05-02T10:29:22.971Z</time></trkpt><trkpt lat="43.6459031" lon="11.4460995"><ele>178.0</ele><time>2026-05-02T10:29:23.971Z</time></trkpt><trkpt lat="43.645865" lon="11.4460002"><ele>179.16666666666669</ele><time>2026-05-02T10:29:24.971Z</time></trkpt><trkpt lat="43.645849" lon="11.4458951"><ele>180.33333333333334</ele><time>2026-05-02T10:29:25.971Z</time></trkpt><trkpt lat="43.6458485" lon="11.4457955"><ele>181.5</ele><time>2026-05-02T10:29:26.971Z</time></trkpt><trkpt lat="43.6458572" lon="11.4457008"><ele>182.66666666666666</ele><time>2026-05-02T10:29:27.972Z</time></trkpt><trkpt lat="43.6458765" lon="11.4455901"><ele>183.83333333333331</ele><time>2026-05-02T10:29:28.972Z</time></trkpt><trkpt lat="43.6459051" lon="11.4454798"><ele>185.0</ele><time>2026-05-02T10:29:29.971Z</time></trkpt><trkpt lat="43.6459406" lon="11.4453916"><ele>184.4</ele><time>2026-05-02T10:29:30.971Z</time></trkpt><trkpt lat="43.64601" lon="11.4453119"><ele>183.8</ele><time>2026-05-02T10:29:31.971Z</time></trkpt><trkpt lat="43.6460929" lon="11.4452464"><ele>183.2</ele><time>2026-05-02T10:29:32.971Z</time></trkpt><trkpt lat="43.6461856" lon="11.4451919"><ele>182.6</ele><time>2026-05-02T10:29:33.971Z</time></trkpt><trkpt lat="43.6462867" lon="11.4451379"><ele>182.0</ele><time>2026-05-02T10:29:34.971Z</time></trkpt><trkpt lat="43.6463801" lon="11.4451116"><ele>182.0</ele><time>2026-05-02T10:29:35.971Z</time></trkpt><trkpt lat="43.6464692" lon="11.445089"><ele>182.0</ele><time>2026-05-02T10:29:36.971Z</time></trkpt><trkpt lat="43.6465574" lon="11.4450655"><ele>182.0</ele><time>2026-05-02T10:29:37.971Z</time></trkpt><trkpt lat="43.6466256" lon="11.4450259"><ele>182.0</ele><time>2026-05-02T10:29:38.972Z</time></trkpt><trkpt lat="43.6466741" lon="11.4448755"><ele>182.0</ele><time>2026-05-02T10:29:40.971Z</time></trkpt><trkpt lat="43.6466412" lon="11.4447049"><ele>182.0</ele><time>2026-05-02T10:29:42.971Z</time></trkpt><trkpt lat="43.6466032" lon="11.4446304"><ele>182.0</ele><time>2026-05-02T10:29:43.971Z</time></trkpt><trkpt lat="43.6465442" lon="11.4445705"><ele>182.0</ele><time>2026-05-02T10:29:44.971Z</time></trkpt><trkpt lat="43.6464608" lon="11.4445528"><ele>182.0</ele><time>2026-05-02T10:29:45.971Z</time></trkpt><trkpt lat="43.6463753" lon="11.4445878"><ele>182.0</ele><time>2026-05-02T10:29:46.971Z</time></trkpt><trkpt lat="43.6462911" lon="11.4446384"><ele>182.0</ele><time>2026-05-02T10:29:47.971Z</time></trkpt><trkpt lat="43.6461968" lon="11.4447009"><ele>184.39999999999998</ele><time>2026-05-02T10:29:48.972Z</time></trkpt><trkpt lat="43.6460865" lon="11.4447614"><ele>186.79999999999998</ele><time>2026-05-02T10:29:49.971Z</time></trkpt><trkpt lat="43.6459963" lon="11.4448156"><ele>189.2</ele><time>2026-05-02T10:29:50.972Z</time></trkpt><trkpt lat="43.6459118" lon="11.4448465"><ele>191.6</ele><time>2026-05-02T10:29:51.971Z</time></trkpt><trkpt lat="43.6458182" lon="11.4448547"><ele>194.0</ele><time>2026-05-02T10:29:52.971Z</time></trkpt><trkpt lat="43.6457195" lon="11.444831"><ele>194.0</ele><time>2026-05-02T10:29:53.971Z</time></trkpt><trkpt lat="43.6456245" lon="11.4447948"><ele>194.0</ele><time>2026-05-02T10:29:54.971Z</time></trkpt><trkpt lat="43.645536" lon="11.444757"><ele>194.0</ele><time>2026-05-02T10:29:55.971Z</time></trkpt><trkpt lat="43.6454382" lon="11.4447298"><ele>194.0</ele><time>2026-05-02T10:29:56.971Z</time></trkpt><trkpt lat="43.6453409" lon="11.4447031"><ele>194.0</ele><time>2026-05-02T10:29:57.972Z</time></trkpt><trkpt lat="43.6452436" lon="11.4446861"><ele>196.75</ele><time>2026-05-02T10:29:58.971Z</time></trkpt><trkpt lat="43.6451324" lon="11.444683"><ele>199.5</ele><time>2026-05-02T10:29:59.972Z</time></trkpt><trkpt lat="43.6450176" lon="11.4446964"><ele>202.25</ele><time>2026-05-02T10:30:00.972Z</time></trkpt><trkpt lat="43.6449037" lon="11.4447191"><ele>205.0</ele><time>2026-05-02T10:30:01.972Z</time></trkpt><trkpt lat="43.6447932" lon="11.4447432"><ele>204.99999999999997</ele><time>2026-05-02T10:30:02.971Z</time></trkpt><trkpt lat="43.6446953" lon="11.4447684"><ele>205.0</ele><time>2026-05-02T10:30:03.972Z</time></trkpt><trkpt lat="43.6446059" lon="11.4447842"><ele>205.0</ele><time>2026-05-02T10:30:04.971Z</time></trkpt><trkpt lat="43.6445287" lon="11.4447948"><ele>205.0</ele><time>2026-05-02T10:30:05.971Z</time></trkpt><trkpt lat="43.6444445" lon="11.4448052"><ele>204.99999999999997</ele><time>2026-05-02T10:30:06.971Z</time></trkpt><trkpt lat="43.6443503" lon="11.4447805"><ele>205.0</ele><time>2026-05-02T10:30:07.971Z</time></trkpt><trkpt lat="43.6442616" lon="11.4447285"><ele>204.66666666666666</ele><time>2026-05-02T10:30:08.972Z</time></trkpt><trkpt lat="43.6441779" lon="11.4446803"><ele>204.33333333333331</ele><time>2026-05-02T10:30:09.971Z</time></trkpt><trkpt lat="43.6441151" lon="11.4446503"><ele>204.0</ele><time>2026-05-02T10:30:10.972Z</time></trkpt><trkpt lat="43.6440484" lon="11.4445654"><ele>203.66666666666669</ele><time>2026-05-02T10:30:12.971Z</time></trkpt><trkpt lat="43.6440473" lon="11.4444418"><ele>203.33333333333334</ele><time>2026-05-02T10:30:14.971Z</time></trkpt><trkpt lat="43.64405" lon="11.4443043"><ele>203.0</ele><time>2026-05-02T10:30:16.971Z</time></trkpt><trkpt lat="43.6440321" lon="11.4441958"><ele>206.00000000000003</ele><time>2026-05-02T10:30:18.971Z</time></trkpt><trkpt lat="43.6440271" lon="11.4440477"><ele>209.0</ele><time>2026-05-02T10:30:20.971Z</time></trkpt><trkpt lat="43.6440235" lon="11.4439381"><ele>212.0</ele><time>2026-05-02T10:30:22.971Z</time></trkpt><trkpt lat="43.6440141" lon="11.443836"><ele>215.0</ele><time>2026-05-02T10:30:23.971Z</time></trkpt><trkpt lat="43.6440154" lon="11.4437336"><ele>218.00000000000003</ele><time>2026-05-02T10:30:24.972Z</time></trkpt><trkpt lat="43.6440117" lon="11.4435933"><ele>221.0</ele><time>2026-05-02T10:30:26.972Z</time></trkpt><trkpt lat="43.6439953" lon="11.4434402"><ele>223.00000000000003</ele><time>2026-05-02T10:30:28.971Z</time></trkpt><trkpt lat="43.643988" lon="11.443301"><ele>225.0</ele><time>2026-05-02T10:30:30.971Z</time></trkpt><trkpt lat="43.6439838" lon="11.4431822"><ele>227.0</ele><time>2026-05-02T10:30:32.972Z</time></trkpt><trkpt lat="43.6439856" lon="11.4430927"><ele>229.0</ele><time>2026-05-02T10:30:33.971Z</time></trkpt><trkpt lat="43.6439781" lon="11.4429896"><ele>231.00000000000003</ele><time>2026-05-02T10:30:34.971Z</time></trkpt><trkpt lat="43.6439646" lon="11.4428979"><ele>233.0</ele><time>2026-05-02T10:30:35.972Z</time></trkpt><trkpt lat="43.6439247" lon="11.4427537"><ele>233.00000000000003</ele><time>2026-05-02T10:30:37.971Z</time></trkpt><trkpt lat="43.6438212" lon="11.442633"><ele>233.0</ele><time>2026-05-02T10:30:39.971Z</time></trkpt><trkpt lat="43.6437555" lon="11.4425552"><ele>233.0</ele><time>2026-05-02T10:30:40.971Z</time></trkpt><trkpt lat="43.6437046" lon="11.4424853"><ele>233.0</ele><time>2026-05-02T10:30:41.971Z</time></trkpt><trkpt lat="43.6436533" lon="11.4424208"><ele>233.00000000000003</ele><time>2026-05-02T10:30:42.971Z</time></trkpt><trkpt lat="43.6436035" lon="11.4423601"><ele>233.0</ele><time>2026-05-02T10:30:43.971Z</time></trkpt><trkpt lat="43.6435525" lon="11.4422948"><ele>232.60000000000002</ele><time>2026-05-02T10:30:44.971Z</time></trkpt><trkpt lat="43.6434997" lon="11.442241"><ele>232.20000000000002</ele><time>2026-05-02T10:30:45.971Z</time></trkpt><trkpt lat="43.6434038" lon="11.4421353"><ele>231.8</ele><time>2026-05-02T10:30:47.971Z</time></trkpt><trkpt lat="43.6433043" lon="11.4420438"><ele>231.4</ele><time>2026-05-02T10:30:49.971Z</time></trkpt><trkpt lat="43.6432549" lon="11.4419781"><ele>231.0</ele><time>2026-05-02T10:30:50.971Z</time></trkpt><trkpt lat="43.6432001" lon="11.4419078"><ele>231.0</ele><time>2026-05-02T10:30:51.971Z</time></trkpt><trkpt lat="43.643149" lon="11.4418326"><ele>231.0</ele><time>2026-05-02T10:30:52.971Z</time></trkpt><trkpt lat="43.643096" lon="11.4417575"><ele>231.0</ele><time>2026-05-02T10:30:53.971Z</time></trkpt><trkpt lat="43.6430427" lon="11.4416831"><ele>231.0</ele><time>2026-05-02T10:30:54.971Z</time></trkpt><trkpt lat="43.6429939" lon="11.4416192"><ele>231.0</ele><time>2026-05-02T10:30:55.971Z</time></trkpt><trkpt lat="43.6429372" lon="11.4415391"><ele>231.0</ele><time>2026-05-02T10:30:56.971Z</time></trkpt><trkpt lat="43.642882" lon="11.4414517"><ele>231.0</ele><time>2026-05-02T10:30:57.972Z</time></trkpt><trkpt lat="43.6428252" lon="11.4413708"><ele>231.0</ele><time>2026-05-02T10:30:58.971Z</time></trkpt><trkpt lat="43.6427651" lon="11.4412893"><ele>231.0</ele><time>2026-05-02T10:30:59.971Z</time></trkpt><trkpt lat="43.6427054" lon="11.4412131"><ele>231.0</ele><time>2026-05-02T10:31:00.972Z</time></trkpt><trkpt lat="43.6426407" lon="11.4411465"><ele>231.0</ele><time>2026-05-02T10:31:01.971Z</time></trkpt><trkpt lat="43.6425761" lon="11.4410835"><ele>231.0</ele><time>2026-05-02T10:31:02.971Z</time></trkpt><trkpt lat="43.6425119" lon="11.4410243"><ele>231.33333333333334</ele><time>2026-05-02T10:31:03.971Z</time></trkpt><trkpt lat="43.642438" lon="11.4409732"><ele>231.66666666666669</ele><time>2026-05-02T10:31:04.971Z</time></trkpt><trkpt lat="43.6423647" lon="11.4409268"><ele>232.0</ele><time>2026-05-02T10:31:05.971Z</time></trkpt><trkpt lat="43.6422902" lon="11.4408756"><ele>232.33333333333334</ele><time>2026-05-02T10:31:06.971Z</time></trkpt><trkpt lat="43.6422152" lon="11.4408234"><ele>232.66666666666669</ele><time>2026-05-02T10:31:07.972Z</time></trkpt><trkpt lat="43.6421487" lon="11.4407651"><ele>233.0</ele><time>2026-05-02T10:31:08.972Z</time></trkpt><trkpt lat="43.6420923" lon="11.4407131"><ele>233.0</ele><time>2026-05-02T10:31:09.971Z</time></trkpt><trkpt lat="43.6420391" lon="11.440658"><ele>233.0</ele><time>2026-05-02T10:31:10.972Z</time></trkpt><trkpt lat="43.6419835" lon="11.4406053"><ele>233.0</ele><time>2026-05-02T10:31:11.972Z</time></trkpt><trkpt lat="43.6419209" lon="11.4405525"><ele>233.0</ele><time>2026-05-02T10:31:12.971Z</time></trkpt><trkpt lat="43.6418462" lon="11.4404938"><ele>233.0</ele><time>2026-05-02T10:31:13.971Z</time></trkpt><trkpt lat="43.6417763" lon="11.4404402"><ele>233.0</ele><time>2026-05-02T10:31:14.972Z</time></trkpt><trkpt lat="43.641711" lon="11.440398"><ele>233.0</ele><time>2026-05-02T10:31:15.971Z</time></trkpt><trkpt lat="43.6416367" lon="11.4403837"><ele>234.50000000000003</ele><time>2026-05-02T10:31:16.971Z</time></trkpt><trkpt lat="43.6415254" lon="11.4403492"><ele>236.0</ele><time>2026-05-02T10:31:18.971Z</time></trkpt><trkpt lat="43.6414567" lon="11.4403206"><ele>237.5</ele><time>2026-05-02T10:31:19.971Z</time></trkpt><trkpt lat="43.6413916" lon="11.4402802"><ele>239.0</ele><time>2026-05-02T10:31:20.971Z</time></trkpt><trkpt lat="43.6413248" lon="11.4402358"><ele>240.50000000000003</ele><time>2026-05-02T10:31:21.971Z</time></trkpt><trkpt lat="43.6412646" lon="11.4401808"><ele>242.0</ele><time>2026-05-02T10:31:22.971Z</time></trkpt><trkpt lat="43.6411998" lon="11.4401182"><ele>242.00000000000003</ele><time>2026-05-02T10:31:23.972Z</time></trkpt><trkpt lat="43.6411459" lon="11.4400456"><ele>242.0</ele><time>2026-05-02T10:31:24.971Z</time></trkpt><trkpt lat="43.641067" lon="11.4399587"><ele>242.0</ele><time>2026-05-02T10:31:25.971Z</time></trkpt><trkpt lat="43.6409947" lon="11.439882"><ele>242.0</ele><time>2026-05-02T10:31:26.971Z</time></trkpt><trkpt lat="43.6409309" lon="11.439825"><ele>242.00000000000003</ele><time>2026-05-02T10:31:27.971Z</time></trkpt><trkpt lat="43.6408759" lon="11.4397808"><ele>242.0</ele><time>2026-05-02T10:31:28.971Z</time></trkpt><trkpt lat="43.6408144" lon="11.4397499"><ele>242.75</ele><time>2026-05-02T10:31:29.971Z</time></trkpt><trkpt lat="43.6407039" lon="11.4397326"><ele>243.5</ele><time>2026-05-02T10:31:31.972Z</time></trkpt><trkpt lat="43.6406311" lon="11.4397201"><ele>244.25</ele><time>2026-05-02T10:31:32.971Z</time></trkpt><trkpt lat="43.640506" lon="11.4397349"><ele>245.0</ele><time>2026-05-02T10:31:34.972Z</time></trkpt><trkpt lat="43.6403646" lon="11.4396775"><ele>244.0</ele><time>2026-05-02T10:31:36.971Z</time></trkpt><trkpt lat="43.6402788" lon="11.4396397"><ele>243.0</ele><time>2026-05-02T10:31:37.971Z</time></trkpt><trkpt lat="43.6401956" lon="11.4396253"><ele>242.0</ele><time>2026-05-02T10:31:38.971Z</time></trkpt><trkpt lat="43.6400902" lon="11.4396551"><ele>241.0</ele><time>2026-05-02T10:31:39.971Z</time></trkpt><trkpt lat="43.6399823" lon="11.4396862"><ele>240.0</ele><time>2026-05-02T10:31:40.971Z</time></trkpt><trkpt lat="43.6398799" lon="11.4396862"><ele>240.0</ele><time>2026-05-02T10:31:41.971Z</time></trkpt><trkpt lat="43.6397948" lon="11.4396676"><ele>240.0</ele><time>2026-05-02T10:31:42.971Z</time></trkpt><trkpt lat="43.6397156" lon="11.4396403"><ele>240.0</ele><time>2026-05-02T10:31:43.972Z</time></trkpt><trkpt lat="43.6396347" lon="11.4395975"><ele>240.0</ele><time>2026-05-02T10:31:44.971Z</time></trkpt><trkpt lat="43.6395564" lon="11.4395422"><ele>240.0</ele><time>2026-05-02T10:31:45.971Z</time></trkpt><trkpt lat="43.6394672" lon="11.439491"><ele>240.0</ele><time>2026-05-02T10:31:46.971Z</time></trkpt><trkpt lat="43.6393912" lon="11.439442"><ele>242.83333333333334</ele><time>2026-05-02T10:31:47.971Z</time></trkpt><trkpt lat="43.6393304" lon="11.4393828"><ele>245.66666666666669</ele><time>2026-05-02T10:31:48.971Z</time></trkpt><trkpt lat="43.6392748" lon="11.4393224"><ele>248.5</ele><time>2026-05-02T10:31:49.972Z</time></trkpt><trkpt lat="43.6392313" lon="11.4392442"><ele>251.33333333333334</ele><time>2026-05-02T10:31:50.972Z</time></trkpt><trkpt lat="43.6391947" lon="11.4391459"><ele>254.16666666666669</ele><time>2026-05-02T10:31:51.972Z</time></trkpt><trkpt lat="43.6391582" lon="11.4390392"><ele>257.0</ele><time>2026-05-02T10:31:52.971Z</time></trkpt><trkpt lat="43.6391285" lon="11.4389258"><ele>257.0</ele><time>2026-05-02T10:31:53.971Z</time></trkpt><trkpt lat="43.6390987" lon="11.4388367"><ele>257.0</ele><time>2026-05-02T10:31:54.971Z</time></trkpt><trkpt lat="43.639057" lon="11.4387691"><ele>257.0</ele><time>2026-05-02T10:31:55.971Z</time></trkpt><trkpt lat="43.6390063" lon="11.4387151"><ele>257.0</ele><time>2026-05-02T10:31:56.971Z</time></trkpt><trkpt lat="43.6389401" lon="11.4386591"><ele>257.0</ele><time>2026-05-02T10:31:57.971Z</time></trkpt><trkpt lat="43.6388674" lon="11.4386097"><ele>257.0</ele><time>2026-05-02T10:31:58.971Z</time></trkpt><trkpt lat="43.6388006" lon="11.4385588"><ele>257.0</ele><time>2026-05-02T10:31:59.972Z</time></trkpt><trkpt lat="43.6387341" lon="11.4385332"><ele>256.83333333333337</ele><time>2026-05-02T10:32:00.971Z</time></trkpt><trkpt lat="43.6386491" lon="11.4385427"><ele>256.6666666666667</ele><time>2026-05-02T10:32:01.972Z</time></trkpt><trkpt lat="43.6385599" lon="11.4385539"><ele>256.5</ele><time>2026-05-02T10:32:02.971Z</time></trkpt><trkpt lat="43.6384786" lon="11.4385647"><ele>256.3333333333333</ele><time>2026-05-02T10:32:03.971Z</time></trkpt><trkpt lat="43.638412" lon="11.4385492"><ele>256.16666666666663</ele><time>2026-05-02T10:32:04.972Z</time></trkpt><trkpt lat="43.6383388" lon="11.438418"><ele>256.0</ele><time>2026-05-02T10:32:06.971Z</time></trkpt><trkpt lat="43.6383022" lon="11.4383264"><ele>256.0</ele><time>2026-05-02T10:32:07.972Z</time></trkpt><trkpt lat="43.6382735" lon="11.4382167"><ele>256.0</ele><time>2026-05-02T10:32:08.972Z</time></trkpt><trkpt lat="43.6382255" lon="11.4381164"><ele>256.0</ele><time>2026-05-02T10:32:09.971Z</time></trkpt><trkpt lat="43.6381531" lon="11.4380469"><ele>256.0</ele><time>2026-05-02T10:32:10.971Z</time></trkpt><trkpt lat="43.6380727" lon="11.4379711"><ele>256.0</ele><time>2026-05-02T10:32:11.971Z</time></trkpt><trkpt lat="43.6379842" lon="11.437898"><ele>257.0</ele><time>2026-05-02T10:32:12.972Z</time></trkpt><trkpt lat="43.637898" lon="11.4378236"><ele>258.0</ele><time>2026-05-02T10:32:13.971Z</time></trkpt><trkpt lat="43.6378084" lon="11.4377515"><ele>259.0</ele><time>2026-05-02T10:32:14.971Z</time></trkpt><trkpt lat="43.6377191" lon="11.4376756"><ele>260.0</ele><time>2026-05-02T10:32:15.971Z</time></trkpt><trkpt lat="43.6376329" lon="11.4375846"><ele>261.0</ele><time>2026-05-02T10:32:16.971Z</time></trkpt><trkpt lat="43.637563" lon="11.4375084"><ele>261.0</ele><time>2026-05-02T10:32:17.971Z</time></trkpt><trkpt lat="43.6375076" lon="11.4374536"><ele>261.0</ele><time>2026-05-02T10:32:18.972Z</time></trkpt><trkpt lat="43.6374368" lon="11.4373802"><ele>261.0</ele><time>2026-05-02T10:32:20.971Z</time></trkpt><trkpt lat="43.6374592" lon="11.4372247"><ele>261.0</ele><time>2026-05-02T10:32:22.971Z</time></trkpt><trkpt lat="43.6375133" lon="11.4371203"><ele>261.0</ele><time>2026-05-02T10:32:23.971Z</time></trkpt><trkpt lat="43.6375604" lon="11.4369953"><ele>261.5</ele><time>2026-05-02T10:32:24.971Z</time></trkpt><trkpt lat="43.6376142" lon="11.436853"><ele>262.0</ele><time>2026-05-02T10:32:25.971Z</time></trkpt><trkpt lat="43.6376638" lon="11.4367027"><ele>262.5</ele><time>2026-05-02T10:32:26.971Z</time></trkpt><trkpt lat="43.6377221" lon="11.4365431"><ele>263.0</ele><time>2026-05-02T10:32:27.971Z</time></trkpt><trkpt lat="43.6377798" lon="11.4363803"><ele>263.5</ele><time>2026-05-02T10:32:28.971Z</time></trkpt><trkpt lat="43.6378412" lon="11.4362062"><ele>264.0</ele><time>2026-05-02T10:32:29.971Z</time></trkpt><trkpt lat="43.6379054" lon="11.4360289"><ele>264.5</ele><time>2026-05-02T10:32:30.972Z</time></trkpt><trkpt lat="43.6379711" lon="11.4358437"><ele>265.0</ele><time>2026-05-02T10:32:31.971Z</time></trkpt><trkpt lat="43.6380399" lon="11.43566"><ele>265.0</ele><time>2026-05-02T10:32:32.971Z</time></trkpt><trkpt lat="43.6381092" lon="11.435474"><ele>265.0</ele><time>2026-05-02T10:32:33.972Z</time></trkpt><trkpt lat="43.6381808" lon="11.4352746"><ele>265.0</ele><time>2026-05-02T10:32:34.971Z</time></trkpt><trkpt lat="43.638254" lon="11.4350743"><ele>264.66666666666663</ele><time>2026-05-02T10:32:35.971Z</time></trkpt><trkpt lat="43.6383262" lon="11.4348734"><ele>264.3333333333333</ele><time>2026-05-02T10:32:36.971Z</time></trkpt><trkpt lat="43.638403" lon="11.4346681"><ele>264.0</ele><time>2026-05-02T10:32:37.972Z</time></trkpt><trkpt lat="43.6384794" lon="11.434461"><ele>264.0</ele><time>2026-05-02T10:32:38.971Z</time></trkpt><trkpt lat="43.6385566" lon="11.4342502"><ele>264.0</ele><time>2026-05-02T10:32:39.972Z</time></trkpt><trkpt lat="43.638633" lon="11.4340352"><ele>264.0</ele><time>2026-05-02T10:32:40.971Z</time></trkpt><trkpt lat="43.6387115" lon="11.4338202"><ele>264.6666666666667</ele><time>2026-05-02T10:32:41.971Z</time></trkpt><trkpt lat="43.6387905" lon="11.4336077"><ele>265.33333333333337</ele><time>2026-05-02T10:32:42.972Z</time></trkpt><trkpt lat="43.6388662" lon="11.4333895"><ele>266.0</ele><time>2026-05-02T10:32:43.971Z</time></trkpt><trkpt lat="43.6389396" lon="11.4331691"><ele>265.6666666666667</ele><time>2026-05-02T10:32:44.971Z</time></trkpt><trkpt lat="43.639011" lon="11.4329438"><ele>265.3333333333333</ele><time>2026-05-02T10:32:45.971Z</time></trkpt><trkpt lat="43.6390761" lon="11.4327141"><ele>265.0</ele><time>2026-05-02T10:32:46.971Z</time></trkpt><trkpt lat="43.639125" lon="11.4324718"><ele>265.0</ele><time>2026-05-02T10:32:47.971Z</time></trkpt><trkpt lat="43.6391644" lon="11.4322346"><ele>265.0</ele><time>2026-05-02T10:32:48.971Z</time></trkpt><trkpt lat="43.6391943" lon="11.4319825"><ele>265.0</ele><time>2026-05-02T10:32:49.972Z</time></trkpt><trkpt lat="43.6392141" lon="11.4317358"><ele>265.0</ele><time>2026-05-02T10:32:50.971Z</time></trkpt><trkpt lat="43.6392235" lon="11.4314858"><ele>265.0</ele><time>2026-05-02T10:32:51.972Z</time></trkpt><trkpt lat="43.6392" lon="11.4312409"><ele>265.0</ele><time>2026-05-02T10:32:52.971Z</time></trkpt><trkpt lat="43.6391488" lon="11.4310028"><ele>265.3333333333333</ele><time>2026-05-02T10:32:53.971Z</time></trkpt><trkpt lat="43.6390827" lon="11.4307697"><ele>265.6666666666667</ele><time>2026-05-02T10:32:54.971Z</time></trkpt><trkpt lat="43.639012" lon="11.4305256"><ele>266.0</ele><time>2026-05-02T10:32:55.971Z</time></trkpt><trkpt lat="43.6389452" lon="11.4302878"><ele>266.0</ele><time>2026-05-02T10:32:56.971Z</time></trkpt><trkpt lat="43.6388795" lon="11.4300478"><ele>266.0</ele><time>2026-05-02T10:32:57.972Z</time></trkpt><trkpt lat="43.6388188" lon="11.4298052"><ele>266.0</ele><time>2026-05-02T10:32:58.971Z</time></trkpt><trkpt lat="43.6387583" lon="11.4295673"><ele>265.6666666666667</ele><time>2026-05-02T10:32:59.971Z</time></trkpt><trkpt lat="43.6386931" lon="11.4293237"><ele>265.3333333333333</ele><time>2026-05-02T10:33:00.972Z</time></trkpt><trkpt lat="43.6386301" lon="11.4290905"><ele>265.0</ele><time>2026-05-02T10:33:01.971Z</time></trkpt><trkpt lat="43.6385624" lon="11.4288579"><ele>266.0</ele><time>2026-05-02T10:33:02.972Z</time></trkpt><trkpt lat="43.6384882" lon="11.4286268"><ele>267.0</ele><time>2026-05-02T10:33:03.972Z</time></trkpt><trkpt lat="43.6384034" lon="11.4283991"><ele>268.0</ele><time>2026-05-02T10:33:04.971Z</time></trkpt><trkpt lat="43.6383102" lon="11.4281788"><ele>268.3333333333333</ele><time>2026-05-02T10:33:05.971Z</time></trkpt><trkpt lat="43.6382181" lon="11.4279727"><ele>268.6666666666667</ele><time>2026-05-02T10:33:06.971Z</time></trkpt><trkpt lat="43.6381266" lon="11.4277628"><ele>269.0</ele><time>2026-05-02T10:33:07.971Z</time></trkpt><trkpt lat="43.6380386" lon="11.4275608"><ele>269.0</ele><time>2026-05-02T10:33:08.971Z</time></trkpt><trkpt lat="43.6379625" lon="11.4273783"><ele>269.0</ele><time>2026-05-02T10:33:09.971Z</time></trkpt><trkpt lat="43.6378876" lon="11.4272155"><ele>269.0</ele><time>2026-05-02T10:33:10.971Z</time></trkpt><trkpt lat="43.6378227" lon="11.4270754"><ele>269.0</ele><time>2026-05-02T10:33:11.971Z</time></trkpt><trkpt lat="43.6377534" lon="11.426943"><ele>269.25</ele><time>2026-05-02T10:33:12.972Z</time></trkpt><trkpt lat="43.6376693" lon="11.426818"><ele>269.5</ele><time>2026-05-02T10:33:13.972Z</time></trkpt><trkpt lat="43.6375889" lon="11.4266816"><ele>269.75</ele><time>2026-05-02T10:33:14.971Z</time></trkpt><trkpt lat="43.6375164" lon="11.4265324"><ele>270.0</ele><time>2026-05-02T10:33:15.971Z</time></trkpt><trkpt lat="43.6374451" lon="11.4263824"><ele>271.0</ele><time>2026-05-02T10:33:16.971Z</time></trkpt><trkpt lat="43.6373755" lon="11.4262363"><ele>272.0</ele><time>2026-05-02T10:33:17.971Z</time></trkpt><trkpt lat="43.6373165" lon="11.4260882"><ele>273.0</ele><time>2026-05-02T10:33:18.971Z</time></trkpt><trkpt lat="43.6372752" lon="11.4259194"><ele>274.0</ele><time>2026-05-02T10:33:19.971Z</time></trkpt><trkpt lat="43.6372412" lon="11.4257497"><ele>274.0</ele><time>2026-05-02T10:33:20.971Z</time></trkpt><trkpt lat="43.6372131" lon="11.4255782"><ele>274.0</ele><time>2026-05-02T10:33:21.971Z</time></trkpt><trkpt lat="43.6371753" lon="11.4254165"><ele>274.0</ele><time>2026-05-02T10:33:22.971Z</time></trkpt><trkpt lat="43.637121" lon="11.4252596"><ele>274.0</ele><time>2026-05-02T10:33:23.972Z</time></trkpt><trkpt lat="43.6370513" lon="11.4251358"><ele>275.0</ele><time>2026-05-02T10:33:24.971Z</time></trkpt><trkpt lat="43.6369414" lon="11.4250791"><ele>276.0</ele><time>2026-05-02T10:33:25.971Z</time></trkpt><trkpt lat="43.6367982" lon="11.4251505"><ele>277.0</ele><time>2026-05-02T10:33:26.971Z</time></trkpt><trkpt lat="43.6366601" lon="11.4252126"><ele>278.0</ele><time>2026-05-02T10:33:27.971Z</time></trkpt><trkpt lat="43.6365149" lon="11.4252465"><ele>278.0</ele><time>2026-05-02T10:33:28.972Z</time></trkpt><trkpt lat="43.6363692" lon="11.4252649"><ele>278.0</ele><time>2026-05-02T10:33:29.972Z</time></trkpt><trkpt lat="43.6362231" lon="11.4252505"><ele>278.0</ele><time>2026-05-02T10:33:30.971Z</time></trkpt><trkpt lat="43.6360961" lon="11.4252278"><ele>278.0</ele><time>2026-05-02T10:33:31.971Z</time></trkpt><trkpt lat="43.6359797" lon="11.4252195"><ele>277.0</ele><time>2026-05-02T10:33:32.971Z</time></trkpt><trkpt lat="43.6358647" lon="11.4252579"><ele>276.0</ele><time>2026-05-02T10:33:33.972Z</time></trkpt><trkpt lat="43.6357513" lon="11.4253962"><ele>275.0</ele><time>2026-05-02T10:33:34.971Z</time></trkpt><trkpt lat="43.6356471" lon="11.4255591"><ele>274.0</ele><time>2026-05-02T10:33:35.971Z</time></trkpt><trkpt lat="43.6355369" lon="11.4257272"><ele>274.0</ele><time>2026-05-02T10:33:36.971Z</time></trkpt><trkpt lat="43.635407" lon="11.4258806"><ele>274.0</ele><time>2026-05-02T10:33:37.971Z</time></trkpt><trkpt lat="43.6352778" lon="11.4260313"><ele>274.0</ele><time>2026-05-02T10:33:38.971Z</time></trkpt><trkpt lat="43.6351558" lon="11.4261832"><ele>275.0</ele><time>2026-05-02T10:33:39.971Z</time></trkpt><trkpt lat="43.6350409" lon="11.4263312"><ele>276.0</ele><time>2026-05-02T10:33:40.971Z</time></trkpt><trkpt lat="43.6349201" lon="11.4264688"><ele>277.0</ele><time>2026-05-02T10:33:41.971Z</time></trkpt><trkpt lat="43.6348009" lon="11.4265828"><ele>277.0</ele><time>2026-05-02T10:33:42.971Z</time></trkpt><trkpt lat="43.6346737" lon="11.4266731"><ele>277.0</ele><time>2026-05-02T10:33:43.972Z</time></trkpt><trkpt lat="43.6345507" lon="11.4267618"><ele>277.0</ele><time>2026-05-02T10:33:44.972Z</time></trkpt><trkpt lat="43.6344258" lon="11.4268424"><ele>277.0</ele><time>2026-05-02T10:33:45.972Z</time></trkpt><trkpt lat="43.6342997" lon="11.4269014"><ele>278.75</ele><time>2026-05-02T10:33:46.971Z</time></trkpt><trkpt lat="43.6341724" lon="11.4269152"><ele>280.5</ele><time>2026-05-02T10:33:47.971Z</time></trkpt><trkpt lat="43.6340696" lon="11.4268701"><ele>282.25</ele><time>2026-05-02T10:33:48.972Z</time></trkpt><trkpt lat="43.6339829" lon="11.4267761"><ele>284.0</ele><time>2026-05-02T10:33:49.971Z</time></trkpt><trkpt lat="43.6338797" lon="11.4266913"><ele>284.0</ele><time>2026-05-02T10:33:50.971Z</time></trkpt><trkpt lat="43.6337707" lon="11.4266113"><ele>284.0</ele><time>2026-05-02T10:33:51.971Z</time></trkpt><trkpt lat="43.6336592" lon="11.4265381"><ele>284.0</ele><time>2026-05-02T10:33:52.971Z</time></trkpt><trkpt lat="43.6335516" lon="11.4264593"><ele>284.0</ele><time>2026-05-02T10:33:53.971Z</time></trkpt><trkpt lat="43.6334448" lon="11.4263805"><ele>284.0</ele><time>2026-05-02T10:33:54.972Z</time></trkpt><trkpt lat="43.6333314" lon="11.4263027"><ele>284.0</ele><time>2026-05-02T10:33:55.972Z</time></trkpt><trkpt lat="43.6332193" lon="11.4262391"><ele>284.0</ele><time>2026-05-02T10:33:56.971Z</time></trkpt><trkpt lat="43.6331254" lon="11.4261819"><ele>284.0</ele><time>2026-05-02T10:33:57.972Z</time></trkpt><trkpt lat="43.633047" lon="11.4261794"><ele>284.0</ele><time>2026-05-02T10:33:58.971Z</time></trkpt><trkpt lat="43.6329654" lon="11.4262502"><ele>284.5</ele><time>2026-05-02T10:33:59.971Z</time></trkpt><trkpt lat="43.6328994" lon="11.4263731"><ele>285.0</ele><time>2026-05-02T10:34:00.971Z</time></trkpt><trkpt lat="43.632839" lon="11.4265065"><ele>285.5</ele><time>2026-05-02T10:34:01.972Z</time></trkpt><trkpt lat="43.632767" lon="11.4266594"><ele>286.0</ele><time>2026-05-02T10:34:02.972Z</time></trkpt><trkpt lat="43.6326903" lon="11.4267971"><ele>286.0</ele><time>2026-05-02T10:34:03.971Z</time></trkpt><trkpt lat="43.6326277" lon="11.4269191"><ele>286.0</ele><time>2026-05-02T10:34:04.971Z</time></trkpt><trkpt lat="43.6325533" lon="11.4270161"><ele>286.0</ele><time>2026-05-02T10:34:05.971Z</time></trkpt><trkpt lat="43.6324663" lon="11.427058"><ele>286.0</ele><time>2026-05-02T10:34:06.971Z</time></trkpt><trkpt lat="43.632371" lon="11.4270708"><ele>286.0</ele><time>2026-05-02T10:34:07.972Z</time></trkpt><trkpt lat="43.632268" lon="11.4270695"><ele>286.0</ele><time>2026-05-02T10:34:08.972Z</time></trkpt><trkpt lat="43.6321728" lon="11.4270818"><ele>286.0</ele><time>2026-05-02T10:34:09.971Z</time></trkpt><trkpt lat="43.6320749" lon="11.4271234"><ele>286.0</ele><time>2026-05-02T10:34:10.971Z</time></trkpt><trkpt lat="43.6319861" lon="11.4272156"><ele>286.0</ele><time>2026-05-02T10:34:11.972Z</time></trkpt><trkpt lat="43.6319173" lon="11.427357"><ele>286.0</ele><time>2026-05-02T10:34:12.971Z</time></trkpt><trkpt lat="43.6318602" lon="11.4275413"><ele>285.3333333333333</ele><time>2026-05-02T10:34:13.971Z</time></trkpt><trkpt lat="43.6317929" lon="11.4277397"><ele>284.6666666666667</ele><time>2026-05-02T10:34:14.971Z</time></trkpt><trkpt lat="43.631733" lon="11.4279268"><ele>284.0</ele><time>2026-05-02T10:34:15.972Z</time></trkpt><trkpt lat="43.6316679" lon="11.4281076"><ele>282.5</ele><time>2026-05-02T10:34:16.972Z</time></trkpt><trkpt lat="43.6315978" lon="11.4282822"><ele>281.0</ele><time>2026-05-02T10:34:17.971Z</time></trkpt><trkpt lat="43.6315355" lon="11.4284564"><ele>279.5</ele><time>2026-05-02T10:34:18.971Z</time></trkpt><trkpt lat="43.631516" lon="11.4286233"><ele>278.0</ele><time>2026-05-02T10:34:19.971Z</time></trkpt><trkpt lat="43.6315159" lon="11.4288028"><ele>276.2</ele><time>2026-05-02T10:34:20.971Z</time></trkpt><trkpt lat="43.6315101" lon="11.4289745"><ele>274.4</ele><time>2026-05-02T10:34:21.971Z</time></trkpt><trkpt lat="43.6314913" lon="11.4291043"><ele>272.59999999999997</ele><time>2026-05-02T10:34:22.972Z</time></trkpt><trkpt lat="43.6314389" lon="11.4292131"><ele>270.8</ele><time>2026-05-02T10:34:23.971Z</time></trkpt><trkpt lat="43.6313404" lon="11.429305"><ele>269.0</ele><time>2026-05-02T10:34:24.972Z</time></trkpt><trkpt lat="43.6312366" lon="11.4293977"><ele>269.5</ele><time>2026-05-02T10:34:25.971Z</time></trkpt><trkpt lat="43.6311218" lon="11.4294876"><ele>270.0</ele><time>2026-05-02T10:34:26.971Z</time></trkpt><trkpt lat="43.630994" lon="11.4295951"><ele>270.5</ele><time>2026-05-02T10:34:27.971Z</time></trkpt><trkpt lat="43.6308652" lon="11.4297084"><ele>271.0</ele><time>2026-05-02T10:34:28.971Z</time></trkpt><trkpt lat="43.6307457" lon="11.4298207"><ele>271.0</ele><time>2026-05-02T10:34:29.971Z</time></trkpt><trkpt lat="43.6306367" lon="11.4299203"><ele>271.0</ele><time>2026-05-02T10:34:30.971Z</time></trkpt><trkpt lat="43.6305369" lon="11.430019"><ele>271.0</ele><time>2026-05-02T10:34:31.971Z</time></trkpt><trkpt lat="43.6304741" lon="11.4301486"><ele>271.0</ele><time>2026-05-02T10:34:32.972Z</time></trkpt><trkpt lat="43.6304534" lon="11.430311"><ele>271.0</ele><time>2026-05-02T10:34:33.971Z</time></trkpt><trkpt lat="43.6304668" lon="11.4304838"><ele>271.0</ele><time>2026-05-02T10:34:34.971Z</time></trkpt><trkpt lat="43.6304797" lon="11.4306613"><ele>271.0</ele><time>2026-05-02T10:34:35.971Z</time></trkpt><trkpt lat="43.6304855" lon="11.4308423"><ele>271.0</ele><time>2026-05-02T10:34:36.972Z</time></trkpt><trkpt lat="43.6305143" lon="11.431009"><ele>271.0</ele><time>2026-05-02T10:34:37.971Z</time></trkpt><trkpt lat="43.63057" lon="11.431175"><ele>271.0</ele><time>2026-05-02T10:34:38.971Z</time></trkpt><trkpt lat="43.6306442" lon="11.4313381"><ele>271.0</ele><time>2026-05-02T10:34:39.972Z</time></trkpt><trkpt lat="43.6307232" lon="11.4314822"><ele>271.0</ele><time>2026-05-02T10:34:40.971Z</time></trkpt><trkpt lat="43.6307942" lon="11.4316206"><ele>271.40000000000003</ele><time>2026-05-02T10:34:41.971Z</time></trkpt><trkpt lat="43.6308401" lon="11.4317411"><ele>271.8</ele><time>2026-05-02T10:34:42.971Z</time></trkpt><trkpt lat="43.6308559" lon="11.4318745"><ele>272.20000000000005</ele><time>2026-05-02T10:34:43.972Z</time></trkpt><trkpt lat="43.6308288" lon="11.4320292"><ele>272.6</ele><time>2026-05-02T10:34:44.971Z</time></trkpt><trkpt lat="43.630781" lon="11.4321808"><ele>273.0</ele><time>2026-05-02T10:34:45.971Z</time></trkpt><trkpt lat="43.6307185" lon="11.4323242"><ele>273.0</ele><time>2026-05-02T10:34:46.971Z</time></trkpt><trkpt lat="43.6306416" lon="11.4324418"><ele>273.0</ele><time>2026-05-02T10:34:47.971Z</time></trkpt><trkpt lat="43.6305414" lon="11.4325393"><ele>273.0</ele><time>2026-05-02T10:34:48.972Z</time></trkpt><trkpt lat="43.6304349" lon="11.4326024"><ele>273.0</ele><time>2026-05-02T10:34:49.971Z</time></trkpt><trkpt lat="43.6303505" lon="11.4326367"><ele>273.0</ele><time>2026-05-02T10:34:50.972Z</time></trkpt><trkpt lat="43.6302774" lon="11.4326686"><ele>275.0</ele><time>2026-05-02T10:34:51.972Z</time></trkpt><trkpt lat="43.6301817" lon="11.4327045"><ele>277.0</ele><time>2026-05-02T10:34:52.971Z</time></trkpt><trkpt lat="43.6300738" lon="11.4327436"><ele>279.0</ele><time>2026-05-02T10:34:53.972Z</time></trkpt><trkpt lat="43.629945" lon="11.4327886"><ele>281.0</ele><time>2026-05-02T10:34:54.971Z</time></trkpt><trkpt lat="43.6298091" lon="11.4328101"><ele>281.0</ele><time>2026-05-02T10:34:55.972Z</time></trkpt><trkpt lat="43.6296639" lon="11.4328234"><ele>281.0</ele><time>2026-05-02T10:34:56.972Z</time></trkpt><trkpt lat="43.6295153" lon="11.4328511"><ele>281.0</ele><time>2026-05-02T10:34:57.971Z</time></trkpt><trkpt lat="43.6293649" lon="11.432881"><ele>281.0</ele><time>2026-05-02T10:34:58.971Z</time></trkpt><trkpt lat="43.6292106" lon="11.4329183"><ele>281.0</ele><time>2026-05-02T10:34:59.971Z</time></trkpt><trkpt lat="43.6290658" lon="11.4329673"><ele>281.0</ele><time>2026-05-02T10:35:00.971Z</time></trkpt><trkpt lat="43.6289401" lon="11.4330327"><ele>281.0</ele><time>2026-05-02T10:35:01.971Z</time></trkpt><trkpt lat="43.6288052" lon="11.4331081"><ele>281.0</ele><time>2026-05-02T10:35:02.971Z</time></trkpt><trkpt lat="43.6286744" lon="11.4331948"><ele>278.25</ele><time>2026-05-02T10:35:03.971Z</time></trkpt><trkpt lat="43.6285392" lon="11.433278"><ele>275.5</ele><time>2026-05-02T10:35:04.971Z</time></trkpt><trkpt lat="43.6284138" lon="11.4333551"><ele>272.75</ele><time>2026-05-02T10:35:05.972Z</time></trkpt><trkpt lat="43.628289" lon="11.4334138"><ele>270.0</ele><time>2026-05-02T10:35:06.971Z</time></trkpt><trkpt lat="43.6281636" lon="11.4334706"><ele>270.0</ele><time>2026-05-02T10:35:07.971Z</time></trkpt><trkpt lat="43.6280417" lon="11.4334984"><ele>270.0</ele><time>2026-05-02T10:35:08.971Z</time></trkpt><trkpt lat="43.6279173" lon="11.4335085"><ele>270.0</ele><time>2026-05-02T10:35:09.971Z</time></trkpt><trkpt lat="43.6277936" lon="11.433502"><ele>270.0</ele><time>2026-05-02T10:35:10.971Z</time></trkpt><trkpt lat="43.6276751" lon="11.4335174"><ele>269.75</ele><time>2026-05-02T10:35:11.971Z</time></trkpt><trkpt lat="43.6275605" lon="11.4335592"><ele>269.5</ele><time>2026-05-02T10:35:12.971Z</time></trkpt><trkpt lat="43.6274432" lon="11.4336343"><ele>269.25</ele><time>2026-05-02T10:35:13.971Z</time></trkpt><trkpt lat="43.6273239" lon="11.4337161"><ele>269.0</ele><time>2026-05-02T10:35:14.971Z</time></trkpt><trkpt lat="43.6272162" lon="11.4337959"><ele>266.5</ele><time>2026-05-02T10:35:15.972Z</time></trkpt><trkpt lat="43.6271214" lon="11.4338741"><ele>264.0</ele><time>2026-05-02T10:35:16.971Z</time></trkpt><trkpt lat="43.627053" lon="11.4339995"><ele>261.5</ele><time>2026-05-02T10:35:17.971Z</time></trkpt><trkpt lat="43.6270152" lon="11.4341622"><ele>259.0</ele><time>2026-05-02T10:35:18.971Z</time></trkpt><trkpt lat="43.6269802" lon="11.434333"><ele>259.75</ele><time>2026-05-02T10:35:19.972Z</time></trkpt><trkpt lat="43.6269484" lon="11.4345019"><ele>260.5</ele><time>2026-05-02T10:35:20.972Z</time></trkpt><trkpt lat="43.6269149" lon="11.4346651"><ele>261.25</ele><time>2026-05-02T10:35:21.971Z</time></trkpt><trkpt lat="43.6268625" lon="11.4348181"><ele>262.0</ele><time>2026-05-02T10:35:22.971Z</time></trkpt><trkpt lat="43.6267961" lon="11.4349345"><ele>262.0</ele><time>2026-05-02T10:35:23.971Z</time></trkpt><trkpt lat="43.6267179" lon="11.4350383"><ele>262.0</ele><time>2026-05-02T10:35:24.971Z</time></trkpt><trkpt lat="43.6266157" lon="11.4351063"><ele>262.0</ele><time>2026-05-02T10:35:25.971Z</time></trkpt><trkpt lat="43.6264975" lon="11.4351676"><ele>262.0</ele><time>2026-05-02T10:35:26.971Z</time></trkpt><trkpt lat="43.6263743" lon="11.4352255"><ele>262.0</ele><time>2026-05-02T10:35:27.972Z</time></trkpt><trkpt lat="43.6262524" lon="11.4352838"><ele>262.0</ele><time>2026-05-02T10:35:28.972Z</time></trkpt><trkpt lat="43.6261317" lon="11.4353411"><ele>262.0</ele><time>2026-05-02T10:35:29.972Z</time></trkpt><trkpt lat="43.6260024" lon="11.4353852"><ele>262.0</ele><time>2026-05-02T10:35:30.971Z</time></trkpt><trkpt lat="43.6258703" lon="11.435409"><ele>261.25</ele><time>2026-05-02T10:35:31.972Z</time></trkpt><trkpt lat="43.6257391" lon="11.435425"><ele>260.5</ele><time>2026-05-02T10:35:32.971Z</time></trkpt><trkpt lat="43.6256154" lon="11.4354426"><ele>259.75</ele><time>2026-05-02T10:35:33.971Z</time></trkpt><trkpt lat="43.6255022" lon="11.4354958"><ele>259.0</ele><time>2026-05-02T10:35:34.971Z</time></trkpt><trkpt lat="43.6254005" lon="11.4355965"><ele>260.5</ele><time>2026-05-02T10:35:35.971Z</time></trkpt><trkpt lat="43.6253054" lon="11.4357271"><ele>262.0</ele><time>2026-05-02T10:35:36.971Z</time></trkpt><trkpt lat="43.6252092" lon="11.4358455"><ele>263.5</ele><time>2026-05-02T10:35:37.971Z</time></trkpt><trkpt lat="43.6251162" lon="11.4359383"><ele>265.0</ele><time>2026-05-02T10:35:38.972Z</time></trkpt><trkpt lat="43.6250258" lon="11.4359995"><ele>265.0</ele><time>2026-05-02T10:35:39.972Z</time></trkpt><trkpt lat="43.6249353" lon="11.4360286"><ele>265.0</ele><time>2026-05-02T10:35:40.971Z</time></trkpt><trkpt lat="43.6248375" lon="11.4360306"><ele>265.0</ele><time>2026-05-02T10:35:41.971Z</time></trkpt><trkpt lat="43.6247416" lon="11.4359981"><ele>265.0</ele><time>2026-05-02T10:35:42.971Z</time></trkpt><trkpt lat="43.6246572" lon="11.4359106"><ele>265.0</ele><time>2026-05-02T10:35:43.971Z</time></trkpt><trkpt lat="43.6245874" lon="11.4357892"><ele>265.0</ele><time>2026-05-02T10:35:44.972Z</time></trkpt><trkpt lat="43.6245303" lon="11.4356477"><ele>265.0</ele><time>2026-05-02T10:35:45.971Z</time></trkpt><trkpt lat="43.6244848" lon="11.4354949"><ele>265.0</ele><time>2026-05-02T10:35:46.971Z</time></trkpt><trkpt lat="43.6244226" lon="11.4353675"><ele>265.0</ele><time>2026-05-02T10:35:47.971Z</time></trkpt><trkpt lat="43.6243274" lon="11.4352956"><ele>267.5</ele><time>2026-05-02T10:35:48.972Z</time></trkpt><trkpt lat="43.624214" lon="11.4352318"><ele>270.0</ele><time>2026-05-02T10:35:49.971Z</time></trkpt><trkpt lat="43.6240954" lon="11.4351803"><ele>272.5</ele><time>2026-05-02T10:35:50.971Z</time></trkpt><trkpt lat="43.6239746" lon="11.4351196"><ele>275.0</ele><time>2026-05-02T10:35:51.972Z</time></trkpt><trkpt lat="43.6238651" lon="11.4350726"><ele>275.0</ele><time>2026-05-02T10:35:52.971Z</time></trkpt><trkpt lat="43.6237574" lon="11.4350619"><ele>275.0</ele><time>2026-05-02T10:35:53.972Z</time></trkpt><trkpt lat="43.6236444" lon="11.4351367"><ele>275.0</ele><time>2026-05-02T10:35:54.971Z</time></trkpt><trkpt lat="43.6235199" lon="11.4352162"><ele>275.0</ele><time>2026-05-02T10:35:55.971Z</time></trkpt><trkpt lat="43.6233996" lon="11.4352336"><ele>275.8</ele><time>2026-05-02T10:35:56.972Z</time></trkpt><trkpt lat="43.6232788" lon="11.4352173"><ele>276.6</ele><time>2026-05-02T10:35:57.971Z</time></trkpt><trkpt lat="43.6231668" lon="11.4351842"><ele>277.4</ele><time>2026-05-02T10:35:58.971Z</time></trkpt><trkpt lat="43.6230749" lon="11.4351707"><ele>278.2</ele><time>2026-05-02T10:35:59.972Z</time></trkpt><trkpt lat="43.6230069" lon="11.4351598"><ele>279.0</ele><time>2026-05-02T10:36:00.972Z</time></trkpt><trkpt lat="43.6229281" lon="11.4351645"><ele>279.0</ele><time>2026-05-02T10:36:01.971Z</time></trkpt><trkpt lat="43.6228404" lon="11.4352013"><ele>279.0</ele><time>2026-05-02T10:36:02.971Z</time></trkpt><trkpt lat="43.6227383" lon="11.4352724"><ele>279.0</ele><time>2026-05-02T10:36:03.972Z</time></trkpt><trkpt lat="43.6226483" lon="11.4353714"><ele>279.0</ele><time>2026-05-02T10:36:04.971Z</time></trkpt><trkpt lat="43.6225642" lon="11.4354733"><ele>279.0</ele><time>2026-05-02T10:36:05.971Z</time></trkpt><trkpt lat="43.6224677" lon="11.4355592"><ele>277.75</ele><time>2026-05-02T10:36:06.971Z</time></trkpt><trkpt lat="43.6223384" lon="11.4355736"><ele>276.5</ele><time>2026-05-02T10:36:07.971Z</time></trkpt><trkpt lat="43.6222086" lon="11.4355341"><ele>275.25</ele><time>2026-05-02T10:36:08.971Z</time></trkpt><trkpt lat="43.6220797" lon="11.4354897"><ele>274.0</ele><time>2026-05-02T10:36:09.971Z</time></trkpt><trkpt lat="43.6219468" lon="11.4354587"><ele>277.75</ele><time>2026-05-02T10:36:10.972Z</time></trkpt><trkpt lat="43.6218096" lon="11.435435"><ele>281.5</ele><time>2026-05-02T10:36:11.971Z</time></trkpt><trkpt lat="43.6216661" lon="11.435405"><ele>285.25</ele><time>2026-05-02T10:36:12.971Z</time></trkpt><trkpt lat="43.6215179" lon="11.4353718"><ele>289.0</ele><time>2026-05-02T10:36:13.971Z</time></trkpt><trkpt lat="43.6213696" lon="11.4353291"><ele>289.0</ele><time>2026-05-02T10:36:14.971Z</time></trkpt><trkpt lat="43.6212171" lon="11.4352902"><ele>289.0</ele><time>2026-05-02T10:36:15.971Z</time></trkpt><trkpt lat="43.6210662" lon="11.4352437"><ele>289.0</ele><time>2026-05-02T10:36:16.971Z</time></trkpt><trkpt lat="43.6209162" lon="11.435225"><ele>287.0</ele><time>2026-05-02T10:36:17.971Z</time></trkpt><trkpt lat="43.6207615" lon="11.4352486"><ele>285.0</ele><time>2026-05-02T10:36:18.971Z</time></trkpt><trkpt lat="43.6206082" lon="11.4352864"><ele>283.0</ele><time>2026-05-02T10:36:19.971Z</time></trkpt><trkpt lat="43.6204543" lon="11.4353259"><ele>284.0</ele><time>2026-05-02T10:36:20.971Z</time></trkpt><trkpt lat="43.6203154" lon="11.4353478"><ele>285.0</ele><time>2026-05-02T10:36:21.972Z</time></trkpt><trkpt lat="43.620186" lon="11.4353769"><ele>286.0</ele><time>2026-05-02T10:36:22.971Z</time></trkpt><trkpt lat="43.6200683" lon="11.4353993"><ele>287.0</ele><time>2026-05-02T10:36:23.972Z</time></trkpt><trkpt lat="43.6199698" lon="11.4354108"><ele>287.0</ele><time>2026-05-02T10:36:24.971Z</time></trkpt><trkpt lat="43.6198898" lon="11.4354198"><ele>287.0</ele><time>2026-05-02T10:36:25.971Z</time></trkpt><trkpt lat="43.6198092" lon="11.435397"><ele>287.0</ele><time>2026-05-02T10:36:27.971Z</time></trkpt><trkpt lat="43.6198125" lon="11.4352577"><ele>287.0</ele><time>2026-05-02T10:36:29.972Z</time></trkpt><trkpt lat="43.6198469" lon="11.4351669"><ele>287.0</ele><time>2026-05-02T10:36:30.972Z</time></trkpt><trkpt lat="43.619895" lon="11.4350562"><ele>287.0</ele><time>2026-05-02T10:36:31.971Z</time></trkpt><trkpt lat="43.6199409" lon="11.4349233"><ele>287.0</ele><time>2026-05-02T10:36:32.971Z</time></trkpt><trkpt lat="43.6199867" lon="11.4347828"><ele>287.0</ele><time>2026-05-02T10:36:33.971Z</time></trkpt><trkpt lat="43.6200314" lon="11.4346443"><ele>287.0</ele><time>2026-05-02T10:36:34.971Z</time></trkpt><trkpt lat="43.6200821" lon="11.4345158"><ele>287.0</ele><time>2026-05-02T10:36:35.971Z</time></trkpt><trkpt lat="43.620143" lon="11.4343917"><ele>287.0</ele><time>2026-05-02T10:36:36.972Z</time></trkpt><trkpt lat="43.6202252" lon="11.4342788"><ele>289.5</ele><time>2026-05-02T10:36:37.971Z</time></trkpt><trkpt lat="43.6203297" lon="11.4341866"><ele>292.0</ele><time>2026-05-02T10:36:38.972Z</time></trkpt><trkpt lat="43.6204374" lon="11.4340927"><ele>294.5</ele><time>2026-05-02T10:36:39.971Z</time></trkpt><trkpt lat="43.6205513" lon="11.4340088"><ele>297.0</ele><time>2026-05-02T10:36:40.972Z</time></trkpt><trkpt lat="43.6206539" lon="11.4339169"><ele>297.0</ele><time>2026-05-02T10:36:41.971Z</time></trkpt><trkpt lat="43.6207602" lon="11.4338265"><ele>297.0</ele><time>2026-05-02T10:36:42.971Z</time></trkpt><trkpt lat="43.6208673" lon="11.4337367"><ele>297.0</ele><time>2026-05-02T10:36:43.971Z</time></trkpt><trkpt lat="43.6209779" lon="11.4336552"><ele>297.0</ele><time>2026-05-02T10:36:44.971Z</time></trkpt><trkpt lat="43.6210862" lon="11.4335819"><ele>301.0</ele><time>2026-05-02T10:36:45.971Z</time></trkpt><trkpt lat="43.6211834" lon="11.4335217"><ele>305.0</ele><time>2026-05-02T10:36:46.972Z</time></trkpt><trkpt lat="43.6212798" lon="11.433478"><ele>309.0</ele><time>2026-05-02T10:36:47.971Z</time></trkpt><trkpt lat="43.6213611" lon="11.4334625"><ele>313.0</ele><time>2026-05-02T10:36:48.971Z</time></trkpt><trkpt lat="43.6214313" lon="11.4334927"><ele>317.0</ele><time>2026-05-02T10:36:49.971Z</time></trkpt><trkpt lat="43.6215043" lon="11.4335535"><ele>321.0</ele><time>2026-05-02T10:36:50.971Z</time></trkpt><trkpt lat="43.6215717" lon="11.433653"><ele>321.0</ele><time>2026-05-02T10:36:51.971Z</time></trkpt><trkpt lat="43.6216455" lon="11.4337337"><ele>321.0</ele><time>2026-05-02T10:36:52.971Z</time></trkpt><trkpt lat="43.6217272" lon="11.433797"><ele>321.0</ele><time>2026-05-02T10:36:53.971Z</time></trkpt><trkpt lat="43.621815" lon="11.4338275"><ele>321.0</ele><time>2026-05-02T10:36:54.971Z</time></trkpt><trkpt lat="43.6219095" lon="11.4338083"><ele>321.0</ele><time>2026-05-02T10:36:55.971Z</time></trkpt><trkpt lat="43.621993" lon="11.4337662"><ele>321.0</ele><time>2026-05-02T10:36:56.971Z</time></trkpt><trkpt lat="43.6220697" lon="11.4336894"><ele>321.0</ele><time>2026-05-02T10:36:57.971Z</time></trkpt><trkpt lat="43.6221577" lon="11.4335767"><ele>321.0</ele><time>2026-05-02T10:36:58.971Z</time></trkpt><trkpt lat="43.6222487" lon="11.4334955"><ele>321.0</ele><time>2026-05-02T10:36:59.971Z</time></trkpt><trkpt lat="43.6223442" lon="11.4334532"><ele>321.0</ele><time>2026-05-02T10:37:00.972Z</time></trkpt><trkpt lat="43.6224449" lon="11.4334465"><ele>321.0</ele><time>2026-05-02T10:37:01.972Z</time></trkpt><trkpt lat="43.6225283" lon="11.4334376"><ele>321.0</ele><time>2026-05-02T10:37:02.971Z</time></trkpt><trkpt lat="43.6226058" lon="11.4334013"><ele>321.0</ele><time>2026-05-02T10:37:03.972Z</time></trkpt><trkpt lat="43.6226705" lon="11.4333095"><ele>321.0</ele><time>2026-05-02T10:37:04.972Z</time></trkpt><trkpt lat="43.622717" lon="11.4331769"><ele>321.0</ele><time>2026-05-02T10:37:05.971Z</time></trkpt><trkpt lat="43.6227369" lon="11.4330477"><ele>321.3333333333333</ele><time>2026-05-02T10:37:06.971Z</time></trkpt><trkpt lat="43.622758" lon="11.4329405"><ele>321.6666666666667</ele><time>2026-05-02T10:37:07.971Z</time></trkpt><trkpt lat="43.6228088" lon="11.4328783"><ele>322.0</ele><time>2026-05-02T10:37:08.971Z</time></trkpt><trkpt lat="43.6228876" lon="11.4328312"><ele>322.33333333333337</ele><time>2026-05-02T10:37:09.972Z</time></trkpt><trkpt lat="43.6229803" lon="11.4328096"><ele>322.6666666666667</ele><time>2026-05-02T10:37:10.971Z</time></trkpt><trkpt lat="43.6230635" lon="11.432778"><ele>323.0</ele><time>2026-05-02T10:37:11.972Z</time></trkpt><trkpt lat="43.6231266" lon="11.4327192"><ele>323.0</ele><time>2026-05-02T10:37:12.971Z</time></trkpt><trkpt lat="43.6231712" lon="11.4326278"><ele>323.0</ele><time>2026-05-02T10:37:13.972Z</time></trkpt><trkpt lat="43.6231888" lon="11.43249"><ele>323.0</ele><time>2026-05-02T10:37:14.971Z</time></trkpt><trkpt lat="43.6232078" lon="11.4323367"><ele>323.0</ele><time>2026-05-02T10:37:15.971Z</time></trkpt><trkpt lat="43.6232348" lon="11.432179"><ele>323.0</ele><time>2026-05-02T10:37:16.971Z</time></trkpt><trkpt lat="43.6232809" lon="11.4320388"><ele>324.59999999999997</ele><time>2026-05-02T10:37:17.971Z</time></trkpt><trkpt lat="43.6233336" lon="11.4319327"><ele>326.2</ele><time>2026-05-02T10:37:18.971Z</time></trkpt><trkpt lat="43.6234069" lon="11.4318549"><ele>327.8</ele><time>2026-05-02T10:37:19.971Z</time></trkpt><trkpt lat="43.6235016" lon="11.4317954"><ele>329.4</ele><time>2026-05-02T10:37:20.971Z</time></trkpt><trkpt lat="43.6236138" lon="11.4317414"><ele>331.0</ele><time>2026-05-02T10:37:21.971Z</time></trkpt><trkpt lat="43.6237345" lon="11.4317008"><ele>331.0</ele><time>2026-05-02T10:37:22.971Z</time></trkpt><trkpt lat="43.6238522" lon="11.4316459"><ele>331.0</ele><time>2026-05-02T10:37:23.971Z</time></trkpt><trkpt lat="43.6239709" lon="11.4315616"><ele>331.0</ele><time>2026-05-02T10:37:24.971Z</time></trkpt><trkpt lat="43.6240963" lon="11.4314686"><ele>331.0</ele><time>2026-05-02T10:37:25.971Z</time></trkpt><trkpt lat="43.6242203" lon="11.4313712"><ele>331.75</ele><time>2026-05-02T10:37:26.971Z</time></trkpt><trkpt lat="43.6243458" lon="11.4312648"><ele>332.5</ele><time>2026-05-02T10:37:27.971Z</time></trkpt><trkpt lat="43.6244716" lon="11.4311572"><ele>333.25</ele><time>2026-05-02T10:37:28.971Z</time></trkpt><trkpt lat="43.6245931" lon="11.4310585"><ele>334.0</ele><time>2026-05-02T10:37:29.972Z</time></trkpt><trkpt lat="43.6247001" lon="11.4309955"><ele>334.25</ele><time>2026-05-02T10:37:30.971Z</time></trkpt><trkpt lat="43.62482" lon="11.430948"><ele>334.5</ele><time>2026-05-02T10:37:31.971Z</time></trkpt><trkpt lat="43.6249365" lon="11.4308773"><ele>334.75</ele><time>2026-05-02T10:37:32.972Z</time></trkpt><trkpt lat="43.6250413" lon="11.4307681"><ele>335.0</ele><time>2026-05-02T10:37:33.971Z</time></trkpt><trkpt lat="43.6251476" lon="11.4306508"><ele>335.0</ele><time>2026-05-02T10:37:34.972Z</time></trkpt><trkpt lat="43.6252475" lon="11.4305409"><ele>335.0</ele><time>2026-05-02T10:37:35.971Z</time></trkpt><trkpt lat="43.62535" lon="11.4304397"><ele>335.0</ele><time>2026-05-02T10:37:36.971Z</time></trkpt><trkpt lat="43.6254597" lon="11.4303649"><ele>335.0</ele><time>2026-05-02T10:37:37.971Z</time></trkpt><trkpt lat="43.6255684" lon="11.430311"><ele>338.5</ele><time>2026-05-02T10:37:38.971Z</time></trkpt><trkpt lat="43.6256839" lon="11.4302693"><ele>342.0</ele><time>2026-05-02T10:37:39.972Z</time></trkpt><trkpt lat="43.6258222" lon="11.4302227"><ele>345.5</ele><time>2026-05-02T10:37:40.971Z</time></trkpt><trkpt lat="43.6259667" lon="11.4301888"><ele>349.0</ele><time>2026-05-02T10:37:41.971Z</time></trkpt><trkpt lat="43.6260845" lon="11.4301636"><ele>348.8333333333333</ele><time>2026-05-02T10:37:42.971Z</time></trkpt><trkpt lat="43.6261829" lon="11.4301498"><ele>348.66666666666663</ele><time>2026-05-02T10:37:43.972Z</time></trkpt><trkpt lat="43.6262504" lon="11.4301217"><ele>348.5</ele><time>2026-05-02T10:37:44.972Z</time></trkpt><trkpt lat="43.6263111" lon="11.4300537"><ele>348.3333333333333</ele><time>2026-05-02T10:37:45.972Z</time></trkpt><trkpt lat="43.6263504" lon="11.4299379"><ele>348.1666666666667</ele><time>2026-05-02T10:37:46.971Z</time></trkpt><trkpt lat="43.6263911" lon="11.4298002"><ele>348.0</ele><time>2026-05-02T10:37:47.971Z</time></trkpt><trkpt lat="43.6264492" lon="11.4296355"><ele>348.0</ele><time>2026-05-02T10:37:48.971Z</time></trkpt><trkpt lat="43.6265003" lon="11.4294555"><ele>348.0</ele><time>2026-05-02T10:37:49.972Z</time></trkpt><trkpt lat="43.6265528" lon="11.4292835"><ele>348.0</ele><time>2026-05-02T10:37:50.971Z</time></trkpt><trkpt lat="43.6266005" lon="11.4291218"><ele>348.0</ele><time>2026-05-02T10:37:51.971Z</time></trkpt><trkpt lat="43.6266394" lon="11.4289879"><ele>348.0</ele><time>2026-05-02T10:37:52.971Z</time></trkpt><trkpt lat="43.6266623" lon="11.4288543"><ele>348.0</ele><time>2026-05-02T10:37:53.971Z</time></trkpt><trkpt lat="43.6266448" lon="11.4287285"><ele>348.0</ele><time>2026-05-02T10:37:54.971Z</time></trkpt><trkpt lat="43.6266043" lon="11.4285965"><ele>348.0</ele><time>2026-05-02T10:37:55.971Z</time></trkpt><trkpt lat="43.6265855" lon="11.42849"><ele>348.0</ele><time>2026-05-02T10:37:56.971Z</time></trkpt><trkpt lat="43.6265966" lon="11.4283998"><ele>348.0</ele><time>2026-05-02T10:37:57.972Z</time></trkpt><trkpt lat="43.6266356" lon="11.4283029"><ele>349.25</ele><time>2026-05-02T10:37:58.971Z</time></trkpt><trkpt lat="43.6267005" lon="11.4281892"><ele>350.5</ele><time>2026-05-02T10:37:59.971Z</time></trkpt><trkpt lat="43.6267864" lon="11.4280617"><ele>351.75</ele><time>2026-05-02T10:38:00.971Z</time></trkpt><trkpt lat="43.6268765" lon="11.4279336"><ele>353.0</ele><time>2026-05-02T10:38:01.972Z</time></trkpt><trkpt lat="43.6269745" lon="11.4278079"><ele>352.25</ele><time>2026-05-02T10:38:02.971Z</time></trkpt><trkpt lat="43.6270653" lon="11.4276887"><ele>351.5</ele><time>2026-05-02T10:38:03.971Z</time></trkpt><trkpt lat="43.6271468" lon="11.4275625"><ele>350.75</ele><time>2026-05-02T10:38:04.971Z</time></trkpt><trkpt lat="43.6272066" lon="11.4274225"><ele>350.0</ele><time>2026-05-02T10:38:05.971Z</time></trkpt><trkpt lat="43.6272383" lon="11.4272559"><ele>352.25</ele><time>2026-05-02T10:38:06.971Z</time></trkpt><trkpt lat="43.6272604" lon="11.4270702"><ele>354.5</ele><time>2026-05-02T10:38:07.972Z</time></trkpt><trkpt lat="43.6272884" lon="11.4268785"><ele>356.75</ele><time>2026-05-02T10:38:08.972Z</time></trkpt><trkpt lat="43.6273139" lon="11.4266648"><ele>359.0</ele><time>2026-05-02T10:38:09.972Z</time></trkpt><trkpt lat="43.62734" lon="11.426463"><ele>362.0</ele><time>2026-05-02T10:38:10.972Z</time></trkpt><trkpt lat="43.6273645" lon="11.4262712"><ele>365.0</ele><time>2026-05-02T10:38:11.972Z</time></trkpt><trkpt lat="43.6273818" lon="11.4261013"><ele>368.0</ele><time>2026-05-02T10:38:12.972Z</time></trkpt><trkpt lat="43.6274091" lon="11.4259607"><ele>371.0</ele><time>2026-05-02T10:38:13.971Z</time></trkpt><trkpt lat="43.62746" lon="11.4258188"><ele>371.0</ele><time>2026-05-02T10:38:14.971Z</time></trkpt><trkpt lat="43.6275388" lon="11.4256888"><ele>371.0</ele><time>2026-05-02T10:38:15.972Z</time></trkpt><trkpt lat="43.6276278" lon="11.4255509"><ele>371.0</ele><time>2026-05-02T10:38:16.971Z</time></trkpt><trkpt lat="43.6277262" lon="11.425409"><ele>371.0</ele><time>2026-05-02T10:38:17.971Z</time></trkpt><trkpt lat="43.6278398" lon="11.4252584"><ele>372.75</ele><time>2026-05-02T10:38:18.971Z</time></trkpt><trkpt lat="43.6279435" lon="11.4251096"><ele>374.5</ele><time>2026-05-02T10:38:19.971Z</time></trkpt><trkpt lat="43.628048" lon="11.4249616"><ele>376.25</ele><time>2026-05-02T10:38:20.971Z</time></trkpt><trkpt lat="43.6281515" lon="11.4248384"><ele>378.0</ele><time>2026-05-02T10:38:21.972Z</time></trkpt><trkpt lat="43.6282469" lon="11.4247131"><ele>382.0</ele><time>2026-05-02T10:38:22.971Z</time></trkpt><trkpt lat="43.6283281" lon="11.4246091"><ele>386.0</ele><time>2026-05-02T10:38:23.971Z</time></trkpt><trkpt lat="43.6283992" lon="11.4245186"><ele>390.0</ele><time>2026-05-02T10:38:24.971Z</time></trkpt><trkpt lat="43.6284522" lon="11.4243851"><ele>394.0</ele><time>2026-05-02T10:38:25.972Z</time></trkpt><trkpt lat="43.6284922" lon="11.424206"><ele>394.0</ele><time>2026-05-02T10:38:26.971Z</time></trkpt><trkpt lat="43.628537" lon="11.4240387"><ele>394.0</ele><time>2026-05-02T10:38:27.972Z</time></trkpt><trkpt lat="43.6285838" lon="11.4238709"><ele>394.0</ele><time>2026-05-02T10:38:28.971Z</time></trkpt><trkpt lat="43.628647" lon="11.4236873"><ele>394.0</ele><time>2026-05-02T10:38:29.971Z</time></trkpt><trkpt lat="43.6287074" lon="11.4235031"><ele>392.6</ele><time>2026-05-02T10:38:30.972Z</time></trkpt><trkpt lat="43.6287608" lon="11.423338"><ele>391.2</ele><time>2026-05-02T10:38:31.972Z</time></trkpt><trkpt lat="43.6288051" lon="11.4231854"><ele>389.8</ele><time>2026-05-02T10:38:32.972Z</time></trkpt><trkpt lat="43.6288352" lon="11.423059"><ele>388.40000000000003</ele><time>2026-05-02T10:38:33.972Z</time></trkpt><trkpt lat="43.628854" lon="11.422952"><ele>387.0</ele><time>2026-05-02T10:38:34.971Z</time></trkpt><trkpt lat="43.6288536" lon="11.4228545"><ele>387.0</ele><time>2026-05-02T10:38:35.971Z</time></trkpt><trkpt lat="43.6288141" lon="11.4227754"><ele>387.0</ele><time>2026-05-02T10:38:36.971Z</time></trkpt><trkpt lat="43.62876" lon="11.422683"><ele>387.0</ele><time>2026-05-02T10:38:37.971Z</time></trkpt><trkpt lat="43.6286882" lon="11.4225841"><ele>387.0</ele><time>2026-05-02T10:38:38.971Z</time></trkpt><trkpt lat="43.6286207" lon="11.422486"><ele>387.0</ele><time>2026-05-02T10:38:39.972Z</time></trkpt><trkpt lat="43.6285819" lon="11.4223747"><ele>387.0</ele><time>2026-05-02T10:38:40.971Z</time></trkpt><trkpt lat="43.6285673" lon="11.4222402"><ele>392.6</ele><time>2026-05-02T10:38:41.972Z</time></trkpt><trkpt lat="43.6285372" lon="11.4220852"><ele>398.20000000000005</ele><time>2026-05-02T10:38:42.971Z</time></trkpt><trkpt lat="43.628493" lon="11.4219307"><ele>403.8</ele><time>2026-05-02T10:38:43.971Z</time></trkpt><trkpt lat="43.6284383" lon="11.4218023"><ele>409.4</ele><time>2026-05-02T10:38:44.972Z</time></trkpt><trkpt lat="43.6284164" lon="11.4216713"><ele>415.0</ele><time>2026-05-02T10:38:45.972Z</time></trkpt><trkpt lat="43.6284486" lon="11.4215956"><ele>415.0</ele><time>2026-05-02T10:38:46.971Z</time></trkpt><trkpt lat="43.6285209" lon="11.4215239"><ele>415.0</ele><time>2026-05-02T10:38:47.971Z</time></trkpt><trkpt lat="43.6285968" lon="11.4214636"><ele>415.0</ele><time>2026-05-02T10:38:48.971Z</time></trkpt><trkpt lat="43.6286885" lon="11.4213933"><ele>415.0</ele><time>2026-05-02T10:38:49.971Z</time></trkpt><trkpt lat="43.6287829" lon="11.4213557"><ele>415.0</ele><time>2026-05-02T10:38:50.971Z</time></trkpt><trkpt lat="43.6288737" lon="11.4213395"><ele>413.83333333333337</ele><time>2026-05-02T10:38:51.971Z</time></trkpt><trkpt lat="43.628959" lon="11.4213134"><ele>412.6666666666667</ele><time>2026-05-02T10:38:52.971Z</time></trkpt><trkpt lat="43.6290105" lon="11.4212321"><ele>411.5</ele><time>2026-05-02T10:38:53.972Z</time></trkpt><trkpt lat="43.629039" lon="11.4211141"><ele>410.33333333333337</ele><time>2026-05-02T10:38:54.971Z</time></trkpt><trkpt lat="43.629055" lon="11.4210004"><ele>409.1666666666667</ele><time>2026-05-02T10:38:55.971Z</time></trkpt><trkpt lat="43.6290306" lon="11.4208607"><ele>408.0</ele><time>2026-05-02T10:38:56.971Z</time></trkpt><trkpt lat="43.6289791" lon="11.4207358"><ele>408.0</ele><time>2026-05-02T10:38:57.971Z</time></trkpt><trkpt lat="43.6289281" lon="11.4206417"><ele>408.0</ele><time>2026-05-02T10:38:58.972Z</time></trkpt><trkpt lat="43.6288664" lon="11.420582"><ele>408.0</ele><time>2026-05-02T10:38:59.971Z</time></trkpt><trkpt lat="43.6287886" lon="11.4205789"><ele>408.0</ele><time>2026-05-02T10:39:00.971Z</time></trkpt><trkpt lat="43.6287134" lon="11.4206114"><ele>408.0</ele><time>2026-05-02T10:39:01.972Z</time></trkpt><trkpt lat="43.6286331" lon="11.4206685"><ele>408.0</ele><time>2026-05-02T10:39:02.972Z</time></trkpt><trkpt lat="43.6285324" lon="11.4207436"><ele>411.79999999999995</ele><time>2026-05-02T10:39:03.971Z</time></trkpt><trkpt lat="43.6284269" lon="11.4208206"><ele>415.6</ele><time>2026-05-02T10:39:04.971Z</time></trkpt><trkpt lat="43.6283307" lon="11.4208764"><ele>419.40000000000003</ele><time>2026-05-02T10:39:05.971Z</time></trkpt><trkpt lat="43.6282508" lon="11.4209087"><ele>423.20000000000005</ele><time>2026-05-02T10:39:06.971Z</time></trkpt><trkpt lat="43.6281767" lon="11.4208758"><ele>427.0</ele><time>2026-05-02T10:39:07.972Z</time></trkpt><trkpt lat="43.6281277" lon="11.4208167"><ele>427.0</ele><time>2026-05-02T10:39:08.972Z</time></trkpt><trkpt lat="43.6280803" lon="11.4207239"><ele>427.00000000000006</ele><time>2026-05-02T10:39:09.972Z</time></trkpt><trkpt lat="43.6280482" lon="11.420619"><ele>427.00000000000006</ele><time>2026-05-02T10:39:10.971Z</time></trkpt><trkpt lat="43.6280382" lon="11.4204978"><ele>427.0</ele><time>2026-05-02T10:39:11.971Z</time></trkpt><trkpt lat="43.628031" lon="11.4203469"><ele>427.0</ele><time>2026-05-02T10:39:12.971Z</time></trkpt><trkpt lat="43.6280254" lon="11.4201919"><ele>428.75</ele><time>2026-05-02T10:39:13.971Z</time></trkpt><trkpt lat="43.6280164" lon="11.4200181"><ele>430.5</ele><time>2026-05-02T10:39:14.971Z</time></trkpt><trkpt lat="43.6280221" lon="11.4198269"><ele>432.25</ele><time>2026-05-02T10:39:15.972Z</time></trkpt><trkpt lat="43.6280224" lon="11.4196465"><ele>434.0</ele><time>2026-05-02T10:39:16.971Z</time></trkpt><trkpt lat="43.6280167" lon="11.4194927"><ele>436.2</ele><time>2026-05-02T10:39:17.971Z</time></trkpt><trkpt lat="43.6280094" lon="11.4193737"><ele>438.4</ele><time>2026-05-02T10:39:18.972Z</time></trkpt><trkpt lat="43.6280291" lon="11.4192392"><ele>440.6</ele><time>2026-05-02T10:39:20.971Z</time></trkpt><trkpt lat="43.6280993" lon="11.4192002"><ele>442.8</ele><time>2026-05-02T10:39:22.971Z</time></trkpt><trkpt lat="43.6282193" lon="11.4191539"><ele>445.0</ele><time>2026-05-02T10:39:24.971Z</time></trkpt><trkpt lat="43.6282908" lon="11.4191133"><ele>445.00000000000006</ele><time>2026-05-02T10:39:25.972Z</time></trkpt><trkpt lat="43.6283513" lon="11.4190466"><ele>445.0</ele><time>2026-05-02T10:39:26.971Z</time></trkpt><trkpt lat="43.6284129" lon="11.418954"><ele>445.0</ele><time>2026-05-02T10:39:27.971Z</time></trkpt><trkpt lat="43.6284665" lon="11.4188615"><ele>445.0</ele><time>2026-05-02T10:39:28.971Z</time></trkpt><trkpt lat="43.6285099" lon="11.4187642"><ele>445.00000000000006</ele><time>2026-05-02T10:39:29.971Z</time></trkpt><trkpt lat="43.6285476" lon="11.4186552"><ele>445.0</ele><time>2026-05-02T10:39:30.971Z</time></trkpt><trkpt lat="43.628579" lon="11.4185634"><ele>443.6</ele><time>2026-05-02T10:39:31.972Z</time></trkpt><trkpt lat="43.6286398" lon="11.4184874"><ele>442.2</ele><time>2026-05-02T10:39:32.972Z</time></trkpt><trkpt lat="43.6286977" lon="11.4184091"><ele>440.79999999999995</ele><time>2026-05-02T10:39:33.971Z</time></trkpt><trkpt lat="43.6287435" lon="11.418325"><ele>439.4</ele><time>2026-05-02T10:39:34.971Z</time></trkpt><trkpt lat="43.6287926" lon="11.4181994"><ele>438.0</ele><time>2026-05-02T10:39:35.971Z</time></trkpt><trkpt lat="43.6288535" lon="11.4180751"><ele>441.4</ele><time>2026-05-02T10:39:36.971Z</time></trkpt><trkpt lat="43.628942" lon="11.4179662"><ele>444.79999999999995</ele><time>2026-05-02T10:39:37.971Z</time></trkpt><trkpt lat="43.6290107" lon="11.4178599"><ele>448.2</ele><time>2026-05-02T10:39:38.971Z</time></trkpt><trkpt lat="43.6290713" lon="11.4177495"><ele>451.6</ele><time>2026-05-02T10:39:39.972Z</time></trkpt><trkpt lat="43.6291252" lon="11.417644"><ele>455.0</ele><time>2026-05-02T10:39:40.971Z</time></trkpt><trkpt lat="43.6291779" lon="11.4175381"><ele>454.99999999999994</ele><time>2026-05-02T10:39:41.971Z</time></trkpt><trkpt lat="43.6292233" lon="11.4174352"><ele>455.0</ele><time>2026-05-02T10:39:42.971Z</time></trkpt><trkpt lat="43.6292637" lon="11.4173283"><ele>455.0</ele><time>2026-05-02T10:39:43.971Z</time></trkpt><trkpt lat="43.6292943" lon="11.4172258"><ele>455.0</ele><time>2026-05-02T10:39:44.971Z</time></trkpt><trkpt lat="43.629322" lon="11.417125"><ele>454.99999999999994</ele><time>2026-05-02T10:39:45.971Z</time></trkpt><trkpt lat="43.6293348" lon="11.4170255"><ele>455.0</ele><time>2026-05-02T10:39:46.972Z</time></trkpt><trkpt lat="43.6293361" lon="11.4169279"><ele>455.3333333333333</ele><time>2026-05-02T10:39:47.972Z</time></trkpt><trkpt lat="43.6293125" lon="11.4168404"><ele>455.66666666666663</ele><time>2026-05-02T10:39:48.971Z</time></trkpt><trkpt lat="43.6292699" lon="11.4167702"><ele>456.0</ele><time>2026-05-02T10:39:49.971Z</time></trkpt><trkpt lat="43.6292082" lon="11.4167124"><ele>456.33333333333337</ele><time>2026-05-02T10:39:50.971Z</time></trkpt><trkpt lat="43.629151" lon="11.4166586"><ele>456.6666666666667</ele><time>2026-05-02T10:39:51.971Z</time></trkpt><trkpt lat="43.6291002" lon="11.4166011"><ele>457.0</ele><time>2026-05-02T10:39:52.971Z</time></trkpt><trkpt lat="43.6292165" lon="11.416521"><ele>457.00000000000006</ele><time>2026-05-02T10:39:56.971Z</time></trkpt><trkpt lat="43.6292971" lon="11.4164714"><ele>457.0</ele><time>2026-05-02T10:39:57.971Z</time></trkpt><trkpt lat="43.6293607" lon="11.4163868"><ele>457.0</ele><time>2026-05-02T10:39:58.971Z</time></trkpt><trkpt lat="43.6294351" lon="11.4163162"><ele>457.0</ele><time>2026-05-02T10:39:59.971Z</time></trkpt><trkpt lat="43.6295087" lon="11.4162682"><ele>457.00000000000006</ele><time>2026-05-02T10:40:00.972Z</time></trkpt><trkpt lat="43.6295655" lon="11.4161989"><ele>457.0</ele><time>2026-05-02T10:40:01.971Z</time></trkpt><trkpt lat="43.629615" lon="11.4161218"><ele>457.6666666666667</ele><time>2026-05-02T10:40:02.971Z</time></trkpt><trkpt lat="43.6296426" lon="11.4160157"><ele>458.33333333333337</ele><time>2026-05-02T10:40:03.971Z</time></trkpt><trkpt lat="43.6296582" lon="11.4158932"><ele>459.0</ele><time>2026-05-02T10:40:04.971Z</time></trkpt><trkpt lat="43.6296644" lon="11.4157888"><ele>459.66666666666663</ele><time>2026-05-02T10:40:05.972Z</time></trkpt><trkpt lat="43.6296952" lon="11.4156933"><ele>460.3333333333333</ele><time>2026-05-02T10:40:07.971Z</time></trkpt><trkpt lat="43.6297997" lon="11.415713"><ele>461.0</ele><time>2026-05-02T10:40:09.971Z</time></trkpt><trkpt lat="43.6298572" lon="11.415754"><ele>460.99999999999994</ele><time>2026-05-02T10:40:10.971Z</time></trkpt><trkpt lat="43.6299093" lon="11.4158063"><ele>461.0</ele><time>2026-05-02T10:40:11.971Z</time></trkpt><trkpt lat="43.629966" lon="11.4158572"><ele>461.0</ele><time>2026-05-02T10:40:12.972Z</time></trkpt><trkpt lat="43.6300272" lon="11.4159033"><ele>461.0</ele><time>2026-05-02T10:40:13.971Z</time></trkpt><trkpt lat="43.6300966" lon="11.415908"><ele>460.99999999999994</ele><time>2026-05-02T10:40:14.971Z</time></trkpt><trkpt lat="43.6302058" lon="11.4158661"><ele>461.0</ele><time>2026-05-02T10:40:16.971Z</time></trkpt><trkpt lat="43.6302611" lon="11.4158189"><ele>462.0</ele><time>2026-05-02T10:40:17.971Z</time></trkpt><trkpt lat="43.6303617" lon="11.4157438"><ele>463.0</ele><time>2026-05-02T10:40:19.971Z</time></trkpt><trkpt lat="43.6304229" lon="11.4156911"><ele>464.0</ele><time>2026-05-02T10:40:20.972Z</time></trkpt><trkpt lat="43.6305361" lon="11.415591"><ele>465.0</ele><time>2026-05-02T10:40:22.972Z</time></trkpt><trkpt lat="43.6306089" lon="11.415536"><ele>466.0</ele><time>2026-05-02T10:40:23.971Z</time></trkpt><trkpt lat="43.6306784" lon="11.4154748"><ele>469.50000000000006</ele><time>2026-05-02T10:40:24.971Z</time></trkpt><trkpt lat="43.6307357" lon="11.4153937"><ele>473.0</ele><time>2026-05-02T10:40:25.971Z</time></trkpt><trkpt lat="43.6307672" lon="11.4152625"><ele>476.5</ele><time>2026-05-02T10:40:27.972Z</time></trkpt><trkpt lat="43.6307795" lon="11.4151544"><ele>480.0</ele><time>2026-05-02T10:40:28.971Z</time></trkpt><trkpt lat="43.6307911" lon="11.415049"><ele>483.50000000000006</ele><time>2026-05-02T10:40:29.972Z</time></trkpt><trkpt lat="43.6307956" lon="11.4149311"><ele>487.0</ele><time>2026-05-02T10:40:30.971Z</time></trkpt><trkpt lat="43.6307992" lon="11.4148202"><ele>487.0</ele><time>2026-05-02T10:40:31.971Z</time></trkpt><trkpt lat="43.6307887" lon="11.4147193"><ele>487.0</ele><time>2026-05-02T10:40:32.972Z</time></trkpt><trkpt lat="43.6307733" lon="11.4146182"><ele>487.0</ele><time>2026-05-02T10:40:33.971Z</time></trkpt><trkpt lat="43.6307662" lon="11.4145159"><ele>487.0</ele><time>2026-05-02T10:40:34.971Z</time></trkpt><trkpt lat="43.6307688" lon="11.414405"><ele>487.0</ele><time>2026-05-02T10:40:35.97Z</time></trkpt><trkpt lat="43.6307667" lon="11.4143063"><ele>487.0</ele><time>2026-05-02T10:40:36.97Z</time></trkpt><trkpt lat="43.6307794" lon="11.4142183"><ele>487.0</ele><time>2026-05-02T10:40:37.971Z</time></trkpt><trkpt lat="43.6308084" lon="11.4140517"><ele>490.8</ele><time>2026-05-02T10:40:39.971Z</time></trkpt><trkpt lat="43.630881" lon="11.4139243"><ele>494.6</ele><time>2026-05-02T10:40:41.971Z</time></trkpt><trkpt lat="43.6309784" lon="11.4138743"><ele>498.40000000000003</ele><time>2026-05-02T10:40:43.97Z</time></trkpt><trkpt lat="43.6310872" lon="11.4138919"><ele>502.20000000000005</ele><time>2026-05-02T10:40:45.971Z</time></trkpt><trkpt lat="43.6311674" lon="11.4139449"><ele>506.0</ele><time>2026-05-02T10:40:46.971Z</time></trkpt><trkpt lat="43.6312408" lon="11.4140013"><ele>506.8333333333333</ele><time>2026-05-02T10:40:47.97Z</time></trkpt><trkpt lat="43.6313094" lon="11.4140438"><ele>507.66666666666663</ele><time>2026-05-02T10:40:48.971Z</time></trkpt><trkpt lat="43.63138" lon="11.4140895"><ele>508.5</ele><time>2026-05-02T10:40:49.971Z</time></trkpt><trkpt lat="43.6314483" lon="11.4141229"><ele>509.33333333333337</ele><time>2026-05-02T10:40:50.97Z</time></trkpt><trkpt lat="43.6315162" lon="11.4141375"><ele>510.1666666666667</ele><time>2026-05-02T10:40:51.97Z</time></trkpt><trkpt lat="43.6316233" lon="11.4140928"><ele>511.0</ele><time>2026-05-02T10:40:53.971Z</time></trkpt><trkpt lat="43.6316681" lon="11.4139531"><ele>511.0</ele><time>2026-05-02T10:40:55.97Z</time></trkpt><trkpt lat="43.6316506" lon="11.4138595"><ele>511.0</ele><time>2026-05-02T10:40:56.97Z</time></trkpt><trkpt lat="43.6316055" lon="11.4136507"><ele>511.0</ele><time>2026-05-02T10:40:57.996Z</time></trkpt><trkpt lat="43.6315668" lon="11.4135819"><ele>511.0</ele><time>2026-05-02T10:40:58.996Z</time></trkpt><trkpt lat="43.631521" lon="11.4134511"><ele>511.0</ele><time>2026-05-02T10:41:00.996Z</time></trkpt><trkpt lat="43.6314767" lon="11.4133235"><ele>512.1666666666667</ele><time>2026-05-02T10:41:02.996Z</time></trkpt><trkpt lat="43.6313874" lon="11.4132106"><ele>513.3333333333334</ele><time>2026-05-02T10:41:04.996Z</time></trkpt><trkpt lat="43.631326" lon="11.4131687"><ele>514.5</ele><time>2026-05-02T10:41:05.996Z</time></trkpt><trkpt lat="43.6312617" lon="11.4131036"><ele>515.6666666666666</ele><time>2026-05-02T10:41:06.996Z</time></trkpt><trkpt lat="43.6312137" lon="11.4130341"><ele>516.8333333333333</ele><time>2026-05-02T10:41:07.997Z</time></trkpt><trkpt lat="43.6311692" lon="11.4129614"><ele>518.0</ele><time>2026-05-02T10:41:08.997Z</time></trkpt><trkpt lat="43.6310596" lon="11.4129092"><ele>521.1666666666666</ele><time>2026-05-02T10:41:10.996Z</time></trkpt><trkpt lat="43.6309838" lon="11.4129274"><ele>524.3333333333333</ele><time>2026-05-02T10:41:11.996Z</time></trkpt><trkpt lat="43.6309009" lon="11.4129611"><ele>527.5</ele><time>2026-05-02T10:41:12.997Z</time></trkpt><trkpt lat="43.6308165" lon="11.4129276"><ele>530.6666666666666</ele><time>2026-05-02T10:41:14.996Z</time></trkpt><trkpt lat="43.6308236" lon="11.4128393"><ele>533.8333333333334</ele><time>2026-05-02T10:41:16.996Z</time></trkpt><trkpt lat="43.6308239" lon="11.4127078"><ele>537.0</ele><time>2026-05-02T10:41:18.996Z</time></trkpt><trkpt lat="43.6307665" lon="11.4125521"><ele>537.0</ele><time>2026-05-02T10:41:20.996Z</time></trkpt><trkpt lat="43.6307299" lon="11.412471"><ele>537.0</ele><time>2026-05-02T10:41:21.997Z</time></trkpt><trkpt lat="43.6306861" lon="11.4124027"><ele>537.0</ele><time>2026-05-02T10:41:22.996Z</time></trkpt><trkpt lat="43.6305969" lon="11.4122974"><ele>537.0</ele><time>2026-05-02T10:41:24.996Z</time></trkpt><trkpt lat="43.6305209" lon="11.4121433"><ele>537.0</ele><time>2026-05-02T10:41:26.996Z</time></trkpt><trkpt lat="43.6305082" lon="11.4120508"><ele>538.5</ele><time>2026-05-02T10:41:27.996Z</time></trkpt><trkpt lat="43.6304791" lon="11.4119724"><ele>540.0</ele><time>2026-05-02T10:41:28.996Z</time></trkpt><trkpt lat="43.630443" lon="11.4118849"><ele>541.5</ele><time>2026-05-02T10:41:29.996Z</time></trkpt><trkpt lat="43.6304187" lon="11.4117975"><ele>543.0</ele><time>2026-05-02T10:41:30.996Z</time></trkpt><trkpt lat="43.6303933" lon="11.4116142"><ele>544.5</ele><time>2026-05-02T10:41:32.996Z</time></trkpt><trkpt lat="43.6303802" lon="11.4115084"><ele>546.0</ele><time>2026-05-02T10:41:33.997Z</time></trkpt><trkpt lat="43.6303734" lon="11.4114059"><ele>549.3333333333334</ele><time>2026-05-02T10:41:34.996Z</time></trkpt><trkpt lat="43.6303675" lon="11.4113003"><ele>552.6666666666666</ele><time>2026-05-02T10:41:35.996Z</time></trkpt><trkpt lat="43.6303628" lon="11.4111923"><ele>556.0</ele><time>2026-05-02T10:41:36.996Z</time></trkpt><trkpt lat="43.6303584" lon="11.4110947"><ele>559.3333333333333</ele><time>2026-05-02T10:41:37.996Z</time></trkpt><trkpt lat="43.6303579" lon="11.4109907"><ele>562.6666666666666</ele><time>2026-05-02T10:41:38.996Z</time></trkpt><trkpt lat="43.630349" lon="11.4108993"><ele>566.0</ele><time>2026-05-02T10:41:39.996Z</time></trkpt><trkpt lat="43.6303176" lon="11.4107475"><ele>566.0</ele><time>2026-05-02T10:41:41.996Z</time></trkpt><trkpt lat="43.6303638" lon="11.4106139"><ele>566.0</ele><time>2026-05-02T10:41:43.996Z</time></trkpt><trkpt lat="43.6304173" lon="11.4105632"><ele>566.0</ele><time>2026-05-02T10:41:44.996Z</time></trkpt><trkpt lat="43.6304704" lon="11.4105069"><ele>566.0</ele><time>2026-05-02T10:41:45.996Z</time></trkpt><trkpt lat="43.6305371" lon="11.4103727"><ele>566.0</ele><time>2026-05-02T10:41:47.996Z</time></trkpt><trkpt lat="43.6305595" lon="11.4101959"><ele>569.0</ele><time>2026-05-02T10:41:49.996Z</time></trkpt><trkpt lat="43.6305591" lon="11.4101054"><ele>572.0</ele><time>2026-05-02T10:41:50.996Z</time></trkpt><trkpt lat="43.6305393" lon="11.4100097"><ele>575.0</ele><time>2026-05-02T10:41:51.996Z</time></trkpt><trkpt lat="43.6305111" lon="11.4099123"><ele>578.0</ele><time>2026-05-02T10:41:52.996Z</time></trkpt><trkpt lat="43.6304789" lon="11.4098114"><ele>581.0</ele><time>2026-05-02T10:41:53.996Z</time></trkpt><trkpt lat="43.6304455" lon="11.4097086"><ele>584.0</ele><time>2026-05-02T10:41:54.997Z</time></trkpt><trkpt lat="43.6304116" lon="11.409605"><ele>583.5</ele><time>2026-05-02T10:41:55.996Z</time></trkpt><trkpt lat="43.6303753" lon="11.4094981"><ele>583.0</ele><time>2026-05-02T10:41:56.996Z</time></trkpt><trkpt lat="43.6303476" lon="11.4093802"><ele>582.5</ele><time>2026-05-02T10:41:57.996Z</time></trkpt><trkpt lat="43.6303191" lon="11.409264"><ele>582.0</ele><time>2026-05-02T10:41:58.996Z</time></trkpt><trkpt lat="43.6302899" lon="11.4091626"><ele>581.5</ele><time>2026-05-02T10:41:59.997Z</time></trkpt><trkpt lat="43.6302614" lon="11.4090747"><ele>581.0</ele><time>2026-05-02T10:42:00.996Z</time></trkpt><trkpt lat="43.6302519" lon="11.4089848"><ele>581.0</ele><time>2026-05-02T10:42:01.996Z</time></trkpt><trkpt lat="43.6302636" lon="11.4088883"><ele>581.0</ele><time>2026-05-02T10:42:02.997Z</time></trkpt><trkpt lat="43.63035" lon="11.4087715"><ele>581.0</ele><time>2026-05-02T10:42:04.996Z</time></trkpt><trkpt lat="43.6304369" lon="11.4088024"><ele>581.0</ele><time>2026-05-02T10:42:06.996Z</time></trkpt><trkpt lat="43.6304907" lon="11.4089433"><ele>581.0</ele><time>2026-05-02T10:42:08.996Z</time></trkpt><trkpt lat="43.6305655" lon="11.4090205"><ele>584.3333333333333</ele><time>2026-05-02T10:42:10.996Z</time></trkpt><trkpt lat="43.6306755" lon="11.4090346"><ele>587.6666666666666</ele><time>2026-05-02T10:42:12.996Z</time></trkpt><trkpt lat="43.6307605" lon="11.4090135"><ele>591.0</ele><time>2026-05-02T10:42:13.996Z</time></trkpt><trkpt lat="43.6308183" lon="11.4089784"><ele>594.3333333333334</ele><time>2026-05-02T10:42:14.996Z</time></trkpt><trkpt lat="43.6309075" lon="11.4088858"><ele>597.6666666666667</ele><time>2026-05-02T10:42:16.996Z</time></trkpt><trkpt lat="43.630931" lon="11.4088035"><ele>601.0</ele><time>2026-05-02T10:42:17.996Z</time></trkpt><trkpt lat="43.6309333" lon="11.408713"><ele>601.8333333333334</ele><time>2026-05-02T10:42:18.996Z</time></trkpt><trkpt lat="43.6309472" lon="11.4086265"><ele>602.6666666666667</ele><time>2026-05-02T10:42:19.996Z</time></trkpt><trkpt lat="43.6309739" lon="11.4085369"><ele>603.5</ele><time>2026-05-02T10:42:20.996Z</time></trkpt><trkpt lat="43.6310164" lon="11.4084259"><ele>604.3333333333334</ele><time>2026-05-02T10:42:21.996Z</time></trkpt><trkpt lat="43.631055" lon="11.4083399"><ele>605.1666666666666</ele><time>2026-05-02T10:42:22.996Z</time></trkpt><trkpt lat="43.6311117" lon="11.4081922"><ele>606.0</ele><time>2026-05-02T10:42:24.996Z</time></trkpt><trkpt lat="43.6311379" lon="11.4081073"><ele>608.6666666666666</ele><time>2026-05-02T10:42:25.996Z</time></trkpt><trkpt lat="43.6312309" lon="11.4080027"><ele>611.3333333333334</ele><time>2026-05-02T10:42:27.996Z</time></trkpt><trkpt lat="43.6313019" lon="11.4079636"><ele>614.0</ele><time>2026-05-02T10:42:28.996Z</time></trkpt><trkpt lat="43.6313827" lon="11.4079229"><ele>616.6666666666667</ele><time>2026-05-02T10:42:29.996Z</time></trkpt><trkpt lat="43.6314593" lon="11.4078975"><ele>619.3333333333334</ele><time>2026-05-02T10:42:30.996Z</time></trkpt><trkpt lat="43.6315376" lon="11.4078902"><ele>622.0</ele><time>2026-05-02T10:42:31.996Z</time></trkpt><trkpt lat="43.6316178" lon="11.4079012"><ele>622.0</ele><time>2026-05-02T10:42:32.997Z</time></trkpt><trkpt lat="43.6317039" lon="11.4079322"><ele>622.0</ele><time>2026-05-02T10:42:33.996Z</time></trkpt><trkpt lat="43.6317915" lon="11.4079783"><ele>622.0</ele><time>2026-05-02T10:42:34.996Z</time></trkpt><trkpt lat="43.6318755" lon="11.4080194"><ele>622.0</ele><time>2026-05-02T10:42:35.996Z</time></trkpt><trkpt lat="43.6319523" lon="11.4080508"><ele>622.0</ele><time>2026-05-02T10:42:36.997Z</time></trkpt><trkpt lat="43.6320289" lon="11.4080516"><ele>622.0</ele><time>2026-05-02T10:42:37.996Z</time></trkpt><trkpt lat="43.6320968" lon="11.4080325"><ele>625.0</ele><time>2026-05-02T10:42:38.996Z</time></trkpt><trkpt lat="43.6322068" lon="11.4079485"><ele>628.0</ele><time>2026-05-02T10:42:40.996Z</time></trkpt><trkpt lat="43.6322626" lon="11.4078842"><ele>631.0</ele><time>2026-05-02T10:42:41.996Z</time></trkpt><trkpt lat="43.6323129" lon="11.4078115"><ele>634.0</ele><time>2026-05-02T10:42:42.997Z</time></trkpt><trkpt lat="43.6323294" lon="11.4077074"><ele>637.0</ele><time>2026-05-02T10:42:43.996Z</time></trkpt><trkpt lat="43.6323148" lon="11.4076172"><ele>640.0</ele><time>2026-05-02T10:42:44.996Z</time></trkpt><trkpt lat="43.632279" lon="11.4075437"><ele>640.0</ele><time>2026-05-02T10:42:45.996Z</time></trkpt><trkpt lat="43.6322223" lon="11.4074772"><ele>640.0</ele><time>2026-05-02T10:42:46.996Z</time></trkpt><trkpt lat="43.6321531" lon="11.4073987"><ele>640.0</ele><time>2026-05-02T10:42:47.996Z</time></trkpt><trkpt lat="43.6320831" lon="11.4073238"><ele>640.0</ele><time>2026-05-02T10:42:48.996Z</time></trkpt><trkpt lat="43.6320309" lon="11.4072602"><ele>640.0</ele><time>2026-05-02T10:42:49.997Z</time></trkpt><trkpt lat="43.6319826" lon="11.4071578"><ele>640.0</ele><time>2026-05-02T10:42:51.996Z</time></trkpt><trkpt lat="43.6320749" lon="11.4071498"><ele>640.0</ele><time>2026-05-02T10:42:54.996Z</time></trkpt><trkpt lat="43.6321353" lon="11.4071873"><ele>640.0</ele><time>2026-05-02T10:42:55.996Z</time></trkpt><trkpt lat="43.6322171" lon="11.4071521"><ele>640.0</ele><time>2026-05-02T10:42:57.996Z</time></trkpt><trkpt lat="43.632327" lon="11.40705"><ele>640.0</ele><time>2026-05-02T10:42:59.996Z</time></trkpt><trkpt lat="43.6324021" lon="11.4069911"><ele>640.0</ele><time>2026-05-02T10:43:00.996Z</time></trkpt><trkpt lat="43.6324734" lon="11.4069379"><ele>642.1428571428571</ele><time>2026-05-02T10:43:01.996Z</time></trkpt><trkpt lat="43.6325308" lon="11.4068925"><ele>644.2857142857143</ele><time>2026-05-02T10:43:02.996Z</time></trkpt><trkpt lat="43.6325604" lon="11.4067915"><ele>646.4285714285714</ele><time>2026-05-02T10:43:04.996Z</time></trkpt><trkpt lat="43.6324822" lon="11.4067221"><ele>648.5714285714286</ele><time>2026-05-02T10:43:06.996Z</time></trkpt><trkpt lat="43.6324193" lon="11.4067274"><ele>650.7142857142857</ele><time>2026-05-02T10:43:07.996Z</time></trkpt><trkpt lat="43.6323449" lon="11.4067164"><ele>652.8571428571429</ele><time>2026-05-02T10:43:08.996Z</time></trkpt><trkpt lat="43.6322781" lon="11.4066791"><ele>655.0</ele><time>2026-05-02T10:43:09.996Z</time></trkpt><trkpt lat="43.6322161" lon="11.4066342"><ele>655.0</ele><time>2026-05-02T10:43:10.996Z</time></trkpt><trkpt lat="43.6321504" lon="11.4065921"><ele>655.0</ele><time>2026-05-02T10:43:11.996Z</time></trkpt><trkpt lat="43.6320969" lon="11.4065355"><ele>655.0</ele><time>2026-05-02T10:43:12.996Z</time></trkpt><trkpt lat="43.6320504" lon="11.4064627"><ele>655.0</ele><time>2026-05-02T10:43:13.996Z</time></trkpt><trkpt lat="43.6319993" lon="11.4063961"><ele>655.0</ele><time>2026-05-02T10:43:14.996Z</time></trkpt><trkpt lat="43.6319503" lon="11.4063213"><ele>655.0</ele><time>2026-05-02T10:43:15.996Z</time></trkpt><trkpt lat="43.6318779" lon="11.4062039"><ele>655.6</ele><time>2026-05-02T10:43:17.996Z</time></trkpt><trkpt lat="43.6318672" lon="11.4061098"><ele>656.2</ele><time>2026-05-02T10:43:18.996Z</time></trkpt><trkpt lat="43.6319016" lon="11.4059549"><ele>656.8</ele><time>2026-05-02T10:43:20.996Z</time></trkpt><trkpt lat="43.6319396" lon="11.4058407"><ele>657.4</ele><time>2026-05-02T10:43:22.996Z</time></trkpt><trkpt lat="43.6320209" lon="11.4057268"><ele>658.0</ele><time>2026-05-02T10:43:24.996Z</time></trkpt><trkpt lat="43.6320882" lon="11.4056706"><ele>659.8333333333334</ele><time>2026-05-02T10:43:25.996Z</time></trkpt><trkpt lat="43.6321447" lon="11.405597"><ele>661.6666666666667</ele><time>2026-05-02T10:43:26.996Z</time></trkpt><trkpt lat="43.6321827" lon="11.4054756"><ele>663.5</ele><time>2026-05-02T10:43:27.996Z</time></trkpt><trkpt lat="43.6322123" lon="11.4053937"><ele>665.3333333333334</ele><time>2026-05-02T10:43:28.996Z</time></trkpt><trkpt lat="43.6323172" lon="11.4053032"><ele>667.1666666666666</ele><time>2026-05-02T10:43:30.996Z</time></trkpt><trkpt lat="43.6323868" lon="11.405282"><ele>669.0</ele><time>2026-05-02T10:43:31.996Z</time></trkpt><trkpt lat="43.6324617" lon="11.4053108"><ele>671.0</ele><time>2026-05-02T10:43:32.996Z</time></trkpt><trkpt lat="43.6325311" lon="11.4053579"><ele>673.0</ele><time>2026-05-02T10:43:33.996Z</time></trkpt><trkpt lat="43.6326256" lon="11.4053373"><ele>675.0</ele><time>2026-05-02T10:43:35.996Z</time></trkpt><trkpt lat="43.6326333" lon="11.4051635"><ele>677.0</ele><time>2026-05-02T10:43:37.996Z</time></trkpt><trkpt lat="43.6326129" lon="11.4050548"><ele>679.0</ele><time>2026-05-02T10:43:38.996Z</time></trkpt><trkpt lat="43.6325966" lon="11.404965"><ele>681.0</ele><time>2026-05-02T10:43:39.996Z</time></trkpt><trkpt lat="43.6325955" lon="11.4048773"><ele>681.0</ele><time>2026-05-02T10:43:40.996Z</time></trkpt><trkpt lat="43.6325623" lon="11.4047823"><ele>681.0</ele><time>2026-05-02T10:43:41.996Z</time></trkpt><trkpt lat="43.6325377" lon="11.404702"><ele>681.0</ele><time>2026-05-02T10:43:42.996Z</time></trkpt><trkpt lat="43.6325208" lon="11.4046103"><ele>681.0</ele><time>2026-05-02T10:43:43.996Z</time></trkpt><trkpt lat="43.6325263" lon="11.4045147"><ele>681.0</ele><time>2026-05-02T10:43:44.996Z</time></trkpt><trkpt lat="43.6325421" lon="11.4043921"><ele>681.0</ele><time>2026-05-02T10:43:45.996Z</time></trkpt><trkpt lat="43.6325646" lon="11.4042626"><ele>682.4</ele><time>2026-05-02T10:43:46.996Z</time></trkpt><trkpt lat="43.6326048" lon="11.4041527"><ele>683.8</ele><time>2026-05-02T10:43:47.996Z</time></trkpt><trkpt lat="43.6326417" lon="11.4040479"><ele>685.1999999999999</ele><time>2026-05-02T10:43:48.997Z</time></trkpt><trkpt lat="43.6326654" lon="11.4039321"><ele>686.5999999999999</ele><time>2026-05-02T10:43:49.996Z</time></trkpt><trkpt lat="43.6326828" lon="11.4038027"><ele>688.0</ele><time>2026-05-02T10:43:50.996Z</time></trkpt><trkpt lat="43.6326824" lon="11.4036477"><ele>688.0</ele><time>2026-05-02T10:43:51.996Z</time></trkpt><trkpt lat="43.6326758" lon="11.4034835"><ele>688.0</ele><time>2026-05-02T10:43:52.996Z</time></trkpt><trkpt lat="43.6326659" lon="11.4033292"><ele>688.0</ele><time>2026-05-02T10:43:53.997Z</time></trkpt><trkpt lat="43.6326522" lon="11.4031788"><ele>688.0</ele><time>2026-05-02T10:43:54.996Z</time></trkpt><trkpt lat="43.6326456" lon="11.4030394"><ele>688.0</ele><time>2026-05-02T10:43:55.996Z</time></trkpt><trkpt lat="43.632636" lon="11.4028989"><ele>687.5</ele><time>2026-05-02T10:43:56.996Z</time></trkpt><trkpt lat="43.6326296" lon="11.4027723"><ele>687.0</ele><time>2026-05-02T10:43:57.996Z</time></trkpt><trkpt lat="43.6326285" lon="11.4026584"><ele>686.5</ele><time>2026-05-02T10:43:58.997Z</time></trkpt><trkpt lat="43.6326168" lon="11.4025565"><ele>686.0</ele><time>2026-05-02T10:43:59.996Z</time></trkpt><trkpt lat="43.6325831" lon="11.4024635"><ele>685.5</ele><time>2026-05-02T10:44:00.996Z</time></trkpt><trkpt lat="43.6325277" lon="11.4023748"><ele>685.0</ele><time>2026-05-02T10:44:01.996Z</time></trkpt><trkpt lat="43.6324529" lon="11.4023058"><ele>685.0</ele><time>2026-05-02T10:44:02.996Z</time></trkpt><trkpt lat="43.6323777" lon="11.4022403"><ele>685.0</ele><time>2026-05-02T10:44:03.996Z</time></trkpt><trkpt lat="43.6323088" lon="11.4021911"><ele>685.0</ele><time>2026-05-02T10:44:04.996Z</time></trkpt><trkpt lat="43.6322507" lon="11.4021421"><ele>685.0</ele><time>2026-05-02T10:44:05.996Z</time></trkpt><trkpt lat="43.6321394" lon="11.4020914"><ele>685.0</ele><time>2026-05-02T10:44:07.996Z</time></trkpt><trkpt lat="43.6320828" lon="11.4020103"><ele>685.0</ele><time>2026-05-02T10:44:09.996Z</time></trkpt><trkpt lat="43.6321371" lon="11.4019156"><ele>683.5</ele><time>2026-05-02T10:44:11.996Z</time></trkpt><trkpt lat="43.6322063" lon="11.4019083"><ele>682.0</ele><time>2026-05-02T10:44:12.996Z</time></trkpt><trkpt lat="43.6322764" lon="11.4019248"><ele>680.5</ele><time>2026-05-02T10:44:13.996Z</time></trkpt><trkpt lat="43.6323502" lon="11.4019242"><ele>679.0</ele><time>2026-05-02T10:44:14.996Z</time></trkpt><trkpt lat="43.6324193" lon="11.4019076"><ele>677.5</ele><time>2026-05-02T10:44:15.996Z</time></trkpt><trkpt lat="43.6325215" lon="11.4018328"><ele>676.0</ele><time>2026-05-02T10:44:17.996Z</time></trkpt><trkpt lat="43.6325592" lon="11.4017524"><ele>676.0</ele><time>2026-05-02T10:44:18.996Z</time></trkpt><trkpt lat="43.6325882" lon="11.4016371"><ele>676.0</ele><time>2026-05-02T10:44:19.996Z</time></trkpt><trkpt lat="43.6326244" lon="11.4014814"><ele>676.0</ele><time>2026-05-02T10:44:20.996Z</time></trkpt><trkpt lat="43.6326749" lon="11.4013401"><ele>676.0</ele><time>2026-05-02T10:44:21.996Z</time></trkpt><trkpt lat="43.6327268" lon="11.4012075"><ele>676.0</ele><time>2026-05-02T10:44:22.996Z</time></trkpt><trkpt lat="43.6327699" lon="11.4010907"><ele>676.1666666666667</ele><time>2026-05-02T10:44:23.996Z</time></trkpt><trkpt lat="43.6328069" lon="11.4009769"><ele>676.3333333333334</ele><time>2026-05-02T10:44:24.996Z</time></trkpt><trkpt lat="43.6328327" lon="11.4008701"><ele>676.5</ele><time>2026-05-02T10:44:25.996Z</time></trkpt><trkpt lat="43.6328382" lon="11.4007602"><ele>676.6666666666666</ele><time>2026-05-02T10:44:26.996Z</time></trkpt><trkpt lat="43.6328174" lon="11.4006524"><ele>676.8333333333333</ele><time>2026-05-02T10:44:27.996Z</time></trkpt><trkpt lat="43.6327795" lon="11.4005557"><ele>677.0</ele><time>2026-05-02T10:44:28.996Z</time></trkpt><trkpt lat="43.6327377" lon="11.4004375"><ele>677.0</ele><time>2026-05-02T10:44:29.997Z</time></trkpt><trkpt lat="43.6326991" lon="11.4003168"><ele>677.0</ele><time>2026-05-02T10:44:30.996Z</time></trkpt><trkpt lat="43.6326695" lon="11.4002028"><ele>677.0</ele><time>2026-05-02T10:44:31.996Z</time></trkpt><trkpt lat="43.6326534" lon="11.4000822"><ele>677.0</ele><time>2026-05-02T10:44:32.996Z</time></trkpt><trkpt lat="43.6326334" lon="11.3999595"><ele>677.0</ele><time>2026-05-02T10:44:33.996Z</time></trkpt><trkpt lat="43.6325911" lon="11.3998323"><ele>677.0</ele><time>2026-05-02T10:44:34.996Z</time></trkpt><trkpt lat="43.6325384" lon="11.3997129"><ele>677.0</ele><time>2026-05-02T10:44:35.996Z</time></trkpt><trkpt lat="43.6324872" lon="11.3995968"><ele>677.0</ele><time>2026-05-02T10:44:36.996Z</time></trkpt><trkpt lat="43.6324346" lon="11.3994861"><ele>677.0</ele><time>2026-05-02T10:44:37.996Z</time></trkpt><trkpt lat="43.6323777" lon="11.3993779"><ele>677.0</ele><time>2026-05-02T10:44:38.996Z</time></trkpt><trkpt lat="43.6323061" lon="11.3992892"><ele>676.6666666666666</ele><time>2026-05-02T10:44:39.996Z</time></trkpt><trkpt lat="43.6322182" lon="11.3992353"><ele>676.3333333333333</ele><time>2026-05-02T10:44:40.996Z</time></trkpt><trkpt lat="43.6321398" lon="11.3992055"><ele>676.0</ele><time>2026-05-02T10:44:41.996Z</time></trkpt><trkpt lat="43.6320835" lon="11.3991473"><ele>675.6666666666666</ele><time>2026-05-02T10:44:42.996Z</time></trkpt><trkpt lat="43.6320416" lon="11.3990705"><ele>675.3333333333334</ele><time>2026-05-02T10:44:43.996Z</time></trkpt><trkpt lat="43.6319942" lon="11.3989836"><ele>675.0</ele><time>2026-05-02T10:44:44.996Z</time></trkpt><trkpt lat="43.631933" lon="11.3988882"><ele>677.4</ele><time>2026-05-02T10:44:45.996Z</time></trkpt><trkpt lat="43.6318735" lon="11.3987789"><ele>679.8</ele><time>2026-05-02T10:44:46.997Z</time></trkpt><trkpt lat="43.6318276" lon="11.3986817"><ele>682.2</ele><time>2026-05-02T10:44:47.996Z</time></trkpt><trkpt lat="43.6317885" lon="11.3985368"><ele>684.6</ele><time>2026-05-02T10:44:49.997Z</time></trkpt><trkpt lat="43.6318508" lon="11.3983982"><ele>687.0</ele><time>2026-05-02T10:44:51.996Z</time></trkpt><trkpt lat="43.6319113" lon="11.3983221"><ele>687.0</ele><time>2026-05-02T10:44:52.996Z</time></trkpt><trkpt lat="43.6319721" lon="11.3982282"><ele>687.0</ele><time>2026-05-02T10:44:53.996Z</time></trkpt><trkpt lat="43.632045" lon="11.3981273"><ele>687.0</ele><time>2026-05-02T10:44:54.996Z</time></trkpt><trkpt lat="43.6321295" lon="11.3980212"><ele>687.0</ele><time>2026-05-02T10:44:55.996Z</time></trkpt><trkpt lat="43.6322255" lon="11.3979242"><ele>687.0</ele><time>2026-05-02T10:44:56.996Z</time></trkpt><trkpt lat="43.6323148" lon="11.3978372"><ele>688.6</ele><time>2026-05-02T10:44:57.997Z</time></trkpt><trkpt lat="43.632388" lon="11.39776"><ele>690.2</ele><time>2026-05-02T10:44:58.996Z</time></trkpt><trkpt lat="43.6324544" lon="11.3976942"><ele>691.8</ele><time>2026-05-02T10:44:59.996Z</time></trkpt><trkpt lat="43.6325414" lon="11.3976393"><ele>693.4</ele><time>2026-05-02T10:45:00.996Z</time></trkpt><trkpt lat="43.6326384" lon="11.3976025"><ele>695.0</ele><time>2026-05-02T10:45:01.996Z</time></trkpt><trkpt lat="43.6327358" lon="11.3975626"><ele>695.8</ele><time>2026-05-02T10:45:02.996Z</time></trkpt><trkpt lat="43.6328271" lon="11.3975235"><ele>696.6</ele><time>2026-05-02T10:45:03.996Z</time></trkpt><trkpt lat="43.6329132" lon="11.3974974"><ele>697.4000000000001</ele><time>2026-05-02T10:45:04.996Z</time></trkpt><trkpt lat="43.6330056" lon="11.3974795"><ele>698.2</ele><time>2026-05-02T10:45:05.996Z</time></trkpt><trkpt lat="43.633104" lon="11.3974716"><ele>699.0</ele><time>2026-05-02T10:45:06.996Z</time></trkpt><trkpt lat="43.6331997" lon="11.3974499"><ele>699.0</ele><time>2026-05-02T10:45:07.996Z</time></trkpt><trkpt lat="43.633278" lon="11.3974271"><ele>699.0</ele><time>2026-05-02T10:45:08.996Z</time></trkpt><trkpt lat="43.6333403" lon="11.3973984"><ele>699.0</ele><time>2026-05-02T10:45:09.996Z</time></trkpt><trkpt lat="43.6334047" lon="11.3973577"><ele>699.0</ele><time>2026-05-02T10:45:10.996Z</time></trkpt><trkpt lat="43.6334707" lon="11.3973114"><ele>699.0</ele><time>2026-05-02T10:45:11.996Z</time></trkpt><trkpt lat="43.6335538" lon="11.3973023"><ele>699.0</ele><time>2026-05-02T10:45:12.996Z</time></trkpt><trkpt lat="43.6336469" lon="11.397317"><ele>699.6</ele><time>2026-05-02T10:45:13.996Z</time></trkpt><trkpt lat="43.6337401" lon="11.3973125"><ele>700.2</ele><time>2026-05-02T10:45:14.996Z</time></trkpt><trkpt lat="43.6338339" lon="11.3972783"><ele>700.8000000000001</ele><time>2026-05-02T10:45:15.996Z</time></trkpt><trkpt lat="43.6339232" lon="11.3972256"><ele>701.4000000000001</ele><time>2026-05-02T10:45:16.996Z</time></trkpt><trkpt lat="43.6339978" lon="11.3971557"><ele>702.0</ele><time>2026-05-02T10:45:17.996Z</time></trkpt><trkpt lat="43.6340535" lon="11.397081"><ele>700.5</ele><time>2026-05-02T10:45:18.996Z</time></trkpt><trkpt lat="43.6340915" lon="11.3969982"><ele>699.0</ele><time>2026-05-02T10:45:19.996Z</time></trkpt><trkpt lat="43.634103" lon="11.3969012"><ele>697.5</ele><time>2026-05-02T10:45:20.996Z</time></trkpt><trkpt lat="43.6340711" lon="11.3967595"><ele>696.0</ele><time>2026-05-02T10:45:22.996Z</time></trkpt><trkpt lat="43.6340982" lon="11.3966463"><ele>694.5</ele><time>2026-05-02T10:45:24.996Z</time></trkpt><trkpt lat="43.6341955" lon="11.3966294"><ele>693.0</ele><time>2026-05-02T10:45:26.997Z</time></trkpt><trkpt lat="43.6342812" lon="11.3966714"><ele>693.0</ele><time>2026-05-02T10:45:27.997Z</time></trkpt><trkpt lat="43.6343667" lon="11.3967152"><ele>693.0</ele><time>2026-05-02T10:45:28.996Z</time></trkpt><trkpt lat="43.6344633" lon="11.3967416"><ele>693.0</ele><time>2026-05-02T10:45:29.996Z</time></trkpt><trkpt lat="43.6345704" lon="11.3967582"><ele>693.0</ele><time>2026-05-02T10:45:30.996Z</time></trkpt><trkpt lat="43.6346679" lon="11.3967805"><ele>693.0</ele><time>2026-05-02T10:45:31.996Z</time></trkpt><trkpt lat="43.6347541" lon="11.3967953"><ele>691.8</ele><time>2026-05-02T10:45:32.996Z</time></trkpt><trkpt lat="43.6348429" lon="11.3967748"><ele>690.5999999999999</ele><time>2026-05-02T10:45:33.996Z</time></trkpt><trkpt lat="43.6349329" lon="11.3967199"><ele>689.4000000000001</ele><time>2026-05-02T10:45:34.996Z</time></trkpt><trkpt lat="43.6350234" lon="11.3966308"><ele>688.2</ele><time>2026-05-02T10:45:35.996Z</time></trkpt><trkpt lat="43.6351157" lon="11.3965253"><ele>687.0</ele><time>2026-05-02T10:45:36.996Z</time></trkpt><trkpt lat="43.6352107" lon="11.3964191"><ele>688.8</ele><time>2026-05-02T10:45:37.996Z</time></trkpt><trkpt lat="43.6353078" lon="11.3963073"><ele>690.6</ele><time>2026-05-02T10:45:38.996Z</time></trkpt><trkpt lat="43.6354016" lon="11.3962052"><ele>692.4</ele><time>2026-05-02T10:45:39.996Z</time></trkpt><trkpt lat="43.635478" lon="11.3961067"><ele>694.1999999999999</ele><time>2026-05-02T10:45:40.996Z</time></trkpt><trkpt lat="43.6355303" lon="11.3960203"><ele>696.0</ele><time>2026-05-02T10:45:41.996Z</time></trkpt><trkpt lat="43.6355653" lon="11.3959356"><ele>696.0</ele><time>2026-05-02T10:45:42.996Z</time></trkpt><trkpt lat="43.6355868" lon="11.3957566"><ele>696.0</ele><time>2026-05-02T10:45:44.996Z</time></trkpt><trkpt lat="43.6355653" lon="11.3956545"><ele>696.0</ele><time>2026-05-02T10:45:45.996Z</time></trkpt><trkpt lat="43.6355321" lon="11.3955495"><ele>696.0</ele><time>2026-05-02T10:45:46.996Z</time></trkpt><trkpt lat="43.635497" lon="11.3954512"><ele>696.0</ele><time>2026-05-02T10:45:47.996Z</time></trkpt><trkpt lat="43.6354654" lon="11.3953444"><ele>695.1666666666666</ele><time>2026-05-02T10:45:48.996Z</time></trkpt><trkpt lat="43.6354268" lon="11.3952337"><ele>694.3333333333334</ele><time>2026-05-02T10:45:49.997Z</time></trkpt><trkpt lat="43.6353788" lon="11.3951344"><ele>693.5</ele><time>2026-05-02T10:45:50.996Z</time></trkpt><trkpt lat="43.6353206" lon="11.3950461"><ele>692.6666666666667</ele><time>2026-05-02T10:45:51.996Z</time></trkpt><trkpt lat="43.6352631" lon="11.394948"><ele>691.8333333333334</ele><time>2026-05-02T10:45:52.997Z</time></trkpt><trkpt lat="43.6352101" lon="11.3948478"><ele>691.0</ele><time>2026-05-02T10:45:53.996Z</time></trkpt><trkpt lat="43.6351686" lon="11.3947637"><ele>691.0</ele><time>2026-05-02T10:45:54.996Z</time></trkpt><trkpt lat="43.6351258" lon="11.3946897"><ele>691.0</ele><time>2026-05-02T10:45:55.996Z</time></trkpt><trkpt lat="43.6350828" lon="11.3945807"><ele>691.0</ele><time>2026-05-02T10:45:56.996Z</time></trkpt><trkpt lat="43.6350423" lon="11.3944784"><ele>691.0</ele><time>2026-05-02T10:45:57.996Z</time></trkpt><trkpt lat="43.6350156" lon="11.3943855"><ele>691.0</ele><time>2026-05-02T10:45:58.996Z</time></trkpt><trkpt lat="43.6350155" lon="11.3942903"><ele>691.0</ele><time>2026-05-02T10:45:59.996Z</time></trkpt><trkpt lat="43.6350062" lon="11.3941999"><ele>691.5</ele><time>2026-05-02T10:46:00.997Z</time></trkpt><trkpt lat="43.6349968" lon="11.394091"><ele>692.0</ele><time>2026-05-02T10:46:01.996Z</time></trkpt><trkpt lat="43.6349935" lon="11.3939464"><ele>692.5</ele><time>2026-05-02T10:46:03.996Z</time></trkpt><trkpt lat="43.635049" lon="11.3938349"><ele>693.0</ele><time>2026-05-02T10:46:05.996Z</time></trkpt><trkpt lat="43.6351021" lon="11.393775"><ele>693.5</ele><time>2026-05-02T10:46:06.996Z</time></trkpt><trkpt lat="43.635148" lon="11.3937107"><ele>694.0</ele><time>2026-05-02T10:46:07.996Z</time></trkpt><trkpt lat="43.6352018" lon="11.393642"><ele>694.0</ele><time>2026-05-02T10:46:08.996Z</time></trkpt><trkpt lat="43.6352624" lon="11.3935661"><ele>694.0</ele><time>2026-05-02T10:46:09.996Z</time></trkpt><trkpt lat="43.6353227" lon="11.393505"><ele>694.0</ele><time>2026-05-02T10:46:10.996Z</time></trkpt><trkpt lat="43.635387" lon="11.3934377"><ele>694.0</ele><time>2026-05-02T10:46:11.997Z</time></trkpt><trkpt lat="43.6354623" lon="11.3933605"><ele>694.0</ele><time>2026-05-02T10:46:12.996Z</time></trkpt><trkpt lat="43.6355317" lon="11.3932901"><ele>694.0</ele><time>2026-05-02T10:46:13.996Z</time></trkpt><trkpt lat="43.6356074" lon="11.3932242"><ele>696.5</ele><time>2026-05-02T10:46:14.996Z</time></trkpt><trkpt lat="43.6356834" lon="11.3931641"><ele>699.0</ele><time>2026-05-02T10:46:15.996Z</time></trkpt><trkpt lat="43.6357544" lon="11.3931123"><ele>701.5</ele><time>2026-05-02T10:46:16.996Z</time></trkpt><trkpt lat="43.6358282" lon="11.3930593"><ele>704.0</ele><time>2026-05-02T10:46:17.996Z</time></trkpt><trkpt lat="43.6358924" lon="11.3929952"><ele>706.5</ele><time>2026-05-02T10:46:18.996Z</time></trkpt><trkpt lat="43.6359515" lon="11.3929109"><ele>709.0</ele><time>2026-05-02T10:46:19.996Z</time></trkpt><trkpt lat="43.6359974" lon="11.3928144"><ele>709.0</ele><time>2026-05-02T10:46:20.996Z</time></trkpt><trkpt lat="43.6360532" lon="11.3926971"><ele>709.0</ele><time>2026-05-02T10:46:21.996Z</time></trkpt><trkpt lat="43.6360994" lon="11.3925698"><ele>709.0</ele><time>2026-05-02T10:46:22.996Z</time></trkpt><trkpt lat="43.6361369" lon="11.3924562"><ele>709.0</ele><time>2026-05-02T10:46:23.996Z</time></trkpt><trkpt lat="43.6361681" lon="11.3923721"><ele>709.0</ele><time>2026-05-02T10:46:24.996Z</time></trkpt><trkpt lat="43.6361986" lon="11.3922902"><ele>709.0</ele><time>2026-05-02T10:46:25.996Z</time></trkpt><trkpt lat="43.6362542" lon="11.3921835"><ele>712.4285714285714</ele><time>2026-05-02T10:46:27.996Z</time></trkpt><trkpt lat="43.6362817" lon="11.3920885"><ele>715.8571428571429</ele><time>2026-05-02T10:46:29.996Z</time></trkpt><trkpt lat="43.6363141" lon="11.3919927"><ele>719.2857142857142</ele><time>2026-05-02T10:46:31.996Z</time></trkpt><trkpt lat="43.6363451" lon="11.391907"><ele>722.7142857142858</ele><time>2026-05-02T10:46:33.996Z</time></trkpt><trkpt lat="43.6363518" lon="11.3918159"><ele>726.1428571428571</ele><time>2026-05-02T10:46:36.996Z</time></trkpt><trkpt lat="43.6362896" lon="11.3917396"><ele>729.5714285714286</ele><time>2026-05-02T10:46:38.996Z</time></trkpt><trkpt lat="43.6362269" lon="11.3916988"><ele>733.0</ele><time>2026-05-02T10:46:39.996Z</time></trkpt><trkpt lat="43.6361611" lon="11.3916941"><ele>731.8</ele><time>2026-05-02T10:46:40.997Z</time></trkpt><trkpt lat="43.6360303" lon="11.3916852"><ele>730.5999999999999</ele><time>2026-05-02T10:46:42.996Z</time></trkpt><trkpt lat="43.6359503" lon="11.3916977"><ele>729.4000000000001</ele><time>2026-05-02T10:46:43.997Z</time></trkpt><trkpt lat="43.6358831" lon="11.3917273"><ele>728.2</ele><time>2026-05-02T10:46:44.996Z</time></trkpt><trkpt lat="43.6358073" lon="11.3917554"><ele>727.0</ele><time>2026-05-02T10:46:45.996Z</time></trkpt><trkpt lat="43.6356928" lon="11.3918115"><ele>727.0</ele><time>2026-05-02T10:46:47.996Z</time></trkpt><trkpt lat="43.6355576" lon="11.3918411"><ele>727.0</ele><time>2026-05-02T10:46:49.996Z</time></trkpt><trkpt lat="43.6354273" lon="11.3918563"><ele>727.0</ele><time>2026-05-02T10:46:51.996Z</time></trkpt><trkpt lat="43.6353452" lon="11.3918458"><ele>727.0</ele><time>2026-05-02T10:46:52.996Z</time></trkpt><trkpt lat="43.6352592" lon="11.3918377"><ele>727.0</ele><time>2026-05-02T10:46:53.996Z</time></trkpt><trkpt lat="43.6351874" lon="11.3918312"><ele>727.5</ele><time>2026-05-02T10:46:54.996Z</time></trkpt><trkpt lat="43.6351126" lon="11.3918124"><ele>728.0</ele><time>2026-05-02T10:46:55.996Z</time></trkpt><trkpt lat="43.6350395" lon="11.3917681"><ele>728.5</ele><time>2026-05-02T10:46:56.997Z</time></trkpt><trkpt lat="43.6349839" lon="11.3917226"><ele>729.0</ele><time>2026-05-02T10:46:57.997Z</time></trkpt><trkpt lat="43.6349231" lon="11.391635"><ele>729.5</ele><time>2026-05-02T10:46:58.996Z</time></trkpt><trkpt lat="43.634874" lon="11.3915619"><ele>730.0</ele><time>2026-05-02T10:46:59.996Z</time></trkpt><trkpt lat="43.6348128" lon="11.3915031"><ele>730.0</ele><time>2026-05-02T10:47:00.996Z</time></trkpt><trkpt lat="43.6347346" lon="11.3914651"><ele>730.0</ele><time>2026-05-02T10:47:01.996Z</time></trkpt><trkpt lat="43.6346438" lon="11.3914429"><ele>730.0</ele><time>2026-05-02T10:47:02.996Z</time></trkpt><trkpt lat="43.6345567" lon="11.3914287"><ele>730.0</ele><time>2026-05-02T10:47:03.997Z</time></trkpt><trkpt lat="43.6344794" lon="11.391417"><ele>730.0</ele><time>2026-05-02T10:47:04.996Z</time></trkpt><trkpt lat="43.6344099" lon="11.3913888"><ele>730.0</ele><time>2026-05-02T10:47:05.996Z</time></trkpt><trkpt lat="43.634332" lon="11.3913622"><ele>732.6666666666667</ele><time>2026-05-02T10:47:06.997Z</time></trkpt><trkpt lat="43.6342553" lon="11.3913396"><ele>735.3333333333334</ele><time>2026-05-02T10:47:07.996Z</time></trkpt><trkpt lat="43.6341822" lon="11.3913171"><ele>738.0</ele><time>2026-05-02T10:47:08.997Z</time></trkpt><trkpt lat="43.6341124" lon="11.3912935"><ele>740.6666666666666</ele><time>2026-05-02T10:47:09.996Z</time></trkpt><trkpt lat="43.6340473" lon="11.3912543"><ele>743.3333333333333</ele><time>2026-05-02T10:47:10.996Z</time></trkpt><trkpt lat="43.633931" lon="11.3912096"><ele>746.0</ele><time>2026-05-02T10:47:12.996Z</time></trkpt><trkpt lat="43.6338588" lon="11.3911891"><ele>746.0</ele><time>2026-05-02T10:47:13.996Z</time></trkpt><trkpt lat="43.6337907" lon="11.391175"><ele>746.0</ele><time>2026-05-02T10:47:14.996Z</time></trkpt><trkpt lat="43.6337303" lon="11.39115"><ele>746.0</ele><time>2026-05-02T10:47:15.996Z</time></trkpt><trkpt lat="43.6336097" lon="11.3911262"><ele>746.0</ele><time>2026-05-02T10:47:17.996Z</time></trkpt><trkpt lat="43.6335298" lon="11.3911201"><ele>746.0</ele><time>2026-05-02T10:47:18.996Z</time></trkpt><trkpt lat="43.633462" lon="11.3911055"><ele>746.0</ele><time>2026-05-02T10:47:19.996Z</time></trkpt><trkpt lat="43.633343" lon="11.391071"><ele>742.1999999999999</ele><time>2026-05-02T10:47:21.996Z</time></trkpt><trkpt lat="43.6332237" lon="11.3910184"><ele>738.4</ele><time>2026-05-02T10:47:23.996Z</time></trkpt><trkpt lat="43.6331627" lon="11.3909858"><ele>734.6</ele><time>2026-05-02T10:47:24.996Z</time></trkpt><trkpt lat="43.633099" lon="11.390938"><ele>730.8</ele><time>2026-05-02T10:47:25.996Z</time></trkpt><trkpt lat="43.6329857" lon="11.3908447"><ele>727.0</ele><time>2026-05-02T10:47:27.996Z</time></trkpt><trkpt lat="43.6328828" lon="11.3907464"><ele>727.0</ele><time>2026-05-02T10:47:29.996Z</time></trkpt><trkpt lat="43.632814" lon="11.3906717"><ele>727.0</ele><time>2026-05-02T10:47:30.996Z</time></trkpt><trkpt lat="43.6327499" lon="11.3906186"><ele>727.0</ele><time>2026-05-02T10:47:31.996Z</time></trkpt><trkpt lat="43.6326945" lon="11.3905182"><ele>727.0</ele><time>2026-05-02T10:47:33.996Z</time></trkpt><trkpt lat="43.6326461" lon="11.3904402"><ele>727.0</ele><time>2026-05-02T10:47:34.996Z</time></trkpt><trkpt lat="43.6325696" lon="11.3903303"><ele>727.0</ele><time>2026-05-02T10:47:35.996Z</time></trkpt><trkpt lat="43.6325021" lon="11.3902745"><ele>724.3333333333334</ele><time>2026-05-02T10:47:36.996Z</time></trkpt><trkpt lat="43.6324384" lon="11.3902264"><ele>721.6666666666667</ele><time>2026-05-02T10:47:37.996Z</time></trkpt><trkpt lat="43.6323727" lon="11.3901625"><ele>719.0</ele><time>2026-05-02T10:47:38.996Z</time></trkpt><trkpt lat="43.6323077" lon="11.3901158"><ele>716.3333333333334</ele><time>2026-05-02T10:47:39.996Z</time></trkpt><trkpt lat="43.6322545" lon="11.3900407"><ele>713.6666666666666</ele><time>2026-05-02T10:47:40.996Z</time></trkpt><trkpt lat="43.63222" lon="11.3899626"><ele>711.0</ele><time>2026-05-02T10:47:41.996Z</time></trkpt><trkpt lat="43.6321989" lon="11.3898501"><ele>711.0</ele><time>2026-05-02T10:47:42.996Z</time></trkpt><trkpt lat="43.6322014" lon="11.3897441"><ele>711.0</ele><time>2026-05-02T10:47:43.996Z</time></trkpt><trkpt lat="43.6322184" lon="11.3896381"><ele>711.0</ele><time>2026-05-02T10:47:44.996Z</time></trkpt><trkpt lat="43.6322489" lon="11.3895414"><ele>711.0</ele><time>2026-05-02T10:47:45.996Z</time></trkpt><trkpt lat="43.6322677" lon="11.3894418"><ele>711.0</ele><time>2026-05-02T10:47:46.996Z</time></trkpt><trkpt lat="43.6322896" lon="11.389347"><ele>711.0</ele><time>2026-05-02T10:47:47.996Z</time></trkpt><trkpt lat="43.6323211" lon="11.3892616"><ele>711.0</ele><time>2026-05-02T10:47:48.996Z</time></trkpt><trkpt lat="43.6324039" lon="11.3892076"><ele>710.5</ele><time>2026-05-02T10:47:49.996Z</time></trkpt><trkpt lat="43.6324594" lon="11.3891598"><ele>710.0</ele><time>2026-05-02T10:47:50.997Z</time></trkpt><trkpt lat="43.6325359" lon="11.3891142"><ele>709.5</ele><time>2026-05-02T10:47:51.996Z</time></trkpt><trkpt lat="43.6326485" lon="11.3890378"><ele>709.0</ele><time>2026-05-02T10:47:53.996Z</time></trkpt><trkpt lat="43.6327115" lon="11.389015"><ele>708.5</ele><time>2026-05-02T10:47:54.996Z</time></trkpt><trkpt lat="43.6327754" lon="11.3890149"><ele>708.0</ele><time>2026-05-02T10:47:55.997Z</time></trkpt><trkpt lat="43.6328537" lon="11.3890279"><ele>709.3333333333334</ele><time>2026-05-02T10:47:56.996Z</time></trkpt><trkpt lat="43.6329451" lon="11.389045"><ele>710.6666666666666</ele><time>2026-05-02T10:47:57.996Z</time></trkpt><trkpt lat="43.6330304" lon="11.3890688"><ele>712.0</ele><time>2026-05-02T10:47:58.996Z</time></trkpt><trkpt lat="43.6331146" lon="11.389059"><ele>713.3333333333333</ele><time>2026-05-02T10:47:59.996Z</time></trkpt><trkpt lat="43.6331817" lon="11.3890222"><ele>714.6666666666666</ele><time>2026-05-02T10:48:00.997Z</time></trkpt><trkpt lat="43.6332415" lon="11.3889688"><ele>716.0</ele><time>2026-05-02T10:48:01.996Z</time></trkpt><trkpt lat="43.6332954" lon="11.3888193"><ele>716.0</ele><time>2026-05-02T10:48:03.996Z</time></trkpt><trkpt lat="43.6332638" lon="11.388729"><ele>716.0</ele><time>2026-05-02T10:48:04.996Z</time></trkpt><trkpt lat="43.6332573" lon="11.388513"><ele>716.0</ele><time>2026-05-02T10:48:06.996Z</time></trkpt><trkpt lat="43.6332627" lon="11.3883852"><ele>716.0</ele><time>2026-05-02T10:48:07.996Z</time></trkpt><trkpt lat="43.63326" lon="11.3882659"><ele>716.0</ele><time>2026-05-02T10:48:08.996Z</time></trkpt><trkpt lat="43.6332485" lon="11.3881463"><ele>716.0</ele><time>2026-05-02T10:48:09.996Z</time></trkpt><trkpt lat="43.6332451" lon="11.3880314"><ele>716.0</ele><time>2026-05-02T10:48:10.996Z</time></trkpt><trkpt lat="43.6332446" lon="11.387932"><ele>716.0</ele><time>2026-05-02T10:48:11.996Z</time></trkpt><trkpt lat="43.6332548" lon="11.3878158"><ele>716.0</ele><time>2026-05-02T10:48:12.997Z</time></trkpt><trkpt lat="43.6332787" lon="11.3876946"><ele>716.0</ele><time>2026-05-02T10:48:13.996Z</time></trkpt><trkpt lat="43.6333097" lon="11.3875788"><ele>716.0</ele><time>2026-05-02T10:48:14.996Z</time></trkpt><trkpt lat="43.6333353" lon="11.3874749"><ele>716.5</ele><time>2026-05-02T10:48:15.996Z</time></trkpt><trkpt lat="43.6333787" lon="11.3873754"><ele>717.0</ele><time>2026-05-02T10:48:16.996Z</time></trkpt><trkpt lat="43.6334432" lon="11.3872903"><ele>717.5</ele><time>2026-05-02T10:48:17.996Z</time></trkpt><trkpt lat="43.6335055" lon="11.3872045"><ele>718.0</ele><time>2026-05-02T10:48:18.996Z</time></trkpt><trkpt lat="43.6335678" lon="11.3871109"><ele>718.5</ele><time>2026-05-02T10:48:19.997Z</time></trkpt><trkpt lat="43.6336169" lon="11.3870309"><ele>719.0</ele><time>2026-05-02T10:48:20.996Z</time></trkpt><trkpt lat="43.6336655" lon="11.3869523"><ele>719.0</ele><time>2026-05-02T10:48:21.996Z</time></trkpt><trkpt lat="43.6337228" lon="11.386875"><ele>719.0</ele><time>2026-05-02T10:48:22.996Z</time></trkpt><trkpt lat="43.6337811" lon="11.3868019"><ele>719.0</ele><time>2026-05-02T10:48:23.996Z</time></trkpt><trkpt lat="43.6338407" lon="11.3867415"><ele>719.0</ele><time>2026-05-02T10:48:24.996Z</time></trkpt><trkpt lat="43.6339004" lon="11.3866706"><ele>719.0</ele><time>2026-05-02T10:48:25.996Z</time></trkpt><trkpt lat="43.6339583" lon="11.3866083"><ele>719.0</ele><time>2026-05-02T10:48:26.996Z</time></trkpt><trkpt lat="43.6340295" lon="11.3865377"><ele>719.0</ele><time>2026-05-02T10:48:27.996Z</time></trkpt><trkpt lat="43.6341073" lon="11.3864679"><ele>719.0</ele><time>2026-05-02T10:48:28.996Z</time></trkpt><trkpt lat="43.6341826" lon="11.3864125"><ele>719.0</ele><time>2026-05-02T10:48:29.997Z</time></trkpt><trkpt lat="43.6342507" lon="11.3863794"><ele>719.0</ele><time>2026-05-02T10:48:30.996Z</time></trkpt><trkpt lat="43.6343566" lon="11.3863926"><ele>719.0</ele><time>2026-05-02T10:48:32.996Z</time></trkpt><trkpt lat="43.6344295" lon="11.3864724"><ele>721.2</ele><time>2026-05-02T10:48:34.997Z</time></trkpt><trkpt lat="43.6345147" lon="11.3866181"><ele>723.4000000000001</ele><time>2026-05-02T10:48:36.996Z</time></trkpt><trkpt lat="43.6345783" lon="11.3867192"><ele>725.6</ele><time>2026-05-02T10:48:37.997Z</time></trkpt><trkpt lat="43.6346487" lon="11.3867855"><ele>727.8</ele><time>2026-05-02T10:48:38.996Z</time></trkpt><trkpt lat="43.6347064" lon="11.3868366"><ele>730.0</ele><time>2026-05-02T10:48:39.996Z</time></trkpt><trkpt lat="43.6347722" lon="11.3868431"><ele>730.0</ele><time>2026-05-02T10:48:40.996Z</time></trkpt><trkpt lat="43.6348378" lon="11.3867943"><ele>730.0</ele><time>2026-05-02T10:48:41.996Z</time></trkpt><trkpt lat="43.6349033" lon="11.386735"><ele>730.0</ele><time>2026-05-02T10:48:42.996Z</time></trkpt><trkpt lat="43.6349679" lon="11.3866636"><ele>730.0</ele><time>2026-05-02T10:48:43.996Z</time></trkpt><trkpt lat="43.6350181" lon="11.3865794"><ele>730.0</ele><time>2026-05-02T10:48:44.996Z</time></trkpt><trkpt lat="43.635064" lon="11.3865051"><ele>730.0</ele><time>2026-05-02T10:48:45.996Z</time></trkpt><trkpt lat="43.6351162" lon="11.3864223"><ele>730.8</ele><time>2026-05-02T10:48:46.996Z</time></trkpt><trkpt lat="43.6351684" lon="11.3863361"><ele>731.6</ele><time>2026-05-02T10:48:47.996Z</time></trkpt><trkpt lat="43.6352133" lon="11.386248"><ele>732.4000000000001</ele><time>2026-05-02T10:48:48.996Z</time></trkpt><trkpt lat="43.6352675" lon="11.3861696"><ele>733.2</ele><time>2026-05-02T10:48:49.996Z</time></trkpt><trkpt lat="43.6353577" lon="11.3860343"><ele>734.0</ele><time>2026-05-02T10:48:51.996Z</time></trkpt><trkpt lat="43.6354505" lon="11.3859064"><ele>734.0</ele><time>2026-05-02T10:48:53.996Z</time></trkpt><trkpt lat="43.6355211" lon="11.3858227"><ele>734.0</ele><time>2026-05-02T10:48:54.996Z</time></trkpt><trkpt lat="43.6355772" lon="11.3857388"><ele>734.0</ele><time>2026-05-02T10:48:55.996Z</time></trkpt><trkpt lat="43.6356269" lon="11.3856475"><ele>734.0</ele><time>2026-05-02T10:48:56.996Z</time></trkpt><trkpt lat="43.6356659" lon="11.3855413"><ele>734.0</ele><time>2026-05-02T10:48:57.996Z</time></trkpt><trkpt lat="43.6357161" lon="11.3854394"><ele>734.0</ele><time>2026-05-02T10:48:58.996Z</time></trkpt><trkpt lat="43.6357745" lon="11.3853394"><ele>731.2</ele><time>2026-05-02T10:48:59.996Z</time></trkpt><trkpt lat="43.6358345" lon="11.3852076"><ele>728.4000000000001</ele><time>2026-05-02T10:49:00.996Z</time></trkpt><trkpt lat="43.6358773" lon="11.3850677"><ele>725.6</ele><time>2026-05-02T10:49:01.996Z</time></trkpt><trkpt lat="43.6359119" lon="11.3849485"><ele>722.8</ele><time>2026-05-02T10:49:02.996Z</time></trkpt><trkpt lat="43.6359435" lon="11.3848371"><ele>720.0</ele><time>2026-05-02T10:49:03.997Z</time></trkpt><trkpt lat="43.6359815" lon="11.38475"><ele>720.8571428571428</ele><time>2026-05-02T10:49:04.996Z</time></trkpt><trkpt lat="43.636023" lon="11.3846658"><ele>721.7142857142858</ele><time>2026-05-02T10:49:05.996Z</time></trkpt><trkpt lat="43.6360644" lon="11.3845898"><ele>722.5714285714286</ele><time>2026-05-02T10:49:06.996Z</time></trkpt><trkpt lat="43.636112" lon="11.3845295"><ele>723.4285714285713</ele><time>2026-05-02T10:49:07.996Z</time></trkpt><trkpt lat="43.6361636" lon="11.3844673"><ele>724.2857142857142</ele><time>2026-05-02T10:49:08.996Z</time></trkpt><trkpt lat="43.6362273" lon="11.3844062"><ele>725.1428571428571</ele><time>2026-05-02T10:49:09.996Z</time></trkpt><trkpt lat="43.6362873" lon="11.3843539"><ele>726.0</ele><time>2026-05-02T10:49:10.996Z</time></trkpt><trkpt lat="43.6363672" lon="11.3842839"><ele>726.0</ele><time>2026-05-02T10:49:12.996Z</time></trkpt><trkpt lat="43.6364607" lon="11.3842358"><ele>726.0</ele><time>2026-05-02T10:49:14.996Z</time></trkpt><trkpt lat="43.6365408" lon="11.3842006"><ele>726.0</ele><time>2026-05-02T10:49:16.996Z</time></trkpt><trkpt lat="43.6366331" lon="11.3841352"><ele>726.0</ele><time>2026-05-02T10:49:19.996Z</time></trkpt><trkpt lat="43.6367078" lon="11.3841064"><ele>726.0</ele><time>2026-05-02T10:49:21.996Z</time></trkpt><trkpt lat="43.6367906" lon="11.3840705"><ele>726.0</ele><time>2026-05-02T10:49:23.996Z</time></trkpt><trkpt lat="43.6368534" lon="11.38405"><ele>726.0</ele><time>2026-05-02T10:49:24.996Z</time></trkpt><trkpt lat="43.6369724" lon="11.3840353"><ele>726.0</ele><time>2026-05-02T10:49:26.996Z</time></trkpt><trkpt lat="43.6370758" lon="11.3840163"><ele>726.0</ele><time>2026-05-02T10:49:28.996Z</time></trkpt><trkpt lat="43.6371404" lon="11.3839732"><ele>726.0</ele><time>2026-05-02T10:49:29.997Z</time></trkpt><trkpt lat="43.6372106" lon="11.3839324"><ele>726.0</ele><time>2026-05-02T10:49:30.996Z</time></trkpt><trkpt lat="43.6372763" lon="11.3838968"><ele>721.1999999999999</ele><time>2026-05-02T10:49:31.996Z</time></trkpt><trkpt lat="43.6373841" lon="11.3838094"><ele>716.4</ele><time>2026-05-02T10:49:33.996Z</time></trkpt><trkpt lat="43.637442" lon="11.3837669"><ele>711.6</ele><time>2026-05-02T10:49:34.996Z</time></trkpt><trkpt lat="43.6375461" lon="11.3836801"><ele>706.8</ele><time>2026-05-02T10:49:36.996Z</time></trkpt><trkpt lat="43.6376294" lon="11.383627"><ele>702.0</ele><time>2026-05-02T10:49:38.996Z</time></trkpt><trkpt lat="43.637724" lon="11.3835702"><ele>702.2</ele><time>2026-05-02T10:49:40.996Z</time></trkpt><trkpt lat="43.6378292" lon="11.3835172"><ele>702.4000000000001</ele><time>2026-05-02T10:49:42.996Z</time></trkpt><trkpt lat="43.6379086" lon="11.3835234"><ele>702.5999999999999</ele><time>2026-05-02T10:49:43.996Z</time></trkpt><trkpt lat="43.637983" lon="11.3835417"><ele>702.8</ele><time>2026-05-02T10:49:44.996Z</time></trkpt><trkpt lat="43.6381054" lon="11.3835816"><ele>703.0</ele><time>2026-05-02T10:49:46.996Z</time></trkpt><trkpt lat="43.6382125" lon="11.3836339"><ele>703.0</ele><time>2026-05-02T10:49:48.996Z</time></trkpt><trkpt lat="43.6382826" lon="11.3836388"><ele>703.0</ele><time>2026-05-02T10:49:49.996Z</time></trkpt><trkpt lat="43.6383691" lon="11.3836124"><ele>703.0</ele><time>2026-05-02T10:49:50.996Z</time></trkpt><trkpt lat="43.6384365" lon="11.3835777"><ele>703.0</ele><time>2026-05-02T10:49:51.997Z</time></trkpt><trkpt lat="43.6385415" lon="11.3835269"><ele>703.0</ele><time>2026-05-02T10:49:53.996Z</time></trkpt><trkpt lat="43.6386623" lon="11.383512"><ele>703.6666666666667</ele><time>2026-05-02T10:49:55.996Z</time></trkpt><trkpt lat="43.6387469" lon="11.3835054"><ele>704.3333333333334</ele><time>2026-05-02T10:49:56.996Z</time></trkpt><trkpt lat="43.6388239" lon="11.3834954"><ele>705.0</ele><time>2026-05-02T10:49:57.996Z</time></trkpt><trkpt lat="43.6388971" lon="11.3834955"><ele>705.6666666666666</ele><time>2026-05-02T10:49:58.996Z</time></trkpt><trkpt lat="43.6389633" lon="11.3834893"><ele>706.3333333333333</ele><time>2026-05-02T10:49:59.997Z</time></trkpt><trkpt lat="43.639029" lon="11.3834129"><ele>707.0</ele><time>2026-05-02T10:50:01.996Z</time></trkpt><trkpt lat="43.6390487" lon="11.3832645"><ele>707.0</ele><time>2026-05-02T10:50:03.996Z</time></trkpt><trkpt lat="43.638998" lon="11.3831678"><ele>707.0</ele><time>2026-05-02T10:50:05.996Z</time></trkpt><trkpt lat="43.6389517" lon="11.3831052"><ele>707.0</ele><time>2026-05-02T10:50:06.996Z</time></trkpt><trkpt lat="43.6388948" lon="11.3830187"><ele>707.0</ele><time>2026-05-02T10:50:07.996Z</time></trkpt><trkpt lat="43.6388493" lon="11.3829405"><ele>707.0</ele><time>2026-05-02T10:50:08.996Z</time></trkpt><trkpt lat="43.6388009" lon="11.3828789"><ele>707.0</ele><time>2026-05-02T10:50:09.996Z</time></trkpt><trkpt lat="43.6387454" lon="11.3828237"><ele>707.0</ele><time>2026-05-02T10:50:10.996Z</time></trkpt><trkpt lat="43.6386699" lon="11.3826933"><ele>707.0</ele><time>2026-05-02T10:50:12.996Z</time></trkpt><trkpt lat="43.6386223" lon="11.382595"><ele>707.0</ele><time>2026-05-02T10:50:13.996Z</time></trkpt><trkpt lat="43.6385782" lon="11.3824119"><ele>707.0</ele><time>2026-05-02T10:50:15.996Z</time></trkpt><trkpt lat="43.6385126" lon="11.3822737"><ele>707.0</ele><time>2026-05-02T10:50:16.996Z</time></trkpt><trkpt lat="43.6384699" lon="11.3821751"><ele>707.0</ele><time>2026-05-02T10:50:17.996Z</time></trkpt><trkpt lat="43.6384172" lon="11.3821024"><ele>707.0</ele><time>2026-05-02T10:50:18.996Z</time></trkpt><trkpt lat="43.6383698" lon="11.3820275"><ele>707.0</ele><time>2026-05-02T10:50:19.996Z</time></trkpt><trkpt lat="43.6383071" lon="11.3819392"><ele>707.0</ele><time>2026-05-02T10:50:20.997Z</time></trkpt><trkpt lat="43.6382076" lon="11.3818488"><ele>707.0</ele><time>2026-05-02T10:50:22.996Z</time></trkpt><trkpt lat="43.6381202" lon="11.3818067"><ele>707.0</ele><time>2026-05-02T10:50:24.996Z</time></trkpt><trkpt lat="43.6380607" lon="11.3817669"><ele>707.0</ele><time>2026-05-02T10:50:26.996Z</time></trkpt><trkpt lat="43.6379298" lon="11.3817023"><ele>707.0</ele><time>2026-05-02T10:50:28.997Z</time></trkpt><trkpt lat="43.6378632" lon="11.3816421"><ele>707.0</ele><time>2026-05-02T10:50:29.996Z</time></trkpt><trkpt lat="43.6378033" lon="11.3815787"><ele>707.0</ele><time>2026-05-02T10:50:30.996Z</time></trkpt><trkpt lat="43.6377567" lon="11.3814411"><ele>707.0</ele><time>2026-05-02T10:50:32.996Z</time></trkpt><trkpt lat="43.6377498" lon="11.3813033"><ele>707.0</ele><time>2026-05-02T10:50:33.996Z</time></trkpt><trkpt lat="43.6377538" lon="11.3811928"><ele>707.0</ele><time>2026-05-02T10:50:34.996Z</time></trkpt><trkpt lat="43.6377437" lon="11.3810806"><ele>707.5</ele><time>2026-05-02T10:50:35.996Z</time></trkpt><trkpt lat="43.6376884" lon="11.3809387"><ele>708.0</ele><time>2026-05-02T10:50:36.997Z</time></trkpt><trkpt lat="43.6376797" lon="11.3808104"><ele>708.5</ele><time>2026-05-02T10:50:37.996Z</time></trkpt><trkpt lat="43.6376832" lon="11.3807139"><ele>709.0</ele><time>2026-05-02T10:50:38.996Z</time></trkpt><trkpt lat="43.6376602" lon="11.3806086"><ele>709.5</ele><time>2026-05-02T10:50:39.996Z</time></trkpt><trkpt lat="43.6376399" lon="11.3805036"><ele>710.0</ele><time>2026-05-02T10:50:40.996Z</time></trkpt><trkpt lat="43.6376059" lon="11.3803923"><ele>710.0</ele><time>2026-05-02T10:50:41.996Z</time></trkpt><trkpt lat="43.6375739" lon="11.3802956"><ele>710.0</ele><time>2026-05-02T10:50:42.996Z</time></trkpt><trkpt lat="43.6375297" lon="11.3802044"><ele>710.0</ele><time>2026-05-02T10:50:43.997Z</time></trkpt><trkpt lat="43.6374708" lon="11.3801115"><ele>710.0</ele><time>2026-05-02T10:50:44.996Z</time></trkpt><trkpt lat="43.6374172" lon="11.3800265"><ele>710.0</ele><time>2026-05-02T10:50:45.997Z</time></trkpt><trkpt lat="43.6373615" lon="11.3799432"><ele>710.0</ele><time>2026-05-02T10:50:46.996Z</time></trkpt><trkpt lat="43.6373071" lon="11.379865"><ele>710.0</ele><time>2026-05-02T10:50:47.996Z</time></trkpt><trkpt lat="43.6372268" lon="11.3798102"><ele>710.0</ele><time>2026-05-02T10:50:48.996Z</time></trkpt><trkpt lat="43.6371587" lon="11.3797794"><ele>710.0</ele><time>2026-05-02T10:50:49.996Z</time></trkpt><trkpt lat="43.6370901" lon="11.3797593"><ele>710.0</ele><time>2026-05-02T10:50:50.996Z</time></trkpt><trkpt lat="43.6370068" lon="11.3797576"><ele>710.0</ele><time>2026-05-02T10:50:52.996Z</time></trkpt><trkpt lat="43.6369308" lon="11.3797502"><ele>710.0</ele><time>2026-05-02T10:50:54.996Z</time></trkpt><trkpt lat="43.6368631" lon="11.379669"><ele>708.5</ele><time>2026-05-02T10:50:56.996Z</time></trkpt><trkpt lat="43.6368267" lon="11.3795742"><ele>707.0</ele><time>2026-05-02T10:50:58.996Z</time></trkpt><trkpt lat="43.6367904" lon="11.3794582"><ele>705.5</ele><time>2026-05-02T10:51:00.996Z</time></trkpt><trkpt lat="43.6367702" lon="11.3793669"><ele>704.0</ele><time>2026-05-02T10:51:01.996Z</time></trkpt><trkpt lat="43.6367615" lon="11.3792671"><ele>702.5</ele><time>2026-05-02T10:51:02.996Z</time></trkpt><trkpt lat="43.636749" lon="11.3791775"><ele>701.0</ele><time>2026-05-02T10:51:03.996Z</time></trkpt><trkpt lat="43.6367227" lon="11.379009"><ele>701.0</ele><time>2026-05-02T10:51:05.996Z</time></trkpt><trkpt lat="43.6367251" lon="11.378921"><ele>701.0</ele><time>2026-05-02T10:51:06.996Z</time></trkpt><trkpt lat="43.6367425" lon="11.3787651"><ele>701.0</ele><time>2026-05-02T10:51:08.996Z</time></trkpt><trkpt lat="43.6367637" lon="11.3786812"><ele>701.0</ele><time>2026-05-02T10:51:09.996Z</time></trkpt><trkpt lat="43.6367834" lon="11.3785887"><ele>701.0</ele><time>2026-05-02T10:51:10.996Z</time></trkpt><trkpt lat="43.6367956" lon="11.3784969"><ele>701.0</ele><time>2026-05-02T10:51:11.996Z</time></trkpt><trkpt lat="43.6367958" lon="11.3783953"><ele>700.8333333333333</ele><time>2026-05-02T10:51:12.996Z</time></trkpt><trkpt lat="43.6367749" lon="11.3782793"><ele>700.6666666666666</ele><time>2026-05-02T10:51:13.996Z</time></trkpt><trkpt lat="43.6367358" lon="11.3781868"><ele>700.5</ele><time>2026-05-02T10:51:14.996Z</time></trkpt><trkpt lat="43.6366878" lon="11.378122"><ele>700.3333333333334</ele><time>2026-05-02T10:51:15.996Z</time></trkpt><trkpt lat="43.6366364" lon="11.3780622"><ele>700.1666666666667</ele><time>2026-05-02T10:51:16.996Z</time></trkpt><trkpt lat="43.63654" lon="11.3779855"><ele>700.0</ele><time>2026-05-02T10:51:18.996Z</time></trkpt><trkpt lat="43.6364441" lon="11.377913"><ele>701.5</ele><time>2026-05-02T10:51:20.996Z</time></trkpt><trkpt lat="43.6363685" lon="11.3778639"><ele>703.0</ele><time>2026-05-02T10:51:21.996Z</time></trkpt><trkpt lat="43.6362999" lon="11.3778187"><ele>704.5</ele><time>2026-05-02T10:51:22.996Z</time></trkpt><trkpt lat="43.6362295" lon="11.3777637"><ele>706.0</ele><time>2026-05-02T10:51:23.996Z</time></trkpt><trkpt lat="43.6361712" lon="11.377713"><ele>707.5</ele><time>2026-05-02T10:51:24.996Z</time></trkpt><trkpt lat="43.636116" lon="11.3776654"><ele>709.0</ele><time>2026-05-02T10:51:25.996Z</time></trkpt><trkpt lat="43.6360141" lon="11.3775783"><ele>705.2</ele><time>2026-05-02T10:51:27.996Z</time></trkpt><trkpt lat="43.6359037" lon="11.377522"><ele>701.4000000000001</ele><time>2026-05-02T10:51:29.996Z</time></trkpt><trkpt lat="43.6358415" lon="11.3774293"><ele>697.6</ele><time>2026-05-02T10:51:31.996Z</time></trkpt><trkpt lat="43.6358243" lon="11.3773384"><ele>693.8</ele><time>2026-05-02T10:51:32.996Z</time></trkpt><trkpt lat="43.6358009" lon="11.3771653"><ele>690.0</ele><time>2026-05-02T10:51:34.996Z</time></trkpt><trkpt lat="43.6358219" lon="11.3770103"><ele>690.0</ele><time>2026-05-02T10:51:36.996Z</time></trkpt><trkpt lat="43.6358799" lon="11.3768749"><ele>690.0</ele><time>2026-05-02T10:51:38.996Z</time></trkpt><trkpt lat="43.6359225" lon="11.3767846"><ele>690.0</ele><time>2026-05-02T10:51:39.996Z</time></trkpt><trkpt lat="43.6359598" lon="11.3767056"><ele>690.0</ele><time>2026-05-02T10:51:40.996Z</time></trkpt><trkpt lat="43.6359753" lon="11.3766193"><ele>690.0</ele><time>2026-05-02T10:51:41.996Z</time></trkpt><trkpt lat="43.6359622" lon="11.3765261"><ele>690.0</ele><time>2026-05-02T10:51:42.996Z</time></trkpt><trkpt lat="43.6359361" lon="11.3764362"><ele>690.1666666666666</ele><time>2026-05-02T10:51:43.996Z</time></trkpt><trkpt lat="43.6358466" lon="11.3763377"><ele>690.3333333333334</ele><time>2026-05-02T10:51:45.996Z</time></trkpt><trkpt lat="43.6357859" lon="11.3762942"><ele>690.5</ele><time>2026-05-02T10:51:46.996Z</time></trkpt><trkpt lat="43.63571" lon="11.3762258"><ele>690.6666666666667</ele><time>2026-05-02T10:51:47.996Z</time></trkpt><trkpt lat="43.6356443" lon="11.3761472"><ele>690.8333333333334</ele><time>2026-05-02T10:51:48.996Z</time></trkpt><trkpt lat="43.6355901" lon="11.3760732"><ele>691.0</ele><time>2026-05-02T10:51:49.996Z</time></trkpt><trkpt lat="43.6355477" lon="11.3759986"><ele>690.9999999999999</ele><time>2026-05-02T10:51:50.996Z</time></trkpt><trkpt lat="43.6355173" lon="11.375915"><ele>691.0</ele><time>2026-05-02T10:51:51.996Z</time></trkpt><trkpt lat="43.6354801" lon="11.3758324"><ele>691.0</ele><time>2026-05-02T10:51:52.996Z</time></trkpt><trkpt lat="43.6354452" lon="11.3757456"><ele>691.0</ele><time>2026-05-02T10:51:53.996Z</time></trkpt><trkpt lat="43.6354287" lon="11.3756507"><ele>691.0</ele><time>2026-05-02T10:51:54.996Z</time></trkpt><trkpt lat="43.6354223" lon="11.3755628"><ele>690.9999999999999</ele><time>2026-05-02T10:51:55.996Z</time></trkpt><trkpt lat="43.6354245" lon="11.37547"><ele>691.0</ele><time>2026-05-02T10:51:56.996Z</time></trkpt><trkpt lat="43.6354345" lon="11.3753594"><ele>690.6666666666667</ele><time>2026-05-02T10:51:57.996Z</time></trkpt><trkpt lat="43.6354428" lon="11.3752412"><ele>690.3333333333334</ele><time>2026-05-02T10:51:58.996Z</time></trkpt><trkpt lat="43.6354529" lon="11.3751323"><ele>690.0</ele><time>2026-05-02T10:51:59.996Z</time></trkpt><trkpt lat="43.6354559" lon="11.3750305"><ele>689.6666666666666</ele><time>2026-05-02T10:52:00.996Z</time></trkpt><trkpt lat="43.6354375" lon="11.3749359"><ele>689.3333333333333</ele><time>2026-05-02T10:52:01.996Z</time></trkpt><trkpt lat="43.6354103" lon="11.374837"><ele>689.0</ele><time>2026-05-02T10:52:02.996Z</time></trkpt><trkpt lat="43.6353815" lon="11.3747435"><ele>687.6666666666666</ele><time>2026-05-02T10:52:03.996Z</time></trkpt><trkpt lat="43.635337" lon="11.3746491"><ele>686.3333333333333</ele><time>2026-05-02T10:52:04.996Z</time></trkpt><trkpt lat="43.635294" lon="11.3745771"><ele>685.0</ele><time>2026-05-02T10:52:05.996Z</time></trkpt><trkpt lat="43.6352329" lon="11.3744387"><ele>683.6666666666666</ele><time>2026-05-02T10:52:07.996Z</time></trkpt><trkpt lat="43.6351945" lon="11.3743558"><ele>682.3333333333334</ele><time>2026-05-02T10:52:08.996Z</time></trkpt><trkpt lat="43.6351545" lon="11.3742593"><ele>681.0</ele><time>2026-05-02T10:52:09.996Z</time></trkpt><trkpt lat="43.6351207" lon="11.3741522"><ele>680.8333333333334</ele><time>2026-05-02T10:52:10.996Z</time></trkpt><trkpt lat="43.6351108" lon="11.3740517"><ele>680.6666666666666</ele><time>2026-05-02T10:52:11.996Z</time></trkpt><trkpt lat="43.6351225" lon="11.3739619"><ele>680.5</ele><time>2026-05-02T10:52:12.996Z</time></trkpt><trkpt lat="43.6351622" lon="11.3738301"><ele>680.3333333333333</ele><time>2026-05-02T10:52:14.996Z</time></trkpt><trkpt lat="43.6351736" lon="11.3739164"><ele>680.1666666666666</ele><time>2026-05-02T11:09:16.997Z</time></trkpt><trkpt lat="43.6351371" lon="11.3738282"><ele>680.0</ele><time>2026-05-02T11:09:36.997Z</time></trkpt><trkpt lat="43.6350777" lon="11.3736938"><ele>680.0</ele><time>2026-05-02T11:09:38.997Z</time></trkpt><trkpt lat="43.6350274" lon="11.3736261"><ele>680.0</ele><time>2026-05-02T11:09:39.997Z</time></trkpt><trkpt lat="43.6349611" lon="11.3735403"><ele>680.0</ele><time>2026-05-02T11:09:40.997Z</time></trkpt><trkpt lat="43.6348875" lon="11.3734507"><ele>680.0</ele><time>2026-05-02T11:09:41.997Z</time></trkpt><trkpt lat="43.6348111" lon="11.373361"><ele>680.0</ele><time>2026-05-02T11:09:42.997Z</time></trkpt><trkpt lat="43.6347412" lon="11.3732722"><ele>680.0</ele><time>2026-05-02T11:09:43.997Z</time></trkpt><trkpt lat="43.6346721" lon="11.3732049"><ele>680.0</ele><time>2026-05-02T11:09:44.997Z</time></trkpt><trkpt lat="43.6346157" lon="11.37314"><ele>680.0</ele><time>2026-05-02T11:09:45.997Z</time></trkpt><trkpt lat="43.6345756" lon="11.3730608"><ele>680.0</ele><time>2026-05-02T11:09:46.997Z</time></trkpt><trkpt lat="43.6344772" lon="11.3729396"><ele>680.0</ele><time>2026-05-02T11:09:48.997Z</time></trkpt><trkpt lat="43.634424" lon="11.3728683"><ele>680.0</ele><time>2026-05-02T11:09:49.997Z</time></trkpt><trkpt lat="43.6343848" lon="11.3727853"><ele>684.8</ele><time>2026-05-02T11:09:50.997Z</time></trkpt><trkpt lat="43.6343624" lon="11.3727035"><ele>689.6</ele><time>2026-05-02T11:09:51.997Z</time></trkpt><trkpt lat="43.6343144" lon="11.3725336"><ele>694.4000000000001</ele><time>2026-05-02T11:09:53.997Z</time></trkpt><trkpt lat="43.6342849" lon="11.372419"><ele>699.2</ele><time>2026-05-02T11:09:54.997Z</time></trkpt><trkpt lat="43.6342616" lon="11.3723015"><ele>704.0</ele><time>2026-05-02T11:09:55.997Z</time></trkpt><trkpt lat="43.634251" lon="11.3721934"><ele>703.8333333333333</ele><time>2026-05-02T11:09:56.997Z</time></trkpt><trkpt lat="43.6342496" lon="11.3720961"><ele>703.6666666666666</ele><time>2026-05-02T11:09:57.997Z</time></trkpt><trkpt lat="43.6342405" lon="11.372003"><ele>703.5</ele><time>2026-05-02T11:09:58.997Z</time></trkpt><trkpt lat="43.6342001" lon="11.3719184"><ele>703.3333333333334</ele><time>2026-05-02T11:09:59.997Z</time></trkpt><trkpt lat="43.6341388" lon="11.3718337"><ele>703.1666666666667</ele><time>2026-05-02T11:10:00.997Z</time></trkpt><trkpt lat="43.6340916" lon="11.3717435"><ele>703.0</ele><time>2026-05-02T11:10:01.997Z</time></trkpt><trkpt lat="43.6340474" lon="11.3716445"><ele>703.0</ele><time>2026-05-02T11:10:02.997Z</time></trkpt><trkpt lat="43.6339918" lon="11.3715632"><ele>703.0</ele><time>2026-05-02T11:10:03.998Z</time></trkpt><trkpt lat="43.633919" lon="11.3715132"><ele>703.0</ele><time>2026-05-02T11:10:04.997Z</time></trkpt><trkpt lat="43.633842" lon="11.3714618"><ele>703.0</ele><time>2026-05-02T11:10:05.997Z</time></trkpt><trkpt lat="43.633751" lon="11.3714175"><ele>703.0</ele><time>2026-05-02T11:10:06.997Z</time></trkpt><trkpt lat="43.6336546" lon="11.371398"><ele>703.0</ele><time>2026-05-02T11:10:07.998Z</time></trkpt><trkpt lat="43.6335694" lon="11.3713721"><ele>703.1666666666667</ele><time>2026-05-02T11:10:08.997Z</time></trkpt><trkpt lat="43.6334992" lon="11.371352"><ele>703.3333333333334</ele><time>2026-05-02T11:10:09.998Z</time></trkpt><trkpt lat="43.6333938" lon="11.3713167"><ele>703.5</ele><time>2026-05-02T11:10:11.998Z</time></trkpt><trkpt lat="43.6333219" lon="11.3712801"><ele>703.6666666666666</ele><time>2026-05-02T11:10:13.997Z</time></trkpt><trkpt lat="43.6332781" lon="11.3712148"><ele>703.8333333333333</ele><time>2026-05-02T11:10:15.997Z</time></trkpt><trkpt lat="43.6332174" lon="11.3711113"><ele>704.0</ele><time>2026-05-02T11:10:17.997Z</time></trkpt><trkpt lat="43.6331981" lon="11.3709735"><ele>704.0</ele><time>2026-05-02T11:10:19.997Z</time></trkpt><trkpt lat="43.6332071" lon="11.3708209"><ele>704.0</ele><time>2026-05-02T11:10:21.997Z</time></trkpt><trkpt lat="43.6332503" lon="11.370679"><ele>704.0</ele><time>2026-05-02T11:10:23.997Z</time></trkpt><trkpt lat="43.6332667" lon="11.3705492"><ele>704.0</ele><time>2026-05-02T11:10:25.997Z</time></trkpt><trkpt lat="43.6332555" lon="11.3704048"><ele>704.0</ele><time>2026-05-02T11:10:27.997Z</time></trkpt><trkpt lat="43.6332311" lon="11.370313"><ele>704.1666666666666</ele><time>2026-05-02T11:10:28.997Z</time></trkpt><trkpt lat="43.6332128" lon="11.3702284"><ele>704.3333333333333</ele><time>2026-05-02T11:10:29.997Z</time></trkpt><trkpt lat="43.6332004" lon="11.3701375"><ele>704.5</ele><time>2026-05-02T11:10:30.997Z</time></trkpt><trkpt lat="43.6332016" lon="11.3700424"><ele>704.6666666666666</ele><time>2026-05-02T11:10:31.997Z</time></trkpt><trkpt lat="43.6332203" lon="11.369942"><ele>704.8333333333334</ele><time>2026-05-02T11:10:32.997Z</time></trkpt><trkpt lat="43.6332656" lon="11.3698123"><ele>705.0</ele><time>2026-05-02T11:10:34.997Z</time></trkpt><trkpt lat="43.633312" lon="11.3697204"><ele>705.2</ele><time>2026-05-02T11:10:36.997Z</time></trkpt><trkpt lat="43.6333609" lon="11.3696404"><ele>705.4</ele><time>2026-05-02T11:10:38.997Z</time></trkpt><trkpt lat="43.633386" lon="11.3695093"><ele>705.5999999999999</ele><time>2026-05-02T11:10:40.997Z</time></trkpt><trkpt lat="43.6333784" lon="11.3693643"><ele>705.8</ele><time>2026-05-02T11:10:42.998Z</time></trkpt><trkpt lat="43.633356" lon="11.3692158"><ele>706.0</ele><time>2026-05-02T11:10:44.997Z</time></trkpt><trkpt lat="43.633378" lon="11.3690575"><ele>706.0</ele><time>2026-05-02T11:10:46.997Z</time></trkpt><trkpt lat="43.6334164" lon="11.3689764"><ele>706.0</ele><time>2026-05-02T11:10:47.997Z</time></trkpt><trkpt lat="43.63345" lon="11.3688972"><ele>706.0</ele><time>2026-05-02T11:10:48.997Z</time></trkpt><trkpt lat="43.6334895" lon="11.3688151"><ele>706.0</ele><time>2026-05-02T11:10:49.997Z</time></trkpt><trkpt lat="43.633502" lon="11.3687147"><ele>706.0</ele><time>2026-05-02T11:10:50.997Z</time></trkpt><trkpt lat="43.6335241" lon="11.3686202"><ele>706.0</ele><time>2026-05-02T11:10:51.997Z</time></trkpt><trkpt lat="43.6335471" lon="11.3685279"><ele>706.0</ele><time>2026-05-02T11:10:52.997Z</time></trkpt><trkpt lat="43.6335808" lon="11.3684406"><ele>706.6666666666667</ele><time>2026-05-02T11:10:53.997Z</time></trkpt><trkpt lat="43.633617" lon="11.3683474"><ele>707.3333333333334</ele><time>2026-05-02T11:10:54.997Z</time></trkpt><trkpt lat="43.6336437" lon="11.3682581"><ele>708.0</ele><time>2026-05-02T11:10:55.997Z</time></trkpt><trkpt lat="43.6336549" lon="11.3681716"><ele>708.6666666666666</ele><time>2026-05-02T11:10:56.997Z</time></trkpt><trkpt lat="43.6336538" lon="11.3680837"><ele>709.3333333333333</ele><time>2026-05-02T11:10:57.997Z</time></trkpt><trkpt lat="43.6336432" lon="11.3679575"><ele>710.0</ele><time>2026-05-02T11:10:59.997Z</time></trkpt><trkpt lat="43.6335896" lon="11.3678335"><ele>711.2</ele><time>2026-05-02T11:11:01.997Z</time></trkpt><trkpt lat="43.633525" lon="11.3676912"><ele>712.4</ele><time>2026-05-02T11:11:03.997Z</time></trkpt><trkpt lat="43.6334772" lon="11.3675953"><ele>713.5999999999999</ele><time>2026-05-02T11:11:04.997Z</time></trkpt><trkpt lat="43.6334408" lon="11.3675237"><ele>714.8</ele><time>2026-05-02T11:11:05.997Z</time></trkpt><trkpt lat="43.6333776" lon="11.3674112"><ele>716.0</ele><time>2026-05-02T11:11:07.997Z</time></trkpt><trkpt lat="43.6333328" lon="11.3672707"><ele>716.0</ele><time>2026-05-02T11:11:09.997Z</time></trkpt><trkpt lat="43.6332951" lon="11.3671091"><ele>716.0</ele><time>2026-05-02T11:11:11.997Z</time></trkpt><trkpt lat="43.6332629" lon="11.3670151"><ele>716.0</ele><time>2026-05-02T11:11:12.997Z</time></trkpt><trkpt lat="43.6332178" lon="11.3669192"><ele>716.0</ele><time>2026-05-02T11:11:13.997Z</time></trkpt><trkpt lat="43.633174" lon="11.3668487"><ele>716.0</ele><time>2026-05-02T11:11:14.997Z</time></trkpt><trkpt lat="43.6331145" lon="11.366778"><ele>716.0</ele><time>2026-05-02T11:11:15.997Z</time></trkpt><trkpt lat="43.6330531" lon="11.3667278"><ele>716.0</ele><time>2026-05-02T11:11:16.997Z</time></trkpt><trkpt lat="43.6329851" lon="11.366681"><ele>716.0</ele><time>2026-05-02T11:11:17.997Z</time></trkpt><trkpt lat="43.6329194" lon="11.3666404"><ele>716.0</ele><time>2026-05-02T11:11:18.997Z</time></trkpt><trkpt lat="43.6328481" lon="11.3666246"><ele>716.0</ele><time>2026-05-02T11:11:19.997Z</time></trkpt><trkpt lat="43.6327723" lon="11.3666105"><ele>716.0</ele><time>2026-05-02T11:11:20.997Z</time></trkpt><trkpt lat="43.6327087" lon="11.3666181"><ele>716.0</ele><time>2026-05-02T11:11:21.997Z</time></trkpt><trkpt lat="43.6325883" lon="11.3666571"><ele>715.5999999999999</ele><time>2026-05-02T11:11:23.998Z</time></trkpt><trkpt lat="43.6324863" lon="11.3666887"><ele>715.2</ele><time>2026-05-02T11:11:25.997Z</time></trkpt><trkpt lat="43.6323997" lon="11.3667209"><ele>714.8</ele><time>2026-05-02T11:11:27.997Z</time></trkpt><trkpt lat="43.6323153" lon="11.3667392"><ele>714.4000000000001</ele><time>2026-05-02T11:11:29.997Z</time></trkpt><trkpt lat="43.6322107" lon="11.3667798"><ele>714.0</ele><time>2026-05-02T11:11:31.997Z</time></trkpt><trkpt lat="43.6321019" lon="11.3668115"><ele>714.0</ele><time>2026-05-02T11:11:33.997Z</time></trkpt><trkpt lat="43.6319734" lon="11.366857"><ele>714.0</ele><time>2026-05-02T11:11:35.997Z</time></trkpt><trkpt lat="43.6318917" lon="11.3668875"><ele>714.0</ele><time>2026-05-02T11:11:36.997Z</time></trkpt><trkpt lat="43.6318011" lon="11.3669242"><ele>714.0</ele><time>2026-05-02T11:11:37.997Z</time></trkpt><trkpt lat="43.6317086" lon="11.3669493"><ele>714.0</ele><time>2026-05-02T11:11:38.997Z</time></trkpt><trkpt lat="43.6316076" lon="11.3669739"><ele>712.8000000000001</ele><time>2026-05-02T11:11:39.997Z</time></trkpt><trkpt lat="43.6315032" lon="11.3670142"><ele>711.6</ele><time>2026-05-02T11:11:40.997Z</time></trkpt><trkpt lat="43.6314025" lon="11.3670526"><ele>710.4</ele><time>2026-05-02T11:11:41.997Z</time></trkpt><trkpt lat="43.6313064" lon="11.3671061"><ele>709.2</ele><time>2026-05-02T11:11:42.997Z</time></trkpt><trkpt lat="43.6312195" lon="11.3671575"><ele>708.0</ele><time>2026-05-02T11:11:43.997Z</time></trkpt><trkpt lat="43.631152" lon="11.3672"><ele>708.5</ele><time>2026-05-02T11:11:44.997Z</time></trkpt><trkpt lat="43.6310854" lon="11.367214"><ele>709.0</ele><time>2026-05-02T11:11:45.997Z</time></trkpt><trkpt lat="43.6310209" lon="11.3672096"><ele>709.5</ele><time>2026-05-02T11:11:46.997Z</time></trkpt><trkpt lat="43.6309582" lon="11.367168"><ele>710.0</ele><time>2026-05-02T11:11:47.997Z</time></trkpt><trkpt lat="43.6308969" lon="11.3670951"><ele>710.5</ele><time>2026-05-02T11:11:48.997Z</time></trkpt><trkpt lat="43.6308215" lon="11.3670211"><ele>711.0</ele><time>2026-05-02T11:11:49.997Z</time></trkpt><trkpt lat="43.6307465" lon="11.366944"><ele>711.0</ele><time>2026-05-02T11:11:50.997Z</time></trkpt><trkpt lat="43.6306651" lon="11.3668634"><ele>711.0</ele><time>2026-05-02T11:11:51.997Z</time></trkpt><trkpt lat="43.6305874" lon="11.3668052"><ele>711.0</ele><time>2026-05-02T11:11:52.997Z</time></trkpt><trkpt lat="43.6304986" lon="11.3667676"><ele>711.0</ele><time>2026-05-02T11:11:53.998Z</time></trkpt><trkpt lat="43.6304015" lon="11.366759"><ele>711.0</ele><time>2026-05-02T11:11:54.997Z</time></trkpt><trkpt lat="43.6303057" lon="11.3667861"><ele>713.0</ele><time>2026-05-02T11:11:55.997Z</time></trkpt><trkpt lat="43.6302151" lon="11.3668111"><ele>715.0</ele><time>2026-05-02T11:11:56.998Z</time></trkpt><trkpt lat="43.6301169" lon="11.3667873"><ele>717.0</ele><time>2026-05-02T11:11:57.997Z</time></trkpt><trkpt lat="43.6300131" lon="11.3667458"><ele>719.0</ele><time>2026-05-02T11:11:58.997Z</time></trkpt><trkpt lat="43.629919" lon="11.3666804"><ele>721.0</ele><time>2026-05-02T11:11:59.997Z</time></trkpt><trkpt lat="43.6298379" lon="11.3666057"><ele>721.0</ele><time>2026-05-02T11:12:00.997Z</time></trkpt><trkpt lat="43.6297615" lon="11.3665428"><ele>721.0</ele><time>2026-05-02T11:12:01.997Z</time></trkpt><trkpt lat="43.6296895" lon="11.3664564"><ele>721.0</ele><time>2026-05-02T11:12:02.997Z</time></trkpt><trkpt lat="43.6296208" lon="11.3663833"><ele>721.0</ele><time>2026-05-02T11:12:03.998Z</time></trkpt><trkpt lat="43.6295552" lon="11.3663328"><ele>721.0</ele><time>2026-05-02T11:12:04.997Z</time></trkpt><trkpt lat="43.6294745" lon="11.3662803"><ele>721.0</ele><time>2026-05-02T11:12:05.997Z</time></trkpt><trkpt lat="43.6294021" lon="11.366233"><ele>720.5</ele><time>2026-05-02T11:12:06.997Z</time></trkpt><trkpt lat="43.6293379" lon="11.3661724"><ele>720.0</ele><time>2026-05-02T11:12:07.997Z</time></trkpt><trkpt lat="43.6292738" lon="11.3660979"><ele>719.5</ele><time>2026-05-02T11:12:08.997Z</time></trkpt><trkpt lat="43.6292153" lon="11.3660194"><ele>719.0</ele><time>2026-05-02T11:12:09.997Z</time></trkpt><trkpt lat="43.6291543" lon="11.3659402"><ele>718.5</ele><time>2026-05-02T11:12:10.997Z</time></trkpt><trkpt lat="43.6290845" lon="11.3658519"><ele>718.0</ele><time>2026-05-02T11:12:11.997Z</time></trkpt><trkpt lat="43.6290147" lon="11.3657701"><ele>718.0</ele><time>2026-05-02T11:12:12.997Z</time></trkpt><trkpt lat="43.6289398" lon="11.3656857"><ele>718.0</ele><time>2026-05-02T11:12:13.997Z</time></trkpt><trkpt lat="43.6288626" lon="11.3656026"><ele>718.0</ele><time>2026-05-02T11:12:14.997Z</time></trkpt><trkpt lat="43.6287918" lon="11.3655294"><ele>718.0</ele><time>2026-05-02T11:12:15.997Z</time></trkpt><trkpt lat="43.6287128" lon="11.3654729"><ele>718.0</ele><time>2026-05-02T11:12:16.997Z</time></trkpt><trkpt lat="43.6286425" lon="11.3654095"><ele>714.5999999999999</ele><time>2026-05-02T11:12:17.997Z</time></trkpt><trkpt lat="43.6285783" lon="11.3653596"><ele>711.1999999999999</ele><time>2026-05-02T11:12:18.997Z</time></trkpt><trkpt lat="43.6284746" lon="11.3652554"><ele>707.8</ele><time>2026-05-02T11:12:20.997Z</time></trkpt><trkpt lat="43.6283661" lon="11.365179"><ele>704.4</ele><time>2026-05-02T11:12:22.997Z</time></trkpt><trkpt lat="43.6282961" lon="11.365145"><ele>701.0</ele><time>2026-05-02T11:12:23.997Z</time></trkpt><trkpt lat="43.6281829" lon="11.365151"><ele>701.0</ele><time>2026-05-02T11:12:25.997Z</time></trkpt><trkpt lat="43.6280863" lon="11.3651044"><ele>701.0</ele><time>2026-05-02T11:12:27.998Z</time></trkpt><trkpt lat="43.6280559" lon="11.3649814"><ele>701.0</ele><time>2026-05-02T11:12:29.997Z</time></trkpt><trkpt lat="43.6281026" lon="11.3648323"><ele>701.0</ele><time>2026-05-02T11:12:31.998Z</time></trkpt><trkpt lat="43.6281271" lon="11.3647435"><ele>701.0</ele><time>2026-05-02T11:12:32.997Z</time></trkpt><trkpt lat="43.6281381" lon="11.3646541"><ele>701.0</ele><time>2026-05-02T11:12:33.998Z</time></trkpt><trkpt lat="43.6281549" lon="11.3645525"><ele>699.8333333333333</ele><time>2026-05-02T11:12:34.997Z</time></trkpt><trkpt lat="43.6281589" lon="11.3644445"><ele>698.6666666666666</ele><time>2026-05-02T11:12:35.997Z</time></trkpt><trkpt lat="43.6281515" lon="11.3643473"><ele>697.5</ele><time>2026-05-02T11:12:36.997Z</time></trkpt><trkpt lat="43.6281242" lon="11.3642307"><ele>696.3333333333334</ele><time>2026-05-02T11:12:37.997Z</time></trkpt><trkpt lat="43.6280842" lon="11.3641264"><ele>695.1666666666667</ele><time>2026-05-02T11:12:38.997Z</time></trkpt><trkpt lat="43.6280364" lon="11.3640376"><ele>694.0</ele><time>2026-05-02T11:12:39.997Z</time></trkpt><trkpt lat="43.6279939" lon="11.3639551"><ele>694.0</ele><time>2026-05-02T11:12:40.997Z</time></trkpt><trkpt lat="43.6279421" lon="11.3638869"><ele>694.0</ele><time>2026-05-02T11:12:41.997Z</time></trkpt><trkpt lat="43.6278803" lon="11.3638469"><ele>694.0</ele><time>2026-05-02T11:12:42.997Z</time></trkpt><trkpt lat="43.6278129" lon="11.3638288"><ele>694.0</ele><time>2026-05-02T11:12:43.997Z</time></trkpt><trkpt lat="43.6277378" lon="11.3638337"><ele>694.0</ele><time>2026-05-02T11:12:44.997Z</time></trkpt><trkpt lat="43.627664" lon="11.3638505"><ele>694.0</ele><time>2026-05-02T11:12:45.997Z</time></trkpt><trkpt lat="43.6275893" lon="11.3638639"><ele>694.0</ele><time>2026-05-02T11:12:46.997Z</time></trkpt><trkpt lat="43.627518" lon="11.3638646"><ele>691.0</ele><time>2026-05-02T11:12:47.997Z</time></trkpt><trkpt lat="43.6274393" lon="11.3638584"><ele>688.0</ele><time>2026-05-02T11:12:48.997Z</time></trkpt><trkpt lat="43.6273725" lon="11.3638533"><ele>685.0</ele><time>2026-05-02T11:12:49.997Z</time></trkpt><trkpt lat="43.6273021" lon="11.3638279"><ele>682.0</ele><time>2026-05-02T11:12:50.997Z</time></trkpt><trkpt lat="43.6272413" lon="11.3638044"><ele>679.0</ele><time>2026-05-02T11:12:51.997Z</time></trkpt><trkpt lat="43.6271804" lon="11.3637664"><ele>676.0</ele><time>2026-05-02T11:12:52.997Z</time></trkpt><trkpt lat="43.6271179" lon="11.3637244"><ele>673.0</ele><time>2026-05-02T11:12:53.997Z</time></trkpt><trkpt lat="43.6270583" lon="11.3636815"><ele>668.8333333333334</ele><time>2026-05-02T11:12:54.997Z</time></trkpt><trkpt lat="43.6269725" lon="11.3635443"><ele>664.6666666666667</ele><time>2026-05-02T11:12:56.997Z</time></trkpt><trkpt lat="43.6269366" lon="11.3634543"><ele>660.5</ele><time>2026-05-02T11:12:57.997Z</time></trkpt><trkpt lat="43.6269049" lon="11.363359"><ele>656.3333333333334</ele><time>2026-05-02T11:12:58.997Z</time></trkpt><trkpt lat="43.6268713" lon="11.3632668"><ele>652.1666666666666</ele><time>2026-05-02T11:12:59.997Z</time></trkpt><trkpt lat="43.6268433" lon="11.3631772"><ele>648.0</ele><time>2026-05-02T11:13:00.997Z</time></trkpt><trkpt lat="43.6268129" lon="11.3630955"><ele>647.4285714285714</ele><time>2026-05-02T11:13:01.997Z</time></trkpt><trkpt lat="43.6267915" lon="11.3630078"><ele>646.8571428571429</ele><time>2026-05-02T11:13:02.997Z</time></trkpt><trkpt lat="43.6267739" lon="11.362918"><ele>646.2857142857142</ele><time>2026-05-02T11:13:03.997Z</time></trkpt><trkpt lat="43.62677" lon="11.3628276"><ele>645.7142857142858</ele><time>2026-05-02T11:13:04.997Z</time></trkpt><trkpt lat="43.626772" lon="11.3627348"><ele>645.1428571428571</ele><time>2026-05-02T11:13:05.997Z</time></trkpt><trkpt lat="43.6267835" lon="11.362635"><ele>644.5714285714286</ele><time>2026-05-02T11:13:06.997Z</time></trkpt><trkpt lat="43.6267934" lon="11.3625342"><ele>644.0</ele><time>2026-05-02T11:13:07.997Z</time></trkpt><trkpt lat="43.6267922" lon="11.3624329"><ele>644.0</ele><time>2026-05-02T11:13:08.997Z</time></trkpt><trkpt lat="43.6267729" lon="11.3623418"><ele>644.0</ele><time>2026-05-02T11:13:09.997Z</time></trkpt><trkpt lat="43.6267383" lon="11.3622566"><ele>644.0</ele><time>2026-05-02T11:13:10.997Z</time></trkpt><trkpt lat="43.6266924" lon="11.3621773"><ele>644.0</ele><time>2026-05-02T11:13:11.997Z</time></trkpt><trkpt lat="43.6266695" lon="11.3620962"><ele>644.0</ele><time>2026-05-02T11:13:12.997Z</time></trkpt><trkpt lat="43.6266703" lon="11.3619203"><ele>644.0</ele><time>2026-05-02T11:13:14.997Z</time></trkpt><trkpt lat="43.6266937" lon="11.3618389"><ele>642.6666666666666</ele><time>2026-05-02T11:13:15.997Z</time></trkpt><trkpt lat="43.6267278" lon="11.3617403"><ele>641.3333333333333</ele><time>2026-05-02T11:13:16.997Z</time></trkpt><trkpt lat="43.6267524" lon="11.3616598"><ele>640.0</ele><time>2026-05-02T11:13:17.997Z</time></trkpt><trkpt lat="43.626785" lon="11.3615211"><ele>638.6666666666666</ele><time>2026-05-02T11:13:19.997Z</time></trkpt><trkpt lat="43.6267441" lon="11.361412"><ele>637.3333333333334</ele><time>2026-05-02T11:13:21.998Z</time></trkpt><trkpt lat="43.6266354" lon="11.3613814"><ele>636.0</ele><time>2026-05-02T11:13:23.997Z</time></trkpt><trkpt lat="43.6265708" lon="11.3613977"><ele>636.0</ele><time>2026-05-02T11:13:24.997Z</time></trkpt><trkpt lat="43.6265087" lon="11.3614247"><ele>636.0</ele><time>2026-05-02T11:13:25.997Z</time></trkpt><trkpt lat="43.6263986" lon="11.3614941"><ele>636.0</ele><time>2026-05-02T11:13:27.997Z</time></trkpt><trkpt lat="43.6263554" lon="11.361572"><ele>636.0</ele><time>2026-05-02T11:13:28.997Z</time></trkpt><trkpt lat="43.6263194" lon="11.3616559"><ele>636.0</ele><time>2026-05-02T11:13:29.998Z</time></trkpt><trkpt lat="43.6262928" lon="11.3617567"><ele>636.0</ele><time>2026-05-02T11:13:30.998Z</time></trkpt><trkpt lat="43.6262782" lon="11.3618806"><ele>636.0</ele><time>2026-05-02T11:13:31.997Z</time></trkpt><trkpt lat="43.6262632" lon="11.3620135"><ele>636.0</ele><time>2026-05-02T11:13:32.997Z</time></trkpt><trkpt lat="43.626259" lon="11.3621406"><ele>636.0</ele><time>2026-05-02T11:13:33.997Z</time></trkpt><trkpt lat="43.6262597" lon="11.3622519"><ele>636.0</ele><time>2026-05-02T11:13:34.998Z</time></trkpt><trkpt lat="43.6262611" lon="11.3623479"><ele>636.0</ele><time>2026-05-02T11:13:35.997Z</time></trkpt><trkpt lat="43.6262304" lon="11.3624843"><ele>636.0</ele><time>2026-05-02T11:13:37.997Z</time></trkpt><trkpt lat="43.6261387" lon="11.3625157"><ele>631.2</ele><time>2026-05-02T11:13:39.997Z</time></trkpt><trkpt lat="43.6260681" lon="11.3624062"><ele>626.4000000000001</ele><time>2026-05-02T11:13:41.997Z</time></trkpt><trkpt lat="43.6260894" lon="11.3622384"><ele>621.6</ele><time>2026-05-02T11:13:43.997Z</time></trkpt><trkpt lat="43.6261015" lon="11.3621421"><ele>616.8000000000001</ele><time>2026-05-02T11:13:44.997Z</time></trkpt><trkpt lat="43.6261175" lon="11.3620579"><ele>612.0</ele><time>2026-05-02T11:13:45.997Z</time></trkpt><trkpt lat="43.626079" lon="11.3618895"><ele>611.6666666666666</ele><time>2026-05-02T11:13:47.997Z</time></trkpt><trkpt lat="43.6260458" lon="11.3617964"><ele>611.3333333333334</ele><time>2026-05-02T11:13:48.997Z</time></trkpt><trkpt lat="43.6259997" lon="11.3617073"><ele>611.0</ele><time>2026-05-02T11:13:49.998Z</time></trkpt><trkpt lat="43.6259479" lon="11.361617"><ele>610.6666666666667</ele><time>2026-05-02T11:13:50.997Z</time></trkpt><trkpt lat="43.6258906" lon="11.3615378"><ele>610.3333333333334</ele><time>2026-05-02T11:13:51.997Z</time></trkpt><trkpt lat="43.625827" lon="11.3614616"><ele>610.0</ele><time>2026-05-02T11:13:52.997Z</time></trkpt><trkpt lat="43.6257576" lon="11.3613938"><ele>608.8333333333334</ele><time>2026-05-02T11:13:53.997Z</time></trkpt><trkpt lat="43.6256913" lon="11.3613241"><ele>607.6666666666667</ele><time>2026-05-02T11:13:54.997Z</time></trkpt><trkpt lat="43.6256285" lon="11.3612505"><ele>606.5</ele><time>2026-05-02T11:13:55.997Z</time></trkpt><trkpt lat="43.6255688" lon="11.3611764"><ele>605.3333333333334</ele><time>2026-05-02T11:13:56.997Z</time></trkpt><trkpt lat="43.6254994" lon="11.361106"><ele>604.1666666666666</ele><time>2026-05-02T11:13:57.997Z</time></trkpt><trkpt lat="43.6254265" lon="11.3610315"><ele>603.0</ele><time>2026-05-02T11:13:58.997Z</time></trkpt><trkpt lat="43.6253522" lon="11.3609555"><ele>600.0</ele><time>2026-05-02T11:13:59.997Z</time></trkpt><trkpt lat="43.625282" lon="11.3608715"><ele>597.0</ele><time>2026-05-02T11:14:00.997Z</time></trkpt><trkpt lat="43.6252118" lon="11.3607948"><ele>594.0</ele><time>2026-05-02T11:14:01.997Z</time></trkpt><trkpt lat="43.6251394" lon="11.3607206"><ele>591.0</ele><time>2026-05-02T11:14:02.997Z</time></trkpt><trkpt lat="43.6250656" lon="11.3606487"><ele>588.0</ele><time>2026-05-02T11:14:03.997Z</time></trkpt><trkpt lat="43.6249944" lon="11.3605875"><ele>585.0</ele><time>2026-05-02T11:14:04.997Z</time></trkpt><trkpt lat="43.6249236" lon="11.3605238"><ele>584.6666666666666</ele><time>2026-05-02T11:14:05.997Z</time></trkpt><trkpt lat="43.6248498" lon="11.3604593"><ele>584.3333333333334</ele><time>2026-05-02T11:14:06.997Z</time></trkpt><trkpt lat="43.6247736" lon="11.3604048"><ele>584.0</ele><time>2026-05-02T11:14:07.997Z</time></trkpt><trkpt lat="43.6246946" lon="11.360355"><ele>583.6666666666667</ele><time>2026-05-02T11:14:08.997Z</time></trkpt><trkpt lat="43.6246109" lon="11.3603017"><ele>583.3333333333334</ele><time>2026-05-02T11:14:09.997Z</time></trkpt><trkpt lat="43.6245247" lon="11.3602589"><ele>583.0</ele><time>2026-05-02T11:14:10.997Z</time></trkpt><trkpt lat="43.6244434" lon="11.3602219"><ele>581.3333333333334</ele><time>2026-05-02T11:14:11.997Z</time></trkpt><trkpt lat="43.6243731" lon="11.360194"><ele>579.6666666666667</ele><time>2026-05-02T11:14:12.997Z</time></trkpt><trkpt lat="43.6242986" lon="11.3601724"><ele>578.0</ele><time>2026-05-02T11:14:13.997Z</time></trkpt><trkpt lat="43.624232" lon="11.3601516"><ele>576.3333333333334</ele><time>2026-05-02T11:14:14.997Z</time></trkpt><trkpt lat="43.6241323" lon="11.3600946"><ele>574.6666666666666</ele><time>2026-05-02T11:14:16.997Z</time></trkpt><trkpt lat="43.6240547" lon="11.3599849"><ele>573.0</ele><time>2026-05-02T11:14:18.997Z</time></trkpt><trkpt lat="43.6240443" lon="11.3598866"><ele>573.0</ele><time>2026-05-02T11:14:19.997Z</time></trkpt><trkpt lat="43.6240497" lon="11.3597774"><ele>573.0</ele><time>2026-05-02T11:14:20.997Z</time></trkpt><trkpt lat="43.6240536" lon="11.3596197"><ele>573.0</ele><time>2026-05-02T11:14:22.997Z</time></trkpt><trkpt lat="43.6240342" lon="11.3595055"><ele>573.0</ele><time>2026-05-02T11:14:24.997Z</time></trkpt><trkpt lat="43.6239614" lon="11.359462"><ele>573.0</ele><time>2026-05-02T11:14:26.997Z</time></trkpt><trkpt lat="43.6238354" lon="11.3595071"><ele>571.0</ele><time>2026-05-02T11:14:28.998Z</time></trkpt><trkpt lat="43.6237552" lon="11.3595607"><ele>569.0</ele><time>2026-05-02T11:14:29.998Z</time></trkpt><trkpt lat="43.6236726" lon="11.3596195"><ele>567.0</ele><time>2026-05-02T11:14:30.997Z</time></trkpt><trkpt lat="43.623591" lon="11.3596826"><ele>565.0</ele><time>2026-05-02T11:14:31.997Z</time></trkpt><trkpt lat="43.6235062" lon="11.3597433"><ele>563.0</ele><time>2026-05-02T11:14:32.997Z</time></trkpt><trkpt lat="43.6234168" lon="11.3597945"><ele>561.4</ele><time>2026-05-02T11:14:33.997Z</time></trkpt><trkpt lat="43.6233279" lon="11.3598384"><ele>559.8</ele><time>2026-05-02T11:14:34.997Z</time></trkpt><trkpt lat="43.6232409" lon="11.359872"><ele>558.2</ele><time>2026-05-02T11:14:35.997Z</time></trkpt><trkpt lat="43.6231524" lon="11.3598958"><ele>556.6</ele><time>2026-05-02T11:14:36.997Z</time></trkpt><trkpt lat="43.6230587" lon="11.3598968"><ele>555.0</ele><time>2026-05-02T11:14:37.997Z</time></trkpt><trkpt lat="43.6229688" lon="11.3598959"><ele>555.0</ele><time>2026-05-02T11:14:38.997Z</time></trkpt><trkpt lat="43.6228878" lon="11.3598984"><ele>555.0</ele><time>2026-05-02T11:14:39.997Z</time></trkpt><trkpt lat="43.6228197" lon="11.3599204"><ele>555.0</ele><time>2026-05-02T11:14:40.997Z</time></trkpt><trkpt lat="43.6227502" lon="11.3599668"><ele>555.0</ele><time>2026-05-02T11:14:41.997Z</time></trkpt><trkpt lat="43.6226675" lon="11.3600359"><ele>555.0</ele><time>2026-05-02T11:14:42.997Z</time></trkpt><trkpt lat="43.6225877" lon="11.3601306"><ele>555.0</ele><time>2026-05-02T11:14:43.997Z</time></trkpt><trkpt lat="43.6224935" lon="11.3602276"><ele>551.75</ele><time>2026-05-02T11:14:44.997Z</time></trkpt><trkpt lat="43.6223883" lon="11.3603226"><ele>548.5</ele><time>2026-05-02T11:14:45.997Z</time></trkpt><trkpt lat="43.6222771" lon="11.3604281"><ele>545.25</ele><time>2026-05-02T11:14:46.997Z</time></trkpt><trkpt lat="43.6221711" lon="11.3605377"><ele>542.0</ele><time>2026-05-02T11:14:47.997Z</time></trkpt><trkpt lat="43.6220591" lon="11.3606409"><ele>539.25</ele><time>2026-05-02T11:14:48.997Z</time></trkpt><trkpt lat="43.6219515" lon="11.360746"><ele>536.5</ele><time>2026-05-02T11:14:49.997Z</time></trkpt><trkpt lat="43.621849" lon="11.3608426"><ele>533.75</ele><time>2026-05-02T11:14:50.997Z</time></trkpt><trkpt lat="43.6217605" lon="11.3609213"><ele>531.0</ele><time>2026-05-02T11:14:51.997Z</time></trkpt><trkpt lat="43.6216777" lon="11.3609782"><ele>531.0</ele><time>2026-05-02T11:14:52.997Z</time></trkpt><trkpt lat="43.6215923" lon="11.3610139"><ele>531.0</ele><time>2026-05-02T11:14:53.997Z</time></trkpt><trkpt lat="43.621504" lon="11.3610376"><ele>531.0</ele><time>2026-05-02T11:14:54.997Z</time></trkpt><trkpt lat="43.6214164" lon="11.3610171"><ele>531.0</ele><time>2026-05-02T11:14:55.997Z</time></trkpt><trkpt lat="43.6213321" lon="11.3610028"><ele>531.0</ele><time>2026-05-02T11:14:56.997Z</time></trkpt><trkpt lat="43.6212622" lon="11.3609778"><ele>531.0</ele><time>2026-05-02T11:14:57.997Z</time></trkpt><trkpt lat="43.6211928" lon="11.3609587"><ele>530.5</ele><time>2026-05-02T11:14:58.997Z</time></trkpt><trkpt lat="43.6211233" lon="11.3609309"><ele>530.0</ele><time>2026-05-02T11:14:59.997Z</time></trkpt><trkpt lat="43.6210604" lon="11.3608955"><ele>529.5</ele><time>2026-05-02T11:15:00.997Z</time></trkpt><trkpt lat="43.6209787" lon="11.3608754"><ele>529.0</ele><time>2026-05-02T11:15:01.997Z</time></trkpt><trkpt lat="43.6208895" lon="11.3608564"><ele>528.5</ele><time>2026-05-02T11:15:02.997Z</time></trkpt><trkpt lat="43.6207843" lon="11.3608471"><ele>528.0</ele><time>2026-05-02T11:15:03.997Z</time></trkpt><trkpt lat="43.6206835" lon="11.3608414"><ele>528.0</ele><time>2026-05-02T11:15:04.997Z</time></trkpt><trkpt lat="43.6205858" lon="11.3608234"><ele>528.0</ele><time>2026-05-02T11:15:05.997Z</time></trkpt><trkpt lat="43.6204807" lon="11.3608094"><ele>528.0</ele><time>2026-05-02T11:15:06.997Z</time></trkpt><trkpt lat="43.6203726" lon="11.3608008"><ele>528.0</ele><time>2026-05-02T11:15:07.997Z</time></trkpt><trkpt lat="43.6202703" lon="11.3607965"><ele>528.0</ele><time>2026-05-02T11:15:08.997Z</time></trkpt><trkpt lat="43.6201858" lon="11.3607833"><ele>528.1666666666666</ele><time>2026-05-02T11:15:09.997Z</time></trkpt><trkpt lat="43.620116" lon="11.3607892"><ele>528.3333333333334</ele><time>2026-05-02T11:15:10.997Z</time></trkpt><trkpt lat="43.6200536" lon="11.3608028"><ele>528.5</ele><time>2026-05-02T11:15:11.998Z</time></trkpt><trkpt lat="43.6199899" lon="11.3607785"><ele>528.6666666666667</ele><time>2026-05-02T11:15:12.997Z</time></trkpt><trkpt lat="43.6199152" lon="11.3607298"><ele>528.8333333333334</ele><time>2026-05-02T11:15:13.997Z</time></trkpt><trkpt lat="43.619834" lon="11.3606592"><ele>529.0</ele><time>2026-05-02T11:15:14.998Z</time></trkpt><trkpt lat="43.6197669" lon="11.3605857"><ele>525.0</ele><time>2026-05-02T11:15:15.997Z</time></trkpt><trkpt lat="43.6196944" lon="11.3605184"><ele>521.0</ele><time>2026-05-02T11:15:16.997Z</time></trkpt><trkpt lat="43.6196239" lon="11.3604548"><ele>517.0</ele><time>2026-05-02T11:15:17.997Z</time></trkpt><trkpt lat="43.6195487" lon="11.3604048"><ele>513.0</ele><time>2026-05-02T11:15:18.998Z</time></trkpt><trkpt lat="43.6194691" lon="11.3603709"><ele>509.00000000000006</ele><time>2026-05-02T11:15:19.997Z</time></trkpt><trkpt lat="43.6193859" lon="11.3603461"><ele>505.0</ele><time>2026-05-02T11:15:20.997Z</time></trkpt><trkpt lat="43.6192986" lon="11.3603271"><ele>505.0</ele><time>2026-05-02T11:15:21.997Z</time></trkpt><trkpt lat="43.619211" lon="11.3602979"><ele>505.0</ele><time>2026-05-02T11:15:22.997Z</time></trkpt><trkpt lat="43.6191245" lon="11.360261"><ele>505.0</ele><time>2026-05-02T11:15:23.997Z</time></trkpt><trkpt lat="43.6190341" lon="11.3601914"><ele>505.0</ele><time>2026-05-02T11:15:24.997Z</time></trkpt><trkpt lat="43.6189449" lon="11.3601347"><ele>505.0</ele><time>2026-05-02T11:15:25.997Z</time></trkpt><trkpt lat="43.6188675" lon="11.3600846"><ele>505.00000000000006</ele><time>2026-05-02T11:15:26.998Z</time></trkpt><trkpt lat="43.6187902" lon="11.3600359"><ele>505.0</ele><time>2026-05-02T11:15:27.998Z</time></trkpt><trkpt lat="43.6187166" lon="11.359984"><ele>505.0</ele><time>2026-05-02T11:15:28.997Z</time></trkpt><trkpt lat="43.618651" lon="11.3599387"><ele>505.0</ele><time>2026-05-02T11:15:29.997Z</time></trkpt><trkpt lat="43.6185728" lon="11.3598808"><ele>505.00000000000006</ele><time>2026-05-02T11:15:30.997Z</time></trkpt><trkpt lat="43.6185017" lon="11.3598168"><ele>505.0</ele><time>2026-05-02T11:15:31.997Z</time></trkpt><trkpt lat="43.6184362" lon="11.3597318"><ele>502.00000000000006</ele><time>2026-05-02T11:15:32.997Z</time></trkpt><trkpt lat="43.6183805" lon="11.3596536"><ele>499.0</ele><time>2026-05-02T11:15:33.997Z</time></trkpt><trkpt lat="43.6183254" lon="11.3595891"><ele>496.0</ele><time>2026-05-02T11:15:34.997Z</time></trkpt><trkpt lat="43.6182487" lon="11.3595263"><ele>493.0</ele><time>2026-05-02T11:15:36.997Z</time></trkpt><trkpt lat="43.6182577" lon="11.359405"><ele>490.00000000000006</ele><time>2026-05-02T11:17:19.59Z</time></trkpt><trkpt lat="43.6181761" lon="11.3593752"><ele>487.0</ele><time>2026-05-02T11:17:58.997Z</time></trkpt><trkpt lat="43.6180723" lon="11.359286"><ele>487.0</ele><time>2026-05-02T11:18:00.997Z</time></trkpt><trkpt lat="43.618023" lon="11.3592312"><ele>487.0</ele><time>2026-05-02T11:18:01.997Z</time></trkpt><trkpt lat="43.6179643" lon="11.3591522"><ele>487.0</ele><time>2026-05-02T11:18:03.997Z</time></trkpt><trkpt lat="43.6178936" lon="11.3591341"><ele>487.0</ele><time>2026-05-02T11:18:23.998Z</time></trkpt><trkpt lat="43.6178137" lon="11.3591844"><ele>487.0</ele><time>2026-05-02T11:18:25.997Z</time></trkpt><trkpt lat="43.6177574" lon="11.3592243"><ele>487.0</ele><time>2026-05-02T11:18:26.997Z</time></trkpt><trkpt lat="43.6176919" lon="11.3592529"><ele>487.0</ele><time>2026-05-02T11:18:27.997Z</time></trkpt><trkpt lat="43.6176085" lon="11.3592371"><ele>487.50000000000006</ele><time>2026-05-02T11:18:28.997Z</time></trkpt><trkpt lat="43.6175391" lon="11.3592043"><ele>488.0</ele><time>2026-05-02T11:18:29.998Z</time></trkpt><trkpt lat="43.6174694" lon="11.3591141"><ele>488.5</ele><time>2026-05-02T11:18:30.997Z</time></trkpt><trkpt lat="43.6174125" lon="11.3590085"><ele>489.0</ele><time>2026-05-02T11:18:31.997Z</time></trkpt><trkpt lat="43.6173511" lon="11.3589116"><ele>489.50000000000006</ele><time>2026-05-02T11:18:32.998Z</time></trkpt><trkpt lat="43.6172917" lon="11.3588309"><ele>490.0</ele><time>2026-05-02T11:18:33.997Z</time></trkpt><trkpt lat="43.6172407" lon="11.3587603"><ele>490.2</ele><time>2026-05-02T11:18:34.997Z</time></trkpt><trkpt lat="43.6171754" lon="11.3586477"><ele>490.4</ele><time>2026-05-02T11:18:36.998Z</time></trkpt><trkpt lat="43.6171117" lon="11.3585487"><ele>490.6</ele><time>2026-05-02T11:18:38.997Z</time></trkpt><trkpt lat="43.6170276" lon="11.3584164"><ele>490.8</ele><time>2026-05-02T11:18:40.997Z</time></trkpt><trkpt lat="43.616981" lon="11.3583255"><ele>491.0</ele><time>2026-05-02T11:18:41.998Z</time></trkpt><trkpt lat="43.6169312" lon="11.3582308"><ele>492.0</ele><time>2026-05-02T11:18:42.997Z</time></trkpt><trkpt lat="43.6168745" lon="11.3581317"><ele>493.0</ele><time>2026-05-02T11:18:43.997Z</time></trkpt><trkpt lat="43.6168103" lon="11.3580285"><ele>494.0</ele><time>2026-05-02T11:18:44.997Z</time></trkpt><trkpt lat="43.6167462" lon="11.3579338"><ele>495.0</ele><time>2026-05-02T11:18:45.997Z</time></trkpt><trkpt lat="43.6166751" lon="11.3578533"><ele>496.0</ele><time>2026-05-02T11:18:46.997Z</time></trkpt><trkpt lat="43.6165935" lon="11.3578015"><ele>496.0</ele><time>2026-05-02T11:18:47.997Z</time></trkpt><trkpt lat="43.6164983" lon="11.3577945"><ele>496.0</ele><time>2026-05-02T11:18:48.997Z</time></trkpt><trkpt lat="43.6163931" lon="11.3578349"><ele>496.0</ele><time>2026-05-02T11:18:49.997Z</time></trkpt><trkpt lat="43.6162845" lon="11.3578981"><ele>496.0</ele><time>2026-05-02T11:18:50.997Z</time></trkpt><trkpt lat="43.6161611" lon="11.3579484"><ele>495.75</ele><time>2026-05-02T11:18:51.997Z</time></trkpt><trkpt lat="43.6160357" lon="11.358009"><ele>495.5</ele><time>2026-05-02T11:18:52.997Z</time></trkpt><trkpt lat="43.6159202" lon="11.3580621"><ele>495.25</ele><time>2026-05-02T11:18:53.997Z</time></trkpt><trkpt lat="43.6158113" lon="11.3581142"><ele>495.0</ele><time>2026-05-02T11:18:54.997Z</time></trkpt><trkpt lat="43.6156962" lon="11.3581593"><ele>490.25</ele><time>2026-05-02T11:18:55.997Z</time></trkpt><trkpt lat="43.6155753" lon="11.3581867"><ele>485.5</ele><time>2026-05-02T11:18:56.997Z</time></trkpt><trkpt lat="43.6154607" lon="11.3581733"><ele>480.75</ele><time>2026-05-02T11:18:57.997Z</time></trkpt><trkpt lat="43.6153466" lon="11.3581731"><ele>476.0</ele><time>2026-05-02T11:18:58.997Z</time></trkpt><trkpt lat="43.6152332" lon="11.3582307"><ele>476.0</ele><time>2026-05-02T11:18:59.997Z</time></trkpt><trkpt lat="43.6151254" lon="11.3583223"><ele>476.0</ele><time>2026-05-02T11:19:00.997Z</time></trkpt><trkpt lat="43.6150282" lon="11.3583901"><ele>476.0</ele><time>2026-05-02T11:19:01.997Z</time></trkpt><trkpt lat="43.6149072" lon="11.3584019"><ele>476.0</ele><time>2026-05-02T11:19:02.997Z</time></trkpt><trkpt lat="43.6147694" lon="11.3583918"><ele>476.0</ele><time>2026-05-02T11:19:03.998Z</time></trkpt><trkpt lat="43.6146233" lon="11.3583731"><ele>476.0</ele><time>2026-05-02T11:19:04.997Z</time></trkpt><trkpt lat="43.6144668" lon="11.358362"><ele>476.0</ele><time>2026-05-02T11:19:05.997Z</time></trkpt><trkpt lat="43.6143086" lon="11.3583495"><ele>475.25</ele><time>2026-05-02T11:19:06.997Z</time></trkpt><trkpt lat="43.6141527" lon="11.3583351"><ele>474.5</ele><time>2026-05-02T11:19:07.997Z</time></trkpt><trkpt lat="43.6140038" lon="11.3583294"><ele>473.75</ele><time>2026-05-02T11:19:08.997Z</time></trkpt><trkpt lat="43.6138628" lon="11.3583159"><ele>473.0</ele><time>2026-05-02T11:19:09.997Z</time></trkpt><trkpt lat="43.6137319" lon="11.358323"><ele>475.0</ele><time>2026-05-02T11:19:10.997Z</time></trkpt><trkpt lat="43.6136093" lon="11.3583945"><ele>477.0</ele><time>2026-05-02T11:19:11.997Z</time></trkpt><trkpt lat="43.6135022" lon="11.3585363"><ele>479.0</ele><time>2026-05-02T11:19:12.997Z</time></trkpt><trkpt lat="43.6134041" lon="11.3586994"><ele>481.0</ele><time>2026-05-02T11:19:13.997Z</time></trkpt><trkpt lat="43.6132927" lon="11.3588331"><ele>473.6666666666667</ele><time>2026-05-02T11:19:14.998Z</time></trkpt><trkpt lat="43.6131738" lon="11.3589975"><ele>466.33333333333337</ele><time>2026-05-02T11:19:15.997Z</time></trkpt><trkpt lat="43.6130475" lon="11.3591377"><ele>459.0</ele><time>2026-05-02T11:19:16.998Z</time></trkpt><trkpt lat="43.6129336" lon="11.3592835"><ele>464.66666666666663</ele><time>2026-05-02T11:19:17.997Z</time></trkpt><trkpt lat="43.6128177" lon="11.3594132"><ele>470.3333333333333</ele><time>2026-05-02T11:19:18.998Z</time></trkpt><trkpt lat="43.6126616" lon="11.3595193"><ele>476.0</ele><time>2026-05-02T11:19:19.997Z</time></trkpt><trkpt lat="43.6125029" lon="11.3596013"><ele>476.0</ele><time>2026-05-02T11:19:20.997Z</time></trkpt><trkpt lat="43.6123489" lon="11.3596988"><ele>476.0</ele><time>2026-05-02T11:19:21.997Z</time></trkpt><trkpt lat="43.612191" lon="11.3598184"><ele>476.0</ele><time>2026-05-02T11:19:22.997Z</time></trkpt><trkpt lat="43.6120179" lon="11.3599365"><ele>471.3333333333333</ele><time>2026-05-02T11:19:23.997Z</time></trkpt><trkpt lat="43.6118497" lon="11.3600565"><ele>466.66666666666663</ele><time>2026-05-02T11:19:24.997Z</time></trkpt><trkpt lat="43.6116829" lon="11.3601647"><ele>462.0</ele><time>2026-05-02T11:19:25.997Z</time></trkpt><trkpt lat="43.6115123" lon="11.3602571"><ele>462.0</ele><time>2026-05-02T11:19:26.997Z</time></trkpt><trkpt lat="43.611357" lon="11.360354"><ele>462.0</ele><time>2026-05-02T11:19:27.997Z</time></trkpt><trkpt lat="43.6112217" lon="11.3604708"><ele>462.0</ele><time>2026-05-02T11:19:28.997Z</time></trkpt><trkpt lat="43.6111287" lon="11.3606039"><ele>460.5</ele><time>2026-05-02T11:19:29.997Z</time></trkpt><trkpt lat="43.6110548" lon="11.3607767"><ele>459.0</ele><time>2026-05-02T11:19:30.997Z</time></trkpt><trkpt lat="43.6109812" lon="11.3609497"><ele>457.5</ele><time>2026-05-02T11:19:31.997Z</time></trkpt><trkpt lat="43.6108902" lon="11.3610823"><ele>456.0</ele><time>2026-05-02T11:19:32.997Z</time></trkpt><trkpt lat="43.6107558" lon="11.3611573"><ele>456.0</ele><time>2026-05-02T11:19:33.997Z</time></trkpt><trkpt lat="43.6106134" lon="11.361196"><ele>456.0</ele><time>2026-05-02T11:19:34.997Z</time></trkpt><trkpt lat="43.6104923" lon="11.3612095"><ele>456.0</ele><time>2026-05-02T11:19:35.997Z</time></trkpt><trkpt lat="43.610368" lon="11.3612409"><ele>456.0</ele><time>2026-05-02T11:19:36.997Z</time></trkpt><trkpt lat="43.6102717" lon="11.3613007"><ele>455.5</ele><time>2026-05-02T11:19:37.997Z</time></trkpt><trkpt lat="43.6102036" lon="11.3614766"><ele>455.0</ele><time>2026-05-02T11:19:38.997Z</time></trkpt><trkpt lat="43.6101616" lon="11.361649"><ele>454.5</ele><time>2026-05-02T11:19:39.998Z</time></trkpt><trkpt lat="43.6101099" lon="11.361836"><ele>454.0</ele><time>2026-05-02T11:19:40.997Z</time></trkpt><trkpt lat="43.610017" lon="11.3620303"><ele>450.33333333333337</ele><time>2026-05-02T11:19:41.997Z</time></trkpt><trkpt lat="43.609915" lon="11.3622294"><ele>446.66666666666663</ele><time>2026-05-02T11:19:42.997Z</time></trkpt><trkpt lat="43.6098143" lon="11.3624304"><ele>443.0</ele><time>2026-05-02T11:19:43.997Z</time></trkpt><trkpt lat="43.6097153" lon="11.3626265"><ele>443.0</ele><time>2026-05-02T11:19:44.997Z</time></trkpt><trkpt lat="43.6096162" lon="11.3628306"><ele>443.0</ele><time>2026-05-02T11:19:45.997Z</time></trkpt><trkpt lat="43.6095415" lon="11.3630244"><ele>443.0</ele><time>2026-05-02T11:19:46.997Z</time></trkpt><trkpt lat="43.6094838" lon="11.3632119"><ele>444.25</ele><time>2026-05-02T11:19:47.997Z</time></trkpt><trkpt lat="43.6094311" lon="11.3633995"><ele>445.5</ele><time>2026-05-02T11:19:48.997Z</time></trkpt><trkpt lat="43.6094267" lon="11.3635677"><ele>446.75</ele><time>2026-05-02T11:19:49.997Z</time></trkpt><trkpt lat="43.6094282" lon="11.3637147"><ele>448.0</ele><time>2026-05-02T11:19:50.997Z</time></trkpt><trkpt lat="43.6093644" lon="11.3638615"><ele>446.0</ele><time>2026-05-02T11:19:51.997Z</time></trkpt><trkpt lat="43.6092672" lon="11.363987"><ele>444.0</ele><time>2026-05-02T11:19:52.997Z</time></trkpt><trkpt lat="43.6091664" lon="11.3640669"><ele>442.0</ele><time>2026-05-02T11:19:53.997Z</time></trkpt><trkpt lat="43.6090349" lon="11.3641149"><ele>440.0</ele><time>2026-05-02T11:19:54.997Z</time></trkpt><trkpt lat="43.6089029" lon="11.3640834"><ele>440.0</ele><time>2026-05-02T11:19:55.997Z</time></trkpt><trkpt lat="43.6087677" lon="11.3639965"><ele>440.0</ele><time>2026-05-02T11:19:56.997Z</time></trkpt><trkpt lat="43.6086547" lon="11.3639164"><ele>440.0</ele><time>2026-05-02T11:19:57.997Z</time></trkpt><trkpt lat="43.6085445" lon="11.3638751"><ele>440.0</ele><time>2026-05-02T11:19:58.997Z</time></trkpt><trkpt lat="43.6084185" lon="11.3639098"><ele>439.66666666666663</ele><time>2026-05-02T11:19:59.997Z</time></trkpt><trkpt lat="43.6082872" lon="11.364006"><ele>439.33333333333337</ele><time>2026-05-02T11:20:00.997Z</time></trkpt><trkpt lat="43.6081422" lon="11.3641199"><ele>439.0</ele><time>2026-05-02T11:20:01.997Z</time></trkpt><trkpt lat="43.6079958" lon="11.3642414"><ele>439.0</ele><time>2026-05-02T11:20:02.997Z</time></trkpt><trkpt lat="43.6078337" lon="11.3643453"><ele>439.0</ele><time>2026-05-02T11:20:03.997Z</time></trkpt><trkpt lat="43.6076821" lon="11.3644553"><ele>439.0</ele><time>2026-05-02T11:20:04.997Z</time></trkpt><trkpt lat="43.6075434" lon="11.3645844"><ele>435.6666666666667</ele><time>2026-05-02T11:20:05.998Z</time></trkpt><trkpt lat="43.6074167" lon="11.3647141"><ele>432.33333333333337</ele><time>2026-05-02T11:20:06.997Z</time></trkpt><trkpt lat="43.6072762" lon="11.3647822"><ele>429.0</ele><time>2026-05-02T11:20:07.997Z</time></trkpt><trkpt lat="43.6071323" lon="11.3647834"><ele>429.0</ele><time>2026-05-02T11:20:08.997Z</time></trkpt><trkpt lat="43.6070101" lon="11.3647635"><ele>429.0</ele><time>2026-05-02T11:20:09.997Z</time></trkpt><trkpt lat="43.6069188" lon="11.3647508"><ele>429.0</ele><time>2026-05-02T11:20:10.997Z</time></trkpt><trkpt lat="43.6068223" lon="11.3648701"><ele>429.0</ele><time>2026-05-02T11:20:12.997Z</time></trkpt><trkpt lat="43.6068204" lon="11.3649916"><ele>429.0</ele><time>2026-05-02T11:20:13.997Z</time></trkpt><trkpt lat="43.6068482" lon="11.365176"><ele>430.25</ele><time>2026-05-02T11:20:14.997Z</time></trkpt><trkpt lat="43.6068576" lon="11.3653823"><ele>431.5</ele><time>2026-05-02T11:20:15.997Z</time></trkpt><trkpt lat="43.6068341" lon="11.3655665"><ele>432.75</ele><time>2026-05-02T11:20:16.997Z</time></trkpt><trkpt lat="43.6067767" lon="11.3657487"><ele>434.0</ele><time>2026-05-02T11:20:17.997Z</time></trkpt><trkpt lat="43.6066913" lon="11.3659279"><ele>430.0</ele><time>2026-05-02T11:20:18.998Z</time></trkpt><trkpt lat="43.6065746" lon="11.3660873"><ele>426.0</ele><time>2026-05-02T11:20:19.997Z</time></trkpt><trkpt lat="43.6064511" lon="11.366215"><ele>422.0</ele><time>2026-05-02T11:20:20.997Z</time></trkpt><trkpt lat="43.6063273" lon="11.3663337"><ele>420.75</ele><time>2026-05-02T11:20:21.997Z</time></trkpt><trkpt lat="43.6062124" lon="11.3664194"><ele>419.5</ele><time>2026-05-02T11:20:22.997Z</time></trkpt><trkpt lat="43.6061002" lon="11.3664658"><ele>418.25</ele><time>2026-05-02T11:20:23.997Z</time></trkpt><trkpt lat="43.605982" lon="11.3664527"><ele>417.0</ele><time>2026-05-02T11:20:24.997Z</time></trkpt><trkpt lat="43.6058591" lon="11.3664018"><ele>417.0</ele><time>2026-05-02T11:20:25.997Z</time></trkpt><trkpt lat="43.6057577" lon="11.3663448"><ele>417.0</ele><time>2026-05-02T11:20:26.997Z</time></trkpt><trkpt lat="43.6056582" lon="11.3663184"><ele>417.0</ele><time>2026-05-02T11:20:27.997Z</time></trkpt><trkpt lat="43.6055764" lon="11.366366"><ele>417.0</ele><time>2026-05-02T11:20:28.997Z</time></trkpt><trkpt lat="43.6055332" lon="11.366499"><ele>417.0</ele><time>2026-05-02T11:20:29.997Z</time></trkpt><trkpt lat="43.6055359" lon="11.3666409"><ele>417.0</ele><time>2026-05-02T11:20:30.997Z</time></trkpt><trkpt lat="43.6055803" lon="11.3667973"><ele>417.0</ele><time>2026-05-02T11:20:31.997Z</time></trkpt><trkpt lat="43.6056363" lon="11.3669763"><ele>417.0</ele><time>2026-05-02T11:20:32.997Z</time></trkpt><trkpt lat="43.6056712" lon="11.3671674"><ele>417.0</ele><time>2026-05-02T11:20:33.997Z</time></trkpt><trkpt lat="43.6056677" lon="11.3673389"><ele>414.0</ele><time>2026-05-02T11:20:34.997Z</time></trkpt><trkpt lat="43.605645" lon="11.3675128"><ele>411.0</ele><time>2026-05-02T11:20:35.997Z</time></trkpt><trkpt lat="43.6055966" lon="11.3676834"><ele>408.0</ele><time>2026-05-02T11:20:36.997Z</time></trkpt><trkpt lat="43.6055224" lon="11.3678372"><ele>405.0</ele><time>2026-05-02T11:20:37.997Z</time></trkpt><trkpt lat="43.6054004" lon="11.3679568"><ele>404.66666666666663</ele><time>2026-05-02T11:20:38.997Z</time></trkpt><trkpt lat="43.605269" lon="11.3680537"><ele>404.3333333333333</ele><time>2026-05-02T11:20:39.997Z</time></trkpt><trkpt lat="43.6051281" lon="11.3681263"><ele>404.0</ele><time>2026-05-02T11:20:40.998Z</time></trkpt><trkpt lat="43.604967" lon="11.3681557"><ele>404.0</ele><time>2026-05-02T11:20:41.998Z</time></trkpt><trkpt lat="43.6047885" lon="11.368161"><ele>404.0</ele><time>2026-05-02T11:20:42.997Z</time></trkpt><trkpt lat="43.6046321" lon="11.3681832"><ele>404.0</ele><time>2026-05-02T11:20:43.997Z</time></trkpt><trkpt lat="43.6044963" lon="11.3682407"><ele>406.25</ele><time>2026-05-02T11:20:44.998Z</time></trkpt><trkpt lat="43.6043771" lon="11.3683012"><ele>408.5</ele><time>2026-05-02T11:20:45.997Z</time></trkpt><trkpt lat="43.6042687" lon="11.3683765"><ele>410.75</ele><time>2026-05-02T11:20:46.997Z</time></trkpt><trkpt lat="43.6041926" lon="11.3684639"><ele>413.0</ele><time>2026-05-02T11:20:47.994Z</time></trkpt><trkpt lat="43.6041452" lon="11.3685924"><ele>413.0</ele><time>2026-05-02T11:20:48.997Z</time></trkpt><trkpt lat="43.6041459" lon="11.3687475"><ele>413.0</ele><time>2026-05-02T11:20:49.997Z</time></trkpt><trkpt lat="43.6042105" lon="11.3688891"><ele>413.0</ele><time>2026-05-02T11:20:50.997Z</time></trkpt><trkpt lat="43.604284" lon="11.3690327"><ele>413.0</ele><time>2026-05-02T11:20:51.997Z</time></trkpt><trkpt lat="43.6043371" lon="11.3691802"><ele>412.75</ele><time>2026-05-02T11:20:52.997Z</time></trkpt><trkpt lat="43.6043495" lon="11.3693502"><ele>412.5</ele><time>2026-05-02T11:20:53.997Z</time></trkpt><trkpt lat="43.6043211" lon="11.3695303"><ele>412.25</ele><time>2026-05-02T11:20:54.997Z</time></trkpt><trkpt lat="43.6042904" lon="11.3697183"><ele>412.0</ele><time>2026-05-02T11:20:55.997Z</time></trkpt><trkpt lat="43.6043161" lon="11.3699072"><ele>414.0</ele><time>2026-05-02T11:20:56.997Z</time></trkpt><trkpt lat="43.6043951" lon="11.3700799"><ele>416.0</ele><time>2026-05-02T11:20:57.997Z</time></trkpt><trkpt lat="43.6044715" lon="11.3702421"><ele>418.0</ele><time>2026-05-02T11:20:58.997Z</time></trkpt><trkpt lat="43.6045254" lon="11.3704174"><ele>420.0</ele><time>2026-05-02T11:20:59.997Z</time></trkpt><trkpt lat="43.6045614" lon="11.3706162"><ele>414.5</ele><time>2026-05-02T11:21:00.997Z</time></trkpt><trkpt lat="43.6045784" lon="11.3708152"><ele>409.0</ele><time>2026-05-02T11:21:01.997Z</time></trkpt><trkpt lat="43.6045824" lon="11.3709868"><ele>403.5</ele><time>2026-05-02T11:21:02.998Z</time></trkpt><trkpt lat="43.6045609" lon="11.3711466"><ele>398.0</ele><time>2026-05-02T11:21:03.997Z</time></trkpt><trkpt lat="43.6045044" lon="11.3713093"><ele>401.5</ele><time>2026-05-02T11:21:04.997Z</time></trkpt><trkpt lat="43.6044008" lon="11.371434"><ele>405.0</ele><time>2026-05-02T11:21:05.997Z</time></trkpt><trkpt lat="43.6042697" lon="11.3715364"><ele>408.5</ele><time>2026-05-02T11:21:06.997Z</time></trkpt><trkpt lat="43.6041351" lon="11.3715786"><ele>412.0</ele><time>2026-05-02T11:21:07.997Z</time></trkpt><trkpt lat="43.6040085" lon="11.3716026"><ele>412.0</ele><time>2026-05-02T11:21:08.997Z</time></trkpt><trkpt lat="43.6039222" lon="11.371661"><ele>412.0</ele><time>2026-05-02T11:21:09.997Z</time></trkpt><trkpt lat="43.6038799" lon="11.3717797"><ele>412.0</ele><time>2026-05-02T11:21:10.997Z</time></trkpt><trkpt lat="43.6038592" lon="11.371941"><ele>412.0</ele><time>2026-05-02T11:21:11.997Z</time></trkpt><trkpt lat="43.603859" lon="11.3721095"><ele>412.0</ele><time>2026-05-02T11:21:12.997Z</time></trkpt><trkpt lat="43.6038156" lon="11.3722545"><ele>410.0</ele><time>2026-05-02T11:21:13.997Z</time></trkpt><trkpt lat="43.6037151" lon="11.3723746"><ele>408.0</ele><time>2026-05-02T11:21:14.997Z</time></trkpt><trkpt lat="43.6035929" lon="11.3724724"><ele>406.0</ele><time>2026-05-02T11:21:15.997Z</time></trkpt><trkpt lat="43.6034695" lon="11.3725666"><ele>404.0</ele><time>2026-05-02T11:21:16.997Z</time></trkpt><trkpt lat="43.6033578" lon="11.3726505"><ele>406.49999999999994</ele><time>2026-05-02T11:21:17.997Z</time></trkpt><trkpt lat="43.6032698" lon="11.3727264"><ele>409.0</ele><time>2026-05-02T11:21:18.997Z</time></trkpt><trkpt lat="43.6031888" lon="11.3728029"><ele>411.5</ele><time>2026-05-02T11:21:19.997Z</time></trkpt><trkpt lat="43.6031156" lon="11.3728749"><ele>414.0</ele><time>2026-05-02T11:21:20.997Z</time></trkpt><trkpt lat="43.6030562" lon="11.3729425"><ele>416.49999999999994</ele><time>2026-05-02T11:21:21.997Z</time></trkpt><trkpt lat="43.603003" lon="11.3730044"><ele>419.0</ele><time>2026-05-02T11:21:22.997Z</time></trkpt><trkpt lat="43.6029422" lon="11.373042"><ele>418.99999999999994</ele><time>2026-05-02T11:21:23.997Z</time></trkpt><trkpt lat="43.6028737" lon="11.3730563"><ele>419.0</ele><time>2026-05-02T11:21:24.997Z</time></trkpt><trkpt lat="43.6027987" lon="11.3730739"><ele>419.0</ele><time>2026-05-02T11:21:25.997Z</time></trkpt><trkpt lat="43.6027246" lon="11.3730711"><ele>419.0</ele><time>2026-05-02T11:21:26.997Z</time></trkpt><trkpt lat="43.6026614" lon="11.373066"><ele>418.99999999999994</ele><time>2026-05-02T11:21:27.997Z</time></trkpt><trkpt lat="43.6026234" lon="11.3729182"><ele>419.0</ele><time>2026-05-02T11:21:29.997Z</time></trkpt><trkpt lat="43.6026451" lon="11.3728303"><ele>419.8333333333333</ele><time>2026-05-02T11:21:30.997Z</time></trkpt><trkpt lat="43.6026823" lon="11.3727418"><ele>420.66666666666663</ele><time>2026-05-02T11:21:31.997Z</time></trkpt><trkpt lat="43.6027178" lon="11.3726605"><ele>421.5</ele><time>2026-05-02T11:21:32.997Z</time></trkpt><trkpt lat="43.6027613" lon="11.372587"><ele>422.33333333333337</ele><time>2026-05-02T11:21:33.997Z</time></trkpt><trkpt lat="43.6028169" lon="11.3725303"><ele>423.1666666666667</ele><time>2026-05-02T11:21:34.997Z</time></trkpt><trkpt lat="43.6029303" lon="11.3724429"><ele>424.0</ele><time>2026-05-02T11:21:36.997Z</time></trkpt><trkpt lat="43.6029821" lon="11.3723757"><ele>424.00000000000006</ele><time>2026-05-02T11:21:37.997Z</time></trkpt><trkpt lat="43.6030277" lon="11.372298"><ele>424.0</ele><time>2026-05-02T11:21:38.997Z</time></trkpt><trkpt lat="43.6030752" lon="11.3722222"><ele>424.0</ele><time>2026-05-02T11:21:39.997Z</time></trkpt><trkpt lat="43.6031187" lon="11.3721163"><ele>424.0</ele><time>2026-05-02T11:21:40.997Z</time></trkpt><trkpt lat="43.603154" lon="11.3720153"><ele>424.00000000000006</ele><time>2026-05-02T11:21:41.997Z</time></trkpt><trkpt lat="43.6031797" lon="11.3719208"><ele>424.0</ele><time>2026-05-02T11:21:42.997Z</time></trkpt><trkpt lat="43.60319" lon="11.3718165"><ele>425.50000000000006</ele><time>2026-05-02T11:21:43.997Z</time></trkpt><trkpt lat="43.6031922" lon="11.3717004"><ele>427.0</ele><time>2026-05-02T11:21:44.997Z</time></trkpt><trkpt lat="43.603186" lon="11.3715692"><ele>428.5</ele><time>2026-05-02T11:21:45.997Z</time></trkpt><trkpt lat="43.6031845" lon="11.3714479"><ele>430.0</ele><time>2026-05-02T11:21:46.997Z</time></trkpt><trkpt lat="43.603184" lon="11.3713286"><ele>431.50000000000006</ele><time>2026-05-02T11:21:47.997Z</time></trkpt><trkpt lat="43.6031858" lon="11.3712325"><ele>433.0</ele><time>2026-05-02T11:21:48.997Z</time></trkpt><trkpt lat="43.603184" lon="11.3711307"><ele>435.59999999999997</ele><time>2026-05-02T11:21:49.997Z</time></trkpt><trkpt lat="43.6031888" lon="11.371025"><ele>438.19999999999993</ele><time>2026-05-02T11:21:50.997Z</time></trkpt><trkpt lat="43.6031887" lon="11.3709231"><ele>440.8</ele><time>2026-05-02T11:21:51.998Z</time></trkpt><trkpt lat="43.603136" lon="11.3708272"><ele>443.4</ele><time>2026-05-02T11:21:53.997Z</time></trkpt><trkpt lat="43.6030471" lon="11.3708282"><ele>446.0</ele><time>2026-05-02T11:21:55.997Z</time></trkpt><trkpt lat="43.6029667" lon="11.3709996"><ele>445.99999999999994</ele><time>2026-05-02T11:21:57.997Z</time></trkpt><trkpt lat="43.6029222" lon="11.3711209"><ele>446.0</ele><time>2026-05-02T11:21:58.997Z</time></trkpt><trkpt lat="43.6028781" lon="11.3712328"><ele>446.0</ele><time>2026-05-02T11:21:59.997Z</time></trkpt><trkpt lat="43.6028473" lon="11.371313"><ele>446.0</ele><time>2026-05-02T11:22:00.997Z</time></trkpt><trkpt lat="43.6027575" lon="11.3714041"><ele>445.99999999999994</ele><time>2026-05-02T11:22:02.997Z</time></trkpt><trkpt lat="43.6026806" lon="11.3714078"><ele>446.0</ele><time>2026-05-02T11:22:04.997Z</time></trkpt><trkpt lat="43.6026472" lon="11.3712995"><ele>450.25</ele><time>2026-05-02T11:22:06.997Z</time></trkpt><trkpt lat="43.60266" lon="11.3711343"><ele>454.5</ele><time>2026-05-02T11:22:08.997Z</time></trkpt><trkpt lat="43.602692" lon="11.3709801"><ele>458.75</ele><time>2026-05-02T11:22:10.997Z</time></trkpt><trkpt lat="43.6027136" lon="11.3708004"><ele>463.0</ele><time>2026-05-02T11:22:12.997Z</time></trkpt><trkpt lat="43.6027169" lon="11.3706794"><ele>463.0</ele><time>2026-05-02T11:22:13.997Z</time></trkpt><trkpt lat="43.6027244" lon="11.370579"><ele>462.99999999999994</ele><time>2026-05-02T11:22:14.997Z</time></trkpt><trkpt lat="43.6027359" lon="11.3704934"><ele>462.99999999999994</ele><time>2026-05-02T11:22:15.997Z</time></trkpt><trkpt lat="43.6027416" lon="11.3703284"><ele>463.0</ele><time>2026-05-02T11:22:17.998Z</time></trkpt><trkpt lat="43.6027133" lon="11.3701933"><ele>463.0</ele><time>2026-05-02T11:22:19.997Z</time></trkpt><trkpt lat="43.6026292" lon="11.3700786"><ele>463.0</ele><time>2026-05-02T11:22:21.997Z</time></trkpt><trkpt lat="43.6025806" lon="11.3700226"><ele>462.99999999999994</ele><time>2026-05-02T11:22:22.997Z</time></trkpt><trkpt lat="43.6025298" lon="11.3699661"><ele>463.0</ele><time>2026-05-02T11:22:23.997Z</time></trkpt><trkpt lat="43.6024632" lon="11.3699082"><ele>463.0</ele><time>2026-05-02T11:22:24.998Z</time></trkpt><trkpt lat="43.6024023" lon="11.3698631"><ele>462.99999999999994</ele><time>2026-05-02T11:22:25.997Z</time></trkpt><trkpt lat="43.6023409" lon="11.3698032"><ele>463.0</ele><time>2026-05-02T11:22:26.998Z</time></trkpt><trkpt lat="43.6022811" lon="11.3697174"><ele>463.0</ele><time>2026-05-02T11:22:27.997Z</time></trkpt><trkpt lat="43.60223" lon="11.3696321"><ele>463.00000000000006</ele><time>2026-05-02T11:22:28.997Z</time></trkpt><trkpt lat="43.6021955" lon="11.3695516"><ele>463.0</ele><time>2026-05-02T11:22:29.997Z</time></trkpt><trkpt lat="43.6021354" lon="11.3694225"><ele>463.0</ele><time>2026-05-02T11:22:31.997Z</time></trkpt><trkpt lat="43.6020457" lon="11.3693394"><ele>463.0</ele><time>2026-05-02T11:22:33.997Z</time></trkpt><trkpt lat="43.6019745" lon="11.3693066"><ele>463.00000000000006</ele><time>2026-05-02T11:22:34.998Z</time></trkpt><trkpt lat="43.6019028" lon="11.3692689"><ele>463.0</ele><time>2026-05-02T11:22:35.997Z</time></trkpt><trkpt lat="43.6018406" lon="11.3692509"><ele>467.2</ele><time>2026-05-02T11:22:36.997Z</time></trkpt><trkpt lat="43.601718" lon="11.3691712"><ele>471.4</ele><time>2026-05-02T11:22:38.997Z</time></trkpt><trkpt lat="43.601658" lon="11.36913"><ele>475.59999999999997</ele><time>2026-05-02T11:22:39.997Z</time></trkpt><trkpt lat="43.6016039" lon="11.3690595"><ele>479.79999999999995</ele><time>2026-05-02T11:22:40.997Z</time></trkpt><trkpt lat="43.601552" lon="11.3689726"><ele>484.0</ele><time>2026-05-02T11:22:41.997Z</time></trkpt><trkpt lat="43.6014715" lon="11.3688901"><ele>482.0</ele><time>2026-05-02T11:22:42.997Z</time></trkpt><trkpt lat="43.6013863" lon="11.3687895"><ele>480.0</ele><time>2026-05-02T11:22:43.997Z</time></trkpt><trkpt lat="43.6013202" lon="11.3686986"><ele>478.0</ele><time>2026-05-02T11:22:44.997Z</time></trkpt><trkpt lat="43.6012648" lon="11.3686072"><ele>476.0</ele><time>2026-05-02T11:22:45.997Z</time></trkpt><trkpt lat="43.6012138" lon="11.3685154"><ele>474.0</ele><time>2026-05-02T11:22:46.997Z</time></trkpt><trkpt lat="43.6011626" lon="11.3684187"><ele>476.3333333333333</ele><time>2026-05-02T11:22:47.997Z</time></trkpt><trkpt lat="43.601109" lon="11.3683325"><ele>478.66666666666663</ele><time>2026-05-02T11:22:48.997Z</time></trkpt><trkpt lat="43.601041" lon="11.3682518"><ele>481.0</ele><time>2026-05-02T11:22:49.998Z</time></trkpt><trkpt lat="43.6009698" lon="11.3681825"><ele>483.3333333333333</ele><time>2026-05-02T11:22:50.997Z</time></trkpt><trkpt lat="43.6008874" lon="11.3681211"><ele>485.66666666666663</ele><time>2026-05-02T11:22:51.997Z</time></trkpt><trkpt lat="43.6008048" lon="11.3680653"><ele>488.0</ele><time>2026-05-02T11:22:52.997Z</time></trkpt><trkpt lat="43.600735" lon="11.368"><ele>487.99999999999994</ele><time>2026-05-02T11:22:53.997Z</time></trkpt><trkpt lat="43.6006732" lon="11.3679304"><ele>488.0</ele><time>2026-05-02T11:22:54.997Z</time></trkpt><trkpt lat="43.6006088" lon="11.3678546"><ele>488.0</ele><time>2026-05-02T11:22:55.997Z</time></trkpt><trkpt lat="43.6005532" lon="11.3677714"><ele>488.0</ele><time>2026-05-02T11:22:56.997Z</time></trkpt><trkpt lat="43.6005021" lon="11.3676874"><ele>487.99999999999994</ele><time>2026-05-02T11:22:57.997Z</time></trkpt><trkpt lat="43.6004574" lon="11.3675906"><ele>488.0</ele><time>2026-05-02T11:22:58.997Z</time></trkpt><trkpt lat="43.6004139" lon="11.3675016"><ele>487.99999999999994</ele><time>2026-05-02T11:22:59.997Z</time></trkpt><trkpt lat="43.600369" lon="11.3674158"><ele>488.0</ele><time>2026-05-02T11:23:00.997Z</time></trkpt><trkpt lat="43.6003187" lon="11.3673583"><ele>487.99999999999994</ele><time>2026-05-02T11:23:01.997Z</time></trkpt><trkpt lat="43.6002624" lon="11.3673155"><ele>487.99999999999994</ele><time>2026-05-02T11:23:02.997Z</time></trkpt><trkpt lat="43.6001922" lon="11.3672773"><ele>488.0</ele><time>2026-05-02T11:23:03.997Z</time></trkpt><trkpt lat="43.6001227" lon="11.3672358"><ele>487.99999999999994</ele><time>2026-05-02T11:23:04.997Z</time></trkpt><trkpt lat="43.6000441" lon="11.3672029"><ele>487.99999999999994</ele><time>2026-05-02T11:23:05.997Z</time></trkpt><trkpt lat="43.5999673" lon="11.3671668"><ele>490.59999999999997</ele><time>2026-05-02T11:23:06.997Z</time></trkpt><trkpt lat="43.5998954" lon="11.3671297"><ele>493.19999999999993</ele><time>2026-05-02T11:23:07.997Z</time></trkpt><trkpt lat="43.5998289" lon="11.3671001"><ele>495.8</ele><time>2026-05-02T11:23:08.997Z</time></trkpt><trkpt lat="43.5997159" lon="11.3670078"><ele>498.4</ele><time>2026-05-02T11:23:10.997Z</time></trkpt><trkpt lat="43.5996663" lon="11.3669477"><ele>501.0</ele><time>2026-05-02T11:23:11.997Z</time></trkpt><trkpt lat="43.59961" lon="11.3668103"><ele>501.0</ele><time>2026-05-02T11:23:13.997Z</time></trkpt><trkpt lat="43.5995848" lon="11.3667301"><ele>501.0</ele><time>2026-05-02T11:23:14.997Z</time></trkpt><trkpt lat="43.5995475" lon="11.3665316"><ele>501.0</ele><time>2026-05-02T11:23:16.997Z</time></trkpt><trkpt lat="43.5995209" lon="11.3664344"><ele>501.0</ele><time>2026-05-02T11:23:17.997Z</time></trkpt><trkpt lat="43.5994989" lon="11.3663334"><ele>501.0</ele><time>2026-05-02T11:23:18.998Z</time></trkpt><trkpt lat="43.5994908" lon="11.3662426"><ele>501.0</ele><time>2026-05-02T11:23:19.997Z</time></trkpt><trkpt lat="43.5994967" lon="11.3661371"><ele>501.5</ele><time>2026-05-02T11:23:20.997Z</time></trkpt><trkpt lat="43.5994965" lon="11.3660314"><ele>502.0</ele><time>2026-05-02T11:23:21.997Z</time></trkpt><trkpt lat="43.5995009" lon="11.3659171"><ele>502.5</ele><time>2026-05-02T11:23:22.997Z</time></trkpt><trkpt lat="43.5994994" lon="11.3658169"><ele>503.0</ele><time>2026-05-02T11:23:23.997Z</time></trkpt><trkpt lat="43.5994852" lon="11.3657315"><ele>503.5</ele><time>2026-05-02T11:23:24.997Z</time></trkpt><trkpt lat="43.5994605" lon="11.3655841"><ele>504.0</ele><time>2026-05-02T11:23:26.997Z</time></trkpt><trkpt lat="43.599408" lon="11.3654717"><ele>507.0</ele><time>2026-05-02T11:23:28.997Z</time></trkpt><trkpt lat="43.5993064" lon="11.3653395"><ele>510.0</ele><time>2026-05-02T11:23:30.997Z</time></trkpt><trkpt lat="43.5992536" lon="11.3652741"><ele>513.0</ele><time>2026-05-02T11:23:31.997Z</time></trkpt><trkpt lat="43.5992026" lon="11.3652117"><ele>516.0</ele><time>2026-05-02T11:23:32.997Z</time></trkpt><trkpt lat="43.5991561" lon="11.3651481"><ele>519.0</ele><time>2026-05-02T11:23:33.997Z</time></trkpt><trkpt lat="43.5990526" lon="11.3650461"><ele>519.0</ele><time>2026-05-02T11:23:35.997Z</time></trkpt><trkpt lat="43.598951" lon="11.3649254"><ele>519.0</ele><time>2026-05-02T11:23:37.997Z</time></trkpt><trkpt lat="43.598885" lon="11.364864"><ele>519.0</ele><time>2026-05-02T11:23:38.997Z</time></trkpt><trkpt lat="43.5987817" lon="11.3647982"><ele>519.0</ele><time>2026-05-02T11:23:39.997Z</time></trkpt><trkpt lat="43.5986851" lon="11.3647539"><ele>519.0</ele><time>2026-05-02T11:23:40.997Z</time></trkpt><trkpt lat="43.5986081" lon="11.3647102"><ele>521.0</ele><time>2026-05-02T11:23:41.997Z</time></trkpt><trkpt lat="43.5985391" lon="11.3646807"><ele>523.0</ele><time>2026-05-02T11:23:42.997Z</time></trkpt><trkpt lat="43.5984745" lon="11.3646543"><ele>525.0</ele><time>2026-05-02T11:23:43.997Z</time></trkpt><trkpt lat="43.5983963" lon="11.3646001"><ele>527.0</ele><time>2026-05-02T11:23:45.997Z</time></trkpt><trkpt lat="43.598324" lon="11.3644741"><ele>529.0</ele><time>2026-05-02T11:23:47.997Z</time></trkpt><trkpt lat="43.5982844" lon="11.3643557"><ele>531.0</ele><time>2026-05-02T11:23:48.997Z</time></trkpt><trkpt lat="43.5982637" lon="11.3642086"><ele>531.0</ele><time>2026-05-02T11:23:49.997Z</time></trkpt><trkpt lat="43.5982545" lon="11.3640585"><ele>531.0</ele><time>2026-05-02T11:23:50.997Z</time></trkpt><trkpt lat="43.5982483" lon="11.3639415"><ele>531.0</ele><time>2026-05-02T11:23:51.997Z</time></trkpt><trkpt lat="43.5982144" lon="11.3638658"><ele>531.0</ele><time>2026-05-02T11:23:52.997Z</time></trkpt><trkpt lat="43.5981514" lon="11.3638414"><ele>531.0</ele><time>2026-05-02T11:23:53.997Z</time></trkpt><trkpt lat="43.598071" lon="11.363833"><ele>531.0</ele><time>2026-05-02T11:23:54.997Z</time></trkpt><trkpt lat="43.5979769" lon="11.3638191"><ele>531.2</ele><time>2026-05-02T11:23:55.997Z</time></trkpt><trkpt lat="43.5978708" lon="11.3638034"><ele>531.4000000000001</ele><time>2026-05-02T11:23:56.997Z</time></trkpt><trkpt lat="43.5977604" lon="11.3637687"><ele>531.6</ele><time>2026-05-02T11:23:57.997Z</time></trkpt><trkpt lat="43.5976541" lon="11.363737"><ele>531.8000000000001</ele><time>2026-05-02T11:23:58.997Z</time></trkpt><trkpt lat="43.5975726" lon="11.3637257"><ele>532.0</ele><time>2026-05-02T11:23:59.997Z</time></trkpt><trkpt lat="43.5974946" lon="11.3637317"><ele>532.0</ele><time>2026-05-02T11:24:00.997Z</time></trkpt><trkpt lat="43.597404" lon="11.3637779"><ele>532.0</ele><time>2026-05-02T11:24:01.997Z</time></trkpt><trkpt lat="43.5973098" lon="11.3638448"><ele>532.0</ele><time>2026-05-02T11:24:02.997Z</time></trkpt><trkpt lat="43.5972067" lon="11.3638919"><ele>532.0</ele><time>2026-05-02T11:24:03.997Z</time></trkpt><trkpt lat="43.5971041" lon="11.3639479"><ele>532.0</ele><time>2026-05-02T11:24:04.997Z</time></trkpt><trkpt lat="43.5969997" lon="11.3639882"><ele>533.8333333333334</ele><time>2026-05-02T11:24:05.997Z</time></trkpt><trkpt lat="43.596907" lon="11.3639833"><ele>535.6666666666667</ele><time>2026-05-02T11:24:06.997Z</time></trkpt><trkpt lat="43.596835" lon="11.3639739"><ele>537.5</ele><time>2026-05-02T11:24:07.997Z</time></trkpt><trkpt lat="43.5967647" lon="11.3639184"><ele>539.3333333333334</ele><time>2026-05-02T11:24:08.997Z</time></trkpt><trkpt lat="43.5967004" lon="11.3638732"><ele>541.1666666666666</ele><time>2026-05-02T11:24:09.997Z</time></trkpt><trkpt lat="43.596636" lon="11.3638026"><ele>543.0</ele><time>2026-05-02T11:24:10.997Z</time></trkpt><trkpt lat="43.5965612" lon="11.3637326"><ele>543.0</ele><time>2026-05-02T11:24:11.997Z</time></trkpt><trkpt lat="43.596462" lon="11.3636601"><ele>543.0</ele><time>2026-05-02T11:24:12.997Z</time></trkpt><trkpt lat="43.5963574" lon="11.363604"><ele>543.0</ele><time>2026-05-02T11:24:13.997Z</time></trkpt><trkpt lat="43.5962614" lon="11.3635772"><ele>543.0</ele><time>2026-05-02T11:24:14.997Z</time></trkpt><trkpt lat="43.5961779" lon="11.3635771"><ele>543.0</ele><time>2026-05-02T11:24:15.997Z</time></trkpt><trkpt lat="43.596098" lon="11.3636033"><ele>543.8333333333334</ele><time>2026-05-02T11:24:16.997Z</time></trkpt><trkpt lat="43.5960213" lon="11.363651"><ele>544.6666666666666</ele><time>2026-05-02T11:24:17.997Z</time></trkpt><trkpt lat="43.5959624" lon="11.3636961"><ele>545.5</ele><time>2026-05-02T11:24:18.997Z</time></trkpt><trkpt lat="43.5958812" lon="11.3637368"><ele>546.3333333333333</ele><time>2026-05-02T11:24:20.997Z</time></trkpt><trkpt lat="43.5958164" lon="11.3638314"><ele>547.1666666666666</ele><time>2026-05-02T11:24:22.997Z</time></trkpt><trkpt lat="43.595767" lon="11.3639342"><ele>548.0</ele><time>2026-05-02T11:24:24.997Z</time></trkpt><trkpt lat="43.5957259" lon="11.3640995"><ele>551.0</ele><time>2026-05-02T11:24:26.997Z</time></trkpt><trkpt lat="43.5957075" lon="11.3642191"><ele>554.0</ele><time>2026-05-02T11:24:27.997Z</time></trkpt><trkpt lat="43.5956967" lon="11.3643347"><ele>557.0</ele><time>2026-05-02T11:24:28.997Z</time></trkpt><trkpt lat="43.5956897" lon="11.36447"><ele>560.0</ele><time>2026-05-02T11:24:29.997Z</time></trkpt><trkpt lat="43.5956917" lon="11.3646039"><ele>563.0</ele><time>2026-05-02T11:24:30.997Z</time></trkpt><trkpt lat="43.595698" lon="11.364736"><ele>564.8</ele><time>2026-05-02T11:24:31.997Z</time></trkpt><trkpt lat="43.5957127" lon="11.364864"><ele>566.5999999999999</ele><time>2026-05-02T11:24:32.997Z</time></trkpt><trkpt lat="43.5957291" lon="11.3649985"><ele>568.4000000000001</ele><time>2026-05-02T11:24:33.997Z</time></trkpt><trkpt lat="43.5957377" lon="11.3651252"><ele>570.2</ele><time>2026-05-02T11:24:34.997Z</time></trkpt><trkpt lat="43.5957387" lon="11.3652448"><ele>572.0</ele><time>2026-05-02T11:24:35.997Z</time></trkpt><trkpt lat="43.595725" lon="11.3653668"><ele>572.0</ele><time>2026-05-02T11:24:36.997Z</time></trkpt><trkpt lat="43.5957039" lon="11.365475"><ele>572.0</ele><time>2026-05-02T11:24:37.997Z</time></trkpt><trkpt lat="43.5956704" lon="11.3655799"><ele>572.0</ele><time>2026-05-02T11:24:38.997Z</time></trkpt><trkpt lat="43.5956242" lon="11.3656743"><ele>572.0</ele><time>2026-05-02T11:24:39.997Z</time></trkpt><trkpt lat="43.5955522" lon="11.3657622"><ele>572.0</ele><time>2026-05-02T11:24:40.997Z</time></trkpt><trkpt lat="43.5954787" lon="11.3658308"><ele>572.0</ele><time>2026-05-02T11:24:41.997Z</time></trkpt><trkpt lat="43.5953965" lon="11.3658732"><ele>573.0</ele><time>2026-05-02T11:24:42.997Z</time></trkpt><trkpt lat="43.59532" lon="11.3659109"><ele>574.0</ele><time>2026-05-02T11:24:43.998Z</time></trkpt><trkpt lat="43.5952559" lon="11.3659442"><ele>575.0</ele><time>2026-05-02T11:24:44.997Z</time></trkpt><trkpt lat="43.5951646" lon="11.3660005"><ele>576.0</ele><time>2026-05-02T11:24:46.997Z</time></trkpt><trkpt lat="43.5950425" lon="11.366024"><ele>577.0</ele><time>2026-05-02T11:24:48.997Z</time></trkpt><trkpt lat="43.5949725" lon="11.3660261"><ele>578.0</ele><time>2026-05-02T11:24:49.997Z</time></trkpt><trkpt lat="43.5948982" lon="11.3660192"><ele>578.0</ele><time>2026-05-02T11:24:50.997Z</time></trkpt><trkpt lat="43.5948231" lon="11.3659902"><ele>578.0</ele><time>2026-05-02T11:24:51.997Z</time></trkpt><trkpt lat="43.594749" lon="11.3659397"><ele>578.0</ele><time>2026-05-02T11:24:52.997Z</time></trkpt><trkpt lat="43.5946759" lon="11.3658857"><ele>578.0</ele><time>2026-05-02T11:24:53.997Z</time></trkpt><trkpt lat="43.5945981" lon="11.3658441"><ele>578.0</ele><time>2026-05-02T11:24:54.998Z</time></trkpt><trkpt lat="43.5945216" lon="11.3658219"><ele>578.0</ele><time>2026-05-02T11:24:55.997Z</time></trkpt><trkpt lat="43.5944536" lon="11.3658191"><ele>579.8333333333333</ele><time>2026-05-02T11:24:56.997Z</time></trkpt><trkpt lat="43.59439" lon="11.365861"><ele>581.6666666666666</ele><time>2026-05-02T11:24:57.997Z</time></trkpt><trkpt lat="43.5943188" lon="11.3659155"><ele>583.5</ele><time>2026-05-02T11:24:58.997Z</time></trkpt><trkpt lat="43.5942535" lon="11.3659865"><ele>585.3333333333334</ele><time>2026-05-02T11:24:59.997Z</time></trkpt><trkpt lat="43.5941875" lon="11.3660532"><ele>587.1666666666667</ele><time>2026-05-02T11:25:00.997Z</time></trkpt><trkpt lat="43.5941176" lon="11.3661032"><ele>589.0</ele><time>2026-05-02T11:25:01.997Z</time></trkpt><trkpt lat="43.5939887" lon="11.3661152"><ele>589.0</ele><time>2026-05-02T11:25:03.997Z</time></trkpt><trkpt lat="43.5939106" lon="11.3660504"><ele>589.0</ele><time>2026-05-02T11:25:05.997Z</time></trkpt><trkpt lat="43.5938372" lon="11.3660735"><ele>589.0</ele><time>2026-05-02T11:25:08.997Z</time></trkpt><trkpt lat="43.5938225" lon="11.3662036"><ele>589.0</ele><time>2026-05-02T11:25:11.997Z</time></trkpt><trkpt lat="43.5937616" lon="11.3663033"><ele>589.0</ele><time>2026-05-02T11:25:13.997Z</time></trkpt><trkpt lat="43.5937188" lon="11.3663982"><ele>589.0</ele><time>2026-05-02T11:25:15.997Z</time></trkpt><trkpt lat="43.5936802" lon="11.3664901"><ele>591.6666666666667</ele><time>2026-05-02T11:25:17.998Z</time></trkpt><trkpt lat="43.5936146" lon="11.3665874"><ele>594.3333333333334</ele><time>2026-05-02T11:25:19.997Z</time></trkpt><trkpt lat="43.5935441" lon="11.36669"><ele>597.0</ele><time>2026-05-02T11:25:21.997Z</time></trkpt><trkpt lat="43.593454" lon="11.3667073"><ele>599.6666666666666</ele><time>2026-05-02T11:25:23.997Z</time></trkpt><trkpt lat="43.593398" lon="11.3666611"><ele>602.3333333333333</ele><time>2026-05-02T11:25:24.997Z</time></trkpt><trkpt lat="43.5933581" lon="11.3665835"><ele>605.0</ele><time>2026-05-02T11:25:25.997Z</time></trkpt><trkpt lat="43.5933307" lon="11.3664979"><ele>605.0</ele><time>2026-05-02T11:25:26.997Z</time></trkpt><trkpt lat="43.5932768" lon="11.3663781"><ele>605.0</ele><time>2026-05-02T11:25:28.997Z</time></trkpt><trkpt lat="43.5931903" lon="11.3662624"><ele>605.0</ele><time>2026-05-02T11:25:30.997Z</time></trkpt><trkpt lat="43.5930913" lon="11.3661806"><ele>605.0</ele><time>2026-05-02T11:25:32.997Z</time></trkpt><trkpt lat="43.5930268" lon="11.3661619"><ele>605.0</ele><time>2026-05-02T11:25:33.997Z</time></trkpt><trkpt lat="43.5929503" lon="11.3662036"><ele>605.0</ele><time>2026-05-02T11:25:34.997Z</time></trkpt><trkpt lat="43.5928694" lon="11.3662319"><ele>605.0</ele><time>2026-05-02T11:25:35.997Z</time></trkpt><trkpt lat="43.5927691" lon="11.3662392"><ele>605.0</ele><time>2026-05-02T11:25:36.997Z</time></trkpt><trkpt lat="43.592689" lon="11.3662495"><ele>605.0</ele><time>2026-05-02T11:25:37.997Z</time></trkpt><trkpt lat="43.5926084" lon="11.3662625"><ele>605.0</ele><time>2026-05-02T11:25:38.997Z</time></trkpt><trkpt lat="43.5925368" lon="11.3662734"><ele>605.0</ele><time>2026-05-02T11:25:39.997Z</time></trkpt><trkpt lat="43.5924706" lon="11.3662851"><ele>604.8</ele><time>2026-05-02T11:25:40.997Z</time></trkpt><trkpt lat="43.5923528" lon="11.3662936"><ele>604.6</ele><time>2026-05-02T11:25:42.997Z</time></trkpt><trkpt lat="43.5922564" lon="11.3662831"><ele>604.4</ele><time>2026-05-02T11:25:44.997Z</time></trkpt><trkpt lat="43.5921768" lon="11.3662927"><ele>604.2</ele><time>2026-05-02T11:25:47.997Z</time></trkpt><trkpt lat="43.5920833" lon="11.3662984"><ele>604.0</ele><time>2026-05-02T11:25:51.997Z</time></trkpt><trkpt lat="43.592022" lon="11.3663588"><ele>603.6</ele><time>2026-05-02T11:25:52.997Z</time></trkpt><trkpt lat="43.5919556" lon="11.3664125"><ele>603.2</ele><time>2026-05-02T11:25:53.997Z</time></trkpt><trkpt lat="43.5918979" lon="11.3664582"><ele>602.8000000000001</ele><time>2026-05-02T11:25:54.997Z</time></trkpt><trkpt lat="43.5918091" lon="11.3665388"><ele>602.4</ele><time>2026-05-02T11:25:56.997Z</time></trkpt><trkpt lat="43.5917379" lon="11.3666123"><ele>602.0</ele><time>2026-05-02T11:25:58.997Z</time></trkpt><trkpt lat="43.5916401" lon="11.3667094"><ele>602.0</ele><time>2026-05-02T11:26:00.997Z</time></trkpt><trkpt lat="43.591571" lon="11.3668092"><ele>602.0</ele><time>2026-05-02T11:26:02.997Z</time></trkpt><trkpt lat="43.59149" lon="11.3668591"><ele>602.0</ele><time>2026-05-02T11:26:04.997Z</time></trkpt><trkpt lat="43.591384" lon="11.3669338"><ele>602.0</ele><time>2026-05-02T11:26:06.997Z</time></trkpt><trkpt lat="43.5912873" lon="11.3669898"><ele>602.0</ele><time>2026-05-02T11:26:08.997Z</time></trkpt><trkpt lat="43.5911838" lon="11.3670411"><ele>601.2</ele><time>2026-05-02T11:26:10.997Z</time></trkpt><trkpt lat="43.5910957" lon="11.3670428"><ele>600.4000000000001</ele><time>2026-05-02T11:26:12.997Z</time></trkpt><trkpt lat="43.5910446" lon="11.3669314"><ele>599.5999999999999</ele><time>2026-05-02T11:26:14.997Z</time></trkpt><trkpt lat="43.5910413" lon="11.366769"><ele>598.8</ele><time>2026-05-02T11:26:16.997Z</time></trkpt><trkpt lat="43.591053" lon="11.3666325"><ele>598.0</ele><time>2026-05-02T11:26:18.997Z</time></trkpt><trkpt lat="43.5909976" lon="11.3665418"><ele>598.0</ele><time>2026-05-02T11:26:20.997Z</time></trkpt><trkpt lat="43.5908948" lon="11.3664681"><ele>598.0</ele><time>2026-05-02T11:26:22.997Z</time></trkpt><trkpt lat="43.5908254" lon="11.3664034"><ele>598.0</ele><time>2026-05-02T11:26:24.997Z</time></trkpt><trkpt lat="43.590736" lon="11.3663006"><ele>598.0</ele><time>2026-05-02T11:26:26.997Z</time></trkpt><trkpt lat="43.590642" lon="11.3662407"><ele>598.0</ele><time>2026-05-02T11:26:28.997Z</time></trkpt><trkpt lat="43.5905573" lon="11.3662994"><ele>598.0</ele><time>2026-05-02T11:26:31.997Z</time></trkpt><trkpt lat="43.5905337" lon="11.3663822"><ele>598.0</ele><time>2026-05-02T11:26:32.997Z</time></trkpt><trkpt lat="43.5905019" lon="11.3664862"><ele>598.0</ele><time>2026-05-02T11:26:33.997Z</time></trkpt><trkpt lat="43.5904587" lon="11.3665774"><ele>598.0</ele><time>2026-05-02T11:26:34.997Z</time></trkpt><trkpt lat="43.5904076" lon="11.3666595"><ele>598.0</ele><time>2026-05-02T11:26:35.997Z</time></trkpt><trkpt lat="43.5903542" lon="11.3667306"><ele>598.0</ele><time>2026-05-02T11:26:36.997Z</time></trkpt><trkpt lat="43.590301" lon="11.366788"><ele>598.0</ele><time>2026-05-02T11:26:37.997Z</time></trkpt><trkpt lat="43.5902327" lon="11.3668257"><ele>600.1666666666667</ele><time>2026-05-02T11:26:38.997Z</time></trkpt><trkpt lat="43.5901697" lon="11.3668566"><ele>602.3333333333334</ele><time>2026-05-02T11:26:39.998Z</time></trkpt><trkpt lat="43.5901146" lon="11.3669094"><ele>604.5</ele><time>2026-05-02T11:26:40.997Z</time></trkpt><trkpt lat="43.5900175" lon="11.3669808"><ele>606.6666666666666</ele><time>2026-05-02T11:26:42.997Z</time></trkpt><trkpt lat="43.5899262" lon="11.3670369"><ele>608.8333333333333</ele><time>2026-05-02T11:26:44.997Z</time></trkpt><trkpt lat="43.589822" lon="11.3670476"><ele>611.0</ele><time>2026-05-02T11:26:46.997Z</time></trkpt><trkpt lat="43.5897042" lon="11.3669835"><ele>611.0</ele><time>2026-05-02T11:26:48.997Z</time></trkpt><trkpt lat="43.5896496" lon="11.3669326"><ele>611.0</ele><time>2026-05-02T11:26:49.997Z</time></trkpt><trkpt lat="43.589588" lon="11.3668904"><ele>611.0</ele><time>2026-05-02T11:26:50.998Z</time></trkpt><trkpt lat="43.5894939" lon="11.3668357"><ele>611.0</ele><time>2026-05-02T11:26:52.998Z</time></trkpt><trkpt lat="43.5894392" lon="11.3667367"><ele>611.0</ele><time>2026-05-02T11:26:54.997Z</time></trkpt><trkpt lat="43.5893667" lon="11.366658"><ele>611.0</ele><time>2026-05-02T11:26:56.997Z</time></trkpt><trkpt lat="43.5892586" lon="11.3666389"><ele>612.1666666666666</ele><time>2026-05-02T11:26:58.997Z</time></trkpt><trkpt lat="43.5891944" lon="11.3666326"><ele>613.3333333333333</ele><time>2026-05-02T11:26:59.997Z</time></trkpt><trkpt lat="43.5891307" lon="11.3666229"><ele>614.5</ele><time>2026-05-02T11:27:00.997Z</time></trkpt><trkpt lat="43.5890663" lon="11.3666052"><ele>615.6666666666666</ele><time>2026-05-02T11:27:01.997Z</time></trkpt><trkpt lat="43.5889459" lon="11.3665482"><ele>616.8333333333334</ele><time>2026-05-02T11:27:03.997Z</time></trkpt><trkpt lat="43.5888803" lon="11.366516"><ele>618.0</ele><time>2026-05-02T11:27:04.997Z</time></trkpt><trkpt lat="43.5888059" lon="11.3665014"><ele>618.0</ele><time>2026-05-02T11:27:05.997Z</time></trkpt><trkpt lat="43.5887073" lon="11.3665358"><ele>618.0</ele><time>2026-05-02T11:27:06.997Z</time></trkpt><trkpt lat="43.5885961" lon="11.3665812"><ele>618.0</ele><time>2026-05-02T11:27:07.997Z</time></trkpt><trkpt lat="43.5884756" lon="11.3665867"><ele>618.0</ele><time>2026-05-02T11:27:08.997Z</time></trkpt><trkpt lat="43.5883594" lon="11.3665658"><ele>618.5</ele><time>2026-05-02T11:27:09.997Z</time></trkpt><trkpt lat="43.5882367" lon="11.3665417"><ele>619.0</ele><time>2026-05-02T11:27:10.997Z</time></trkpt><trkpt lat="43.5881174" lon="11.3665183"><ele>619.5</ele><time>2026-05-02T11:27:11.997Z</time></trkpt><trkpt lat="43.5879939" lon="11.3664951"><ele>620.0</ele><time>2026-05-02T11:27:12.997Z</time></trkpt><trkpt lat="43.5878724" lon="11.3664708"><ele>620.75</ele><time>2026-05-02T11:27:13.997Z</time></trkpt><trkpt lat="43.5877505" lon="11.3664567"><ele>621.5</ele><time>2026-05-02T11:27:14.997Z</time></trkpt><trkpt lat="43.5876271" lon="11.3664413"><ele>622.25</ele><time>2026-05-02T11:27:15.997Z</time></trkpt><trkpt lat="43.5874988" lon="11.3664279"><ele>623.0</ele><time>2026-05-02T11:27:16.997Z</time></trkpt><trkpt lat="43.5873621" lon="11.3664111"><ele>623.0</ele><time>2026-05-02T11:27:17.997Z</time></trkpt><trkpt lat="43.5872217" lon="11.3664041"><ele>623.0</ele><time>2026-05-02T11:27:18.997Z</time></trkpt><trkpt lat="43.5870668" lon="11.3664139"><ele>623.0</ele><time>2026-05-02T11:27:19.997Z</time></trkpt><trkpt lat="43.5869065" lon="11.3664236"><ele>624.3333333333333</ele><time>2026-05-02T11:27:20.997Z</time></trkpt><trkpt lat="43.5867428" lon="11.3664248"><ele>625.6666666666666</ele><time>2026-05-02T11:27:21.997Z</time></trkpt><trkpt lat="43.5865758" lon="11.3664229"><ele>627.0</ele><time>2026-05-02T11:27:22.997Z</time></trkpt><trkpt lat="43.5864192" lon="11.3664156"><ele>627.0</ele><time>2026-05-02T11:27:23.997Z</time></trkpt><trkpt lat="43.586274" lon="11.3664026"><ele>627.0</ele><time>2026-05-02T11:27:24.997Z</time></trkpt><trkpt lat="43.5861318" lon="11.3663824"><ele>627.0</ele><time>2026-05-02T11:27:25.997Z</time></trkpt><trkpt lat="43.585998" lon="11.3663657"><ele>627.0</ele><time>2026-05-02T11:27:26.997Z</time></trkpt><trkpt lat="43.5858709" lon="11.3663535"><ele>627.0</ele><time>2026-05-02T11:27:27.997Z</time></trkpt><trkpt lat="43.5857571" lon="11.3663453"><ele>627.0</ele><time>2026-05-02T11:27:28.997Z</time></trkpt><trkpt lat="43.5856552" lon="11.3663332"><ele>627.0</ele><time>2026-05-02T11:27:29.997Z</time></trkpt><trkpt lat="43.5855721" lon="11.3663207"><ele>627.0</ele><time>2026-05-02T11:27:30.997Z</time></trkpt><trkpt lat="43.5854649" lon="11.3663388"><ele>627.0</ele><time>2026-05-02T11:27:32.997Z</time></trkpt><trkpt lat="43.5854146" lon="11.3664765"><ele>627.0</ele><time>2026-05-02T11:27:34.997Z</time></trkpt><trkpt lat="43.5854004" lon="11.3665845"><ele>627.0</ele><time>2026-05-02T11:27:35.997Z</time></trkpt><trkpt lat="43.5853862" lon="11.3667179"><ele>627.0</ele><time>2026-05-02T11:27:36.997Z</time></trkpt><trkpt lat="43.5853679" lon="11.3668798"><ele>627.0</ele><time>2026-05-02T11:27:37.997Z</time></trkpt><trkpt lat="43.5853551" lon="11.367062"><ele>627.0</ele><time>2026-05-02T11:27:38.998Z</time></trkpt><trkpt lat="43.5853377" lon="11.3672511"><ele>628.25</ele><time>2026-05-02T11:27:39.997Z</time></trkpt><trkpt lat="43.5853334" lon="11.3674409"><ele>629.5</ele><time>2026-05-02T11:27:40.997Z</time></trkpt><trkpt lat="43.58535" lon="11.3676261"><ele>630.75</ele><time>2026-05-02T11:27:41.997Z</time></trkpt><trkpt lat="43.5853782" lon="11.3677927"><ele>632.0</ele><time>2026-05-02T11:27:42.997Z</time></trkpt><trkpt lat="43.5853945" lon="11.3679349"><ele>632.4</ele><time>2026-05-02T11:27:43.997Z</time></trkpt><trkpt lat="43.5853675" lon="11.3680657"><ele>632.8000000000001</ele><time>2026-05-02T11:27:44.997Z</time></trkpt><trkpt lat="43.5853121" lon="11.36816"><ele>633.2</ele><time>2026-05-02T11:27:45.997Z</time></trkpt><trkpt lat="43.585238" lon="11.3682311"><ele>633.6</ele><time>2026-05-02T11:27:46.997Z</time></trkpt><trkpt lat="43.5851485" lon="11.3682995"><ele>634.0</ele><time>2026-05-02T11:27:47.997Z</time></trkpt><trkpt lat="43.5850551" lon="11.3683855"><ele>637.25</ele><time>2026-05-02T11:27:48.997Z</time></trkpt><trkpt lat="43.5849566" lon="11.3684825"><ele>640.5</ele><time>2026-05-02T11:27:49.997Z</time></trkpt><trkpt lat="43.5848478" lon="11.3685839"><ele>643.75</ele><time>2026-05-02T11:27:50.997Z</time></trkpt><trkpt lat="43.5847346" lon="11.3686865"><ele>647.0</ele><time>2026-05-02T11:27:51.997Z</time></trkpt><trkpt lat="43.5846195" lon="11.3688007"><ele>651.0</ele><time>2026-05-02T11:27:52.997Z</time></trkpt><trkpt lat="43.5844964" lon="11.3689193"><ele>655.0</ele><time>2026-05-02T11:27:53.997Z</time></trkpt><trkpt lat="43.5843645" lon="11.3690453"><ele>659.0</ele><time>2026-05-02T11:27:54.997Z</time></trkpt><trkpt lat="43.5842365" lon="11.3691863"><ele>659.0</ele><time>2026-05-02T11:27:55.997Z</time></trkpt><trkpt lat="43.584098" lon="11.3693394"><ele>659.0</ele><time>2026-05-02T11:27:56.997Z</time></trkpt><trkpt lat="43.5839534" lon="11.3695075"><ele>659.0</ele><time>2026-05-02T11:27:57.997Z</time></trkpt><trkpt lat="43.5838107" lon="11.3696762"><ele>660.3333333333333</ele><time>2026-05-02T11:27:58.997Z</time></trkpt><trkpt lat="43.5836674" lon="11.369846"><ele>661.6666666666666</ele><time>2026-05-02T11:27:59.997Z</time></trkpt><trkpt lat="43.5835199" lon="11.3700085"><ele>663.0</ele><time>2026-05-02T11:28:00.997Z</time></trkpt><trkpt lat="43.5833813" lon="11.370164"><ele>663.0</ele><time>2026-05-02T11:28:01.997Z</time></trkpt><trkpt lat="43.5832492" lon="11.3703164"><ele>663.0</ele><time>2026-05-02T11:28:02.997Z</time></trkpt><trkpt lat="43.5831153" lon="11.3704641"><ele>663.0</ele><time>2026-05-02T11:28:03.997Z</time></trkpt><trkpt lat="43.5829839" lon="11.3706028"><ele>665.3333333333334</ele><time>2026-05-02T11:28:04.997Z</time></trkpt><trkpt lat="43.5828443" lon="11.3707248"><ele>667.6666666666667</ele><time>2026-05-02T11:28:05.998Z</time></trkpt><trkpt lat="43.5826918" lon="11.3708388"><ele>670.0</ele><time>2026-05-02T11:28:06.997Z</time></trkpt><trkpt lat="43.5825291" lon="11.3709344"><ele>670.0</ele><time>2026-05-02T11:28:07.997Z</time></trkpt><trkpt lat="43.5823429" lon="11.3710084"><ele>670.0</ele><time>2026-05-02T11:28:08.997Z</time></trkpt><trkpt lat="43.5821519" lon="11.3710739"><ele>670.0</ele><time>2026-05-02T11:28:09.997Z</time></trkpt><trkpt lat="43.5819596" lon="11.3711286"><ele>673.0</ele><time>2026-05-02T11:28:10.997Z</time></trkpt><trkpt lat="43.5817608" lon="11.3711819"><ele>676.0</ele><time>2026-05-02T11:28:11.997Z</time></trkpt><trkpt lat="43.5815688" lon="11.3712163"><ele>679.0</ele><time>2026-05-02T11:28:12.998Z</time></trkpt><trkpt lat="43.5813833" lon="11.3712481"><ele>679.0</ele><time>2026-05-02T11:28:13.997Z</time></trkpt><trkpt lat="43.5812243" lon="11.3712555"><ele>679.0</ele><time>2026-05-02T11:28:14.997Z</time></trkpt><trkpt lat="43.5810686" lon="11.3712581"><ele>679.0</ele><time>2026-05-02T11:28:15.997Z</time></trkpt><trkpt lat="43.5809274" lon="11.3712523"><ele>681.5</ele><time>2026-05-02T11:28:16.997Z</time></trkpt><trkpt lat="43.5807963" lon="11.3712095"><ele>684.0</ele><time>2026-05-02T11:28:17.997Z</time></trkpt><trkpt lat="43.5806716" lon="11.3711128"><ele>686.5</ele><time>2026-05-02T11:28:18.997Z</time></trkpt><trkpt lat="43.5805612" lon="11.3710188"><ele>689.0</ele><time>2026-05-02T11:28:19.997Z</time></trkpt><trkpt lat="43.580469" lon="11.3709532"><ele>689.0</ele><time>2026-05-02T11:28:20.997Z</time></trkpt><trkpt lat="43.5803872" lon="11.3709154"><ele>689.0</ele><time>2026-05-02T11:28:21.997Z</time></trkpt><trkpt lat="43.5802625" lon="11.3709756"><ele>689.0</ele><time>2026-05-02T11:28:23.997Z</time></trkpt><trkpt lat="43.5802149" lon="11.3710366"><ele>689.0</ele><time>2026-05-02T11:28:24.997Z</time></trkpt><trkpt lat="43.580154" lon="11.3711289"><ele>689.0</ele><time>2026-05-02T11:28:25.997Z</time></trkpt><trkpt lat="43.5800681" lon="11.3712558"><ele>694.75</ele><time>2026-05-02T11:28:26.997Z</time></trkpt><trkpt lat="43.5799791" lon="11.3713745"><ele>700.5</ele><time>2026-05-02T11:28:27.997Z</time></trkpt><trkpt lat="43.5798508" lon="11.3714385"><ele>706.25</ele><time>2026-05-02T11:28:28.997Z</time></trkpt><trkpt lat="43.5797249" lon="11.371457"><ele>712.0</ele><time>2026-05-02T11:28:29.997Z</time></trkpt><trkpt lat="43.5796088" lon="11.3714523"><ele>711.25</ele><time>2026-05-02T11:28:30.997Z</time></trkpt><trkpt lat="43.579496" lon="11.3714663"><ele>710.5</ele><time>2026-05-02T11:28:31.997Z</time></trkpt><trkpt lat="43.5793886" lon="11.3715376"><ele>709.75</ele><time>2026-05-02T11:28:32.998Z</time></trkpt><trkpt lat="43.5792873" lon="11.3716543"><ele>709.0</ele><time>2026-05-02T11:28:33.997Z</time></trkpt><trkpt lat="43.5791952" lon="11.3717884"><ele>709.0</ele><time>2026-05-02T11:28:34.997Z</time></trkpt><trkpt lat="43.5791084" lon="11.3719443"><ele>709.0</ele><time>2026-05-02T11:28:35.997Z</time></trkpt><trkpt lat="43.5790189" lon="11.3720611"><ele>709.0</ele><time>2026-05-02T11:28:36.997Z</time></trkpt><trkpt lat="43.5789003" lon="11.3721429"><ele>709.0</ele><time>2026-05-02T11:28:37.997Z</time></trkpt><trkpt lat="43.5787599" lon="11.3722142"><ele>713.3333333333334</ele><time>2026-05-02T11:28:38.998Z</time></trkpt><trkpt lat="43.5786082" lon="11.37232"><ele>717.6666666666666</ele><time>2026-05-02T11:28:39.997Z</time></trkpt><trkpt lat="43.5784735" lon="11.3724451"><ele>722.0</ele><time>2026-05-02T11:28:40.997Z</time></trkpt><trkpt lat="43.5783483" lon="11.3725752"><ele>722.0</ele><time>2026-05-02T11:28:41.997Z</time></trkpt><trkpt lat="43.5782343" lon="11.3727053"><ele>722.0</ele><time>2026-05-02T11:28:42.997Z</time></trkpt><trkpt lat="43.5781396" lon="11.3728688"><ele>722.0</ele><time>2026-05-02T11:28:43.997Z</time></trkpt><trkpt lat="43.5780732" lon="11.37302"><ele>722.0</ele><time>2026-05-02T11:28:44.997Z</time></trkpt><trkpt lat="43.5780098" lon="11.3731349"><ele>722.2</ele><time>2026-05-02T11:28:45.997Z</time></trkpt><trkpt lat="43.5779514" lon="11.3732385"><ele>722.4000000000001</ele><time>2026-05-02T11:28:46.997Z</time></trkpt><trkpt lat="43.5778898" lon="11.3733291"><ele>722.5999999999999</ele><time>2026-05-02T11:28:47.998Z</time></trkpt><trkpt lat="43.5778114" lon="11.3733995"><ele>722.8</ele><time>2026-05-02T11:28:48.997Z</time></trkpt><trkpt lat="43.5777035" lon="11.3734441"><ele>723.0</ele><time>2026-05-02T11:28:49.997Z</time></trkpt><trkpt lat="43.5775723" lon="11.373454"><ele>723.6666666666666</ele><time>2026-05-02T11:28:50.997Z</time></trkpt><trkpt lat="43.5774092" lon="11.3734558"><ele>724.3333333333333</ele><time>2026-05-02T11:28:51.997Z</time></trkpt><trkpt lat="43.5772517" lon="11.3734763"><ele>725.0</ele><time>2026-05-02T11:28:52.997Z</time></trkpt><trkpt lat="43.5771252" lon="11.3735157"><ele>725.75</ele><time>2026-05-02T11:28:53.997Z</time></trkpt><trkpt lat="43.5770107" lon="11.3735908"><ele>726.5</ele><time>2026-05-02T11:28:54.997Z</time></trkpt><trkpt lat="43.5768901" lon="11.3736407"><ele>727.25</ele><time>2026-05-02T11:28:55.997Z</time></trkpt><trkpt lat="43.5767554" lon="11.3736378"><ele>728.0</ele><time>2026-05-02T11:28:56.997Z</time></trkpt><trkpt lat="43.5766059" lon="11.3736185"><ele>728.0</ele><time>2026-05-02T11:28:57.997Z</time></trkpt><trkpt lat="43.576456" lon="11.3735696"><ele>728.0</ele><time>2026-05-02T11:28:58.998Z</time></trkpt><trkpt lat="43.576314" lon="11.373527"><ele>728.0</ele><time>2026-05-02T11:28:59.997Z</time></trkpt><trkpt lat="43.5761675" lon="11.3735114"><ele>728.0</ele><time>2026-05-02T11:29:00.998Z</time></trkpt><trkpt lat="43.5760196" lon="11.3735327"><ele>726.3333333333333</ele><time>2026-05-02T11:29:01.997Z</time></trkpt><trkpt lat="43.5758721" lon="11.3735893"><ele>724.6666666666666</ele><time>2026-05-02T11:29:02.997Z</time></trkpt><trkpt lat="43.5757382" lon="11.3736808"><ele>723.0</ele><time>2026-05-02T11:29:03.997Z</time></trkpt><trkpt lat="43.5756088" lon="11.3737973"><ele>723.3333333333334</ele><time>2026-05-02T11:29:04.997Z</time></trkpt><trkpt lat="43.5754866" lon="11.3739585"><ele>723.6666666666667</ele><time>2026-05-02T11:29:05.997Z</time></trkpt><trkpt lat="43.5753417" lon="11.3741391"><ele>724.0</ele><time>2026-05-02T11:29:06.997Z</time></trkpt><trkpt lat="43.575197" lon="11.3743405"><ele>724.3333333333334</ele><time>2026-05-02T11:29:07.997Z</time></trkpt><trkpt lat="43.5750497" lon="11.3745519"><ele>724.6666666666666</ele><time>2026-05-02T11:29:08.997Z</time></trkpt><trkpt lat="43.5748941" lon="11.374769"><ele>725.0</ele><time>2026-05-02T11:29:09.997Z</time></trkpt><trkpt lat="43.574751" lon="11.3749795"><ele>727.6666666666666</ele><time>2026-05-02T11:29:10.997Z</time></trkpt><trkpt lat="43.5746221" lon="11.3751602"><ele>730.3333333333334</ele><time>2026-05-02T11:29:11.997Z</time></trkpt><trkpt lat="43.5745136" lon="11.3752942"><ele>733.0</ele><time>2026-05-02T11:29:12.997Z</time></trkpt><trkpt lat="43.5744007" lon="11.3753928"><ele>733.0</ele><time>2026-05-02T11:29:13.997Z</time></trkpt><trkpt lat="43.5742705" lon="11.3754716"><ele>733.0</ele><time>2026-05-02T11:29:14.997Z</time></trkpt><trkpt lat="43.5741227" lon="11.3755608"><ele>733.0</ele><time>2026-05-02T11:29:15.997Z</time></trkpt><trkpt lat="43.5739472" lon="11.3756495"><ele>735.6666666666667</ele><time>2026-05-02T11:29:16.997Z</time></trkpt><trkpt lat="43.5737692" lon="11.3757513"><ele>738.3333333333334</ele><time>2026-05-02T11:29:17.997Z</time></trkpt><trkpt lat="43.5735995" lon="11.3758613"><ele>741.0</ele><time>2026-05-02T11:29:18.997Z</time></trkpt><trkpt lat="43.5734554" lon="11.3759626"><ele>741.0</ele><time>2026-05-02T11:29:19.997Z</time></trkpt><trkpt lat="43.5733234" lon="11.3760702"><ele>741.0</ele><time>2026-05-02T11:29:20.997Z</time></trkpt><trkpt lat="43.5731851" lon="11.3761468"><ele>741.0</ele><time>2026-05-02T11:29:21.997Z</time></trkpt><trkpt lat="43.5730218" lon="11.3762144"><ele>741.6666666666666</ele><time>2026-05-02T11:29:22.997Z</time></trkpt><trkpt lat="43.5728414" lon="11.376253"><ele>742.3333333333333</ele><time>2026-05-02T11:29:23.997Z</time></trkpt><trkpt lat="43.572662" lon="11.3763179"><ele>743.0</ele><time>2026-05-02T11:29:24.997Z</time></trkpt><trkpt lat="43.5724833" lon="11.3763957"><ele>744.6666666666666</ele><time>2026-05-02T11:29:25.997Z</time></trkpt><trkpt lat="43.572308" lon="11.3764654"><ele>746.3333333333334</ele><time>2026-05-02T11:29:26.997Z</time></trkpt><trkpt lat="43.5721362" lon="11.3765365"><ele>748.0</ele><time>2026-05-02T11:29:27.997Z</time></trkpt><trkpt lat="43.5719493" lon="11.3766264"><ele>749.0</ele><time>2026-05-02T11:29:28.997Z</time></trkpt><trkpt lat="43.5717563" lon="11.3767292"><ele>750.0</ele><time>2026-05-02T11:29:29.997Z</time></trkpt><trkpt lat="43.5715646" lon="11.3768195"><ele>751.0</ele><time>2026-05-02T11:29:30.997Z</time></trkpt><trkpt lat="43.5713777" lon="11.3768854"><ele>751.0</ele><time>2026-05-02T11:29:31.997Z</time></trkpt><trkpt lat="43.5712145" lon="11.376906"><ele>751.0</ele><time>2026-05-02T11:29:32.997Z</time></trkpt><trkpt lat="43.5710679" lon="11.376926"><ele>751.0</ele><time>2026-05-02T11:29:33.997Z</time></trkpt><trkpt lat="43.5709263" lon="11.3769625"><ele>750.3333333333334</ele><time>2026-05-02T11:29:34.997Z</time></trkpt><trkpt lat="43.5707814" lon="11.3770294"><ele>749.6666666666666</ele><time>2026-05-02T11:29:35.997Z</time></trkpt><trkpt lat="43.5706108" lon="11.3771311"><ele>749.0</ele><time>2026-05-02T11:29:36.997Z</time></trkpt><trkpt lat="43.5704282" lon="11.3772422"><ele>747.6666666666666</ele><time>2026-05-02T11:29:37.997Z</time></trkpt><trkpt lat="43.5702563" lon="11.3773546"><ele>746.3333333333334</ele><time>2026-05-02T11:29:38.998Z</time></trkpt><trkpt lat="43.5701115" lon="11.3774418"><ele>745.0</ele><time>2026-05-02T11:29:39.997Z</time></trkpt><trkpt lat="43.569977" lon="11.3775324"><ele>745.0</ele><time>2026-05-02T11:29:40.997Z</time></trkpt><trkpt lat="43.5698465" lon="11.3776135"><ele>745.0</ele><time>2026-05-02T11:29:41.997Z</time></trkpt><trkpt lat="43.5697239" lon="11.377697"><ele>745.0</ele><time>2026-05-02T11:29:42.997Z</time></trkpt><trkpt lat="43.5695983" lon="11.3777889"><ele>745.0</ele><time>2026-05-02T11:29:43.997Z</time></trkpt><trkpt lat="43.5694705" lon="11.3778707"><ele>745.75</ele><time>2026-05-02T11:29:44.997Z</time></trkpt><trkpt lat="43.5693383" lon="11.3779429"><ele>746.5</ele><time>2026-05-02T11:29:45.997Z</time></trkpt><trkpt lat="43.5692085" lon="11.3780263"><ele>747.25</ele><time>2026-05-02T11:29:46.997Z</time></trkpt><trkpt lat="43.5690981" lon="11.3781412"><ele>748.0</ele><time>2026-05-02T11:29:47.997Z</time></trkpt><trkpt lat="43.5690048" lon="11.3782429"><ele>748.0</ele><time>2026-05-02T11:29:48.998Z</time></trkpt><trkpt lat="43.5689162" lon="11.378311"><ele>748.0</ele><time>2026-05-02T11:29:49.997Z</time></trkpt><trkpt lat="43.568835" lon="11.3783131"><ele>748.0</ele><time>2026-05-02T11:29:50.997Z</time></trkpt><trkpt lat="43.5687685" lon="11.3782801"><ele>748.0</ele><time>2026-05-02T11:29:51.997Z</time></trkpt><trkpt lat="43.5687263" lon="11.3781919"><ele>748.0</ele><time>2026-05-02T11:29:52.997Z</time></trkpt><trkpt lat="43.568684" lon="11.3780868"><ele>748.0</ele><time>2026-05-02T11:29:53.997Z</time></trkpt><trkpt lat="43.5686463" lon="11.3779518"><ele>752.25</ele><time>2026-05-02T11:29:54.997Z</time></trkpt><trkpt lat="43.568608" lon="11.3777902"><ele>756.5</ele><time>2026-05-02T11:29:55.997Z</time></trkpt><trkpt lat="43.5685554" lon="11.3776142"><ele>760.75</ele><time>2026-05-02T11:29:56.997Z</time></trkpt><trkpt lat="43.5685132" lon="11.3774488"><ele>765.0</ele><time>2026-05-02T11:29:57.997Z</time></trkpt><trkpt lat="43.5684685" lon="11.37731"><ele>765.0</ele><time>2026-05-02T11:29:58.997Z</time></trkpt><trkpt lat="43.5684169" lon="11.3771957"><ele>765.0</ele><time>2026-05-02T11:29:59.997Z</time></trkpt><trkpt lat="43.5683639" lon="11.3771086"><ele>765.0</ele><time>2026-05-02T11:30:00.997Z</time></trkpt><trkpt lat="43.5682849" lon="11.3770713"><ele>765.0</ele><time>2026-05-02T11:30:01.997Z</time></trkpt><trkpt lat="43.5682086" lon="11.3770971"><ele>765.0</ele><time>2026-05-02T11:30:02.997Z</time></trkpt><trkpt lat="43.5681525" lon="11.377165"><ele>765.0</ele><time>2026-05-02T11:30:03.997Z</time></trkpt><trkpt lat="43.5681194" lon="11.3772516"><ele>765.0</ele><time>2026-05-02T11:30:04.997Z</time></trkpt><trkpt lat="43.5681082" lon="11.3773616"><ele>765.0</ele><time>2026-05-02T11:30:05.997Z</time></trkpt><trkpt lat="43.5681031" lon="11.3775109"><ele>765.0</ele><time>2026-05-02T11:30:06.997Z</time></trkpt><trkpt lat="43.5680685" lon="11.3776642"><ele>765.0</ele><time>2026-05-02T11:30:07.997Z</time></trkpt><trkpt lat="43.5679883" lon="11.3777954"><ele>765.0</ele><time>2026-05-02T11:30:08.997Z</time></trkpt><trkpt lat="43.5678904" lon="11.3779244"><ele>767.75</ele><time>2026-05-02T11:30:09.997Z</time></trkpt><trkpt lat="43.567776" lon="11.3780508"><ele>770.5</ele><time>2026-05-02T11:30:10.997Z</time></trkpt><trkpt lat="43.5676548" lon="11.3781402"><ele>773.25</ele><time>2026-05-02T11:30:11.997Z</time></trkpt><trkpt lat="43.5675478" lon="11.378204"><ele>776.0</ele><time>2026-05-02T11:30:12.997Z</time></trkpt><trkpt lat="43.5674176" lon="11.3782063"><ele>776.0</ele><time>2026-05-02T11:30:13.997Z</time></trkpt><trkpt lat="43.567266" lon="11.3781715"><ele>776.0</ele><time>2026-05-02T11:30:14.997Z</time></trkpt><trkpt lat="43.5671019" lon="11.3781159"><ele>776.0</ele><time>2026-05-02T11:30:15.997Z</time></trkpt><trkpt lat="43.5669234" lon="11.3780617"><ele>778.3333333333334</ele><time>2026-05-02T11:30:16.997Z</time></trkpt><trkpt lat="43.5667353" lon="11.3780016"><ele>780.6666666666667</ele><time>2026-05-02T11:30:17.997Z</time></trkpt><trkpt lat="43.566552" lon="11.377923"><ele>783.0</ele><time>2026-05-02T11:30:18.997Z</time></trkpt><trkpt lat="43.5663942" lon="11.3778414"><ele>783.0</ele><time>2026-05-02T11:30:19.997Z</time></trkpt><trkpt lat="43.5662539" lon="11.3777655"><ele>783.0</ele><time>2026-05-02T11:30:20.997Z</time></trkpt><trkpt lat="43.5661309" lon="11.3777027"><ele>783.0</ele><time>2026-05-02T11:30:21.997Z</time></trkpt><trkpt lat="43.5660166" lon="11.3776673"><ele>783.0</ele><time>2026-05-02T11:30:22.997Z</time></trkpt><trkpt lat="43.5658956" lon="11.3776664"><ele>785.75</ele><time>2026-05-02T11:30:23.997Z</time></trkpt><trkpt lat="43.565773" lon="11.3777021"><ele>788.5</ele><time>2026-05-02T11:30:24.997Z</time></trkpt><trkpt lat="43.5656473" lon="11.3777889"><ele>791.25</ele><time>2026-05-02T11:30:25.998Z</time></trkpt><trkpt lat="43.5655281" lon="11.3779182"><ele>794.0</ele><time>2026-05-02T11:30:26.996Z</time></trkpt><trkpt lat="43.5654083" lon="11.3780698"><ele>798.3333333333334</ele><time>2026-05-02T11:30:27.996Z</time></trkpt><trkpt lat="43.5652834" lon="11.378232"><ele>802.6666666666667</ele><time>2026-05-02T11:30:28.996Z</time></trkpt><trkpt lat="43.5651575" lon="11.3783759"><ele>807.0</ele><time>2026-05-02T11:30:29.996Z</time></trkpt><trkpt lat="43.5650306" lon="11.3784932"><ele>807.0</ele><time>2026-05-02T11:30:30.996Z</time></trkpt><trkpt lat="43.5648784" lon="11.3785811"><ele>807.0</ele><time>2026-05-02T11:30:31.996Z</time></trkpt><trkpt lat="43.5647014" lon="11.3786586"><ele>807.0</ele><time>2026-05-02T11:30:32.996Z</time></trkpt><trkpt lat="43.5645227" lon="11.3787385"><ele>810.75</ele><time>2026-05-02T11:30:33.996Z</time></trkpt><trkpt lat="43.5643629" lon="11.3787884"><ele>814.5</ele><time>2026-05-02T11:30:34.996Z</time></trkpt><trkpt lat="43.564228" lon="11.3788199"><ele>818.25</ele><time>2026-05-02T11:30:35.996Z</time></trkpt><trkpt lat="43.5641178" lon="11.3788342"><ele>822.0</ele><time>2026-05-02T11:30:36.996Z</time></trkpt><trkpt lat="43.5640227" lon="11.3788138"><ele>822.0</ele><time>2026-05-02T11:30:37.996Z</time></trkpt><trkpt lat="43.5639337" lon="11.3787698"><ele>822.0</ele><time>2026-05-02T11:30:38.996Z</time></trkpt><trkpt lat="43.5638723" lon="11.3787004"><ele>822.0</ele><time>2026-05-02T11:30:39.996Z</time></trkpt><trkpt lat="43.5638424" lon="11.3785752"><ele>822.0</ele><time>2026-05-02T11:30:40.996Z</time></trkpt><trkpt lat="43.563834" lon="11.3784641"><ele>822.0</ele><time>2026-05-02T11:30:41.996Z</time></trkpt><trkpt lat="43.5638667" lon="11.3783405"><ele>822.0</ele><time>2026-05-02T11:30:42.996Z</time></trkpt><trkpt lat="43.5639108" lon="11.3782215"><ele>822.0</ele><time>2026-05-02T11:30:43.996Z</time></trkpt><trkpt lat="43.5639491" lon="11.3781169"><ele>822.0</ele><time>2026-05-02T11:30:44.996Z</time></trkpt><trkpt lat="43.5639503" lon="11.3780076"><ele>822.0</ele><time>2026-05-02T11:30:45.996Z</time></trkpt><trkpt lat="43.5639118" lon="11.3779359"><ele>822.0</ele><time>2026-05-02T11:30:46.996Z</time></trkpt><trkpt lat="43.5638497" lon="11.3778732"><ele>822.0</ele><time>2026-05-02T11:30:47.996Z</time></trkpt><trkpt lat="43.5637671" lon="11.377825"><ele>822.0</ele><time>2026-05-02T11:30:48.996Z</time></trkpt><trkpt lat="43.5636685" lon="11.3778068"><ele>823.75</ele><time>2026-05-02T11:30:49.997Z</time></trkpt><trkpt lat="43.5635528" lon="11.3778141"><ele>825.5</ele><time>2026-05-02T11:30:50.996Z</time></trkpt><trkpt lat="43.563429" lon="11.3778662"><ele>827.25</ele><time>2026-05-02T11:30:51.996Z</time></trkpt><trkpt lat="43.5632845" lon="11.3779132"><ele>829.0</ele><time>2026-05-02T11:30:52.997Z</time></trkpt><trkpt lat="43.5631283" lon="11.3779829"><ele>830.3333333333333</ele><time>2026-05-02T11:30:53.996Z</time></trkpt><trkpt lat="43.5629657" lon="11.3780601"><ele>831.6666666666667</ele><time>2026-05-02T11:30:54.996Z</time></trkpt><trkpt lat="43.5628011" lon="11.3781428"><ele>833.0</ele><time>2026-05-02T11:30:55.996Z</time></trkpt><trkpt lat="43.5626552" lon="11.3782263"><ele>836.3333333333334</ele><time>2026-05-02T11:30:56.996Z</time></trkpt><trkpt lat="43.5625247" lon="11.3783249"><ele>839.6666666666667</ele><time>2026-05-02T11:30:57.996Z</time></trkpt><trkpt lat="43.5623974" lon="11.3784667"><ele>843.0</ele><time>2026-05-02T11:30:58.997Z</time></trkpt><trkpt lat="43.5622685" lon="11.3786432"><ele>843.0</ele><time>2026-05-02T11:30:59.996Z</time></trkpt><trkpt lat="43.5621529" lon="11.3788506"><ele>843.0</ele><time>2026-05-02T11:31:00.996Z</time></trkpt><trkpt lat="43.5620411" lon="11.3790892"><ele>843.0</ele><time>2026-05-02T11:31:01.996Z</time></trkpt><trkpt lat="43.5619211" lon="11.3793212"><ele>846.3333333333333</ele><time>2026-05-02T11:31:02.996Z</time></trkpt><trkpt lat="43.561803" lon="11.3795223"><ele>849.6666666666666</ele><time>2026-05-02T11:31:03.996Z</time></trkpt><trkpt lat="43.5616937" lon="11.3797031"><ele>853.0</ele><time>2026-05-02T11:31:04.996Z</time></trkpt><trkpt lat="43.5615976" lon="11.3798702"><ele>853.0</ele><time>2026-05-02T11:31:05.996Z</time></trkpt><trkpt lat="43.5615094" lon="11.3800021"><ele>853.0</ele><time>2026-05-02T11:31:06.996Z</time></trkpt><trkpt lat="43.5614266" lon="11.3801146"><ele>853.0</ele><time>2026-05-02T11:31:07.996Z</time></trkpt><trkpt lat="43.5613338" lon="11.3802311"><ele>853.0</ele><time>2026-05-02T11:31:08.996Z</time></trkpt><trkpt lat="43.5612065" lon="11.3803471"><ele>850.6666666666666</ele><time>2026-05-02T11:31:09.996Z</time></trkpt><trkpt lat="43.5610535" lon="11.3804261"><ele>848.3333333333333</ele><time>2026-05-02T11:31:10.996Z</time></trkpt><trkpt lat="43.5609053" lon="11.380493"><ele>846.0</ele><time>2026-05-02T11:31:11.996Z</time></trkpt><trkpt lat="43.5607691" lon="11.3805538"><ele>846.0</ele><time>2026-05-02T11:31:12.996Z</time></trkpt><trkpt lat="43.5606548" lon="11.3806057"><ele>846.0</ele><time>2026-05-02T11:31:13.996Z</time></trkpt><trkpt lat="43.5605479" lon="11.3806406"><ele>846.0</ele><time>2026-05-02T11:31:14.996Z</time></trkpt><trkpt lat="43.5604484" lon="11.3806941"><ele>846.0</ele><time>2026-05-02T11:31:15.997Z</time></trkpt><trkpt lat="43.5603524" lon="11.3807953"><ele>846.3333333333333</ele><time>2026-05-02T11:31:16.996Z</time></trkpt><trkpt lat="43.5602587" lon="11.3809483"><ele>846.6666666666666</ele><time>2026-05-02T11:31:17.996Z</time></trkpt><trkpt lat="43.5601426" lon="11.3811398"><ele>847.0</ele><time>2026-05-02T11:31:18.996Z</time></trkpt><trkpt lat="43.5600296" lon="11.3813487"><ele>844.3333333333333</ele><time>2026-05-02T11:31:19.996Z</time></trkpt><trkpt lat="43.5599015" lon="11.3815721"><ele>841.6666666666667</ele><time>2026-05-02T11:31:20.996Z</time></trkpt><trkpt lat="43.5597657" lon="11.3817935"><ele>839.0</ele><time>2026-05-02T11:31:21.996Z</time></trkpt><trkpt lat="43.5596339" lon="11.3819867"><ele>839.3333333333334</ele><time>2026-05-02T11:31:22.996Z</time></trkpt><trkpt lat="43.5595223" lon="11.3821664"><ele>839.6666666666667</ele><time>2026-05-02T11:31:23.996Z</time></trkpt><trkpt lat="43.5594209" lon="11.3823274"><ele>840.0</ele><time>2026-05-02T11:31:24.996Z</time></trkpt><trkpt lat="43.559327" lon="11.3824508"><ele>840.6666666666666</ele><time>2026-05-02T11:31:25.996Z</time></trkpt><trkpt lat="43.5592599" lon="11.3825399"><ele>841.3333333333333</ele><time>2026-05-02T11:31:26.996Z</time></trkpt><trkpt lat="43.5591855" lon="11.3826487"><ele>842.0</ele><time>2026-05-02T11:31:28.996Z</time></trkpt><trkpt lat="43.5591567" lon="11.3827745"><ele>842.6666666666666</ele><time>2026-05-02T11:31:30.996Z</time></trkpt><trkpt lat="43.5591695" lon="11.3828743"><ele>843.3333333333333</ele><time>2026-05-02T11:31:32.996Z</time></trkpt><trkpt lat="43.559232" lon="11.3829101"><ele>844.0</ele><time>2026-05-02T11:31:36.996Z</time></trkpt><trkpt lat="43.5593" lon="11.3830076"><ele>842.8333333333333</ele><time>2026-05-02T11:31:40.996Z</time></trkpt><trkpt lat="43.5593293" lon="11.3830915"><ele>841.6666666666666</ele><time>2026-05-02T11:31:42.996Z</time></trkpt><trkpt lat="43.5592967" lon="11.3831801"><ele>840.5</ele><time>2026-05-02T11:31:44.996Z</time></trkpt><trkpt lat="43.5592007" lon="11.3832572"><ele>839.3333333333333</ele><time>2026-05-02T11:31:46.996Z</time></trkpt><trkpt lat="43.5591404" lon="11.3833004"><ele>838.1666666666666</ele><time>2026-05-02T11:31:47.996Z</time></trkpt><trkpt lat="43.5590784" lon="11.3833345"><ele>837.0</ele><time>2026-05-02T11:31:48.996Z</time></trkpt><trkpt lat="43.5589829" lon="11.3834355"><ele>837.0</ele><time>2026-05-02T11:31:50.996Z</time></trkpt><trkpt lat="43.5588486" lon="11.3834909"><ele>837.0</ele><time>2026-05-02T11:31:52.996Z</time></trkpt><trkpt lat="43.5587698" lon="11.3835052"><ele>837.0</ele><time>2026-05-02T11:31:53.996Z</time></trkpt><trkpt lat="43.5586925" lon="11.3835427"><ele>837.0</ele><time>2026-05-02T11:31:54.996Z</time></trkpt><trkpt lat="43.558613" lon="11.383604"><ele>837.0</ele><time>2026-05-02T11:31:55.996Z</time></trkpt><trkpt lat="43.5585356" lon="11.3836582"><ele>839.5</ele><time>2026-05-02T11:31:56.997Z</time></trkpt><trkpt lat="43.5584555" lon="11.3837338"><ele>842.0</ele><time>2026-05-02T11:31:57.996Z</time></trkpt><trkpt lat="43.5583805" lon="11.3838058"><ele>844.5</ele><time>2026-05-02T11:31:58.996Z</time></trkpt><trkpt lat="43.558313" lon="11.3839033"><ele>847.0</ele><time>2026-05-02T11:31:59.996Z</time></trkpt><trkpt lat="43.5582619" lon="11.3839976"><ele>849.5</ele><time>2026-05-02T11:32:00.996Z</time></trkpt><trkpt lat="43.5582173" lon="11.3840799"><ele>852.0</ele><time>2026-05-02T11:32:01.997Z</time></trkpt><trkpt lat="43.5581125" lon="11.3841659"><ele>852.0</ele><time>2026-05-02T11:32:03.996Z</time></trkpt><trkpt lat="43.5580457" lon="11.3842332"><ele>852.0</ele><time>2026-05-02T11:32:04.996Z</time></trkpt><trkpt lat="43.5579643" lon="11.384317"><ele>852.0</ele><time>2026-05-02T11:32:05.996Z</time></trkpt><trkpt lat="43.5578807" lon="11.3844107"><ele>852.0</ele><time>2026-05-02T11:32:06.996Z</time></trkpt><trkpt lat="43.5578034" lon="11.3845314"><ele>852.0</ele><time>2026-05-02T11:32:07.996Z</time></trkpt><trkpt lat="43.5577199" lon="11.3846619"><ele>856.5</ele><time>2026-05-02T11:32:08.996Z</time></trkpt><trkpt lat="43.5576402" lon="11.384787"><ele>861.0</ele><time>2026-05-02T11:32:09.996Z</time></trkpt><trkpt lat="43.5575585" lon="11.3849014"><ele>865.5</ele><time>2026-05-02T11:32:10.996Z</time></trkpt><trkpt lat="43.5574679" lon="11.3850063"><ele>870.0</ele><time>2026-05-02T11:32:11.996Z</time></trkpt><trkpt lat="43.5573782" lon="11.3851034"><ele>870.0</ele><time>2026-05-02T11:32:12.996Z</time></trkpt><trkpt lat="43.5572876" lon="11.3852217"><ele>870.0</ele><time>2026-05-02T11:32:13.996Z</time></trkpt><trkpt lat="43.5572183" lon="11.3853572"><ele>870.0</ele><time>2026-05-02T11:32:14.997Z</time></trkpt><trkpt lat="43.5571506" lon="11.3854987"><ele>870.0</ele><time>2026-05-02T11:32:15.996Z</time></trkpt><trkpt lat="43.5570954" lon="11.3856441"><ele>872.5</ele><time>2026-05-02T11:32:16.996Z</time></trkpt><trkpt lat="43.5570358" lon="11.3857809"><ele>875.0</ele><time>2026-05-02T11:32:17.996Z</time></trkpt><trkpt lat="43.5569792" lon="11.3859078"><ele>877.5</ele><time>2026-05-02T11:32:18.997Z</time></trkpt><trkpt lat="43.5569064" lon="11.3860359"><ele>880.0</ele><time>2026-05-02T11:32:19.996Z</time></trkpt><trkpt lat="43.5568306" lon="11.3861509"><ele>879.9999999999999</ele><time>2026-05-02T11:32:20.996Z</time></trkpt><trkpt lat="43.5567636" lon="11.386245"><ele>880.0</ele><time>2026-05-02T11:32:21.996Z</time></trkpt><trkpt lat="43.5567107" lon="11.3863521"><ele>880.0</ele><time>2026-05-02T11:32:22.996Z</time></trkpt><trkpt lat="43.556676" lon="11.3864722"><ele>880.0</ele><time>2026-05-02T11:32:23.996Z</time></trkpt><trkpt lat="43.5566404" lon="11.3865803"><ele>879.9999999999999</ele><time>2026-05-02T11:32:24.996Z</time></trkpt><trkpt lat="43.5566013" lon="11.3866653"><ele>880.0</ele><time>2026-05-02T11:32:25.996Z</time></trkpt><trkpt lat="43.5565248" lon="11.3867888"><ele>879.4</ele><time>2026-05-02T11:32:27.996Z</time></trkpt><trkpt lat="43.5564659" lon="11.3868253"><ele>878.8</ele><time>2026-05-02T11:32:28.996Z</time></trkpt><trkpt lat="43.5563912" lon="11.3868509"><ele>878.2</ele><time>2026-05-02T11:32:29.997Z</time></trkpt><trkpt lat="43.5563003" lon="11.3868782"><ele>877.6</ele><time>2026-05-02T11:32:30.997Z</time></trkpt><trkpt lat="43.5562134" lon="11.3869146"><ele>877.0</ele><time>2026-05-02T11:32:31.996Z</time></trkpt><trkpt lat="43.556063" lon="11.386946"><ele>877.0</ele><time>2026-05-02T11:32:32.996Z</time></trkpt><trkpt lat="43.5558845" lon="11.3869564"><ele>877.0</ele><time>2026-05-02T11:32:33.996Z</time></trkpt><trkpt lat="43.5557037" lon="11.3869678"><ele>877.0</ele><time>2026-05-02T11:32:34.996Z</time></trkpt><trkpt lat="43.5555212" lon="11.3869732"><ele>880.0</ele><time>2026-05-02T11:32:35.996Z</time></trkpt><trkpt lat="43.5553425" lon="11.3869666"><ele>883.0</ele><time>2026-05-02T11:32:36.996Z</time></trkpt><trkpt lat="43.5551813" lon="11.3869635"><ele>886.0</ele><time>2026-05-02T11:32:37.996Z</time></trkpt><trkpt lat="43.55502" lon="11.3869671"><ele>886.0</ele><time>2026-05-02T11:32:38.996Z</time></trkpt><trkpt lat="43.5548909" lon="11.3869533"><ele>886.0</ele><time>2026-05-02T11:32:39.996Z</time></trkpt><trkpt lat="43.554768" lon="11.3869468"><ele>886.0</ele><time>2026-05-02T11:32:40.996Z</time></trkpt><trkpt lat="43.5546676" lon="11.3869781"><ele>886.0</ele><time>2026-05-02T11:32:41.996Z</time></trkpt><trkpt lat="43.5545566" lon="11.387005"><ele>884.75</ele><time>2026-05-02T11:32:42.996Z</time></trkpt><trkpt lat="43.554431" lon="11.387018"><ele>883.5</ele><time>2026-05-02T11:32:43.996Z</time></trkpt><trkpt lat="43.5542981" lon="11.3870455"><ele>882.25</ele><time>2026-05-02T11:32:44.996Z</time></trkpt><trkpt lat="43.5541674" lon="11.3870723"><ele>881.0</ele><time>2026-05-02T11:32:45.996Z</time></trkpt><trkpt lat="43.5540497" lon="11.3870955"><ele>881.0</ele><time>2026-05-02T11:32:46.996Z</time></trkpt><trkpt lat="43.5539713" lon="11.3871258"><ele>881.0</ele><time>2026-05-02T11:32:47.996Z</time></trkpt><trkpt lat="43.5539099" lon="11.3871786"><ele>881.0</ele><time>2026-05-02T11:32:48.996Z</time></trkpt><trkpt lat="43.5538661" lon="11.3872465"><ele>881.0</ele><time>2026-05-02T11:32:49.996Z</time></trkpt><trkpt lat="43.5538558" lon="11.3873336"><ele>881.0</ele><time>2026-05-02T11:32:50.996Z</time></trkpt><trkpt lat="43.5538397" lon="11.3874345"><ele>881.0</ele><time>2026-05-02T11:32:51.996Z</time></trkpt><trkpt lat="43.5538239" lon="11.3875301"><ele>881.0</ele><time>2026-05-02T11:32:52.996Z</time></trkpt><trkpt lat="43.5537769" lon="11.387616"><ele>882.8333333333334</ele><time>2026-05-02T11:32:53.996Z</time></trkpt><trkpt lat="43.5537026" lon="11.3876847"><ele>884.6666666666667</ele><time>2026-05-02T11:32:54.996Z</time></trkpt><trkpt lat="43.5536145" lon="11.3877321"><ele>886.5</ele><time>2026-05-02T11:32:55.996Z</time></trkpt><trkpt lat="43.5535233" lon="11.3877755"><ele>888.3333333333333</ele><time>2026-05-02T11:32:56.996Z</time></trkpt><trkpt lat="43.5534496" lon="11.3878176"><ele>890.1666666666666</ele><time>2026-05-02T11:32:57.996Z</time></trkpt><trkpt lat="43.5533866" lon="11.3878961"><ele>892.0</ele><time>2026-05-02T11:32:58.997Z</time></trkpt><trkpt lat="43.553338" lon="11.3879654"><ele>891.6</ele><time>2026-05-02T11:32:59.996Z</time></trkpt><trkpt lat="43.5532624" lon="11.3880151"><ele>891.2</ele><time>2026-05-02T11:33:00.996Z</time></trkpt><trkpt lat="43.5531802" lon="11.3880778"><ele>890.8</ele><time>2026-05-02T11:33:01.996Z</time></trkpt><trkpt lat="43.553087" lon="11.3881445"><ele>890.4</ele><time>2026-05-02T11:33:02.996Z</time></trkpt><trkpt lat="43.5529952" lon="11.3882184"><ele>890.0</ele><time>2026-05-02T11:33:03.996Z</time></trkpt><trkpt lat="43.5529098" lon="11.3882906"><ele>893.25</ele><time>2026-05-02T11:33:04.996Z</time></trkpt><trkpt lat="43.5528097" lon="11.3883806"><ele>896.5</ele><time>2026-05-02T11:33:05.996Z</time></trkpt><trkpt lat="43.5527033" lon="11.3884961"><ele>899.75</ele><time>2026-05-02T11:33:06.996Z</time></trkpt><trkpt lat="43.5525897" lon="11.3886061"><ele>903.0</ele><time>2026-05-02T11:33:07.996Z</time></trkpt><trkpt lat="43.5524905" lon="11.3887002"><ele>903.0</ele><time>2026-05-02T11:33:08.996Z</time></trkpt><trkpt lat="43.5523982" lon="11.3887912"><ele>903.0</ele><time>2026-05-02T11:33:09.996Z</time></trkpt><trkpt lat="43.5523127" lon="11.3888675"><ele>903.0</ele><time>2026-05-02T11:33:10.996Z</time></trkpt><trkpt lat="43.5522437" lon="11.3889313"><ele>903.0</ele><time>2026-05-02T11:33:11.996Z</time></trkpt><trkpt lat="43.5521814" lon="11.3889835"><ele>903.0</ele><time>2026-05-02T11:33:12.996Z</time></trkpt><trkpt lat="43.5521211" lon="11.3890164"><ele>903.0</ele><time>2026-05-02T11:33:13.996Z</time></trkpt><trkpt lat="43.5520362" lon="11.389009"><ele>902.8333333333334</ele><time>2026-05-02T11:33:15.996Z</time></trkpt><trkpt lat="43.5519579" lon="11.3889472"><ele>902.6666666666667</ele><time>2026-05-02T11:33:19.996Z</time></trkpt><trkpt lat="43.551936" lon="11.3888209"><ele>902.5</ele><time>2026-05-02T11:33:21.996Z</time></trkpt><trkpt lat="43.5519092" lon="11.3887273"><ele>902.3333333333334</ele><time>2026-05-02T11:33:24.996Z</time></trkpt><trkpt lat="43.5518134" lon="11.3887155"><ele>902.1666666666667</ele><time>2026-05-02T11:33:26.996Z</time></trkpt><trkpt lat="43.5517474" lon="11.3886988"><ele>902.0</ele><time>2026-05-02T11:33:27.996Z</time></trkpt><trkpt lat="43.5516767" lon="11.388684"><ele>902.0</ele><time>2026-05-02T11:33:29.996Z</time></trkpt><trkpt lat="43.5516053" lon="11.3886637"><ele>902.0</ele><time>2026-05-02T11:33:34.996Z</time></trkpt><trkpt lat="43.5514938" lon="11.3886405"><ele>902.0</ele><time>2026-05-02T11:33:36.997Z</time></trkpt><trkpt lat="43.5514125" lon="11.3885651"><ele>902.0</ele><time>2026-05-02T11:33:37.996Z</time></trkpt><trkpt lat="43.5513439" lon="11.3885278"><ele>902.0</ele><time>2026-05-02T11:33:38.996Z</time></trkpt><trkpt lat="43.5512224" lon="11.3884813"><ele>901.25</ele><time>2026-05-02T11:33:39.996Z</time></trkpt><trkpt lat="43.5511041" lon="11.3884356"><ele>900.5</ele><time>2026-05-02T11:33:40.996Z</time></trkpt><trkpt lat="43.5509998" lon="11.3883763"><ele>899.75</ele><time>2026-05-02T11:33:41.996Z</time></trkpt><trkpt lat="43.5508763" lon="11.3883238"><ele>899.0</ele><time>2026-05-02T11:33:42.996Z</time></trkpt><trkpt lat="43.5507594" lon="11.3882633"><ele>899.0</ele><time>2026-05-02T11:33:43.996Z</time></trkpt><trkpt lat="43.5506456" lon="11.3882213"><ele>899.0</ele><time>2026-05-02T11:33:44.996Z</time></trkpt><trkpt lat="43.5505247" lon="11.3881445"><ele>899.0</ele><time>2026-05-02T11:33:45.996Z</time></trkpt><trkpt lat="43.5503911" lon="11.3880836"><ele>899.0</ele><time>2026-05-02T11:33:46.996Z</time></trkpt><trkpt lat="43.5502919" lon="11.3879986"><ele>896.4000000000001</ele><time>2026-05-02T11:33:47.996Z</time></trkpt><trkpt lat="43.5502103" lon="11.387906"><ele>893.8000000000001</ele><time>2026-05-02T11:33:48.996Z</time></trkpt><trkpt lat="43.5501471" lon="11.3878085"><ele>891.1999999999999</ele><time>2026-05-02T11:33:49.996Z</time></trkpt><trkpt lat="43.5500835" lon="11.3877299"><ele>888.5999999999999</ele><time>2026-05-02T11:33:50.996Z</time></trkpt><trkpt lat="43.5500761" lon="11.3875569"><ele>886.0</ele><time>2026-05-02T11:33:52.996Z</time></trkpt><trkpt lat="43.5501027" lon="11.3874329"><ele>886.0</ele><time>2026-05-02T11:33:54.996Z</time></trkpt><trkpt lat="43.550152" lon="11.3872869"><ele>885.9999999999999</ele><time>2026-05-02T11:33:56.996Z</time></trkpt><trkpt lat="43.5501618" lon="11.3871586"><ele>885.9999999999999</ele><time>2026-05-02T11:33:58.996Z</time></trkpt><trkpt lat="43.550175" lon="11.3870116"><ele>886.0</ele><time>2026-05-02T11:34:00.996Z</time></trkpt><trkpt lat="43.5501956" lon="11.38686"><ele>886.0</ele><time>2026-05-02T11:34:02.996Z</time></trkpt><trkpt lat="43.5502245" lon="11.38671"><ele>883.8333333333333</ele><time>2026-05-02T11:34:04.996Z</time></trkpt><trkpt lat="43.5502255" lon="11.386584"><ele>881.6666666666666</ele><time>2026-05-02T11:34:06.996Z</time></trkpt><trkpt lat="43.5502197" lon="11.3864438"><ele>879.5</ele><time>2026-05-02T11:34:08.997Z</time></trkpt><trkpt lat="43.5502036" lon="11.3863554"><ele>877.3333333333333</ele><time>2026-05-02T11:34:10.996Z</time></trkpt><trkpt lat="43.5501902" lon="11.3862495"><ele>875.1666666666666</ele><time>2026-05-02T11:34:13.996Z</time></trkpt><trkpt lat="43.5501864" lon="11.3861098"><ele>873.0</ele><time>2026-05-02T11:34:15.996Z</time></trkpt><trkpt lat="43.5501766" lon="11.3859743"><ele>870.8</ele><time>2026-05-02T11:34:17.996Z</time></trkpt><trkpt lat="43.5501221" lon="11.3858317"><ele>868.5999999999999</ele><time>2026-05-02T11:34:19.996Z</time></trkpt><trkpt lat="43.5500661" lon="11.3857486"><ele>866.4000000000001</ele><time>2026-05-02T11:34:20.996Z</time></trkpt><trkpt lat="43.5500002" lon="11.3856599"><ele>864.2</ele><time>2026-05-02T11:34:21.996Z</time></trkpt><trkpt lat="43.5499309" lon="11.3855851"><ele>862.0</ele><time>2026-05-02T11:34:22.996Z</time></trkpt><trkpt lat="43.549863" lon="11.385536"><ele>860.2</ele><time>2026-05-02T11:34:23.997Z</time></trkpt><trkpt lat="43.5497948" lon="11.3855079"><ele>858.4000000000001</ele><time>2026-05-02T11:34:24.996Z</time></trkpt><trkpt lat="43.5497225" lon="11.385509"><ele>856.5999999999999</ele><time>2026-05-02T11:34:25.996Z</time></trkpt><trkpt lat="43.5496109" lon="11.3854878"><ele>854.8</ele><time>2026-05-02T11:34:27.996Z</time></trkpt><trkpt lat="43.5495269" lon="11.3853927"><ele>853.0</ele><time>2026-05-02T11:34:29.996Z</time></trkpt><trkpt lat="43.5494497" lon="11.3852526"><ele>850.8</ele><time>2026-05-02T11:34:31.996Z</time></trkpt><trkpt lat="43.5493962" lon="11.3851645"><ele>848.5999999999999</ele><time>2026-05-02T11:34:32.996Z</time></trkpt><trkpt lat="43.5493396" lon="11.3850708"><ele>846.4000000000001</ele><time>2026-05-02T11:34:33.996Z</time></trkpt><trkpt lat="43.5492779" lon="11.3849553"><ele>844.2</ele><time>2026-05-02T11:34:34.996Z</time></trkpt><trkpt lat="43.5492119" lon="11.3848395"><ele>842.0</ele><time>2026-05-02T11:34:35.996Z</time></trkpt><trkpt lat="43.5491509" lon="11.3847306"><ele>841.8</ele><time>2026-05-02T11:34:36.997Z</time></trkpt><trkpt lat="43.5490834" lon="11.384625"><ele>841.6</ele><time>2026-05-02T11:34:37.996Z</time></trkpt><trkpt lat="43.5490312" lon="11.3845352"><ele>841.4</ele><time>2026-05-02T11:34:38.997Z</time></trkpt><trkpt lat="43.5489519" lon="11.3844251"><ele>841.1999999999999</ele><time>2026-05-02T11:34:40.996Z</time></trkpt><trkpt lat="43.5488991" lon="11.3843441"><ele>841.0</ele><time>2026-05-02T11:34:42.996Z</time></trkpt><trkpt lat="43.5488395" lon="11.3842327"><ele>840.9999999999999</ele><time>2026-05-02T11:36:03.996Z</time></trkpt><trkpt lat="43.5487941" lon="11.3841623"><ele>841.0</ele><time>2026-05-02T11:36:04.996Z</time></trkpt><trkpt lat="43.5487578" lon="11.3840851"><ele>841.0</ele><time>2026-05-02T11:36:05.996Z</time></trkpt><trkpt lat="43.5487209" lon="11.3840129"><ele>841.0</ele><time>2026-05-02T11:36:06.996Z</time></trkpt><trkpt lat="43.5486264" lon="11.3838916"><ele>840.9999999999999</ele><time>2026-05-02T11:36:08.996Z</time></trkpt><trkpt lat="43.5485349" lon="11.383782"><ele>841.0</ele><time>2026-05-02T11:36:10.996Z</time></trkpt><trkpt lat="43.548455" lon="11.3836879"><ele>843.1999999999999</ele><time>2026-05-02T11:36:12.996Z</time></trkpt><trkpt lat="43.5483853" lon="11.3835913"><ele>845.4</ele><time>2026-05-02T11:36:14.996Z</time></trkpt><trkpt lat="43.5483046" lon="11.3834733"><ele>847.6</ele><time>2026-05-02T11:36:16.996Z</time></trkpt><trkpt lat="43.5482699" lon="11.383363"><ele>849.8</ele><time>2026-05-02T11:36:17.996Z</time></trkpt><trkpt lat="43.5482424" lon="11.3832542"><ele>852.0</ele><time>2026-05-02T11:36:18.996Z</time></trkpt><trkpt lat="43.5482149" lon="11.3831406"><ele>852.0</ele><time>2026-05-02T11:36:19.996Z</time></trkpt><trkpt lat="43.5481936" lon="11.3830178"><ele>852.0</ele><time>2026-05-02T11:36:20.996Z</time></trkpt><trkpt lat="43.5481782" lon="11.3829216"><ele>852.0</ele><time>2026-05-02T11:36:21.996Z</time></trkpt><trkpt lat="43.5481678" lon="11.3828252"><ele>852.0</ele><time>2026-05-02T11:36:22.996Z</time></trkpt><trkpt lat="43.5481724" lon="11.3827314"><ele>852.0</ele><time>2026-05-02T11:36:23.996Z</time></trkpt><trkpt lat="43.5481471" lon="11.3825708"><ele>852.0</ele><time>2026-05-02T11:36:25.996Z</time></trkpt><trkpt lat="43.5481033" lon="11.3824888"><ele>852.3333333333334</ele><time>2026-05-02T11:36:26.996Z</time></trkpt><trkpt lat="43.5480499" lon="11.3823989"><ele>852.6666666666667</ele><time>2026-05-02T11:36:27.996Z</time></trkpt><trkpt lat="43.5480156" lon="11.3823195"><ele>853.0</ele><time>2026-05-02T11:36:28.996Z</time></trkpt><trkpt lat="43.5479666" lon="11.3822319"><ele>853.3333333333334</ele><time>2026-05-02T11:36:29.996Z</time></trkpt><trkpt lat="43.5478998" lon="11.382166"><ele>853.6666666666667</ele><time>2026-05-02T11:36:30.996Z</time></trkpt><trkpt lat="43.5478261" lon="11.3821106"><ele>854.0</ele><time>2026-05-02T11:36:31.996Z</time></trkpt><trkpt lat="43.5477643" lon="11.3820655"><ele>854.0000000000001</ele><time>2026-05-02T11:36:32.996Z</time></trkpt><trkpt lat="43.5477041" lon="11.3820212"><ele>854.0</ele><time>2026-05-02T11:36:33.996Z</time></trkpt><trkpt lat="43.5476134" lon="11.3819889"><ele>854.0</ele><time>2026-05-02T11:36:35.996Z</time></trkpt><trkpt lat="43.5475443" lon="11.3819692"><ele>854.0</ele><time>2026-05-02T11:36:37.996Z</time></trkpt><trkpt lat="43.5474746" lon="11.3818923"><ele>854.0000000000001</ele><time>2026-05-02T11:36:40.996Z</time></trkpt><trkpt lat="43.5474043" lon="11.3818358"><ele>854.0</ele><time>2026-05-02T11:36:42.997Z</time></trkpt><trkpt lat="43.5473055" lon="11.3817584"><ele>854.0</ele><time>2026-05-02T11:36:44.996Z</time></trkpt><trkpt lat="43.547219" lon="11.3815996"><ele>854.0000000000001</ele><time>2026-05-02T11:36:46.996Z</time></trkpt><trkpt lat="43.5471807" lon="11.3814986"><ele>854.0000000000001</ele><time>2026-05-02T11:36:48.996Z</time></trkpt><trkpt lat="43.547127" lon="11.3814152"><ele>854.0</ele><time>2026-05-02T11:36:50.996Z</time></trkpt><trkpt lat="43.5470472" lon="11.3813352"><ele>854.0</ele><time>2026-05-02T11:36:52.997Z</time></trkpt><trkpt lat="43.5469494" lon="11.3812387"><ele>853.4000000000001</ele><time>2026-05-02T11:36:54.996Z</time></trkpt><trkpt lat="43.5468509" lon="11.3812119"><ele>852.8000000000001</ele><time>2026-05-02T11:36:56.996Z</time></trkpt><trkpt lat="43.5467334" lon="11.3811825"><ele>852.2</ele><time>2026-05-02T11:36:58.996Z</time></trkpt><trkpt lat="43.5466107" lon="11.3811279"><ele>851.5999999999999</ele><time>2026-05-02T11:37:00.996Z</time></trkpt><trkpt lat="43.5465448" lon="11.3810958"><ele>851.0</ele><time>2026-05-02T11:37:01.996Z</time></trkpt><trkpt lat="43.5464729" lon="11.381075"><ele>851.0000000000001</ele><time>2026-05-02T11:37:02.996Z</time></trkpt><trkpt lat="43.5463984" lon="11.3810666"><ele>851.0</ele><time>2026-05-02T11:37:03.996Z</time></trkpt><trkpt lat="43.5463244" lon="11.3810414"><ele>851.0</ele><time>2026-05-02T11:37:04.996Z</time></trkpt><trkpt lat="43.5462635" lon="11.3809969"><ele>851.0</ele><time>2026-05-02T11:37:05.996Z</time></trkpt><trkpt lat="43.5461839" lon="11.3809184"><ele>851.0000000000001</ele><time>2026-05-02T11:37:07.996Z</time></trkpt><trkpt lat="43.5461472" lon="11.3808461"><ele>851.0</ele><time>2026-05-02T11:37:16.996Z</time></trkpt><trkpt lat="43.546072" lon="11.3807632"><ele>850.8333333333334</ele><time>2026-05-02T11:37:18.996Z</time></trkpt><trkpt lat="43.5460135" lon="11.3807068"><ele>850.6666666666667</ele><time>2026-05-02T11:37:19.996Z</time></trkpt><trkpt lat="43.545943" lon="11.3806236"><ele>850.5</ele><time>2026-05-02T11:37:20.996Z</time></trkpt><trkpt lat="43.5458765" lon="11.3805393"><ele>850.3333333333333</ele><time>2026-05-02T11:37:21.996Z</time></trkpt><trkpt lat="43.5458154" lon="11.3804447"><ele>850.1666666666666</ele><time>2026-05-02T11:37:22.996Z</time></trkpt><trkpt lat="43.5457662" lon="11.3803607"><ele>850.0</ele><time>2026-05-02T11:37:23.996Z</time></trkpt><trkpt lat="43.54572" lon="11.3802906"><ele>847.6</ele><time>2026-05-02T11:37:24.996Z</time></trkpt><trkpt lat="43.5456455" lon="11.3802059"><ele>845.2</ele><time>2026-05-02T11:37:26.996Z</time></trkpt><trkpt lat="43.5455945" lon="11.3801064"><ele>842.8</ele><time>2026-05-02T11:37:28.997Z</time></trkpt><trkpt lat="43.5454844" lon="11.3800036"><ele>840.4</ele><time>2026-05-02T11:37:30.997Z</time></trkpt><trkpt lat="43.5454253" lon="11.3799721"><ele>838.0</ele><time>2026-05-02T11:37:31.996Z</time></trkpt><trkpt lat="43.5453219" lon="11.3799538"><ele>838.0</ele><time>2026-05-02T11:37:33.996Z</time></trkpt><trkpt lat="43.5452596" lon="11.3799817"><ele>838.0</ele><time>2026-05-02T11:37:41.996Z</time></trkpt><trkpt lat="43.5451871" lon="11.3799391"><ele>838.0</ele><time>2026-05-02T11:37:43.996Z</time></trkpt><trkpt lat="43.5451305" lon="11.3798014"><ele>838.0</ele><time>2026-05-02T11:37:45.996Z</time></trkpt><trkpt lat="43.5450724" lon="11.3796521"><ele>838.0</ele><time>2026-05-02T11:37:47.996Z</time></trkpt><trkpt lat="43.5450315" lon="11.3795642"><ele>837.2</ele><time>2026-05-02T11:37:48.996Z</time></trkpt><trkpt lat="43.5449775" lon="11.3795059"><ele>836.4</ele><time>2026-05-02T11:37:49.996Z</time></trkpt><trkpt lat="43.5448917" lon="11.3793915"><ele>835.6</ele><time>2026-05-02T11:37:51.996Z</time></trkpt><trkpt lat="43.5448327" lon="11.3792469"><ele>834.8000000000001</ele><time>2026-05-02T11:37:53.996Z</time></trkpt><trkpt lat="43.5447918" lon="11.3791214"><ele>834.0</ele><time>2026-05-02T11:37:55.996Z</time></trkpt><trkpt lat="43.5447431" lon="11.3790585"><ele>834.0</ele><time>2026-05-02T11:37:58.996Z</time></trkpt><trkpt lat="43.5446666" lon="11.3789639"><ele>834.0</ele><time>2026-05-02T11:38:08.996Z</time></trkpt><trkpt lat="43.5446074" lon="11.3788946"><ele>834.0</ele><time>2026-05-02T11:38:10.996Z</time></trkpt><trkpt lat="43.5445488" lon="11.378827"><ele>834.0</ele><time>2026-05-02T11:38:13.996Z</time></trkpt><trkpt lat="43.5445407" lon="11.3787182"><ele>834.0</ele><time>2026-05-02T11:39:31.996Z</time></trkpt><trkpt lat="43.5445048" lon="11.3785579"><ele>835.4285714285714</ele><time>2026-05-02T11:39:33.997Z</time></trkpt><trkpt lat="43.54448" lon="11.3784694"><ele>836.8571428571428</ele><time>2026-05-02T11:39:34.996Z</time></trkpt><trkpt lat="43.5444705" lon="11.3783778"><ele>838.2857142857142</ele><time>2026-05-02T11:39:35.996Z</time></trkpt><trkpt lat="43.5444598" lon="11.3782662"><ele>839.7142857142858</ele><time>2026-05-02T11:39:36.996Z</time></trkpt><trkpt lat="43.5444437" lon="11.3781647"><ele>841.1428571428571</ele><time>2026-05-02T11:39:37.996Z</time></trkpt><trkpt lat="43.5444232" lon="11.3780709"><ele>842.5714285714286</ele><time>2026-05-02T11:39:38.996Z</time></trkpt><trkpt lat="43.5444191" lon="11.3779598"><ele>844.0</ele><time>2026-05-02T11:39:40.997Z</time></trkpt><trkpt lat="43.5444611" lon="11.3778207"><ele>844.0</ele><time>2026-05-02T11:39:44.996Z</time></trkpt><trkpt lat="43.544459" lon="11.3776599"><ele>844.0</ele><time>2026-05-02T11:39:46.997Z</time></trkpt><trkpt lat="43.5444964" lon="11.3774961"><ele>844.0</ele><time>2026-05-02T11:39:48.996Z</time></trkpt><trkpt lat="43.544528" lon="11.3773325"><ele>844.0</ele><time>2026-05-02T11:39:50.996Z</time></trkpt><trkpt lat="43.544574" lon="11.377153"><ele>841.8333333333333</ele><time>2026-05-02T11:39:52.996Z</time></trkpt><trkpt lat="43.544591" lon="11.3770431"><ele>839.6666666666666</ele><time>2026-05-02T11:39:53.996Z</time></trkpt><trkpt lat="43.5446108" lon="11.376939"><ele>837.5</ele><time>2026-05-02T11:39:54.996Z</time></trkpt><trkpt lat="43.5446335" lon="11.3767999"><ele>835.3333333333333</ele><time>2026-05-02T11:39:56.996Z</time></trkpt><trkpt lat="43.5446798" lon="11.3766794"><ele>833.1666666666666</ele><time>2026-05-02T11:39:58.996Z</time></trkpt><trkpt lat="43.5447237" lon="11.3766161"><ele>831.0</ele><time>2026-05-02T11:39:59.996Z</time></trkpt><trkpt lat="43.54478" lon="11.3765429"><ele>831.0</ele><time>2026-05-02T11:40:00.996Z</time></trkpt><trkpt lat="43.5448317" lon="11.3764786"><ele>831.0</ele><time>2026-05-02T11:40:01.996Z</time></trkpt><trkpt lat="43.544891" lon="11.3764092"><ele>831.0</ele><time>2026-05-02T11:40:02.996Z</time></trkpt><trkpt lat="43.5449398" lon="11.376346"><ele>831.0</ele><time>2026-05-02T11:40:03.996Z</time></trkpt><trkpt lat="43.5449847" lon="11.3762788"><ele>831.0</ele><time>2026-05-02T11:40:04.996Z</time></trkpt><trkpt lat="43.5450658" lon="11.3761416"><ele>831.0</ele><time>2026-05-02T11:40:06.996Z</time></trkpt><trkpt lat="43.5451052" lon="11.376067"><ele>829.1666666666666</ele><time>2026-05-02T11:40:07.996Z</time></trkpt><trkpt lat="43.5451411" lon="11.3759755"><ele>827.3333333333333</ele><time>2026-05-02T11:40:08.996Z</time></trkpt><trkpt lat="43.5451739" lon="11.3758886"><ele>825.5</ele><time>2026-05-02T11:40:09.996Z</time></trkpt><trkpt lat="43.5452087" lon="11.3757758"><ele>823.6666666666666</ele><time>2026-05-02T11:40:10.996Z</time></trkpt><trkpt lat="43.5452439" lon="11.3756803"><ele>821.8333333333333</ele><time>2026-05-02T11:40:11.996Z</time></trkpt><trkpt lat="43.5453036" lon="11.3755343"><ele>820.0</ele><time>2026-05-02T11:40:13.996Z</time></trkpt><trkpt lat="43.5453701" lon="11.375407"><ele>816.2</ele><time>2026-05-02T11:40:15.997Z</time></trkpt><trkpt lat="43.5454611" lon="11.375295"><ele>812.4</ele><time>2026-05-02T11:40:17.996Z</time></trkpt><trkpt lat="43.5455106" lon="11.3752368"><ele>808.5999999999999</ele><time>2026-05-02T11:40:18.996Z</time></trkpt><trkpt lat="43.5455694" lon="11.375184"><ele>804.8</ele><time>2026-05-02T11:40:19.996Z</time></trkpt><trkpt lat="43.5456683" lon="11.3750969"><ele>801.0</ele><time>2026-05-02T11:40:21.996Z</time></trkpt><trkpt lat="43.5457439" lon="11.3750429"><ele>801.0</ele><time>2026-05-02T11:40:23.996Z</time></trkpt><trkpt lat="43.5458086" lon="11.3749584"><ele>801.0</ele><time>2026-05-02T11:40:25.996Z</time></trkpt><trkpt lat="43.5458629" lon="11.3748414"><ele>801.0</ele><time>2026-05-02T11:40:27.996Z</time></trkpt><trkpt lat="43.5458979" lon="11.3746826"><ele>801.0</ele><time>2026-05-02T11:40:29.996Z</time></trkpt><trkpt lat="43.5459331" lon="11.3745428"><ele>801.0</ele><time>2026-05-02T11:40:31.996Z</time></trkpt><trkpt lat="43.5459649" lon="11.3744181"><ele>799.1666666666666</ele><time>2026-05-02T11:40:33.996Z</time></trkpt><trkpt lat="43.545999" lon="11.3742596"><ele>797.3333333333333</ele><time>2026-05-02T11:40:35.996Z</time></trkpt><trkpt lat="43.5459851" lon="11.3741482"><ele>795.5</ele><time>2026-05-02T11:40:37.996Z</time></trkpt><trkpt lat="43.5459476" lon="11.3740507"><ele>793.6666666666666</ele><time>2026-05-02T11:40:39.996Z</time></trkpt><trkpt lat="43.5458903" lon="11.3739948"><ele>791.8333333333333</ele><time>2026-05-02T11:40:41.996Z</time></trkpt><trkpt lat="43.5458261" lon="11.3739257"><ele>790.0</ele><time>2026-05-02T11:40:43.996Z</time></trkpt><trkpt lat="43.5457731" lon="11.3738306"><ele>786.2</ele><time>2026-05-02T11:40:45.996Z</time></trkpt><trkpt lat="43.5457258" lon="11.3737482"><ele>782.4</ele><time>2026-05-02T11:40:47.996Z</time></trkpt><trkpt lat="43.5456737" lon="11.3736596"><ele>778.5999999999999</ele><time>2026-05-02T11:40:49.996Z</time></trkpt><trkpt lat="43.5456144" lon="11.3735595"><ele>774.8</ele><time>2026-05-02T11:40:51.997Z</time></trkpt><trkpt lat="43.5455427" lon="11.3734627"><ele>771.0</ele><time>2026-05-02T11:40:53.996Z</time></trkpt><trkpt lat="43.5454549" lon="11.3734005"><ele>771.1999999999999</ele><time>2026-05-02T11:40:55.996Z</time></trkpt><trkpt lat="43.5453388" lon="11.3733601"><ele>771.4</ele><time>2026-05-02T11:40:57.996Z</time></trkpt><trkpt lat="43.5452469" lon="11.3733353"><ele>771.6</ele><time>2026-05-02T11:40:59.996Z</time></trkpt><trkpt lat="43.5451816" lon="11.3732567"><ele>771.8</ele><time>2026-05-02T11:41:01.996Z</time></trkpt><trkpt lat="43.5451609" lon="11.3731536"><ele>772.0</ele><time>2026-05-02T11:41:03.996Z</time></trkpt><trkpt lat="43.5451599" lon="11.3730352"><ele>769.6666666666666</ele><time>2026-05-02T11:41:05.996Z</time></trkpt><trkpt lat="43.5451584" lon="11.3729264"><ele>767.3333333333333</ele><time>2026-05-02T11:41:07.996Z</time></trkpt><trkpt lat="43.5451717" lon="11.372817"><ele>765.0</ele><time>2026-05-02T11:41:09.996Z</time></trkpt><trkpt lat="43.5451855" lon="11.3726868"><ele>762.6666666666666</ele><time>2026-05-02T11:41:11.996Z</time></trkpt><trkpt lat="43.5452343" lon="11.3725753"><ele>760.3333333333333</ele><time>2026-05-02T11:41:13.997Z</time></trkpt><trkpt lat="43.5452929" lon="11.3724936"><ele>758.0</ele><time>2026-05-02T11:41:15.996Z</time></trkpt><trkpt lat="43.5453551" lon="11.372447"><ele>758.0000000000001</ele><time>2026-05-02T11:41:17.996Z</time></trkpt><trkpt lat="43.5454128" lon="11.3723969"><ele>758.0</ele><time>2026-05-02T11:41:19.997Z</time></trkpt><trkpt lat="43.5454062" lon="11.372306"><ele>758.0</ele><time>2026-05-02T11:41:22.996Z</time></trkpt><trkpt lat="43.5453613" lon="11.3722397"><ele>758.0</ele><time>2026-05-02T11:41:25.996Z</time></trkpt><trkpt lat="43.5452832" lon="11.3722352"><ele>758.0</ele><time>2026-05-02T11:41:28.996Z</time></trkpt><trkpt lat="43.5452078" lon="11.372238"><ele>758.0000000000001</ele><time>2026-05-02T11:41:30.996Z</time></trkpt><trkpt lat="43.5451247" lon="11.3722584"><ele>758.0</ele><time>2026-05-02T11:41:32.996Z</time></trkpt><trkpt lat="43.5450309" lon="11.3723216"><ele>758.0</ele><time>2026-05-02T11:41:34.996Z</time></trkpt><trkpt lat="43.544954" lon="11.3723634"><ele>758.0</ele><time>2026-05-02T11:41:36.996Z</time></trkpt><trkpt lat="43.5449049" lon="11.3722996"><ele>758.0</ele><time>2026-05-02T11:41:40.996Z</time></trkpt><trkpt lat="43.5449112" lon="11.3722091"><ele>758.0</ele><time>2026-05-02T11:41:46.996Z</time></trkpt><trkpt lat="43.5449389" lon="11.3720537"><ele>758.0</ele><time>2026-05-02T11:41:48.996Z</time></trkpt><trkpt lat="43.5449466" lon="11.3719526"><ele>758.0</ele><time>2026-05-02T11:41:49.996Z</time></trkpt><trkpt lat="43.5449478" lon="11.3718362"><ele>757.5999999999999</ele><time>2026-05-02T11:41:50.996Z</time></trkpt><trkpt lat="43.5449553" lon="11.3717134"><ele>757.1999999999999</ele><time>2026-05-02T11:41:51.997Z</time></trkpt><trkpt lat="43.5449877" lon="11.3716038"><ele>756.8</ele><time>2026-05-02T11:41:52.996Z</time></trkpt><trkpt lat="43.545018" lon="11.3714898"><ele>756.4</ele><time>2026-05-02T11:41:53.996Z</time></trkpt><trkpt lat="43.5450453" lon="11.3713654"><ele>756.0</ele><time>2026-05-02T11:41:54.996Z</time></trkpt><trkpt lat="43.5450737" lon="11.37124"><ele>756.0</ele><time>2026-05-02T11:41:55.996Z</time></trkpt><trkpt lat="43.5450902" lon="11.3711445"><ele>756.0</ele><time>2026-05-02T11:41:56.996Z</time></trkpt><trkpt lat="43.545107" lon="11.3710422"><ele>756.0</ele><time>2026-05-02T11:41:57.996Z</time></trkpt><trkpt lat="43.5451247" lon="11.3709458"><ele>756.0</ele><time>2026-05-02T11:41:58.996Z</time></trkpt><trkpt lat="43.5451432" lon="11.3708544"><ele>756.0</ele><time>2026-05-02T11:41:59.996Z</time></trkpt><trkpt lat="43.5451564" lon="11.3707653"><ele>756.0</ele><time>2026-05-02T11:42:00.996Z</time></trkpt><trkpt lat="43.545146" lon="11.3706571"><ele>756.0</ele><time>2026-05-02T11:42:01.996Z</time></trkpt><trkpt lat="43.5451268" lon="11.3705413"><ele>754.8333333333334</ele><time>2026-05-02T11:42:02.996Z</time></trkpt><trkpt lat="43.545112" lon="11.3704369"><ele>753.6666666666666</ele><time>2026-05-02T11:42:03.996Z</time></trkpt><trkpt lat="43.5451107" lon="11.3703398"><ele>752.5</ele><time>2026-05-02T11:42:04.996Z</time></trkpt><trkpt lat="43.5450993" lon="11.3702361"><ele>751.3333333333333</ele><time>2026-05-02T11:42:05.996Z</time></trkpt><trkpt lat="43.5450856" lon="11.3701149"><ele>750.1666666666666</ele><time>2026-05-02T11:42:06.996Z</time></trkpt><trkpt lat="43.5450658" lon="11.3699926"><ele>749.0</ele><time>2026-05-02T11:42:07.996Z</time></trkpt><trkpt lat="43.5450509" lon="11.3698857"><ele>749.0</ele><time>2026-05-02T11:42:08.996Z</time></trkpt><trkpt lat="43.5450352" lon="11.3697927"><ele>749.0</ele><time>2026-05-02T11:42:09.996Z</time></trkpt><trkpt lat="43.5450077" lon="11.3696221"><ele>749.0</ele><time>2026-05-02T11:42:11.996Z</time></trkpt><trkpt lat="43.5449734" lon="11.3694473"><ele>749.0</ele><time>2026-05-02T11:42:13.996Z</time></trkpt><trkpt lat="43.5449439" lon="11.3693331"><ele>749.0</ele><time>2026-05-02T11:42:14.996Z</time></trkpt><trkpt lat="43.5449309" lon="11.3692226"><ele>747.6</ele><time>2026-05-02T11:42:15.996Z</time></trkpt><trkpt lat="43.5449061" lon="11.3691201"><ele>746.2</ele><time>2026-05-02T11:42:16.996Z</time></trkpt><trkpt lat="43.5448664" lon="11.3689805"><ele>744.8000000000001</ele><time>2026-05-02T11:42:18.996Z</time></trkpt><trkpt lat="43.5449074" lon="11.3688511"><ele>743.4000000000001</ele><time>2026-05-02T11:42:20.996Z</time></trkpt><trkpt lat="43.5450167" lon="11.3687315"><ele>742.0</ele><time>2026-05-02T11:42:22.996Z</time></trkpt><trkpt lat="43.5450806" lon="11.3686617"><ele>742.0</ele><time>2026-05-02T11:42:23.996Z</time></trkpt><trkpt lat="43.5451364" lon="11.3685929"><ele>742.0</ele><time>2026-05-02T11:42:24.996Z</time></trkpt><trkpt lat="43.54519" lon="11.368527"><ele>742.0</ele><time>2026-05-02T11:42:25.996Z</time></trkpt><trkpt lat="43.5452225" lon="11.3684501"><ele>742.0</ele><time>2026-05-02T11:42:26.996Z</time></trkpt><trkpt lat="43.5452363" lon="11.3683515"><ele>742.0</ele><time>2026-05-02T11:42:27.996Z</time></trkpt><trkpt lat="43.5452545" lon="11.3682667"><ele>742.0</ele><time>2026-05-02T11:42:28.996Z</time></trkpt><trkpt lat="43.5453187" lon="11.3681697"><ele>742.0</ele><time>2026-05-02T11:42:30.996Z</time></trkpt><trkpt lat="43.5454099" lon="11.3681344"><ele>737.1666666666667</ele><time>2026-05-02T11:42:32.996Z</time></trkpt><trkpt lat="43.5454943" lon="11.3680933"><ele>732.3333333333334</ele><time>2026-05-02T11:42:34.996Z</time></trkpt><trkpt lat="43.5455391" lon="11.3679988"><ele>727.5</ele><time>2026-05-02T11:42:36.996Z</time></trkpt><trkpt lat="43.545588" lon="11.3678833"><ele>722.6666666666666</ele><time>2026-05-02T11:42:38.996Z</time></trkpt><trkpt lat="43.5456219" lon="11.3677605"><ele>717.8333333333333</ele><time>2026-05-02T11:42:40.996Z</time></trkpt><trkpt lat="43.5456453" lon="11.3676628"><ele>713.0</ele><time>2026-05-02T11:42:42.996Z</time></trkpt><trkpt lat="43.5456789" lon="11.3675815"><ele>713.0</ele><time>2026-05-02T11:42:44.996Z</time></trkpt><trkpt lat="43.5457369" lon="11.367479"><ele>713.0</ele><time>2026-05-02T11:42:46.996Z</time></trkpt><trkpt lat="43.5457828" lon="11.3673564"><ele>713.0</ele><time>2026-05-02T11:42:48.996Z</time></trkpt><trkpt lat="43.5457972" lon="11.3672674"><ele>713.0</ele><time>2026-05-02T11:42:49.996Z</time></trkpt><trkpt lat="43.5458016" lon="11.3671719"><ele>713.0</ele><time>2026-05-02T11:42:50.996Z</time></trkpt><trkpt lat="43.5458001" lon="11.3670691"><ele>713.0</ele><time>2026-05-02T11:42:51.997Z</time></trkpt><trkpt lat="43.5458087" lon="11.3669691"><ele>712.7142857142857</ele><time>2026-05-02T11:42:52.996Z</time></trkpt><trkpt lat="43.545825" lon="11.3668675"><ele>712.4285714285714</ele><time>2026-05-02T11:42:53.996Z</time></trkpt><trkpt lat="43.5458328" lon="11.3667658"><ele>712.1428571428571</ele><time>2026-05-02T11:42:54.997Z</time></trkpt><trkpt lat="43.5458468" lon="11.3666776"><ele>711.8571428571429</ele><time>2026-05-02T11:42:55.996Z</time></trkpt><trkpt lat="43.5458635" lon="11.3665842"><ele>711.5714285714286</ele><time>2026-05-02T11:42:56.996Z</time></trkpt><trkpt lat="43.5458833" lon="11.3664836"><ele>711.2857142857143</ele><time>2026-05-02T11:42:57.997Z</time></trkpt><trkpt lat="43.5459084" lon="11.3663987"><ele>711.0</ele><time>2026-05-02T11:42:58.996Z</time></trkpt><trkpt lat="43.5459462" lon="11.3662475"><ele>709.6666666666666</ele><time>2026-05-02T11:43:00.996Z</time></trkpt><trkpt lat="43.5459741" lon="11.3661423"><ele>708.3333333333334</ele><time>2026-05-02T11:43:02.996Z</time></trkpt><trkpt lat="43.5460076" lon="11.3660405"><ele>707.0</ele><time>2026-05-02T11:43:04.996Z</time></trkpt><trkpt lat="43.5460569" lon="11.3659832"><ele>705.6666666666667</ele><time>2026-05-02T11:43:05.996Z</time></trkpt><trkpt lat="43.5461096" lon="11.3659261"><ele>704.3333333333334</ele><time>2026-05-02T11:43:06.996Z</time></trkpt><trkpt lat="43.5462083" lon="11.3658041"><ele>703.0</ele><time>2026-05-02T11:43:08.997Z</time></trkpt><trkpt lat="43.5462608" lon="11.365747"><ele>700.8333333333334</ele><time>2026-05-02T11:43:09.996Z</time></trkpt><trkpt lat="43.5463214" lon="11.3656918"><ele>698.6666666666667</ele><time>2026-05-02T11:43:10.996Z</time></trkpt><trkpt lat="43.5463764" lon="11.3656361"><ele>696.5</ele><time>2026-05-02T11:43:11.996Z</time></trkpt><trkpt lat="43.5464697" lon="11.3655299"><ele>694.3333333333334</ele><time>2026-05-02T11:43:13.996Z</time></trkpt><trkpt lat="43.5465348" lon="11.3654069"><ele>692.1666666666666</ele><time>2026-05-02T11:43:15.996Z</time></trkpt><trkpt lat="43.5465654" lon="11.3653172"><ele>690.0</ele><time>2026-05-02T11:43:16.996Z</time></trkpt><trkpt lat="43.5465962" lon="11.3652213"><ele>689.8333333333334</ele><time>2026-05-02T11:43:17.996Z</time></trkpt><trkpt lat="43.5466226" lon="11.3651278"><ele>689.6666666666666</ele><time>2026-05-02T11:43:18.996Z</time></trkpt><trkpt lat="43.5466341" lon="11.3650262"><ele>689.5</ele><time>2026-05-02T11:43:19.996Z</time></trkpt><trkpt lat="43.5466646" lon="11.364865"><ele>689.3333333333333</ele><time>2026-05-02T11:43:21.996Z</time></trkpt><trkpt lat="43.5466868" lon="11.3647816"><ele>689.1666666666666</ele><time>2026-05-02T11:43:22.996Z</time></trkpt><trkpt lat="43.5467183" lon="11.3647042"><ele>689.0</ele><time>2026-05-02T11:43:23.996Z</time></trkpt><trkpt lat="43.5467527" lon="11.3646195"><ele>688.3333333333333</ele><time>2026-05-02T11:43:24.996Z</time></trkpt><trkpt lat="43.5467807" lon="11.3645345"><ele>687.6666666666666</ele><time>2026-05-02T11:43:25.996Z</time></trkpt><trkpt lat="43.5467784" lon="11.3643768"><ele>687.0</ele><time>2026-05-02T11:43:27.996Z</time></trkpt><trkpt lat="43.5467502" lon="11.3642113"><ele>686.3333333333334</ele><time>2026-05-02T11:43:29.996Z</time></trkpt><trkpt lat="43.546767" lon="11.3641249"><ele>685.6666666666667</ele><time>2026-05-02T11:43:30.996Z</time></trkpt><trkpt lat="43.5468041" lon="11.3640387"><ele>685.0</ele><time>2026-05-02T11:43:31.996Z</time></trkpt><trkpt lat="43.5468451" lon="11.363939"><ele>684.3333333333334</ele><time>2026-05-02T11:43:32.996Z</time></trkpt><trkpt lat="43.5468922" lon="11.3638332"><ele>683.6666666666667</ele><time>2026-05-02T11:43:33.996Z</time></trkpt><trkpt lat="43.5469365" lon="11.363731"><ele>683.0</ele><time>2026-05-02T11:43:34.996Z</time></trkpt><trkpt lat="43.5469858" lon="11.3636354"><ele>682.3333333333334</ele><time>2026-05-02T11:43:35.996Z</time></trkpt><trkpt lat="43.5470288" lon="11.3635527"><ele>681.6666666666666</ele><time>2026-05-02T11:43:36.996Z</time></trkpt><trkpt lat="43.5470612" lon="11.3634651"><ele>681.0</ele><time>2026-05-02T11:43:37.996Z</time></trkpt><trkpt lat="43.5470921" lon="11.3633869"><ele>679.4</ele><time>2026-05-02T11:43:38.996Z</time></trkpt><trkpt lat="43.5471844" lon="11.3632984"><ele>677.8</ele><time>2026-05-02T11:43:40.996Z</time></trkpt><trkpt lat="43.5473001" lon="11.3632499"><ele>676.1999999999999</ele><time>2026-05-02T11:43:42.996Z</time></trkpt><trkpt lat="43.547353" lon="11.3631838"><ele>674.5999999999999</ele><time>2026-05-02T11:43:43.996Z</time></trkpt><trkpt lat="43.5474394" lon="11.3630679"><ele>673.0</ele><time>2026-05-02T11:43:45.996Z</time></trkpt><trkpt lat="43.547518" lon="11.3629565"><ele>673.0</ele><time>2026-05-02T11:43:47.997Z</time></trkpt><trkpt lat="43.5475742" lon="11.3628337"><ele>673.0</ele><time>2026-05-02T11:43:49.996Z</time></trkpt><trkpt lat="43.5476541" lon="11.3627246"><ele>673.0</ele><time>2026-05-02T11:43:51.996Z</time></trkpt><trkpt lat="43.5477383" lon="11.3626175"><ele>673.0</ele><time>2026-05-02T11:43:53.996Z</time></trkpt><trkpt lat="43.5477678" lon="11.3624929"><ele>673.0</ele><time>2026-05-02T11:43:55.996Z</time></trkpt><trkpt lat="43.5477896" lon="11.3623509"><ele>673.0</ele><time>2026-05-02T11:43:57.996Z</time></trkpt><trkpt lat="43.5478208" lon="11.3622304"><ele>673.0</ele><time>2026-05-02T11:43:59.996Z</time></trkpt><trkpt lat="43.5478596" lon="11.3620764"><ele>673.0</ele><time>2026-05-02T11:44:01.996Z</time></trkpt><trkpt lat="43.5478935" lon="11.3619997"><ele>673.0</ele><time>2026-05-02T11:44:02.996Z</time></trkpt><trkpt lat="43.5479867" lon="11.3618889"><ele>673.0</ele><time>2026-05-02T11:44:04.996Z</time></trkpt><trkpt lat="43.5480574" lon="11.3618563"><ele>669.6666666666667</ele><time>2026-05-02T11:44:05.996Z</time></trkpt><trkpt lat="43.5481301" lon="11.361825"><ele>666.3333333333334</ele><time>2026-05-02T11:44:06.996Z</time></trkpt><trkpt lat="43.5481923" lon="11.3617647"><ele>663.0</ele><time>2026-05-02T11:44:07.996Z</time></trkpt><trkpt lat="43.5482372" lon="11.3617029"><ele>659.6666666666666</ele><time>2026-05-02T11:44:08.996Z</time></trkpt><trkpt lat="43.5482677" lon="11.3615456"><ele>656.3333333333333</ele><time>2026-05-02T11:44:10.996Z</time></trkpt><trkpt lat="43.5482751" lon="11.3614464"><ele>653.0</ele><time>2026-05-02T11:44:11.996Z</time></trkpt><trkpt lat="43.5482923" lon="11.3613383"><ele>652.1666666666666</ele><time>2026-05-02T11:44:12.996Z</time></trkpt><trkpt lat="43.5483211" lon="11.3612373"><ele>651.3333333333333</ele><time>2026-05-02T11:44:13.996Z</time></trkpt><trkpt lat="43.5483578" lon="11.3611206"><ele>650.5</ele><time>2026-05-02T11:44:14.996Z</time></trkpt><trkpt lat="43.5483951" lon="11.3610146"><ele>649.6666666666666</ele><time>2026-05-02T11:44:15.996Z</time></trkpt><trkpt lat="43.5484257" lon="11.3609006"><ele>648.8333333333334</ele><time>2026-05-02T11:44:16.996Z</time></trkpt><trkpt lat="43.5484445" lon="11.3607855"><ele>648.0</ele><time>2026-05-02T11:44:17.996Z</time></trkpt><trkpt lat="43.54846" lon="11.3606724"><ele>648.0</ele><time>2026-05-02T11:44:18.996Z</time></trkpt><trkpt lat="43.5484556" lon="11.3605695"><ele>648.0</ele><time>2026-05-02T11:44:19.996Z</time></trkpt><trkpt lat="43.5484448" lon="11.3604739"><ele>648.0</ele><time>2026-05-02T11:44:20.996Z</time></trkpt><trkpt lat="43.5484427" lon="11.3603695"><ele>648.0</ele><time>2026-05-02T11:44:21.996Z</time></trkpt><trkpt lat="43.5484514" lon="11.3602521"><ele>648.0</ele><time>2026-05-02T11:44:22.996Z</time></trkpt><trkpt lat="43.5484714" lon="11.3601311"><ele>648.0</ele><time>2026-05-02T11:44:23.996Z</time></trkpt><trkpt lat="43.5484912" lon="11.3600087"><ele>646.8333333333334</ele><time>2026-05-02T11:44:24.996Z</time></trkpt><trkpt lat="43.5485158" lon="11.359891"><ele>645.6666666666666</ele><time>2026-05-02T11:44:25.996Z</time></trkpt><trkpt lat="43.5485375" lon="11.3597715"><ele>644.5</ele><time>2026-05-02T11:44:26.996Z</time></trkpt><trkpt lat="43.5485438" lon="11.3596447"><ele>643.3333333333333</ele><time>2026-05-02T11:44:27.996Z</time></trkpt><trkpt lat="43.5485395" lon="11.3595112"><ele>642.1666666666666</ele><time>2026-05-02T11:44:28.996Z</time></trkpt><trkpt lat="43.548532" lon="11.3594006"><ele>641.0</ele><time>2026-05-02T11:44:29.996Z</time></trkpt><trkpt lat="43.5485202" lon="11.3593067"><ele>640.0</ele><time>2026-05-02T11:44:30.996Z</time></trkpt><trkpt lat="43.5484972" lon="11.3592092"><ele>639.0</ele><time>2026-05-02T11:44:31.996Z</time></trkpt><trkpt lat="43.5484573" lon="11.3591327"><ele>638.0</ele><time>2026-05-02T11:44:32.996Z</time></trkpt><trkpt lat="43.5483731" lon="11.3590233"><ele>637.0</ele><time>2026-05-02T11:44:34.996Z</time></trkpt><trkpt lat="43.5483423" lon="11.3589071"><ele>636.0</ele><time>2026-05-02T11:44:36.996Z</time></trkpt><trkpt lat="43.5483362" lon="11.3587722"><ele>635.0</ele><time>2026-05-02T11:44:38.996Z</time></trkpt><trkpt lat="43.5483476" lon="11.3586149"><ele>633.4</ele><time>2026-05-02T11:44:40.996Z</time></trkpt><trkpt lat="43.5483861" lon="11.358459"><ele>631.8</ele><time>2026-05-02T11:44:42.996Z</time></trkpt><trkpt lat="43.5484291" lon="11.3583211"><ele>630.2</ele><time>2026-05-02T11:44:44.996Z</time></trkpt><trkpt lat="43.5484472" lon="11.3582329"><ele>628.6</ele><time>2026-05-02T11:44:45.997Z</time></trkpt><trkpt lat="43.5484858" lon="11.358093"><ele>627.0</ele><time>2026-05-02T11:44:47.996Z</time></trkpt><trkpt lat="43.5485096" lon="11.3580116"><ele>624.4</ele><time>2026-05-02T11:44:49.996Z</time></trkpt><trkpt lat="43.5485816" lon="11.357971"><ele>621.8000000000001</ele><time>2026-05-02T11:45:30.996Z</time></trkpt><trkpt lat="43.5486453" lon="11.3579825"><ele>619.2</ele><time>2026-05-02T11:45:31.996Z</time></trkpt><trkpt lat="43.5487554" lon="11.3580715"><ele>616.6</ele><time>2026-05-02T11:45:33.996Z</time></trkpt><trkpt lat="43.5488533" lon="11.3581481"><ele>614.0</ele><time>2026-05-02T11:45:35.996Z</time></trkpt><trkpt lat="43.5489585" lon="11.3581526"><ele>612.3333333333333</ele><time>2026-05-02T11:45:37.996Z</time></trkpt><trkpt lat="43.5490286" lon="11.3580307"><ele>610.6666666666666</ele><time>2026-05-02T11:45:39.996Z</time></trkpt><trkpt lat="43.549033" lon="11.357929"><ele>609.0</ele><time>2026-05-02T11:45:40.996Z</time></trkpt><trkpt lat="43.5490149" lon="11.3578276"><ele>607.3333333333334</ele><time>2026-05-02T11:45:41.996Z</time></trkpt><trkpt lat="43.5489864" lon="11.3577197"><ele>605.6666666666667</ele><time>2026-05-02T11:45:42.996Z</time></trkpt><trkpt lat="43.5489616" lon="11.3576154"><ele>604.0</ele><time>2026-05-02T11:45:43.997Z</time></trkpt><trkpt lat="43.5489336" lon="11.3575073"><ele>604.0</ele><time>2026-05-02T11:45:44.996Z</time></trkpt><trkpt lat="43.5489102" lon="11.357396"><ele>604.0</ele><time>2026-05-02T11:45:45.996Z</time></trkpt><trkpt lat="43.5488857" lon="11.3572859"><ele>604.0</ele><time>2026-05-02T11:45:46.996Z</time></trkpt><trkpt lat="43.548855" lon="11.357176"><ele>604.0</ele><time>2026-05-02T11:45:47.996Z</time></trkpt><trkpt lat="43.5488208" lon="11.3570781"><ele>604.0</ele><time>2026-05-02T11:45:48.996Z</time></trkpt><trkpt lat="43.5487697" lon="11.3569926"><ele>604.0</ele><time>2026-05-02T11:45:49.996Z</time></trkpt><trkpt lat="43.5487043" lon="11.3569375"><ele>603.1666666666667</ele><time>2026-05-02T11:45:50.996Z</time></trkpt><trkpt lat="43.5486283" lon="11.3569051"><ele>602.3333333333334</ele><time>2026-05-02T11:45:51.996Z</time></trkpt><trkpt lat="43.548547" lon="11.3569138"><ele>601.5</ele><time>2026-05-02T11:45:52.996Z</time></trkpt><trkpt lat="43.5484699" lon="11.3569318"><ele>600.6666666666666</ele><time>2026-05-02T11:45:53.996Z</time></trkpt><trkpt lat="43.5483874" lon="11.3569421"><ele>599.8333333333333</ele><time>2026-05-02T11:45:54.996Z</time></trkpt><trkpt lat="43.5483139" lon="11.3569465"><ele>599.0</ele><time>2026-05-02T11:45:55.996Z</time></trkpt><trkpt lat="43.5481962" lon="11.3569445"><ele>599.0</ele><time>2026-05-02T11:45:57.996Z</time></trkpt><trkpt lat="43.5481303" lon="11.3569368"><ele>599.0</ele><time>2026-05-02T11:45:59.996Z</time></trkpt><trkpt lat="43.5480327" lon="11.3569604"><ele>599.0</ele><time>2026-05-02T11:46:02.996Z</time></trkpt><trkpt lat="43.5479823" lon="11.3570192"><ele>599.0</ele><time>2026-05-02T11:46:03.996Z</time></trkpt><trkpt lat="43.5479261" lon="11.3570756"><ele>599.0</ele><time>2026-05-02T11:46:04.996Z</time></trkpt><trkpt lat="43.547859" lon="11.3571568"><ele>599.0</ele><time>2026-05-02T11:46:05.996Z</time></trkpt><trkpt lat="43.5477898" lon="11.3572421"><ele>599.6</ele><time>2026-05-02T11:46:06.996Z</time></trkpt><trkpt lat="43.5477147" lon="11.357327"><ele>600.2</ele><time>2026-05-02T11:46:07.996Z</time></trkpt><trkpt lat="43.5476285" lon="11.3573979"><ele>600.8000000000001</ele><time>2026-05-02T11:46:08.996Z</time></trkpt><trkpt lat="43.5475365" lon="11.357452"><ele>601.4</ele><time>2026-05-02T11:46:09.996Z</time></trkpt><trkpt lat="43.5474596" lon="11.3574961"><ele>602.0</ele><time>2026-05-02T11:46:10.997Z</time></trkpt><trkpt lat="43.5474009" lon="11.3575801"><ele>602.0</ele><time>2026-05-02T11:46:11.996Z</time></trkpt><trkpt lat="43.5473508" lon="11.3576763"><ele>602.0</ele><time>2026-05-02T11:46:12.996Z</time></trkpt><trkpt lat="43.547296" lon="11.3577764"><ele>602.0</ele><time>2026-05-02T11:46:13.996Z</time></trkpt><trkpt lat="43.5472293" lon="11.3578539"><ele>602.0</ele><time>2026-05-02T11:46:14.996Z</time></trkpt><trkpt lat="43.5471579" lon="11.3579313"><ele>602.0</ele><time>2026-05-02T11:46:15.996Z</time></trkpt><trkpt lat="43.5470887" lon="11.3580015"><ele>602.0</ele><time>2026-05-02T11:46:16.996Z</time></trkpt><trkpt lat="43.5470219" lon="11.3580648"><ele>601.8333333333333</ele><time>2026-05-02T11:46:17.996Z</time></trkpt><trkpt lat="43.5469532" lon="11.358128"><ele>601.6666666666666</ele><time>2026-05-02T11:46:18.997Z</time></trkpt><trkpt lat="43.546882" lon="11.3581713"><ele>601.5</ele><time>2026-05-02T11:46:19.996Z</time></trkpt><trkpt lat="43.5468028" lon="11.3582136"><ele>601.3333333333334</ele><time>2026-05-02T11:46:20.996Z</time></trkpt><trkpt lat="43.5467197" lon="11.3582825"><ele>601.1666666666667</ele><time>2026-05-02T11:46:21.996Z</time></trkpt><trkpt lat="43.5466383" lon="11.3583713"><ele>601.0</ele><time>2026-05-02T11:46:22.996Z</time></trkpt><trkpt lat="43.5465497" lon="11.3584716"><ele>601.0</ele><time>2026-05-02T11:46:23.996Z</time></trkpt><trkpt lat="43.5464756" lon="11.3585734"><ele>601.0</ele><time>2026-05-02T11:46:24.996Z</time></trkpt><trkpt lat="43.5463922" lon="11.3586785"><ele>601.0</ele><time>2026-05-02T11:46:25.996Z</time></trkpt><trkpt lat="43.5462959" lon="11.3587698"><ele>601.0</ele><time>2026-05-02T11:46:26.996Z</time></trkpt><trkpt lat="43.5462029" lon="11.3588786"><ele>600.6</ele><time>2026-05-02T11:46:27.996Z</time></trkpt><trkpt lat="43.546115" lon="11.3589862"><ele>600.2</ele><time>2026-05-02T11:46:28.996Z</time></trkpt><trkpt lat="43.5460322" lon="11.3590921"><ele>599.8</ele><time>2026-05-02T11:46:29.996Z</time></trkpt><trkpt lat="43.5459484" lon="11.3591891"><ele>599.4</ele><time>2026-05-02T11:46:30.996Z</time></trkpt><trkpt lat="43.5458664" lon="11.3592768"><ele>599.0</ele><time>2026-05-02T11:46:31.996Z</time></trkpt><trkpt lat="43.5457948" lon="11.3593782"><ele>599.0</ele><time>2026-05-02T11:46:32.996Z</time></trkpt><trkpt lat="43.5457129" lon="11.3594921"><ele>599.0</ele><time>2026-05-02T11:46:33.996Z</time></trkpt><trkpt lat="43.5456424" lon="11.3595942"><ele>599.0</ele><time>2026-05-02T11:46:34.997Z</time></trkpt><trkpt lat="43.5455699" lon="11.3596944"><ele>599.0</ele><time>2026-05-02T11:46:35.996Z</time></trkpt><trkpt lat="43.5454896" lon="11.3597909"><ele>599.0</ele><time>2026-05-02T11:46:36.996Z</time></trkpt><trkpt lat="43.5453965" lon="11.3598598"><ele>599.0</ele><time>2026-05-02T11:46:37.997Z</time></trkpt><trkpt lat="43.5452911" lon="11.3598979"><ele>599.0</ele><time>2026-05-02T11:46:38.997Z</time></trkpt><trkpt lat="43.5451878" lon="11.3599422"><ele>599.0</ele><time>2026-05-02T11:46:39.996Z</time></trkpt><trkpt lat="43.5450901" lon="11.3599757"><ele>599.0</ele><time>2026-05-02T11:46:40.996Z</time></trkpt><trkpt lat="43.5449924" lon="11.3599898"><ele>599.0</ele><time>2026-05-02T11:46:41.996Z</time></trkpt><trkpt lat="43.5448944" lon="11.3599471"><ele>599.0</ele><time>2026-05-02T11:46:42.996Z</time></trkpt><trkpt lat="43.5448132" lon="11.3598666"><ele>599.0</ele><time>2026-05-02T11:46:43.996Z</time></trkpt><trkpt lat="43.5447389" lon="11.3597964"><ele>599.0</ele><time>2026-05-02T11:46:44.996Z</time></trkpt><trkpt lat="43.5446655" lon="11.3597453"><ele>599.0</ele><time>2026-05-02T11:46:45.996Z</time></trkpt><trkpt lat="43.5445866" lon="11.3597334"><ele>599.0</ele><time>2026-05-02T11:46:46.996Z</time></trkpt><trkpt lat="43.544499" lon="11.3597509"><ele>599.0</ele><time>2026-05-02T11:46:47.996Z</time></trkpt><trkpt lat="43.544408" lon="11.3597487"><ele>598.8</ele><time>2026-05-02T11:46:48.996Z</time></trkpt><trkpt lat="43.5443006" lon="11.3597444"><ele>598.5999999999999</ele><time>2026-05-02T11:46:49.996Z</time></trkpt><trkpt lat="43.5441973" lon="11.3597303"><ele>598.4</ele><time>2026-05-02T11:46:50.996Z</time></trkpt><trkpt lat="43.5440918" lon="11.3597319"><ele>598.1999999999999</ele><time>2026-05-02T11:46:51.996Z</time></trkpt><trkpt lat="43.5439962" lon="11.3597378"><ele>598.0</ele><time>2026-05-02T11:46:52.996Z</time></trkpt><trkpt lat="43.5438994" lon="11.3597598"><ele>598.0</ele><time>2026-05-02T11:46:53.996Z</time></trkpt><trkpt lat="43.5438126" lon="11.3597906"><ele>598.0</ele><time>2026-05-02T11:46:54.996Z</time></trkpt><trkpt lat="43.5437333" lon="11.3598234"><ele>598.0</ele><time>2026-05-02T11:46:55.996Z</time></trkpt><trkpt lat="43.5436639" lon="11.3598307"><ele>598.0</ele><time>2026-05-02T11:46:56.996Z</time></trkpt><trkpt lat="43.5435887" lon="11.359786"><ele>598.0</ele><time>2026-05-02T11:46:57.996Z</time></trkpt><trkpt lat="43.5435048" lon="11.3597381"><ele>598.0</ele><time>2026-05-02T11:46:58.996Z</time></trkpt><trkpt lat="43.5434059" lon="11.3596965"><ele>599.0</ele><time>2026-05-02T11:46:59.996Z</time></trkpt><trkpt lat="43.5432825" lon="11.3596894"><ele>600.0</ele><time>2026-05-02T11:47:00.996Z</time></trkpt><trkpt lat="43.5431579" lon="11.3597001"><ele>601.0</ele><time>2026-05-02T11:47:01.996Z</time></trkpt><trkpt lat="43.5430357" lon="11.3597031"><ele>602.0</ele><time>2026-05-02T11:47:02.996Z</time></trkpt><trkpt lat="43.5429105" lon="11.3597117"><ele>602.2</ele><time>2026-05-02T11:47:03.996Z</time></trkpt><trkpt lat="43.5427863" lon="11.359707"><ele>602.4000000000001</ele><time>2026-05-02T11:47:04.996Z</time></trkpt><trkpt lat="43.5426708" lon="11.359696"><ele>602.5999999999999</ele><time>2026-05-02T11:47:05.996Z</time></trkpt><trkpt lat="43.5425718" lon="11.3596877"><ele>602.8</ele><time>2026-05-02T11:47:06.996Z</time></trkpt><trkpt lat="43.54249" lon="11.3596524"><ele>603.0</ele><time>2026-05-02T11:47:07.996Z</time></trkpt><trkpt lat="43.5423962" lon="11.3595905"><ele>600.0</ele><time>2026-05-02T11:47:08.996Z</time></trkpt><trkpt lat="43.542299" lon="11.359515"><ele>597.0</ele><time>2026-05-02T11:47:09.995Z</time></trkpt><trkpt lat="43.542199" lon="11.359448"><ele>594.0</ele><time>2026-05-02T11:47:10.996Z</time></trkpt><trkpt lat="43.5421024" lon="11.3593871"><ele>591.0</ele><time>2026-05-02T11:47:11.996Z</time></trkpt><trkpt lat="43.5420047" lon="11.3593325"><ele>588.0</ele><time>2026-05-02T11:47:12.996Z</time></trkpt><trkpt lat="43.5419096" lon="11.3592657"><ele>588.0</ele><time>2026-05-02T11:47:13.996Z</time></trkpt><trkpt lat="43.5418017" lon="11.359197"><ele>588.0</ele><time>2026-05-02T11:47:14.996Z</time></trkpt><trkpt lat="43.5416915" lon="11.3591381"><ele>588.0</ele><time>2026-05-02T11:47:15.996Z</time></trkpt><trkpt lat="43.5415775" lon="11.359067"><ele>588.0</ele><time>2026-05-02T11:47:16.996Z</time></trkpt><trkpt lat="43.5414608" lon="11.3589744"><ele>588.0</ele><time>2026-05-02T11:47:17.996Z</time></trkpt><trkpt lat="43.5413331" lon="11.3588734"><ele>588.0</ele><time>2026-05-02T11:47:18.996Z</time></trkpt><trkpt lat="43.5411955" lon="11.3587679"><ele>588.0</ele><time>2026-05-02T11:47:19.996Z</time></trkpt><trkpt lat="43.5410706" lon="11.3586627"><ele>585.75</ele><time>2026-05-02T11:47:20.996Z</time></trkpt><trkpt lat="43.5409593" lon="11.358557"><ele>583.5</ele><time>2026-05-02T11:47:21.996Z</time></trkpt><trkpt lat="43.5408498" lon="11.3584519"><ele>581.25</ele><time>2026-05-02T11:47:22.996Z</time></trkpt><trkpt lat="43.5407357" lon="11.3583547"><ele>579.0</ele><time>2026-05-02T11:47:23.996Z</time></trkpt><trkpt lat="43.5406248" lon="11.3582725"><ele>579.0</ele><time>2026-05-02T11:47:24.996Z</time></trkpt><trkpt lat="43.5405197" lon="11.35822"><ele>579.0</ele><time>2026-05-02T11:47:25.996Z</time></trkpt><trkpt lat="43.5404235" lon="11.3581827"><ele>579.0</ele><time>2026-05-02T11:47:26.996Z</time></trkpt><trkpt lat="43.5403245" lon="11.3581827"><ele>579.0</ele><time>2026-05-02T11:47:27.996Z</time></trkpt><trkpt lat="43.5402359" lon="11.3581732"><ele>579.0</ele><time>2026-05-02T11:47:28.996Z</time></trkpt><trkpt lat="43.5401425" lon="11.3581644"><ele>580.0</ele><time>2026-05-02T11:47:29.996Z</time></trkpt><trkpt lat="43.5400482" lon="11.3581484"><ele>581.0</ele><time>2026-05-02T11:47:30.996Z</time></trkpt><trkpt lat="43.5399565" lon="11.3581407"><ele>582.0</ele><time>2026-05-02T11:47:31.996Z</time></trkpt><trkpt lat="43.5398742" lon="11.3581359"><ele>583.0</ele><time>2026-05-02T11:47:32.996Z</time></trkpt><trkpt lat="43.5397978" lon="11.3581254"><ele>584.0</ele><time>2026-05-02T11:47:33.996Z</time></trkpt><trkpt lat="43.5397207" lon="11.3581209"><ele>585.0</ele><time>2026-05-02T11:47:34.996Z</time></trkpt><trkpt lat="43.539642" lon="11.3581376"><ele>585.0</ele><time>2026-05-02T11:47:35.996Z</time></trkpt><trkpt lat="43.5395565" lon="11.3581812"><ele>585.0</ele><time>2026-05-02T11:47:36.996Z</time></trkpt><trkpt lat="43.5394525" lon="11.3582598"><ele>585.0</ele><time>2026-05-02T11:47:37.996Z</time></trkpt><trkpt lat="43.5393353" lon="11.358304"><ele>585.0</ele><time>2026-05-02T11:47:38.996Z</time></trkpt><trkpt lat="43.5392059" lon="11.3583416"><ele>585.0</ele><time>2026-05-02T11:47:39.996Z</time></trkpt><trkpt lat="43.5390801" lon="11.3583457"><ele>585.0</ele><time>2026-05-02T11:47:40.996Z</time></trkpt><trkpt lat="43.5389621" lon="11.3583589"><ele>585.0</ele><time>2026-05-02T11:47:41.996Z</time></trkpt><trkpt lat="43.5388517" lon="11.358405"><ele>585.0</ele><time>2026-05-02T11:47:42.996Z</time></trkpt><trkpt lat="43.5387332" lon="11.3584757"><ele>583.5</ele><time>2026-05-02T11:47:43.996Z</time></trkpt><trkpt lat="43.5386146" lon="11.3585573"><ele>582.0</ele><time>2026-05-02T11:47:44.996Z</time></trkpt><trkpt lat="43.5384961" lon="11.3586484"><ele>580.5</ele><time>2026-05-02T11:47:45.996Z</time></trkpt><trkpt lat="43.5383721" lon="11.3587192"><ele>579.0</ele><time>2026-05-02T11:47:46.996Z</time></trkpt><trkpt lat="43.5382287" lon="11.3587787"><ele>579.0</ele><time>2026-05-02T11:47:47.996Z</time></trkpt><trkpt lat="43.5380717" lon="11.3588378"><ele>579.0</ele><time>2026-05-02T11:47:48.997Z</time></trkpt><trkpt lat="43.5379137" lon="11.3588978"><ele>579.0</ele><time>2026-05-02T11:47:49.997Z</time></trkpt><trkpt lat="43.5377678" lon="11.358951"><ele>582.8</ele><time>2026-05-02T11:47:50.996Z</time></trkpt><trkpt lat="43.5376199" lon="11.3589861"><ele>586.5999999999999</ele><time>2026-05-02T11:47:51.996Z</time></trkpt><trkpt lat="43.5374905" lon="11.358989"><ele>590.4</ele><time>2026-05-02T11:47:52.996Z</time></trkpt><trkpt lat="43.5373942" lon="11.3589753"><ele>594.1999999999999</ele><time>2026-05-02T11:47:53.997Z</time></trkpt><trkpt lat="43.5373262" lon="11.3589599"><ele>598.0</ele><time>2026-05-02T11:47:54.996Z</time></trkpt><trkpt lat="43.5372594" lon="11.3589526"><ele>598.0</ele><time>2026-05-02T11:47:55.996Z</time></trkpt><trkpt lat="43.5371877" lon="11.3589456"><ele>598.0</ele><time>2026-05-02T11:47:56.996Z</time></trkpt><trkpt lat="43.5371103" lon="11.3589378"><ele>598.0</ele><time>2026-05-02T11:47:57.996Z</time></trkpt><trkpt lat="43.5370276" lon="11.3589253"><ele>598.0</ele><time>2026-05-02T11:47:58.996Z</time></trkpt><trkpt lat="43.5369368" lon="11.3589146"><ele>598.0</ele><time>2026-05-02T11:47:59.996Z</time></trkpt><trkpt lat="43.5368274" lon="11.3589129"><ele>598.0</ele><time>2026-05-02T11:48:00.996Z</time></trkpt><trkpt lat="43.5367147" lon="11.3589031"><ele>599.0</ele><time>2026-05-02T11:48:01.996Z</time></trkpt><trkpt lat="43.5366111" lon="11.3588728"><ele>600.0</ele><time>2026-05-02T11:48:02.996Z</time></trkpt><trkpt lat="43.5365066" lon="11.3588295"><ele>601.0</ele><time>2026-05-02T11:48:03.996Z</time></trkpt><trkpt lat="43.5364047" lon="11.3587839"><ele>602.0</ele><time>2026-05-02T11:48:04.996Z</time></trkpt><trkpt lat="43.5363024" lon="11.3587522"><ele>603.0</ele><time>2026-05-02T11:48:05.996Z</time></trkpt><trkpt lat="43.5362043" lon="11.3587197"><ele>600.0</ele><time>2026-05-02T11:48:06.996Z</time></trkpt><trkpt lat="43.5361126" lon="11.3586841"><ele>597.0</ele><time>2026-05-02T11:48:07.996Z</time></trkpt><trkpt lat="43.5360274" lon="11.3586397"><ele>594.0</ele><time>2026-05-02T11:48:08.996Z</time></trkpt><trkpt lat="43.5359416" lon="11.3585998"><ele>591.0</ele><time>2026-05-02T11:48:09.997Z</time></trkpt><trkpt lat="43.5358582" lon="11.3585556"><ele>588.0</ele><time>2026-05-02T11:48:10.996Z</time></trkpt><trkpt lat="43.5357745" lon="11.3585221"><ele>588.0</ele><time>2026-05-02T11:48:11.996Z</time></trkpt><trkpt lat="43.5356796" lon="11.3585021"><ele>588.0</ele><time>2026-05-02T11:48:12.996Z</time></trkpt><trkpt lat="43.5355806" lon="11.3585198"><ele>588.0</ele><time>2026-05-02T11:48:13.996Z</time></trkpt><trkpt lat="43.5354917" lon="11.3585487"><ele>588.0</ele><time>2026-05-02T11:48:14.996Z</time></trkpt><trkpt lat="43.5354042" lon="11.3585739"><ele>588.0</ele><time>2026-05-02T11:48:15.996Z</time></trkpt><trkpt lat="43.5353245" lon="11.3586026"><ele>587.5</ele><time>2026-05-02T11:48:16.996Z</time></trkpt><trkpt lat="43.535248" lon="11.3586584"><ele>587.0</ele><time>2026-05-02T11:48:17.996Z</time></trkpt><trkpt lat="43.5351879" lon="11.3587319"><ele>586.5</ele><time>2026-05-02T11:48:18.996Z</time></trkpt><trkpt lat="43.5351379" lon="11.3588305"><ele>586.0</ele><time>2026-05-02T11:48:19.996Z</time></trkpt><trkpt lat="43.5351019" lon="11.3589492"><ele>585.5</ele><time>2026-05-02T11:48:20.996Z</time></trkpt><trkpt lat="43.535074" lon="11.3590529"><ele>585.0</ele><time>2026-05-02T11:48:21.996Z</time></trkpt><trkpt lat="43.5350664" lon="11.3591633"><ele>586.0</ele><time>2026-05-02T11:48:22.996Z</time></trkpt><trkpt lat="43.5350786" lon="11.3592675"><ele>587.0</ele><time>2026-05-02T11:48:23.996Z</time></trkpt><trkpt lat="43.535094" lon="11.359358"><ele>588.0</ele><time>2026-05-02T11:48:24.996Z</time></trkpt><trkpt lat="43.5350737" lon="11.3594407"><ele>589.0</ele><time>2026-05-02T11:48:25.996Z</time></trkpt><trkpt lat="43.534955" lon="11.3594687"><ele>590.0</ele><time>2026-05-02T11:48:27.996Z</time></trkpt><trkpt lat="43.5348587" lon="11.3594505"><ele>591.0</ele><time>2026-05-02T11:48:28.996Z</time></trkpt><trkpt lat="43.5347428" lon="11.3594107"><ele>591.0</ele><time>2026-05-02T11:48:29.997Z</time></trkpt><trkpt lat="43.5346377" lon="11.3593863"><ele>591.0</ele><time>2026-05-02T11:48:30.996Z</time></trkpt><trkpt lat="43.5345446" lon="11.3593781"><ele>591.0</ele><time>2026-05-02T11:48:31.996Z</time></trkpt><trkpt lat="43.5344638" lon="11.3593838"><ele>591.0</ele><time>2026-05-02T11:48:32.996Z</time></trkpt><trkpt lat="43.5343832" lon="11.3593973"><ele>591.0</ele><time>2026-05-02T11:48:33.996Z</time></trkpt><trkpt lat="43.5343088" lon="11.3594117"><ele>591.0</ele><time>2026-05-02T11:48:34.996Z</time></trkpt><trkpt lat="43.534229" lon="11.3594308"><ele>592.6666666666666</ele><time>2026-05-02T11:48:35.997Z</time></trkpt><trkpt lat="43.5341418" lon="11.3594581"><ele>594.3333333333334</ele><time>2026-05-02T11:48:36.997Z</time></trkpt><trkpt lat="43.5340567" lon="11.3594763"><ele>596.0</ele><time>2026-05-02T11:48:37.996Z</time></trkpt><trkpt lat="43.533969" lon="11.359497"><ele>597.6666666666667</ele><time>2026-05-02T11:48:38.997Z</time></trkpt><trkpt lat="43.5338771" lon="11.3595182"><ele>599.3333333333334</ele><time>2026-05-02T11:48:39.996Z</time></trkpt><trkpt lat="43.5337859" lon="11.3595144"><ele>601.0</ele><time>2026-05-02T11:48:40.996Z</time></trkpt><trkpt lat="43.5336908" lon="11.359486"><ele>602.0</ele><time>2026-05-02T11:48:41.996Z</time></trkpt><trkpt lat="43.5335855" lon="11.3594677"><ele>603.0</ele><time>2026-05-02T11:48:42.996Z</time></trkpt><trkpt lat="43.5334811" lon="11.3594679"><ele>604.0</ele><time>2026-05-02T11:48:43.996Z</time></trkpt><trkpt lat="43.5333573" lon="11.3594767"><ele>605.0</ele><time>2026-05-02T11:48:44.996Z</time></trkpt><trkpt lat="43.5332203" lon="11.3594867"><ele>605.0</ele><time>2026-05-02T11:48:45.996Z</time></trkpt><trkpt lat="43.5330843" lon="11.3594978"><ele>605.0</ele><time>2026-05-02T11:48:46.996Z</time></trkpt><trkpt lat="43.5329584" lon="11.3595043"><ele>605.0</ele><time>2026-05-02T11:48:47.996Z</time></trkpt><trkpt lat="43.5328407" lon="11.3595201"><ele>605.0</ele><time>2026-05-02T11:48:48.996Z</time></trkpt><trkpt lat="43.5327295" lon="11.3595291"><ele>605.5</ele><time>2026-05-02T11:48:49.996Z</time></trkpt><trkpt lat="43.5326417" lon="11.3595171"><ele>606.0</ele><time>2026-05-02T11:48:50.996Z</time></trkpt><trkpt lat="43.5325926" lon="11.3594441"><ele>606.5</ele><time>2026-05-02T11:48:52.996Z</time></trkpt><trkpt lat="43.5326008" lon="11.359303"><ele>607.0</ele><time>2026-05-02T11:48:54.996Z</time></trkpt><trkpt lat="43.5326449" lon="11.3592028"><ele>607.5</ele><time>2026-05-02T11:48:55.996Z</time></trkpt><trkpt lat="43.5327199" lon="11.3591584"><ele>608.0</ele><time>2026-05-02T11:48:56.996Z</time></trkpt><trkpt lat="43.5328325" lon="11.3591102"><ele>607.25</ele><time>2026-05-02T11:48:57.996Z</time></trkpt><trkpt lat="43.5329457" lon="11.3590424"><ele>606.5</ele><time>2026-05-02T11:48:58.996Z</time></trkpt><trkpt lat="43.5330743" lon="11.3589741"><ele>605.75</ele><time>2026-05-02T11:48:59.996Z</time></trkpt><trkpt lat="43.5332149" lon="11.3589072"><ele>605.0</ele><time>2026-05-02T11:49:00.996Z</time></trkpt><trkpt lat="43.5333226" lon="11.3588462"><ele>605.0</ele><time>2026-05-02T11:49:01.996Z</time></trkpt><trkpt lat="43.5334148" lon="11.3588015"><ele>605.0</ele><time>2026-05-02T11:49:02.996Z</time></trkpt><trkpt lat="43.5334934" lon="11.3588191"><ele>605.0</ele><time>2026-05-02T11:49:03.996Z</time></trkpt><trkpt lat="43.5335889" lon="11.3588699"><ele>605.0</ele><time>2026-05-02T11:49:04.996Z</time></trkpt><trkpt lat="43.5336782" lon="11.3588877"><ele>605.0</ele><time>2026-05-02T11:49:05.996Z</time></trkpt><trkpt lat="43.5337662" lon="11.3589005"><ele>604.3333333333333</ele><time>2026-05-02T11:49:06.996Z</time></trkpt><trkpt lat="43.5338462" lon="11.3588862"><ele>603.6666666666666</ele><time>2026-05-02T11:49:07.996Z</time></trkpt><trkpt lat="43.5339292" lon="11.3588279"><ele>603.0</ele><time>2026-05-02T11:49:08.996Z</time></trkpt><trkpt lat="43.5339809" lon="11.3587452"><ele>602.3333333333334</ele><time>2026-05-02T11:49:09.996Z</time></trkpt><trkpt lat="43.5340169" lon="11.3586382"><ele>601.6666666666667</ele><time>2026-05-02T11:49:10.996Z</time></trkpt><trkpt lat="43.5340318" lon="11.3584938"><ele>601.0</ele><time>2026-05-02T11:49:11.996Z</time></trkpt><trkpt lat="43.5340458" lon="11.3583169"><ele>604.0</ele><time>2026-05-02T11:49:12.997Z</time></trkpt><trkpt lat="43.5340465" lon="11.358115"><ele>607.0</ele><time>2026-05-02T11:49:13.996Z</time></trkpt><trkpt lat="43.5340469" lon="11.3579118"><ele>610.0</ele><time>2026-05-02T11:49:14.996Z</time></trkpt><trkpt lat="43.5340425" lon="11.3577252"><ele>613.0</ele><time>2026-05-02T11:49:15.996Z</time></trkpt><trkpt lat="43.53403" lon="11.3575745"><ele>614.5</ele><time>2026-05-02T11:49:16.996Z</time></trkpt><trkpt lat="43.5340139" lon="11.3574567"><ele>616.0</ele><time>2026-05-02T11:49:17.996Z</time></trkpt><trkpt lat="43.533984" lon="11.3573687"><ele>617.5</ele><time>2026-05-02T11:49:18.996Z</time></trkpt><trkpt lat="43.5339272" lon="11.35731"><ele>619.0</ele><time>2026-05-02T11:49:19.996Z</time></trkpt><trkpt lat="43.5338499" lon="11.3573011"><ele>620.5</ele><time>2026-05-02T11:49:20.996Z</time></trkpt><trkpt lat="43.53376" lon="11.3573252"><ele>622.0</ele><time>2026-05-02T11:49:21.997Z</time></trkpt><trkpt lat="43.5336517" lon="11.3573844"><ele>624.25</ele><time>2026-05-02T11:49:22.996Z</time></trkpt><trkpt lat="43.5335335" lon="11.357463"><ele>626.5</ele><time>2026-05-02T11:49:23.996Z</time></trkpt><trkpt lat="43.5334099" lon="11.3575453"><ele>628.75</ele><time>2026-05-02T11:49:24.996Z</time></trkpt><trkpt lat="43.5332821" lon="11.3576089"><ele>631.0</ele><time>2026-05-02T11:49:25.996Z</time></trkpt><trkpt lat="43.5331605" lon="11.3576485"><ele>631.0</ele><time>2026-05-02T11:49:26.996Z</time></trkpt><trkpt lat="43.5330625" lon="11.3576418"><ele>631.0</ele><time>2026-05-02T11:49:27.996Z</time></trkpt><trkpt lat="43.532969" lon="11.3576134"><ele>631.0</ele><time>2026-05-02T11:49:28.996Z</time></trkpt><trkpt lat="43.5328804" lon="11.3575453"><ele>631.0</ele><time>2026-05-02T11:49:29.996Z</time></trkpt><trkpt lat="43.5328197" lon="11.3574282"><ele>631.0</ele><time>2026-05-02T11:49:30.996Z</time></trkpt><trkpt lat="43.5327629" lon="11.3572997"><ele>633.0</ele><time>2026-05-02T11:49:31.996Z</time></trkpt><trkpt lat="43.5326962" lon="11.3571937"><ele>635.0</ele><time>2026-05-02T11:49:32.996Z</time></trkpt><trkpt lat="43.5326127" lon="11.3571284"><ele>637.0</ele><time>2026-05-02T11:49:33.996Z</time></trkpt><trkpt lat="43.5325212" lon="11.3571204"><ele>639.0</ele><time>2026-05-02T11:49:34.996Z</time></trkpt><trkpt lat="43.5324246" lon="11.3571607"><ele>641.0</ele><time>2026-05-02T11:49:35.996Z</time></trkpt><trkpt lat="43.5323293" lon="11.3572369"><ele>641.0</ele><time>2026-05-02T11:49:36.996Z</time></trkpt><trkpt lat="43.5322299" lon="11.3573324"><ele>641.0</ele><time>2026-05-02T11:49:37.996Z</time></trkpt><trkpt lat="43.5321316" lon="11.3574344"><ele>641.0</ele><time>2026-05-02T11:49:38.996Z</time></trkpt><trkpt lat="43.532024" lon="11.3575161"><ele>641.0</ele><time>2026-05-02T11:49:39.996Z</time></trkpt><trkpt lat="43.5319193" lon="11.3575817"><ele>643.1666666666666</ele><time>2026-05-02T11:49:40.996Z</time></trkpt><trkpt lat="43.5318294" lon="11.3576226"><ele>645.3333333333333</ele><time>2026-05-02T11:49:41.996Z</time></trkpt><trkpt lat="43.5317571" lon="11.3576324"><ele>647.5</ele><time>2026-05-02T11:49:42.996Z</time></trkpt><trkpt lat="43.5316832" lon="11.3576093"><ele>649.6666666666666</ele><time>2026-05-02T11:49:43.996Z</time></trkpt><trkpt lat="43.531604" lon="11.3575504"><ele>651.8333333333334</ele><time>2026-05-02T11:49:44.996Z</time></trkpt><trkpt lat="43.5315333" lon="11.357437"><ele>654.0</ele><time>2026-05-02T11:49:45.996Z</time></trkpt><trkpt lat="43.5314587" lon="11.3572953"><ele>655.5</ele><time>2026-05-02T11:49:46.996Z</time></trkpt><trkpt lat="43.5313783" lon="11.3571463"><ele>657.0</ele><time>2026-05-02T11:49:47.996Z</time></trkpt><trkpt lat="43.5313121" lon="11.3570073"><ele>658.5</ele><time>2026-05-02T11:49:48.996Z</time></trkpt><trkpt lat="43.5312349" lon="11.3568873"><ele>660.0</ele><time>2026-05-02T11:49:49.996Z</time></trkpt><trkpt lat="43.5311524" lon="11.3567668"><ele>660.0</ele><time>2026-05-02T11:49:50.996Z</time></trkpt><trkpt lat="43.5310755" lon="11.3566681"><ele>660.0</ele><time>2026-05-02T11:49:51.996Z</time></trkpt><trkpt lat="43.5310093" lon="11.3565825"><ele>660.0</ele><time>2026-05-02T11:49:52.996Z</time></trkpt><trkpt lat="43.5309537" lon="11.356512"><ele>660.0</ele><time>2026-05-02T11:49:53.996Z</time></trkpt><trkpt lat="43.5309049" lon="11.3564444"><ele>660.0</ele><time>2026-05-02T11:49:54.996Z</time></trkpt><trkpt lat="43.5308551" lon="11.3563808"><ele>660.0</ele><time>2026-05-02T11:49:55.996Z</time></trkpt><trkpt lat="43.5308064" lon="11.3563121"><ele>660.6666666666666</ele><time>2026-05-02T11:49:56.996Z</time></trkpt><trkpt lat="43.5307578" lon="11.3562417"><ele>661.3333333333334</ele><time>2026-05-02T11:49:57.996Z</time></trkpt><trkpt lat="43.5307058" lon="11.3561781"><ele>662.0</ele><time>2026-05-02T11:49:58.996Z</time></trkpt><trkpt lat="43.5306571" lon="11.3561169"><ele>662.6666666666667</ele><time>2026-05-02T11:49:59.996Z</time></trkpt><trkpt lat="43.530596" lon="11.355994"><ele>663.3333333333334</ele><time>2026-05-02T11:50:01.996Z</time></trkpt><trkpt lat="43.5305086" lon="11.3558991"><ele>664.0</ele><time>2026-05-02T11:50:03.996Z</time></trkpt><trkpt lat="43.5303871" lon="11.355838"><ele>664.3333333333334</ele><time>2026-05-02T11:50:05.996Z</time></trkpt><trkpt lat="43.5303245" lon="11.3558189"><ele>664.6666666666667</ele><time>2026-05-02T11:50:06.996Z</time></trkpt><trkpt lat="43.5302029" lon="11.3557737"><ele>665.0</ele><time>2026-05-02T11:50:08.996Z</time></trkpt><trkpt lat="43.5301305" lon="11.35572"><ele>665.3333333333334</ele><time>2026-05-02T11:50:09.996Z</time></trkpt><trkpt lat="43.5300537" lon="11.3556686"><ele>665.6666666666666</ele><time>2026-05-02T11:50:10.996Z</time></trkpt><trkpt lat="43.5299706" lon="11.3556194"><ele>666.0</ele><time>2026-05-02T11:50:11.996Z</time></trkpt><trkpt lat="43.5298745" lon="11.3555693"><ele>664.0</ele><time>2026-05-02T11:50:12.996Z</time></trkpt><trkpt lat="43.5297772" lon="11.3555225"><ele>662.0</ele><time>2026-05-02T11:50:13.996Z</time></trkpt><trkpt lat="43.5296775" lon="11.3554871"><ele>660.0</ele><time>2026-05-02T11:50:14.997Z</time></trkpt><trkpt lat="43.5295714" lon="11.3554577"><ele>658.0</ele><time>2026-05-02T11:50:15.996Z</time></trkpt><trkpt lat="43.5294683" lon="11.3554302"><ele>656.0</ele><time>2026-05-02T11:50:16.996Z</time></trkpt><trkpt lat="43.5293738" lon="11.3553968"><ele>656.0</ele><time>2026-05-02T11:50:17.996Z</time></trkpt><trkpt lat="43.5292702" lon="11.3553692"><ele>656.0</ele><time>2026-05-02T11:50:18.996Z</time></trkpt><trkpt lat="43.5291741" lon="11.3553445"><ele>656.0</ele><time>2026-05-02T11:50:19.996Z</time></trkpt><trkpt lat="43.5290784" lon="11.3553363"><ele>656.0</ele><time>2026-05-02T11:50:20.996Z</time></trkpt><trkpt lat="43.5289866" lon="11.3553409"><ele>656.0</ele><time>2026-05-02T11:50:21.996Z</time></trkpt><trkpt lat="43.5288814" lon="11.3553702"><ele>656.0</ele><time>2026-05-02T11:50:22.996Z</time></trkpt><trkpt lat="43.5287843" lon="11.3554229"><ele>656.0</ele><time>2026-05-02T11:50:23.996Z</time></trkpt><trkpt lat="43.5286973" lon="11.3554842"><ele>656.0</ele><time>2026-05-02T11:50:24.996Z</time></trkpt><trkpt lat="43.5286129" lon="11.3555405"><ele>656.0</ele><time>2026-05-02T11:50:25.996Z</time></trkpt><trkpt lat="43.5285428" lon="11.3555783"><ele>656.0</ele><time>2026-05-02T11:50:26.996Z</time></trkpt><trkpt lat="43.5284661" lon="11.3556195"><ele>657.3333333333333</ele><time>2026-05-02T11:50:27.996Z</time></trkpt><trkpt lat="43.5283926" lon="11.3556588"><ele>658.6666666666666</ele><time>2026-05-02T11:50:28.996Z</time></trkpt><trkpt lat="43.5283267" lon="11.3557066"><ele>660.0</ele><time>2026-05-02T11:50:29.996Z</time></trkpt><trkpt lat="43.5282525" lon="11.3557681"><ele>661.3333333333334</ele><time>2026-05-02T11:50:31.996Z</time></trkpt><trkpt lat="43.5281933" lon="11.3558442"><ele>662.6666666666667</ele><time>2026-05-02T11:51:28.996Z</time></trkpt><trkpt lat="43.5281316" lon="11.3559774"><ele>664.0</ele><time>2026-05-02T11:51:30.996Z</time></trkpt><trkpt lat="43.5280833" lon="11.3560529"><ele>664.0</ele><time>2026-05-02T11:51:31.996Z</time></trkpt><trkpt lat="43.528044" lon="11.3561443"><ele>664.0</ele><time>2026-05-02T11:51:32.996Z</time></trkpt><trkpt lat="43.5279985" lon="11.3562545"><ele>664.0</ele><time>2026-05-02T11:51:33.996Z</time></trkpt><trkpt lat="43.5279535" lon="11.3563718"><ele>664.0</ele><time>2026-05-02T11:51:34.996Z</time></trkpt><trkpt lat="43.5279056" lon="11.3565002"><ele>664.0</ele><time>2026-05-02T11:51:35.996Z</time></trkpt><trkpt lat="43.5278557" lon="11.3566327"><ele>666.75</ele><time>2026-05-02T11:51:36.996Z</time></trkpt><trkpt lat="43.5277952" lon="11.3567626"><ele>669.5</ele><time>2026-05-02T11:51:37.997Z</time></trkpt><trkpt lat="43.5277391" lon="11.3569037"><ele>672.25</ele><time>2026-05-02T11:51:38.996Z</time></trkpt><trkpt lat="43.5276796" lon="11.3570349"><ele>675.0</ele><time>2026-05-02T11:51:39.996Z</time></trkpt><trkpt lat="43.5276266" lon="11.3571679"><ele>675.5</ele><time>2026-05-02T11:51:40.996Z</time></trkpt><trkpt lat="43.5275811" lon="11.3573067"><ele>676.0</ele><time>2026-05-02T11:51:41.996Z</time></trkpt><trkpt lat="43.5275455" lon="11.3574635"><ele>676.5</ele><time>2026-05-02T11:51:42.996Z</time></trkpt><trkpt lat="43.5275312" lon="11.3576272"><ele>677.0</ele><time>2026-05-02T11:51:43.996Z</time></trkpt><trkpt lat="43.5275376" lon="11.3577868"><ele>677.0</ele><time>2026-05-02T11:51:44.996Z</time></trkpt><trkpt lat="43.5275475" lon="11.357946"><ele>677.0</ele><time>2026-05-02T11:51:45.996Z</time></trkpt><trkpt lat="43.5275519" lon="11.358097"><ele>677.0</ele><time>2026-05-02T11:51:46.996Z</time></trkpt><trkpt lat="43.52755" lon="11.3582459"><ele>677.0</ele><time>2026-05-02T11:51:47.996Z</time></trkpt><trkpt lat="43.527524" lon="11.3584067"><ele>677.25</ele><time>2026-05-02T11:51:48.996Z</time></trkpt><trkpt lat="43.5274788" lon="11.3585643"><ele>677.5</ele><time>2026-05-02T11:51:49.997Z</time></trkpt><trkpt lat="43.5274219" lon="11.3587079"><ele>677.75</ele><time>2026-05-02T11:51:50.996Z</time></trkpt><trkpt lat="43.5273645" lon="11.358845"><ele>678.0</ele><time>2026-05-02T11:51:51.996Z</time></trkpt><trkpt lat="43.5272969" lon="11.3589659"><ele>676.5</ele><time>2026-05-02T11:51:52.996Z</time></trkpt><trkpt lat="43.5272206" lon="11.3590838"><ele>675.0</ele><time>2026-05-02T11:51:53.996Z</time></trkpt><trkpt lat="43.5271534" lon="11.3592183"><ele>673.5</ele><time>2026-05-02T11:51:54.996Z</time></trkpt><trkpt lat="43.5270459" lon="11.3593252"><ele>672.0</ele><time>2026-05-02T11:51:55.996Z</time></trkpt><trkpt lat="43.5269312" lon="11.3594271"><ele>675.25</ele><time>2026-05-02T11:51:56.996Z</time></trkpt><trkpt lat="43.5267865" lon="11.3595219"><ele>678.5</ele><time>2026-05-02T11:51:57.996Z</time></trkpt><trkpt lat="43.5266731" lon="11.3596386"><ele>681.75</ele><time>2026-05-02T11:51:58.996Z</time></trkpt><trkpt lat="43.526572" lon="11.3597448"><ele>685.0</ele><time>2026-05-02T11:51:59.996Z</time></trkpt><trkpt lat="43.5264861" lon="11.3598622"><ele>685.0</ele><time>2026-05-02T11:52:00.996Z</time></trkpt><trkpt lat="43.5263968" lon="11.3599946"><ele>685.0</ele><time>2026-05-02T11:52:01.997Z</time></trkpt><trkpt lat="43.5263051" lon="11.3601275"><ele>685.0</ele><time>2026-05-02T11:52:02.996Z</time></trkpt><trkpt lat="43.5262251" lon="11.3602398"><ele>685.0</ele><time>2026-05-02T11:52:03.996Z</time></trkpt><trkpt lat="43.5261487" lon="11.3603535"><ele>686.25</ele><time>2026-05-02T11:52:04.996Z</time></trkpt><trkpt lat="43.5260569" lon="11.3604722"><ele>687.5</ele><time>2026-05-02T11:52:05.996Z</time></trkpt><trkpt lat="43.5259664" lon="11.3605932"><ele>688.75</ele><time>2026-05-02T11:52:06.996Z</time></trkpt><trkpt lat="43.525888" lon="11.3607109"><ele>690.0</ele><time>2026-05-02T11:52:07.996Z</time></trkpt><trkpt lat="43.5258314" lon="11.360853"><ele>690.0</ele><time>2026-05-02T11:52:08.996Z</time></trkpt><trkpt lat="43.5258118" lon="11.3610298"><ele>690.0</ele><time>2026-05-02T11:52:09.996Z</time></trkpt><trkpt lat="43.5258048" lon="11.3612531"><ele>690.0</ele><time>2026-05-02T11:52:10.996Z</time></trkpt><trkpt lat="43.5258175" lon="11.3614982"><ele>691.0</ele><time>2026-05-02T11:52:11.996Z</time></trkpt><trkpt lat="43.5258357" lon="11.3617519"><ele>692.0</ele><time>2026-05-02T11:52:12.996Z</time></trkpt><trkpt lat="43.5258601" lon="11.3620213"><ele>693.0</ele><time>2026-05-02T11:52:13.996Z</time></trkpt><trkpt lat="43.5258763" lon="11.3622689"><ele>694.0</ele><time>2026-05-02T11:52:14.996Z</time></trkpt><trkpt lat="43.525887" lon="11.3625068"><ele>695.0</ele><time>2026-05-02T11:52:15.996Z</time></trkpt><trkpt lat="43.5259023" lon="11.3627609"><ele>696.0</ele><time>2026-05-02T11:52:16.996Z</time></trkpt><trkpt lat="43.5259178" lon="11.363009"><ele>695.0</ele><time>2026-05-02T11:52:17.996Z</time></trkpt><trkpt lat="43.525937" lon="11.3632446"><ele>694.0</ele><time>2026-05-02T11:52:18.997Z</time></trkpt><trkpt lat="43.5259588" lon="11.36346"><ele>693.0</ele><time>2026-05-02T11:52:19.996Z</time></trkpt><trkpt lat="43.5260042" lon="11.3636467"><ele>693.0</ele><time>2026-05-02T11:52:20.996Z</time></trkpt><trkpt lat="43.526043" lon="11.3638362"><ele>693.0</ele><time>2026-05-02T11:52:21.996Z</time></trkpt><trkpt lat="43.5260991" lon="11.3640236"><ele>693.0</ele><time>2026-05-02T11:52:22.996Z</time></trkpt><trkpt lat="43.5261844" lon="11.3642159"><ele>693.0</ele><time>2026-05-02T11:52:23.996Z</time></trkpt><trkpt lat="43.5262999" lon="11.3643887"><ele>693.0</ele><time>2026-05-02T11:52:24.996Z</time></trkpt><trkpt lat="43.5263899" lon="11.364543"><ele>693.0</ele><time>2026-05-02T11:52:25.996Z</time></trkpt><trkpt lat="43.5264575" lon="11.3646598"><ele>693.0</ele><time>2026-05-02T11:52:26.996Z</time></trkpt><trkpt lat="43.5265329" lon="11.3647661"><ele>694.5999999999999</ele><time>2026-05-02T11:52:27.996Z</time></trkpt><trkpt lat="43.5266057" lon="11.3648792"><ele>696.1999999999999</ele><time>2026-05-02T11:52:28.996Z</time></trkpt><trkpt lat="43.5266597" lon="11.3650068"><ele>697.8</ele><time>2026-05-02T11:52:29.996Z</time></trkpt><trkpt lat="43.5267091" lon="11.3651296"><ele>699.4</ele><time>2026-05-02T11:52:30.997Z</time></trkpt><trkpt lat="43.526755" lon="11.365247"><ele>701.0</ele><time>2026-05-02T11:52:31.997Z</time></trkpt><trkpt lat="43.5267959" lon="11.3653626"><ele>701.0</ele><time>2026-05-02T11:52:32.996Z</time></trkpt><trkpt lat="43.5268396" lon="11.3654704"><ele>701.0</ele><time>2026-05-02T11:52:33.996Z</time></trkpt><trkpt lat="43.5268955" lon="11.365571"><ele>701.0</ele><time>2026-05-02T11:52:34.996Z</time></trkpt><trkpt lat="43.5269548" lon="11.3656572"><ele>701.0</ele><time>2026-05-02T11:52:35.997Z</time></trkpt><trkpt lat="43.5270051" lon="11.3657476"><ele>701.0</ele><time>2026-05-02T11:52:36.996Z</time></trkpt><trkpt lat="43.5270538" lon="11.3658471"><ele>701.0</ele><time>2026-05-02T11:52:37.996Z</time></trkpt><trkpt lat="43.5270904" lon="11.3659484"><ele>702.1666666666666</ele><time>2026-05-02T11:52:38.996Z</time></trkpt><trkpt lat="43.5271267" lon="11.3660618"><ele>703.3333333333333</ele><time>2026-05-02T11:52:39.997Z</time></trkpt><trkpt lat="43.5271702" lon="11.3661683"><ele>704.5</ele><time>2026-05-02T11:52:40.996Z</time></trkpt><trkpt lat="43.5272034" lon="11.3662616"><ele>705.6666666666666</ele><time>2026-05-02T11:52:41.996Z</time></trkpt><trkpt lat="43.5272321" lon="11.3663536"><ele>706.8333333333334</ele><time>2026-05-02T11:52:42.996Z</time></trkpt><trkpt lat="43.5272683" lon="11.3664498"><ele>708.0</ele><time>2026-05-02T11:52:43.996Z</time></trkpt><trkpt lat="43.5273005" lon="11.366541"><ele>709.1666666666666</ele><time>2026-05-02T11:52:44.996Z</time></trkpt><trkpt lat="43.5273322" lon="11.3666328"><ele>710.3333333333334</ele><time>2026-05-02T11:52:45.996Z</time></trkpt><trkpt lat="43.5273606" lon="11.3667299"><ele>711.5</ele><time>2026-05-02T11:52:46.996Z</time></trkpt><trkpt lat="43.527408" lon="11.3668362"><ele>712.6666666666667</ele><time>2026-05-02T11:52:47.996Z</time></trkpt><trkpt lat="43.5274536" lon="11.3669515"><ele>713.8333333333334</ele><time>2026-05-02T11:52:48.996Z</time></trkpt><trkpt lat="43.5275051" lon="11.3670785"><ele>715.0</ele><time>2026-05-02T11:52:49.996Z</time></trkpt><trkpt lat="43.5275625" lon="11.3672142"><ele>715.6</ele><time>2026-05-02T11:52:50.996Z</time></trkpt><trkpt lat="43.5276295" lon="11.3673473"><ele>716.2</ele><time>2026-05-02T11:52:51.997Z</time></trkpt><trkpt lat="43.5276825" lon="11.3674679"><ele>716.8</ele><time>2026-05-02T11:52:52.996Z</time></trkpt><trkpt lat="43.5277323" lon="11.3675616"><ele>717.4</ele><time>2026-05-02T11:52:53.996Z</time></trkpt><trkpt lat="43.5277787" lon="11.3676567"><ele>718.0</ele><time>2026-05-02T11:52:54.996Z</time></trkpt><trkpt lat="43.5278197" lon="11.3677365"><ele>718.0</ele><time>2026-05-02T11:52:55.996Z</time></trkpt><trkpt lat="43.5278612" lon="11.3678263"><ele>718.0</ele><time>2026-05-02T11:52:56.996Z</time></trkpt><trkpt lat="43.5279065" lon="11.3679328"><ele>718.0</ele><time>2026-05-02T11:52:57.996Z</time></trkpt><trkpt lat="43.5279442" lon="11.3680293"><ele>718.0</ele><time>2026-05-02T11:52:58.996Z</time></trkpt><trkpt lat="43.5279788" lon="11.3681172"><ele>718.0</ele><time>2026-05-02T11:52:59.996Z</time></trkpt><trkpt lat="43.5280175" lon="11.3682042"><ele>718.0</ele><time>2026-05-02T11:53:00.996Z</time></trkpt><trkpt lat="43.5280669" lon="11.3682811"><ele>719.7142857142858</ele><time>2026-05-02T11:53:01.996Z</time></trkpt><trkpt lat="43.5281153" lon="11.3683597"><ele>721.4285714285714</ele><time>2026-05-02T11:53:02.996Z</time></trkpt><trkpt lat="43.528169" lon="11.3684308"><ele>723.1428571428571</ele><time>2026-05-02T11:53:03.997Z</time></trkpt><trkpt lat="43.5282331" lon="11.3684769"><ele>724.8571428571429</ele><time>2026-05-02T11:53:04.996Z</time></trkpt><trkpt lat="43.5283015" lon="11.3685174"><ele>726.5714285714286</ele><time>2026-05-02T11:53:05.995Z</time></trkpt><trkpt lat="43.5283722" lon="11.3685615"><ele>728.2857142857143</ele><time>2026-05-02T11:53:06.995Z</time></trkpt><trkpt lat="43.5284261" lon="11.368631"><ele>730.0</ele><time>2026-05-02T11:53:07.995Z</time></trkpt><trkpt lat="43.5284701" lon="11.3687059"><ele>730.0000000000001</ele><time>2026-05-02T11:53:08.996Z</time></trkpt><trkpt lat="43.5285234" lon="11.3687969"><ele>730.0</ele><time>2026-05-02T11:53:09.995Z</time></trkpt><trkpt lat="43.5285715" lon="11.3688829"><ele>730.0</ele><time>2026-05-02T11:53:10.995Z</time></trkpt><trkpt lat="43.52861" lon="11.3689678"><ele>730.0</ele><time>2026-05-02T11:53:11.995Z</time></trkpt><trkpt lat="43.5286534" lon="11.3690313"><ele>730.0</ele><time>2026-05-02T11:53:12.996Z</time></trkpt><trkpt lat="43.528707" lon="11.3690845"><ele>730.0000000000001</ele><time>2026-05-02T11:53:13.995Z</time></trkpt><trkpt lat="43.5287612" lon="11.3691458"><ele>730.0</ele><time>2026-05-02T11:53:14.995Z</time></trkpt><trkpt lat="43.5288052" lon="11.369216"><ele>732.6</ele><time>2026-05-02T11:53:15.995Z</time></trkpt><trkpt lat="43.5288472" lon="11.3694021"><ele>735.2</ele><time>2026-05-02T11:53:17.995Z</time></trkpt><trkpt lat="43.5288745" lon="11.3695145"><ele>737.8</ele><time>2026-05-02T11:53:18.995Z</time></trkpt><trkpt lat="43.5289173" lon="11.3696276"><ele>740.4</ele><time>2026-05-02T11:53:19.995Z</time></trkpt><trkpt lat="43.5289677" lon="11.3697429"><ele>743.0</ele><time>2026-05-02T11:53:20.996Z</time></trkpt><trkpt lat="43.5290092" lon="11.3698537"><ele>744.5</ele><time>2026-05-02T11:53:21.995Z</time></trkpt><trkpt lat="43.5290414" lon="11.3699551"><ele>746.0</ele><time>2026-05-02T11:53:22.995Z</time></trkpt><trkpt lat="43.5290651" lon="11.3700486"><ele>747.5</ele><time>2026-05-02T11:53:23.995Z</time></trkpt><trkpt lat="43.5291171" lon="11.3701367"><ele>749.0</ele><time>2026-05-02T11:53:24.995Z</time></trkpt><trkpt lat="43.5291681" lon="11.3702081"><ele>750.5</ele><time>2026-05-02T11:53:25.995Z</time></trkpt><trkpt lat="43.5292088" lon="11.3703027"><ele>752.0</ele><time>2026-05-02T11:53:26.995Z</time></trkpt><trkpt lat="43.5292369" lon="11.3704345"><ele>753.0</ele><time>2026-05-02T11:53:27.995Z</time></trkpt><trkpt lat="43.5292593" lon="11.3705561"><ele>754.0</ele><time>2026-05-02T11:53:28.995Z</time></trkpt><trkpt lat="43.5292717" lon="11.370673"><ele>755.0</ele><time>2026-05-02T11:53:29.995Z</time></trkpt><trkpt lat="43.5292775" lon="11.3707853"><ele>756.0</ele><time>2026-05-02T11:53:30.995Z</time></trkpt><trkpt lat="43.5292921" lon="11.370889"><ele>757.0</ele><time>2026-05-02T11:53:31.995Z</time></trkpt><trkpt lat="43.5293036" lon="11.3709846"><ele>758.0</ele><time>2026-05-02T11:53:32.996Z</time></trkpt><trkpt lat="43.5293223" lon="11.3710833"><ele>758.0</ele><time>2026-05-02T11:53:33.995Z</time></trkpt><trkpt lat="43.5293404" lon="11.3711979"><ele>758.0</ele><time>2026-05-02T11:53:34.996Z</time></trkpt><trkpt lat="43.5293736" lon="11.3713113"><ele>758.0</ele><time>2026-05-02T11:53:35.996Z</time></trkpt><trkpt lat="43.5294062" lon="11.3714362"><ele>758.0</ele><time>2026-05-02T11:53:36.996Z</time></trkpt><trkpt lat="43.5294408" lon="11.3715573"><ele>758.0</ele><time>2026-05-02T11:53:37.996Z</time></trkpt><trkpt lat="43.5294656" lon="11.3716911"><ele>759.0</ele><time>2026-05-02T11:53:38.996Z</time></trkpt><trkpt lat="43.5294766" lon="11.3718157"><ele>760.0</ele><time>2026-05-02T11:53:39.996Z</time></trkpt><trkpt lat="43.5294883" lon="11.3719233"><ele>761.0</ele><time>2026-05-02T11:53:40.996Z</time></trkpt><trkpt lat="43.5295059" lon="11.372046"><ele>762.0</ele><time>2026-05-02T11:53:41.996Z</time></trkpt><trkpt lat="43.5295319" lon="11.3721741"><ele>763.0</ele><time>2026-05-02T11:53:42.996Z</time></trkpt><trkpt lat="43.5295529" lon="11.372308"><ele>764.8</ele><time>2026-05-02T11:53:43.996Z</time></trkpt><trkpt lat="43.5295895" lon="11.3724475"><ele>766.5999999999999</ele><time>2026-05-02T11:53:44.996Z</time></trkpt><trkpt lat="43.5296386" lon="11.3725799"><ele>768.4000000000001</ele><time>2026-05-02T11:53:45.996Z</time></trkpt><trkpt lat="43.5296911" lon="11.3727125"><ele>770.2</ele><time>2026-05-02T11:53:46.996Z</time></trkpt><trkpt lat="43.5297528" lon="11.3728178"><ele>772.0</ele><time>2026-05-02T11:53:47.997Z</time></trkpt><trkpt lat="43.5298057" lon="11.3729239"><ele>772.9999999999999</ele><time>2026-05-02T11:53:48.996Z</time></trkpt><trkpt lat="43.5298613" lon="11.3730235"><ele>774.0</ele><time>2026-05-02T11:53:49.996Z</time></trkpt><trkpt lat="43.5299183" lon="11.3730995"><ele>775.0</ele><time>2026-05-02T11:53:50.996Z</time></trkpt><trkpt lat="43.5299918" lon="11.3731551"><ele>776.0</ele><time>2026-05-02T11:53:51.997Z</time></trkpt><trkpt lat="43.5300659" lon="11.3732122"><ele>776.9999999999999</ele><time>2026-05-02T11:53:52.996Z</time></trkpt><trkpt lat="43.5301425" lon="11.3732658"><ele>778.0</ele><time>2026-05-02T11:53:53.996Z</time></trkpt><trkpt lat="43.5302277" lon="11.3733084"><ele>777.9999999999999</ele><time>2026-05-02T11:53:54.996Z</time></trkpt><trkpt lat="43.5303105" lon="11.3733466"><ele>778.0</ele><time>2026-05-02T11:53:55.996Z</time></trkpt><trkpt lat="43.5303872" lon="11.3733955"><ele>778.0</ele><time>2026-05-02T11:53:56.996Z</time></trkpt><trkpt lat="43.5304401" lon="11.3734587"><ele>778.0</ele><time>2026-05-02T11:53:57.996Z</time></trkpt><trkpt lat="43.5304813" lon="11.3735452"><ele>777.9999999999999</ele><time>2026-05-02T11:53:58.997Z</time></trkpt><trkpt lat="43.5305339" lon="11.3736518"><ele>778.0</ele><time>2026-05-02T11:53:59.996Z</time></trkpt><trkpt lat="43.5305715" lon="11.3737512"><ele>779.6666666666666</ele><time>2026-05-02T11:54:00.997Z</time></trkpt><trkpt lat="43.5306019" lon="11.3738575"><ele>781.3333333333333</ele><time>2026-05-02T11:54:01.996Z</time></trkpt><trkpt lat="43.5306298" lon="11.3739619"><ele>783.0</ele><time>2026-05-02T11:54:02.996Z</time></trkpt><trkpt lat="43.5306603" lon="11.3740613"><ele>784.6666666666667</ele><time>2026-05-02T11:54:03.996Z</time></trkpt><trkpt lat="43.5306935" lon="11.3741624"><ele>786.3333333333334</ele><time>2026-05-02T11:54:04.996Z</time></trkpt><trkpt lat="43.5307279" lon="11.3742356"><ele>788.0</ele><time>2026-05-02T11:54:05.996Z</time></trkpt><trkpt lat="43.5307803" lon="11.3743812"><ele>788.0000000000001</ele><time>2026-05-02T11:54:07.996Z</time></trkpt><trkpt lat="43.5307885" lon="11.3744848"><ele>788.0</ele><time>2026-05-02T11:54:08.996Z</time></trkpt><trkpt lat="43.5307939" lon="11.3745823"><ele>788.0</ele><time>2026-05-02T11:54:09.997Z</time></trkpt><trkpt lat="43.530793" lon="11.3746858"><ele>788.0</ele><time>2026-05-02T11:54:10.996Z</time></trkpt><trkpt lat="43.530799" lon="11.3748012"><ele>788.0000000000001</ele><time>2026-05-02T11:54:11.996Z</time></trkpt><trkpt lat="43.5308162" lon="11.374895"><ele>788.0</ele><time>2026-05-02T11:54:12.996Z</time></trkpt><trkpt lat="43.5308482" lon="11.3750504"><ele>789.5000000000001</ele><time>2026-05-02T11:54:14.996Z</time></trkpt><trkpt lat="43.5308487" lon="11.3751463"><ele>791.0</ele><time>2026-05-02T11:54:15.996Z</time></trkpt><trkpt lat="43.5308356" lon="11.3752498"><ele>792.5</ele><time>2026-05-02T11:54:16.996Z</time></trkpt><trkpt lat="43.5308268" lon="11.3753446"><ele>794.0</ele><time>2026-05-02T11:54:17.996Z</time></trkpt><trkpt lat="43.5308165" lon="11.3754436"><ele>795.5000000000001</ele><time>2026-05-02T11:54:18.996Z</time></trkpt><trkpt lat="43.5308074" lon="11.3755596"><ele>797.0</ele><time>2026-05-02T11:54:19.996Z</time></trkpt><trkpt lat="43.5307956" lon="11.3756761"><ele>798.3333333333334</ele><time>2026-05-02T11:54:20.996Z</time></trkpt><trkpt lat="43.5307893" lon="11.3757968"><ele>799.6666666666667</ele><time>2026-05-02T11:54:21.996Z</time></trkpt><trkpt lat="43.5308032" lon="11.3759052"><ele>801.0</ele><time>2026-05-02T11:54:22.996Z</time></trkpt><trkpt lat="43.5308241" lon="11.3760122"><ele>802.3333333333333</ele><time>2026-05-02T11:54:23.996Z</time></trkpt><trkpt lat="43.5308334" lon="11.3761255"><ele>803.6666666666666</ele><time>2026-05-02T11:54:24.996Z</time></trkpt><trkpt lat="43.5308493" lon="11.3762367"><ele>805.0</ele><time>2026-05-02T11:54:25.996Z</time></trkpt><trkpt lat="43.5308761" lon="11.3763582"><ele>806.3333333333333</ele><time>2026-05-02T11:54:26.996Z</time></trkpt><trkpt lat="43.5309145" lon="11.3764812"><ele>807.6666666666666</ele><time>2026-05-02T11:54:27.996Z</time></trkpt><trkpt lat="43.5309566" lon="11.3766009"><ele>809.0</ele><time>2026-05-02T11:54:28.996Z</time></trkpt><trkpt lat="43.5309931" lon="11.3767003"><ele>810.3333333333333</ele><time>2026-05-02T11:54:29.996Z</time></trkpt><trkpt lat="43.5310254" lon="11.376792"><ele>811.6666666666666</ele><time>2026-05-02T11:54:30.996Z</time></trkpt><trkpt lat="43.5310601" lon="11.37689"><ele>813.0</ele><time>2026-05-02T11:54:31.996Z</time></trkpt><trkpt lat="43.5311111" lon="11.3769925"><ele>813.0</ele><time>2026-05-02T11:54:32.997Z</time></trkpt><trkpt lat="43.5311637" lon="11.3771109"><ele>813.0</ele><time>2026-05-02T11:54:33.996Z</time></trkpt><trkpt lat="43.531219" lon="11.3772301"><ele>813.0</ele><time>2026-05-02T11:54:34.996Z</time></trkpt><trkpt lat="43.5312845" lon="11.3773508"><ele>813.0</ele><time>2026-05-02T11:54:35.996Z</time></trkpt><trkpt lat="43.5313526" lon="11.3774689"><ele>813.0</ele><time>2026-05-02T11:54:36.996Z</time></trkpt><trkpt lat="43.531413" lon="11.3775726"><ele>813.1666666666666</ele><time>2026-05-02T11:54:37.995Z</time></trkpt><trkpt lat="43.5314709" lon="11.3776669"><ele>813.3333333333333</ele><time>2026-05-02T11:54:38.995Z</time></trkpt><trkpt lat="43.5315348" lon="11.3777571"><ele>813.5</ele><time>2026-05-02T11:54:39.995Z</time></trkpt><trkpt lat="43.5316003" lon="11.3778407"><ele>813.6666666666666</ele><time>2026-05-02T11:54:40.995Z</time></trkpt><trkpt lat="43.5316654" lon="11.3779151"><ele>813.8333333333333</ele><time>2026-05-02T11:54:41.995Z</time></trkpt><trkpt lat="43.5317305" lon="11.3779865"><ele>814.0</ele><time>2026-05-02T11:54:42.995Z</time></trkpt><trkpt lat="43.5317908" lon="11.3780704"><ele>815.3333333333333</ele><time>2026-05-02T11:54:43.995Z</time></trkpt><trkpt lat="43.5318387" lon="11.3781616"><ele>816.6666666666666</ele><time>2026-05-02T11:54:44.995Z</time></trkpt><trkpt lat="43.5318784" lon="11.378245"><ele>818.0</ele><time>2026-05-02T11:54:45.995Z</time></trkpt><trkpt lat="43.5319155" lon="11.378318"><ele>819.3333333333333</ele><time>2026-05-02T11:54:46.996Z</time></trkpt><trkpt lat="43.5319549" lon="11.3783862"><ele>820.6666666666666</ele><time>2026-05-02T11:54:47.995Z</time></trkpt><trkpt lat="43.5320385" lon="11.3785037"><ele>822.0</ele><time>2026-05-02T11:54:49.995Z</time></trkpt><trkpt lat="43.5320807" lon="11.3785758"><ele>822.2857142857142</ele><time>2026-05-02T11:54:50.995Z</time></trkpt><trkpt lat="43.5321285" lon="11.3786495"><ele>822.5714285714286</ele><time>2026-05-02T11:54:51.995Z</time></trkpt><trkpt lat="43.5321732" lon="11.3787274"><ele>822.8571428571429</ele><time>2026-05-02T11:54:52.995Z</time></trkpt><trkpt lat="43.5322065" lon="11.3788148"><ele>823.1428571428571</ele><time>2026-05-02T11:54:53.995Z</time></trkpt><trkpt lat="43.5322299" lon="11.3789131"><ele>823.4285714285714</ele><time>2026-05-02T11:54:54.995Z</time></trkpt><trkpt lat="43.5322593" lon="11.3790081"><ele>823.7142857142857</ele><time>2026-05-02T11:54:55.995Z</time></trkpt><trkpt lat="43.5322911" lon="11.3791042"><ele>824.0</ele><time>2026-05-02T11:54:56.995Z</time></trkpt><trkpt lat="43.5323188" lon="11.379194"><ele>826.0000000000001</ele><time>2026-05-02T11:54:57.996Z</time></trkpt><trkpt lat="43.5323551" lon="11.3792679"><ele>828.0</ele><time>2026-05-02T11:54:58.995Z</time></trkpt><trkpt lat="43.5324258" lon="11.3794105"><ele>830.0</ele><time>2026-05-02T11:55:00.995Z</time></trkpt><trkpt lat="43.5324483" lon="11.379497"><ele>832.0</ele><time>2026-05-02T11:55:01.995Z</time></trkpt><trkpt lat="43.5324585" lon="11.3795925"><ele>834.0000000000001</ele><time>2026-05-02T11:55:02.995Z</time></trkpt><trkpt lat="43.5324633" lon="11.3796952"><ele>836.0</ele><time>2026-05-02T11:55:03.995Z</time></trkpt><trkpt lat="43.5324668" lon="11.3797897"><ele>836.4</ele><time>2026-05-02T11:55:04.995Z</time></trkpt><trkpt lat="43.5324843" lon="11.3799456"><ele>836.8</ele><time>2026-05-02T11:55:06.996Z</time></trkpt><trkpt lat="43.5325003" lon="11.3800974"><ele>837.1999999999999</ele><time>2026-05-02T11:55:08.995Z</time></trkpt><trkpt lat="43.5325106" lon="11.380219"><ele>837.5999999999999</ele><time>2026-05-02T11:55:10.995Z</time></trkpt><trkpt lat="43.5325115" lon="11.3803059"><ele>838.0</ele><time>2026-05-02T11:55:11.995Z</time></trkpt><trkpt lat="43.5325077" lon="11.3804142"><ele>837.8333333333333</ele><time>2026-05-02T11:55:12.995Z</time></trkpt><trkpt lat="43.5325151" lon="11.3805349"><ele>837.6666666666666</ele><time>2026-05-02T11:55:13.995Z</time></trkpt><trkpt lat="43.5325236" lon="11.3806448"><ele>837.5</ele><time>2026-05-02T11:55:14.995Z</time></trkpt><trkpt lat="43.5325366" lon="11.3807501"><ele>837.3333333333333</ele><time>2026-05-02T11:55:15.995Z</time></trkpt><trkpt lat="43.5325456" lon="11.3808428"><ele>837.1666666666666</ele><time>2026-05-02T11:55:16.996Z</time></trkpt><trkpt lat="43.5325324" lon="11.3809299"><ele>837.0</ele><time>2026-05-02T11:55:17.995Z</time></trkpt><trkpt lat="43.5324797" lon="11.3810987"><ele>837.0</ele><time>2026-05-02T11:55:19.995Z</time></trkpt><trkpt lat="43.532444" lon="11.3811777"><ele>837.0</ele><time>2026-05-02T11:55:20.996Z</time></trkpt><trkpt lat="43.5324094" lon="11.3813469"><ele>837.0</ele><time>2026-05-02T11:55:22.995Z</time></trkpt><trkpt lat="43.5324026" lon="11.3815211"><ele>837.0</ele><time>2026-05-02T11:55:24.995Z</time></trkpt><trkpt lat="43.5324148" lon="11.3816151"><ele>837.0</ele><time>2026-05-02T11:55:25.995Z</time></trkpt><trkpt lat="43.5324262" lon="11.3817152"><ele>837.1666666666666</ele><time>2026-05-02T11:55:26.995Z</time></trkpt><trkpt lat="43.532453" lon="11.38181"><ele>837.3333333333333</ele><time>2026-05-02T11:55:27.995Z</time></trkpt><trkpt lat="43.5324973" lon="11.381911"><ele>837.5</ele><time>2026-05-02T11:55:28.995Z</time></trkpt><trkpt lat="43.5325338" lon="11.3819975"><ele>837.6666666666666</ele><time>2026-05-02T11:55:29.995Z</time></trkpt><trkpt lat="43.5325901" lon="11.3821405"><ele>837.8333333333333</ele><time>2026-05-02T11:55:31.995Z</time></trkpt><trkpt lat="43.5326455" lon="11.3821827"><ele>838.0</ele><time>2026-05-02T11:55:32.995Z</time></trkpt><trkpt lat="43.532732" lon="11.3822335"><ele>838.0</ele><time>2026-05-02T11:55:34.995Z</time></trkpt><trkpt lat="43.5328242" lon="11.3822828"><ele>838.0</ele><time>2026-05-02T11:55:36.995Z</time></trkpt><trkpt lat="43.5329231" lon="11.3823422"><ele>838.0</ele><time>2026-05-02T11:55:38.995Z</time></trkpt><trkpt lat="43.532997" lon="11.3823923"><ele>838.0</ele><time>2026-05-02T11:55:39.995Z</time></trkpt><trkpt lat="43.533083" lon="11.382439"><ele>838.0</ele><time>2026-05-02T11:55:40.995Z</time></trkpt><trkpt lat="43.5331652" lon="11.3824876"><ele>837.2</ele><time>2026-05-02T11:55:41.995Z</time></trkpt><trkpt lat="43.5332405" lon="11.3825479"><ele>836.4</ele><time>2026-05-02T11:55:42.995Z</time></trkpt><trkpt lat="43.5333039" lon="11.3825954"><ele>835.6</ele><time>2026-05-02T11:55:43.995Z</time></trkpt><trkpt lat="43.5333698" lon="11.3826187"><ele>834.8000000000001</ele><time>2026-05-02T11:55:44.995Z</time></trkpt><trkpt lat="43.5334761" lon="11.3826491"><ele>834.0</ele><time>2026-05-02T11:55:45.995Z</time></trkpt><trkpt lat="43.5336037" lon="11.3826752"><ele>830.25</ele><time>2026-05-02T11:55:46.995Z</time></trkpt><trkpt lat="43.5337254" lon="11.3826862"><ele>826.5</ele><time>2026-05-02T11:55:47.995Z</time></trkpt><trkpt lat="43.5338419" lon="11.3826854"><ele>822.75</ele><time>2026-05-02T11:55:48.995Z</time></trkpt><trkpt lat="43.5339734" lon="11.3826961"><ele>819.0</ele><time>2026-05-02T11:55:49.995Z</time></trkpt><trkpt lat="43.5341079" lon="11.3827141"><ele>819.0</ele><time>2026-05-02T11:55:50.995Z</time></trkpt><trkpt lat="43.5342227" lon="11.3827268"><ele>819.0</ele><time>2026-05-02T11:55:51.996Z</time></trkpt><trkpt lat="43.5343096" lon="11.3827542"><ele>819.0</ele><time>2026-05-02T11:55:52.995Z</time></trkpt><trkpt lat="43.534385" lon="11.3828021"><ele>819.0</ele><time>2026-05-02T11:55:53.995Z</time></trkpt><trkpt lat="43.5344547" lon="11.3828511"><ele>819.0</ele><time>2026-05-02T11:55:54.995Z</time></trkpt><trkpt lat="43.5345169" lon="11.3829017"><ele>819.0</ele><time>2026-05-02T11:55:55.995Z</time></trkpt><trkpt lat="43.5345758" lon="11.3829372"><ele>818.8333333333334</ele><time>2026-05-02T11:55:56.995Z</time></trkpt><trkpt lat="43.534689" lon="11.3830071"><ele>818.6666666666667</ele><time>2026-05-02T11:55:58.995Z</time></trkpt><trkpt lat="43.534752" lon="11.3830462"><ele>818.5</ele><time>2026-05-02T11:55:59.995Z</time></trkpt><trkpt lat="43.5348286" lon="11.383083"><ele>818.3333333333334</ele><time>2026-05-02T11:56:00.995Z</time></trkpt><trkpt lat="43.5348966" lon="11.3831041"><ele>818.1666666666667</ele><time>2026-05-02T11:56:01.995Z</time></trkpt><trkpt lat="43.5349631" lon="11.3831019"><ele>818.0</ele><time>2026-05-02T11:56:02.995Z</time></trkpt><trkpt lat="43.5350267" lon="11.3830547"><ele>818.0000000000001</ele><time>2026-05-02T11:56:03.995Z</time></trkpt><trkpt lat="43.5350986" lon="11.3829945"><ele>818.0</ele><time>2026-05-02T11:56:04.995Z</time></trkpt><trkpt lat="43.5351657" lon="11.3829533"><ele>818.0</ele><time>2026-05-02T11:56:05.995Z</time></trkpt><trkpt lat="43.5352291" lon="11.382912"><ele>818.0</ele><time>2026-05-02T11:56:06.995Z</time></trkpt><trkpt lat="43.5352897" lon="11.3828771"><ele>818.0000000000001</ele><time>2026-05-02T11:56:07.995Z</time></trkpt><trkpt lat="43.5353869" lon="11.3828202"><ele>818.0</ele><time>2026-05-02T11:56:09.995Z</time></trkpt><trkpt lat="43.5354737" lon="11.3827486"><ele>818.0</ele><time>2026-05-02T11:56:11.995Z</time></trkpt><trkpt lat="43.5355622" lon="11.3826771"><ele>818.0</ele><time>2026-05-02T11:56:13.995Z</time></trkpt><trkpt lat="43.5356624" lon="11.3826481"><ele>818.0</ele><time>2026-05-02T11:56:15.995Z</time></trkpt><trkpt lat="43.5357741" lon="11.3826538"><ele>818.0</ele><time>2026-05-02T11:56:17.995Z</time></trkpt><trkpt lat="43.5358749" lon="11.3826557"><ele>818.0</ele><time>2026-05-02T11:56:19.995Z</time></trkpt><trkpt lat="43.535958" lon="11.3826668"><ele>818.0000000000001</ele><time>2026-05-02T11:56:21.995Z</time></trkpt><trkpt lat="43.5360753" lon="11.382704"><ele>818.0</ele><time>2026-05-02T11:56:23.995Z</time></trkpt><trkpt lat="43.5361341" lon="11.3827374"><ele>818.0</ele><time>2026-05-02T11:56:24.995Z</time></trkpt><trkpt lat="43.536199" lon="11.3827808"><ele>818.0</ele><time>2026-05-02T11:56:25.995Z</time></trkpt><trkpt lat="43.5362731" lon="11.3828209"><ele>818.0000000000001</ele><time>2026-05-02T11:56:26.995Z</time></trkpt><trkpt lat="43.5363561" lon="11.3828634"><ele>818.0</ele><time>2026-05-02T11:56:27.995Z</time></trkpt><trkpt lat="43.5364467" lon="11.3829017"><ele>817.5999999999999</ele><time>2026-05-02T11:56:28.995Z</time></trkpt><trkpt lat="43.5365297" lon="11.3829267"><ele>817.1999999999999</ele><time>2026-05-02T11:56:29.995Z</time></trkpt><trkpt lat="43.5366238" lon="11.3829783"><ele>816.8</ele><time>2026-05-02T11:56:30.995Z</time></trkpt><trkpt lat="43.5367158" lon="11.3830424"><ele>816.4</ele><time>2026-05-02T11:56:31.995Z</time></trkpt><trkpt lat="43.5367918" lon="11.3831168"><ele>816.0</ele><time>2026-05-02T11:56:32.995Z</time></trkpt><trkpt lat="43.5368638" lon="11.3831892"><ele>817.0</ele><time>2026-05-02T11:56:33.995Z</time></trkpt><trkpt lat="43.5369312" lon="11.3832689"><ele>818.0</ele><time>2026-05-02T11:56:34.995Z</time></trkpt><trkpt lat="43.5369906" lon="11.3833371"><ele>819.0</ele><time>2026-05-02T11:56:35.995Z</time></trkpt><trkpt lat="43.53705" lon="11.383377"><ele>820.0</ele><time>2026-05-02T11:56:36.995Z</time></trkpt><trkpt lat="43.5371723" lon="11.3834003"><ele>821.0</ele><time>2026-05-02T11:56:38.995Z</time></trkpt><trkpt lat="43.5372426" lon="11.3833845"><ele>822.0</ele><time>2026-05-02T11:56:39.995Z</time></trkpt><trkpt lat="43.537318" lon="11.3833687"><ele>822.0</ele><time>2026-05-02T11:56:40.995Z</time></trkpt><trkpt lat="43.5373992" lon="11.3833479"><ele>822.0</ele><time>2026-05-02T11:56:41.995Z</time></trkpt><trkpt lat="43.5374869" lon="11.3833107"><ele>822.0</ele><time>2026-05-02T11:56:42.995Z</time></trkpt><trkpt lat="43.5375682" lon="11.3832633"><ele>822.0</ele><time>2026-05-02T11:56:43.995Z</time></trkpt><trkpt lat="43.5376697" lon="11.3831789"><ele>822.0</ele><time>2026-05-02T11:56:44.995Z</time></trkpt><trkpt lat="43.5377713" lon="11.3831132"><ele>822.0</ele><time>2026-05-02T11:56:45.995Z</time></trkpt><trkpt lat="43.5378591" lon="11.383058"><ele>822.0</ele><time>2026-05-02T11:56:46.995Z</time></trkpt><trkpt lat="43.5379116" lon="11.3830076"><ele>822.0</ele><time>2026-05-02T11:56:47.995Z</time></trkpt><trkpt lat="43.5379466" lon="11.3829282"><ele>822.0</ele><time>2026-05-02T11:56:49.995Z</time></trkpt><trkpt lat="43.5379522" lon="11.3827816"><ele>822.0</ele><time>2026-05-02T11:56:52.995Z</time></trkpt><trkpt lat="43.537981" lon="11.3826409"><ele>822.0</ele><time>2026-05-02T11:56:54.996Z</time></trkpt><trkpt lat="43.5380428" lon="11.3825136"><ele>822.6</ele><time>2026-05-02T11:56:56.995Z</time></trkpt><trkpt lat="43.538135" lon="11.3824565"><ele>823.2</ele><time>2026-05-02T11:56:58.995Z</time></trkpt><trkpt lat="43.5382111" lon="11.382466"><ele>823.8</ele><time>2026-05-02T11:56:59.996Z</time></trkpt><trkpt lat="43.5383208" lon="11.3824428"><ele>824.4</ele><time>2026-05-02T11:57:00.995Z</time></trkpt><trkpt lat="43.5384309" lon="11.3823939"><ele>825.0</ele><time>2026-05-02T11:57:01.995Z</time></trkpt><trkpt lat="43.5385337" lon="11.3823363"><ele>825.0</ele><time>2026-05-02T11:57:02.995Z</time></trkpt><trkpt lat="43.5386421" lon="11.3822981"><ele>825.0</ele><time>2026-05-02T11:57:03.995Z</time></trkpt><trkpt lat="43.5387498" lon="11.3822591"><ele>825.0</ele><time>2026-05-02T11:57:04.995Z</time></trkpt><trkpt lat="43.5388551" lon="11.3822161"><ele>825.0</ele><time>2026-05-02T11:57:05.995Z</time></trkpt><trkpt lat="43.5389547" lon="11.3821521"><ele>825.0</ele><time>2026-05-02T11:57:06.995Z</time></trkpt><trkpt lat="43.5390432" lon="11.3820809"><ele>823.8</ele><time>2026-05-02T11:57:07.995Z</time></trkpt><trkpt lat="43.5391258" lon="11.3820088"><ele>822.6</ele><time>2026-05-02T11:57:08.996Z</time></trkpt><trkpt lat="43.5392043" lon="11.381946"><ele>821.4000000000001</ele><time>2026-05-02T11:57:09.995Z</time></trkpt><trkpt lat="43.5392925" lon="11.3818946"><ele>820.2</ele><time>2026-05-02T11:57:10.995Z</time></trkpt><trkpt lat="43.5393829" lon="11.3818359"><ele>819.0</ele><time>2026-05-02T11:57:11.995Z</time></trkpt><trkpt lat="43.5394738" lon="11.3817882"><ele>818.75</ele><time>2026-05-02T11:57:12.995Z</time></trkpt><trkpt lat="43.5395795" lon="11.3817441"><ele>818.5</ele><time>2026-05-02T11:57:13.995Z</time></trkpt><trkpt lat="43.5396892" lon="11.381707"><ele>818.25</ele><time>2026-05-02T11:57:14.995Z</time></trkpt><trkpt lat="43.5398013" lon="11.3816607"><ele>818.0</ele><time>2026-05-02T11:57:15.995Z</time></trkpt><trkpt lat="43.5399176" lon="11.3816105"><ele>818.0</ele><time>2026-05-02T11:57:16.995Z</time></trkpt><trkpt lat="43.5400328" lon="11.3815583"><ele>818.0</ele><time>2026-05-02T11:57:17.995Z</time></trkpt><trkpt lat="43.5401332" lon="11.3815156"><ele>818.0</ele><time>2026-05-02T11:57:18.996Z</time></trkpt><trkpt lat="43.5402064" lon="11.3814675"><ele>818.0</ele><time>2026-05-02T11:57:19.995Z</time></trkpt><trkpt lat="43.5402871" lon="11.3814284"><ele>818.0</ele><time>2026-05-02T11:57:20.995Z</time></trkpt><trkpt lat="43.540361" lon="11.3813698"><ele>818.0</ele><time>2026-05-02T11:57:21.995Z</time></trkpt><trkpt lat="43.5404302" lon="11.3813235"><ele>818.0</ele><time>2026-05-02T11:57:22.995Z</time></trkpt><trkpt lat="43.5405602" lon="11.3812629"><ele>818.0</ele><time>2026-05-02T11:57:24.995Z</time></trkpt><trkpt lat="43.5406426" lon="11.3812385"><ele>818.0</ele><time>2026-05-02T11:57:25.995Z</time></trkpt><trkpt lat="43.5407141" lon="11.3812004"><ele>818.0</ele><time>2026-05-02T11:57:26.996Z</time></trkpt><trkpt lat="43.5407761" lon="11.3811348"><ele>818.0</ele><time>2026-05-02T11:57:27.995Z</time></trkpt><trkpt lat="43.5408487" lon="11.3810493"><ele>818.0</ele><time>2026-05-02T11:57:28.995Z</time></trkpt><trkpt lat="43.5409277" lon="11.3809584"><ele>818.0</ele><time>2026-05-02T11:57:29.995Z</time></trkpt><trkpt lat="43.5410251" lon="11.3808482"><ele>818.0</ele><time>2026-05-02T11:57:30.995Z</time></trkpt><trkpt lat="43.5411248" lon="11.3807319"><ele>820.0</ele><time>2026-05-02T11:57:31.995Z</time></trkpt><trkpt lat="43.5412175" lon="11.380633"><ele>822.0</ele><time>2026-05-02T11:57:32.995Z</time></trkpt><trkpt lat="43.5413038" lon="11.3805203"><ele>824.0</ele><time>2026-05-02T11:57:33.995Z</time></trkpt><trkpt lat="43.5413907" lon="11.3804041"><ele>826.0</ele><time>2026-05-02T11:57:34.995Z</time></trkpt><trkpt lat="43.5414778" lon="11.3802973"><ele>826.0</ele><time>2026-05-02T11:57:35.995Z</time></trkpt><trkpt lat="43.5415635" lon="11.3801946"><ele>826.0</ele><time>2026-05-02T11:57:36.995Z</time></trkpt><trkpt lat="43.5416333" lon="11.3801202"><ele>826.0</ele><time>2026-05-02T11:57:37.995Z</time></trkpt><trkpt lat="43.5417111" lon="11.3800517"><ele>826.0</ele><time>2026-05-02T11:57:38.995Z</time></trkpt><trkpt lat="43.5417909" lon="11.3800092"><ele>826.0</ele><time>2026-05-02T11:57:39.995Z</time></trkpt><trkpt lat="43.5418861" lon="11.3799788"><ele>825.9999999999999</ele><time>2026-05-02T11:57:40.995Z</time></trkpt><trkpt lat="43.5419767" lon="11.3799393"><ele>826.0</ele><time>2026-05-02T11:57:41.995Z</time></trkpt><trkpt lat="43.5420637" lon="11.3799098"><ele>826.0</ele><time>2026-05-02T11:57:42.995Z</time></trkpt><trkpt lat="43.5421415" lon="11.3798721"><ele>826.0</ele><time>2026-05-02T11:57:43.995Z</time></trkpt><trkpt lat="43.5422217" lon="11.3798366"><ele>825.9999999999999</ele><time>2026-05-02T11:57:44.995Z</time></trkpt><trkpt lat="43.542299" lon="11.3797848"><ele>826.0</ele><time>2026-05-02T11:57:45.995Z</time></trkpt><trkpt lat="43.5423769" lon="11.3797359"><ele>828.8</ele><time>2026-05-02T11:57:46.995Z</time></trkpt><trkpt lat="43.5424552" lon="11.3796819"><ele>831.5999999999999</ele><time>2026-05-02T11:57:47.995Z</time></trkpt><trkpt lat="43.5425381" lon="11.37963"><ele>834.4</ele><time>2026-05-02T11:57:48.995Z</time></trkpt><trkpt lat="43.5426287" lon="11.3795939"><ele>837.2</ele><time>2026-05-02T11:57:49.996Z</time></trkpt><trkpt lat="43.542726" lon="11.3795518"><ele>840.0</ele><time>2026-05-02T11:57:50.995Z</time></trkpt><trkpt lat="43.5428143" lon="11.3795102"><ele>839.5</ele><time>2026-05-02T11:57:51.995Z</time></trkpt><trkpt lat="43.5428951" lon="11.3794712"><ele>839.0</ele><time>2026-05-02T11:57:52.995Z</time></trkpt><trkpt lat="43.5429652" lon="11.3794395"><ele>838.5</ele><time>2026-05-02T11:57:53.995Z</time></trkpt><trkpt lat="43.5430858" lon="11.3793968"><ele>838.0</ele><time>2026-05-02T11:57:55.995Z</time></trkpt><trkpt lat="43.5431519" lon="11.3793779"><ele>837.5</ele><time>2026-05-02T11:57:56.995Z</time></trkpt><trkpt lat="43.5432337" lon="11.3793465"><ele>837.0</ele><time>2026-05-02T11:57:57.995Z</time></trkpt><trkpt lat="43.543335" lon="11.3792953"><ele>837.0</ele><time>2026-05-02T11:57:58.995Z</time></trkpt><trkpt lat="43.5434232" lon="11.3792246"><ele>837.0</ele><time>2026-05-02T11:57:59.995Z</time></trkpt><trkpt lat="43.5435016" lon="11.3791614"><ele>837.0</ele><time>2026-05-02T11:58:00.995Z</time></trkpt><trkpt lat="43.5435748" lon="11.3791086"><ele>837.0</ele><time>2026-05-02T11:58:01.995Z</time></trkpt><trkpt lat="43.5436468" lon="11.3790562"><ele>837.0</ele><time>2026-05-02T11:58:02.995Z</time></trkpt><trkpt lat="43.5437167" lon="11.3790024"><ele>837.0</ele><time>2026-05-02T11:58:03.995Z</time></trkpt><trkpt lat="43.5437897" lon="11.3789577"><ele>837.3333333333334</ele><time>2026-05-02T11:58:04.995Z</time></trkpt><trkpt lat="43.5438684" lon="11.378921"><ele>837.6666666666667</ele><time>2026-05-02T11:58:05.995Z</time></trkpt><trkpt lat="43.543943" lon="11.3788927"><ele>838.0</ele><time>2026-05-02T11:58:06.995Z</time></trkpt><trkpt lat="43.5440271" lon="11.3788889"><ele>838.3333333333334</ele><time>2026-05-02T11:58:07.995Z</time></trkpt><trkpt lat="43.5441252" lon="11.3788896"><ele>838.6666666666667</ele><time>2026-05-02T11:58:08.995Z</time></trkpt><trkpt lat="43.5442284" lon="11.3788846"><ele>839.0</ele><time>2026-05-02T11:58:09.995Z</time></trkpt><trkpt lat="43.5443223" lon="11.3788868"><ele>839.0000000000001</ele><time>2026-05-02T11:58:10.995Z</time></trkpt><trkpt lat="43.5444082" lon="11.3788862"><ele>839.0</ele><time>2026-05-02T11:58:11.995Z</time></trkpt><trkpt lat="43.5444812" lon="11.3788866"><ele>839.0</ele><time>2026-05-02T11:58:12.995Z</time></trkpt><trkpt lat="43.5445473" lon="11.3788839"><ele>839.0</ele><time>2026-05-02T11:58:13.995Z</time></trkpt><trkpt lat="43.5446335" lon="11.3789462"><ele>839.0000000000001</ele><time>2026-05-02T11:58:15.995Z</time></trkpt><trkpt lat="43.5446676" lon="11.3790242"><ele>839.0</ele><time>2026-05-02T11:58:27.995Z</time></trkpt><trkpt lat="43.5446934" lon="11.3791143"><ele>838.8333333333334</ele><time>2026-05-02T11:58:29.995Z</time></trkpt><trkpt lat="43.5447011" lon="11.3792147"><ele>838.6666666666667</ele><time>2026-05-02T11:58:31.995Z</time></trkpt><trkpt lat="43.5447236" lon="11.3793758"><ele>838.5</ele><time>2026-05-02T11:58:33.995Z</time></trkpt><trkpt lat="43.5447359" lon="11.3794766"><ele>838.3333333333333</ele><time>2026-05-02T11:58:34.995Z</time></trkpt><trkpt lat="43.5447288" lon="11.3795814"><ele>838.1666666666666</ele><time>2026-05-02T11:58:35.995Z</time></trkpt><trkpt lat="43.5447214" lon="11.3796872"><ele>838.0</ele><time>2026-05-02T11:58:36.995Z</time></trkpt><trkpt lat="43.5447077" lon="11.3797836"><ele>838.0</ele><time>2026-05-02T11:58:37.995Z</time></trkpt><trkpt lat="43.544684" lon="11.3798924"><ele>838.0</ele><time>2026-05-02T11:58:38.995Z</time></trkpt><trkpt lat="43.5446621" lon="11.3799831"><ele>838.0</ele><time>2026-05-02T11:58:39.995Z</time></trkpt><trkpt lat="43.5446528" lon="11.3800749"><ele>838.0</ele><time>2026-05-02T11:58:40.995Z</time></trkpt><trkpt lat="43.5446526" lon="11.380235"><ele>838.0</ele><time>2026-05-02T11:58:42.995Z</time></trkpt><trkpt lat="43.5446452" lon="11.3804018"><ele>837.9999999999999</ele><time>2026-05-02T11:58:44.995Z</time></trkpt><trkpt lat="43.5446363" lon="11.380575"><ele>838.0</ele><time>2026-05-02T11:58:46.995Z</time></trkpt><trkpt lat="43.5446529" lon="11.3806608"><ele>838.0</ele><time>2026-05-02T11:58:47.995Z</time></trkpt><trkpt lat="43.5446692" lon="11.3807626"><ele>838.0</ele><time>2026-05-02T11:58:48.995Z</time></trkpt><trkpt lat="43.5446943" lon="11.3808696"><ele>837.9999999999999</ele><time>2026-05-02T11:58:49.995Z</time></trkpt><trkpt lat="43.5447298" lon="11.3809817"><ele>838.0</ele><time>2026-05-02T11:58:50.995Z</time></trkpt><trkpt lat="43.5447635" lon="11.38109"><ele>837.9999999999999</ele><time>2026-05-02T11:58:51.995Z</time></trkpt><trkpt lat="43.5447929" lon="11.3811962"><ele>838.0</ele><time>2026-05-02T11:58:52.996Z</time></trkpt><trkpt lat="43.5448185" lon="11.3813095"><ele>838.0</ele><time>2026-05-02T11:58:53.996Z</time></trkpt><trkpt lat="43.544841" lon="11.3814177"><ele>838.0</ele><time>2026-05-02T11:58:54.995Z</time></trkpt><trkpt lat="43.5448758" lon="11.3815241"><ele>837.9999999999999</ele><time>2026-05-02T11:58:55.996Z</time></trkpt><trkpt lat="43.5449203" lon="11.3816283"><ele>838.0</ele><time>2026-05-02T11:58:56.995Z</time></trkpt><trkpt lat="43.5449656" lon="11.3817445"><ele>836.6666666666666</ele><time>2026-05-02T11:58:57.995Z</time></trkpt><trkpt lat="43.5450109" lon="11.3818609"><ele>835.3333333333333</ele><time>2026-05-02T11:58:58.995Z</time></trkpt><trkpt lat="43.5450505" lon="11.3819743"><ele>834.0</ele><time>2026-05-02T11:58:59.995Z</time></trkpt><trkpt lat="43.5450877" lon="11.3820798"><ele>832.6666666666667</ele><time>2026-05-02T11:59:00.995Z</time></trkpt><trkpt lat="43.5451173" lon="11.3821817"><ele>831.3333333333334</ele><time>2026-05-02T11:59:01.995Z</time></trkpt><trkpt lat="43.5451435" lon="11.3822694"><ele>830.0</ele><time>2026-05-02T11:59:02.995Z</time></trkpt><trkpt lat="43.5451734" lon="11.3823489"><ele>829.3333333333334</ele><time>2026-05-02T11:59:03.995Z</time></trkpt><trkpt lat="43.5452428" lon="11.3824493"><ele>828.6666666666667</ele><time>2026-05-02T11:59:05.995Z</time></trkpt><trkpt lat="43.5451833" lon="11.3825143"><ele>828.0</ele><time>2026-05-02T11:59:16.995Z</time></trkpt><trkpt lat="43.5451063" lon="11.3825488"><ele>827.3333333333333</ele><time>2026-05-02T11:59:18.995Z</time></trkpt><trkpt lat="43.545038" lon="11.3826104"><ele>826.6666666666666</ele><time>2026-05-02T11:59:20.995Z</time></trkpt><trkpt lat="43.5449682" lon="11.3826525"><ele>826.0</ele><time>2026-05-02T11:59:22.995Z</time></trkpt><trkpt lat="43.5449023" lon="11.3827072"><ele>826.0</ele><time>2026-05-02T11:59:24.995Z</time></trkpt><trkpt lat="43.5448188" lon="11.3827713"><ele>826.0</ele><time>2026-05-02T11:59:26.996Z</time></trkpt><trkpt lat="43.5447354" lon="11.382823"><ele>826.0</ele><time>2026-05-02T11:59:28.995Z</time></trkpt><trkpt lat="43.5446356" lon="11.3828518"><ele>826.0</ele><time>2026-05-02T11:59:30.995Z</time></trkpt><trkpt lat="43.5445272" lon="11.3828655"><ele>826.0</ele><time>2026-05-02T11:59:32.995Z</time></trkpt><trkpt lat="43.5444147" lon="11.3828877"><ele>824.4</ele><time>2026-05-02T11:59:34.995Z</time></trkpt><trkpt lat="43.5443168" lon="11.3829164"><ele>822.8</ele><time>2026-05-02T11:59:36.995Z</time></trkpt><trkpt lat="43.544236" lon="11.3829609"><ele>821.1999999999999</ele><time>2026-05-02T11:59:38.995Z</time></trkpt><trkpt lat="43.5441616" lon="11.38304"><ele>819.5999999999999</ele><time>2026-05-02T11:59:40.995Z</time></trkpt><trkpt lat="43.54412" lon="11.3831582"><ele>818.0</ele><time>2026-05-02T11:59:42.995Z</time></trkpt><trkpt lat="43.5440849" lon="11.3832823"><ele>818.0</ele><time>2026-05-02T11:59:44.996Z</time></trkpt><trkpt lat="43.5440398" lon="11.3834354"><ele>818.0</ele><time>2026-05-02T11:59:46.995Z</time></trkpt><trkpt lat="43.5440102" lon="11.3835346"><ele>818.0</ele><time>2026-05-02T11:59:48.995Z</time></trkpt><trkpt lat="43.5439812" lon="11.3836495"><ele>818.0</ele><time>2026-05-02T11:59:50.995Z</time></trkpt><trkpt lat="43.5439488" lon="11.3837983"><ele>818.0</ele><time>2026-05-02T11:59:52.995Z</time></trkpt><trkpt lat="43.5439234" lon="11.3839285"><ele>817.3333333333334</ele><time>2026-05-02T11:59:54.995Z</time></trkpt><trkpt lat="43.54395" lon="11.3840376"><ele>816.6666666666667</ele><time>2026-05-02T12:00:05.995Z</time></trkpt><trkpt lat="43.5440124" lon="11.3840975"><ele>816.0</ele><time>2026-05-02T12:00:08.995Z</time></trkpt><trkpt lat="43.5440557" lon="11.3841768"><ele>815.3333333333333</ele><time>2026-05-02T12:00:10.995Z</time></trkpt><trkpt lat="43.5440906" lon="11.384253"><ele>814.6666666666666</ele><time>2026-05-02T12:00:15.995Z</time></trkpt><trkpt lat="43.5441427" lon="11.3843021"><ele>814.0</ele><time>2026-05-02T12:00:18.995Z</time></trkpt><trkpt lat="43.5442238" lon="11.384229"><ele>814.0</ele><time>2026-05-02T12:00:20.995Z</time></trkpt><trkpt lat="43.5443132" lon="11.3841274"><ele>814.0</ele><time>2026-05-02T12:00:22.995Z</time></trkpt><trkpt lat="43.5443661" lon="11.3840742"><ele>814.0</ele><time>2026-05-02T12:00:23.995Z</time></trkpt><trkpt lat="43.5444697" lon="11.3840172"><ele>814.0</ele><time>2026-05-02T12:00:25.996Z</time></trkpt><trkpt lat="43.5445548" lon="11.3840032"><ele>814.0</ele><time>2026-05-02T12:00:27.995Z</time></trkpt><trkpt lat="43.5446318" lon="11.3840579"><ele>813.0</ele><time>2026-05-02T12:00:29.995Z</time></trkpt><trkpt lat="43.5447131" lon="11.3840935"><ele>812.0</ele><time>2026-05-02T12:00:31.995Z</time></trkpt><trkpt lat="43.5447949" lon="11.384113"><ele>811.0</ele><time>2026-05-02T12:00:33.995Z</time></trkpt><trkpt lat="43.5448866" lon="11.384132"><ele>810.0</ele><time>2026-05-02T12:00:35.995Z</time></trkpt><trkpt lat="43.5449929" lon="11.3841556"><ele>809.0</ele><time>2026-05-02T12:00:37.995Z</time></trkpt><trkpt lat="43.5450915" lon="11.3842192"><ele>809.0000000000001</ele><time>2026-05-02T12:00:39.995Z</time></trkpt><trkpt lat="43.5451757" lon="11.3842809"><ele>809.0</ele><time>2026-05-02T12:00:41.995Z</time></trkpt><trkpt lat="43.5452269" lon="11.3843577"><ele>809.0</ele><time>2026-05-02T12:00:43.995Z</time></trkpt><trkpt lat="43.5452533" lon="11.3844689"><ele>809.0</ele><time>2026-05-02T12:00:45.995Z</time></trkpt><trkpt lat="43.5452961" lon="11.384578"><ele>809.0000000000001</ele><time>2026-05-02T12:00:47.995Z</time></trkpt><trkpt lat="43.5453415" lon="11.3846886"><ele>809.0</ele><time>2026-05-02T12:00:50.995Z</time></trkpt><trkpt lat="43.5453079" lon="11.3845571"><ele>809.0</ele><time>2026-05-02T12:01:59.995Z</time></trkpt><trkpt lat="43.5452487" lon="11.3844069"><ele>809.0</ele><time>2026-05-02T12:02:01.995Z</time></trkpt><trkpt lat="43.545189" lon="11.3842824"><ele>809.0</ele><time>2026-05-02T12:02:03.995Z</time></trkpt><trkpt lat="43.5451185" lon="11.3842025"><ele>809.0</ele><time>2026-05-02T12:02:05.995Z</time></trkpt><trkpt lat="43.5450097" lon="11.3841538"><ele>809.0</ele><time>2026-05-02T12:02:07.996Z</time></trkpt><trkpt lat="43.5449125" lon="11.3841311"><ele>809.0</ele><time>2026-05-02T12:02:09.995Z</time></trkpt><trkpt lat="43.5448061" lon="11.3840841"><ele>809.0</ele><time>2026-05-02T12:02:11.995Z</time></trkpt><trkpt lat="43.5447425" lon="11.3840768"><ele>809.0</ele><time>2026-05-02T12:02:12.995Z</time></trkpt><trkpt lat="43.5446151" lon="11.3840247"><ele>809.0</ele><time>2026-05-02T12:02:14.995Z</time></trkpt><trkpt lat="43.5445385" lon="11.3839938"><ele>809.0</ele><time>2026-05-02T12:02:15.995Z</time></trkpt><trkpt lat="43.5444736" lon="11.3839844"><ele>810.0</ele><time>2026-05-02T12:02:16.995Z</time></trkpt><trkpt lat="43.5443608" lon="11.3840612"><ele>811.0</ele><time>2026-05-02T12:02:18.995Z</time></trkpt><trkpt lat="43.5443128" lon="11.3841174"><ele>812.0</ele><time>2026-05-02T12:02:19.995Z</time></trkpt><trkpt lat="43.5442207" lon="11.3842144"><ele>813.0</ele><time>2026-05-02T12:02:21.995Z</time></trkpt><trkpt lat="43.5441408" lon="11.384261"><ele>814.0</ele><time>2026-05-02T12:02:23.995Z</time></trkpt><trkpt lat="43.5440835" lon="11.3841964"><ele>814.0</ele><time>2026-05-02T12:02:25.995Z</time></trkpt><trkpt lat="43.5440241" lon="11.3840824"><ele>814.0</ele><time>2026-05-02T12:02:27.995Z</time></trkpt><trkpt lat="43.543978" lon="11.3839692"><ele>814.0</ele><time>2026-05-02T12:02:29.995Z</time></trkpt><trkpt lat="43.5439705" lon="11.3838318"><ele>814.0</ele><time>2026-05-02T12:02:31.995Z</time></trkpt><trkpt lat="43.5439899" lon="11.3836604"><ele>814.0</ele><time>2026-05-02T12:02:33.995Z</time></trkpt><trkpt lat="43.5440238" lon="11.3835063"><ele>814.6</ele><time>2026-05-02T12:02:35.995Z</time></trkpt><trkpt lat="43.5440639" lon="11.3833663"><ele>815.2</ele><time>2026-05-02T12:02:37.995Z</time></trkpt><trkpt lat="43.5441151" lon="11.3832329"><ele>815.8000000000001</ele><time>2026-05-02T12:02:39.996Z</time></trkpt><trkpt lat="43.5441602" lon="11.3831086"><ele>816.4000000000001</ele><time>2026-05-02T12:02:41.995Z</time></trkpt><trkpt lat="43.5442133" lon="11.3829789"><ele>817.0</ele><time>2026-05-02T12:02:43.995Z</time></trkpt><trkpt lat="43.544296" lon="11.3829347"><ele>817.0</ele><time>2026-05-02T12:02:45.995Z</time></trkpt><trkpt lat="43.5444028" lon="11.3828971"><ele>817.0</ele><time>2026-05-02T12:02:47.995Z</time></trkpt><trkpt lat="43.5444841" lon="11.3828743"><ele>817.0</ele><time>2026-05-02T12:02:48.995Z</time></trkpt><trkpt lat="43.5445564" lon="11.3828567"><ele>817.0</ele><time>2026-05-02T12:02:49.995Z</time></trkpt><trkpt lat="43.5446253" lon="11.3828323"><ele>817.0</ele><time>2026-05-02T12:02:50.995Z</time></trkpt><trkpt lat="43.5447343" lon="11.3827481"><ele>818.4999999999999</ele><time>2026-05-02T12:02:52.995Z</time></trkpt><trkpt lat="43.5447978" lon="11.3827041"><ele>820.0</ele><time>2026-05-02T12:02:53.995Z</time></trkpt><trkpt lat="43.5448602" lon="11.3826766"><ele>821.5</ele><time>2026-05-02T12:02:54.995Z</time></trkpt><trkpt lat="43.5449511" lon="11.3826103"><ele>823.0</ele><time>2026-05-02T12:02:56.995Z</time></trkpt><trkpt lat="43.5450063" lon="11.3825662"><ele>824.4999999999999</ele><time>2026-05-02T12:02:57.995Z</time></trkpt><trkpt lat="43.5451029" lon="11.3824987"><ele>826.0</ele><time>2026-05-02T12:02:59.995Z</time></trkpt><trkpt lat="43.5452223" lon="11.3824698"><ele>825.9999999999999</ele><time>2026-05-02T12:03:01.995Z</time></trkpt><trkpt lat="43.5452952" lon="11.3824647"><ele>826.0</ele><time>2026-05-02T12:03:02.995Z</time></trkpt><trkpt lat="43.5453779" lon="11.3824608"><ele>826.0</ele><time>2026-05-02T12:03:03.995Z</time></trkpt><trkpt lat="43.5454419" lon="11.3824663"><ele>826.0</ele><time>2026-05-02T12:03:04.995Z</time></trkpt><trkpt lat="43.545558" lon="11.3825147"><ele>825.9999999999999</ele><time>2026-05-02T12:03:06.995Z</time></trkpt><trkpt lat="43.5456171" lon="11.3825465"><ele>826.0</ele><time>2026-05-02T12:03:07.995Z</time></trkpt><trkpt lat="43.5456768" lon="11.3825849"><ele>827.6666666666666</ele><time>2026-05-02T12:03:08.995Z</time></trkpt><trkpt lat="43.545738" lon="11.3826277"><ele>829.3333333333333</ele><time>2026-05-02T12:03:09.995Z</time></trkpt><trkpt lat="43.5458035" lon="11.3826843"><ele>831.0</ele><time>2026-05-02T12:03:10.995Z</time></trkpt><trkpt lat="43.5458562" lon="11.3827507"><ele>832.6666666666667</ele><time>2026-05-02T12:03:11.995Z</time></trkpt><trkpt lat="43.5459057" lon="11.3828418"><ele>834.3333333333334</ele><time>2026-05-02T12:03:12.995Z</time></trkpt><trkpt lat="43.5459503" lon="11.3829319"><ele>836.0</ele><time>2026-05-02T12:03:13.995Z</time></trkpt><trkpt lat="43.5459996" lon="11.3830159"><ele>836.0000000000001</ele><time>2026-05-02T12:03:14.995Z</time></trkpt><trkpt lat="43.5460494" lon="11.383109"><ele>836.0</ele><time>2026-05-02T12:03:15.995Z</time></trkpt><trkpt lat="43.5461061" lon="11.3832039"><ele>836.0</ele><time>2026-05-02T12:03:16.996Z</time></trkpt><trkpt lat="43.5461653" lon="11.3832991"><ele>836.0</ele><time>2026-05-02T12:03:17.995Z</time></trkpt><trkpt lat="43.5462337" lon="11.3833909"><ele>836.0000000000001</ele><time>2026-05-02T12:03:18.995Z</time></trkpt><trkpt lat="43.5463006" lon="11.3834706"><ele>836.0</ele><time>2026-05-02T12:03:19.995Z</time></trkpt><trkpt lat="43.5463676" lon="11.3835455"><ele>837.1999999999999</ele><time>2026-05-02T12:03:20.995Z</time></trkpt><trkpt lat="43.5464444" lon="11.3836288"><ele>838.4</ele><time>2026-05-02T12:03:21.995Z</time></trkpt><trkpt lat="43.5465354" lon="11.383708"><ele>839.6</ele><time>2026-05-02T12:03:22.995Z</time></trkpt><trkpt lat="43.5466238" lon="11.3837854"><ele>840.8</ele><time>2026-05-02T12:03:23.995Z</time></trkpt><trkpt lat="43.5467106" lon="11.3838544"><ele>842.0</ele><time>2026-05-02T12:03:24.995Z</time></trkpt><trkpt lat="43.5467929" lon="11.3839137"><ele>842.0000000000001</ele><time>2026-05-02T12:03:25.995Z</time></trkpt><trkpt lat="43.5468774" lon="11.3839613"><ele>842.0</ele><time>2026-05-02T12:03:26.995Z</time></trkpt><trkpt lat="43.5469655" lon="11.3840003"><ele>842.0</ele><time>2026-05-02T12:03:27.995Z</time></trkpt><trkpt lat="43.5470523" lon="11.3840397"><ele>842.0</ele><time>2026-05-02T12:03:28.995Z</time></trkpt><trkpt lat="43.5471338" lon="11.3840753"><ele>842.0000000000001</ele><time>2026-05-02T12:03:29.995Z</time></trkpt><trkpt lat="43.5472135" lon="11.3840946"><ele>842.0</ele><time>2026-05-02T12:03:30.995Z</time></trkpt><trkpt lat="43.5472931" lon="11.3840882"><ele>843.4000000000001</ele><time>2026-05-02T12:03:31.995Z</time></trkpt><trkpt lat="43.547368" lon="11.3840818"><ele>844.8000000000001</ele><time>2026-05-02T12:03:32.995Z</time></trkpt><trkpt lat="43.5474411" lon="11.3840708"><ele>846.2</ele><time>2026-05-02T12:03:33.995Z</time></trkpt><trkpt lat="43.5475852" lon="11.3840826"><ele>847.6</ele><time>2026-05-02T12:03:35.995Z</time></trkpt><trkpt lat="43.5476586" lon="11.3840953"><ele>849.0</ele><time>2026-05-02T12:03:36.995Z</time></trkpt><trkpt lat="43.5477442" lon="11.3841201"><ele>849.0</ele><time>2026-05-02T12:03:37.995Z</time></trkpt><trkpt lat="43.5478115" lon="11.3841462"><ele>849.0</ele><time>2026-05-02T12:03:38.996Z</time></trkpt><trkpt lat="43.5478788" lon="11.3841638"><ele>849.0</ele><time>2026-05-02T12:03:39.995Z</time></trkpt><trkpt lat="43.5479455" lon="11.3841682"><ele>849.0</ele><time>2026-05-02T12:03:40.995Z</time></trkpt><trkpt lat="43.5480194" lon="11.3841833"><ele>849.0</ele><time>2026-05-02T12:03:41.995Z</time></trkpt><trkpt lat="43.5481069" lon="11.3842001"><ele>849.0</ele><time>2026-05-02T12:03:42.995Z</time></trkpt><trkpt lat="43.5481924" lon="11.3842137"><ele>848.1666666666666</ele><time>2026-05-02T12:03:43.995Z</time></trkpt><trkpt lat="43.5482647" lon="11.3842246"><ele>847.3333333333333</ele><time>2026-05-02T12:03:44.995Z</time></trkpt><trkpt lat="43.5483446" lon="11.384226"><ele>846.5</ele><time>2026-05-02T12:03:45.995Z</time></trkpt><trkpt lat="43.5484142" lon="11.3842431"><ele>845.6666666666666</ele><time>2026-05-02T12:03:46.995Z</time></trkpt><trkpt lat="43.5484832" lon="11.3842517"><ele>844.8333333333333</ele><time>2026-05-02T12:03:47.995Z</time></trkpt><trkpt lat="43.5485461" lon="11.3842622"><ele>844.0</ele><time>2026-05-02T12:03:48.995Z</time></trkpt><trkpt lat="43.5486529" lon="11.3842767"><ele>843.4999999999999</ele><time>2026-05-02T12:03:50.995Z</time></trkpt><trkpt lat="43.5487368" lon="11.384314"><ele>843.0</ele><time>2026-05-02T12:03:52.995Z</time></trkpt><trkpt lat="43.5487978" lon="11.3843497"><ele>842.5</ele><time>2026-05-02T12:03:54.995Z</time></trkpt><trkpt lat="43.5488587" lon="11.3844138"><ele>842.0</ele><time>2026-05-02T12:04:09.995Z</time></trkpt><trkpt lat="43.5489572" lon="11.3844982"><ele>841.4999999999999</ele><time>2026-05-02T12:04:11.995Z</time></trkpt><trkpt lat="43.5490142" lon="11.3845622"><ele>841.0</ele><time>2026-05-02T12:04:12.995Z</time></trkpt><trkpt lat="43.5490602" lon="11.3846312"><ele>841.1999999999999</ele><time>2026-05-02T12:04:13.996Z</time></trkpt><trkpt lat="43.5491195" lon="11.3847107"><ele>841.4</ele><time>2026-05-02T12:04:14.995Z</time></trkpt><trkpt lat="43.5491843" lon="11.3848094"><ele>841.6</ele><time>2026-05-02T12:04:15.995Z</time></trkpt><trkpt lat="43.5492477" lon="11.384906"><ele>841.8</ele><time>2026-05-02T12:04:16.995Z</time></trkpt><trkpt lat="43.5493104" lon="11.3850136"><ele>842.0</ele><time>2026-05-02T12:04:17.995Z</time></trkpt><trkpt lat="43.5493703" lon="11.3851146"><ele>842.0000000000001</ele><time>2026-05-02T12:04:18.995Z</time></trkpt><trkpt lat="43.5494306" lon="11.3852135"><ele>842.0</ele><time>2026-05-02T12:04:19.995Z</time></trkpt><trkpt lat="43.5494891" lon="11.3853247"><ele>842.0</ele><time>2026-05-02T12:04:20.995Z</time></trkpt><trkpt lat="43.5495483" lon="11.385427"><ele>842.0</ele><time>2026-05-02T12:04:21.995Z</time></trkpt><trkpt lat="43.5496077" lon="11.3854985"><ele>842.0000000000001</ele><time>2026-05-02T12:04:22.995Z</time></trkpt><trkpt lat="43.549679" lon="11.3855239"><ele>842.0</ele><time>2026-05-02T12:04:23.995Z</time></trkpt><trkpt lat="43.5497634" lon="11.3855469"><ele>846.0</ele><time>2026-05-02T12:04:24.995Z</time></trkpt><trkpt lat="43.5498503" lon="11.3855796"><ele>850.0</ele><time>2026-05-02T12:04:25.995Z</time></trkpt><trkpt lat="43.5499369" lon="11.3856307"><ele>854.0</ele><time>2026-05-02T12:04:26.995Z</time></trkpt><trkpt lat="43.5500137" lon="11.3857178"><ele>858.0</ele><time>2026-05-02T12:04:27.995Z</time></trkpt><trkpt lat="43.5500818" lon="11.3857994"><ele>862.0</ele><time>2026-05-02T12:04:28.995Z</time></trkpt><trkpt lat="43.5501523" lon="11.3858731"><ele>861.9999999999999</ele><time>2026-05-02T12:04:29.995Z</time></trkpt><trkpt lat="43.5502058" lon="11.3859414"><ele>862.0</ele><time>2026-05-02T12:04:30.995Z</time></trkpt><trkpt lat="43.5502389" lon="11.3860181"><ele>862.0</ele><time>2026-05-02T12:04:31.995Z</time></trkpt><trkpt lat="43.5502666" lon="11.3860981"><ele>862.0</ele><time>2026-05-02T12:04:34.995Z</time></trkpt><trkpt lat="43.5502058" lon="11.386125"><ele>861.9999999999999</ele><time>2026-05-02T12:08:35.995Z</time></trkpt><trkpt lat="43.5501545" lon="11.3861829"><ele>862.0</ele><time>2026-05-02T12:08:38.995Z</time></trkpt><trkpt lat="43.5501574" lon="11.3863493"><ele>863.8333333333333</ele><time>2026-05-02T12:08:41.995Z</time></trkpt><trkpt lat="43.550159" lon="11.3864507"><ele>865.6666666666666</ele><time>2026-05-02T12:08:43.995Z</time></trkpt><trkpt lat="43.5501576" lon="11.3865473"><ele>867.5</ele><time>2026-05-02T12:08:44.995Z</time></trkpt><trkpt lat="43.5501574" lon="11.3866941"><ele>869.3333333333333</ele><time>2026-05-02T12:08:46.995Z</time></trkpt><trkpt lat="43.5501688" lon="11.3868641"><ele>871.1666666666666</ele><time>2026-05-02T12:08:48.995Z</time></trkpt><trkpt lat="43.5501569" lon="11.3869533"><ele>873.0</ele><time>2026-05-02T12:08:49.995Z</time></trkpt><trkpt lat="43.5501481" lon="11.387063"><ele>873.0</ele><time>2026-05-02T12:08:50.995Z</time></trkpt><trkpt lat="43.5501382" lon="11.387175"><ele>873.0</ele><time>2026-05-02T12:08:51.995Z</time></trkpt><trkpt lat="43.5501197" lon="11.3872724"><ele>873.0</ele><time>2026-05-02T12:08:52.995Z</time></trkpt><trkpt lat="43.5500888" lon="11.3873884"><ele>873.0</ele><time>2026-05-02T12:08:53.995Z</time></trkpt><trkpt lat="43.550064" lon="11.387495"><ele>873.0</ele><time>2026-05-02T12:08:54.995Z</time></trkpt><trkpt lat="43.5500451" lon="11.387586"><ele>873.0</ele><time>2026-05-02T12:08:55.995Z</time></trkpt><trkpt lat="43.5500507" lon="11.3876732"><ele>875.5999999999999</ele><time>2026-05-02T12:08:56.996Z</time></trkpt><trkpt lat="43.5500946" lon="11.3877411"><ele>878.1999999999999</ele><time>2026-05-02T12:08:57.995Z</time></trkpt><trkpt lat="43.5501698" lon="11.3878247"><ele>880.8</ele><time>2026-05-02T12:08:58.995Z</time></trkpt><trkpt lat="43.5502535" lon="11.3879138"><ele>883.4</ele><time>2026-05-02T12:08:59.995Z</time></trkpt><trkpt lat="43.5503345" lon="11.3879983"><ele>886.0</ele><time>2026-05-02T12:09:00.995Z</time></trkpt><trkpt lat="43.5504171" lon="11.3880806"><ele>888.5999999999999</ele><time>2026-05-02T12:09:01.995Z</time></trkpt><trkpt lat="43.5505041" lon="11.3881409"><ele>891.1999999999999</ele><time>2026-05-02T12:09:02.996Z</time></trkpt><trkpt lat="43.5506094" lon="11.3881943"><ele>893.8000000000001</ele><time>2026-05-02T12:09:03.995Z</time></trkpt><trkpt lat="43.5507215" lon="11.3882457"><ele>896.4000000000001</ele><time>2026-05-02T12:09:04.995Z</time></trkpt><trkpt lat="43.5508156" lon="11.3883037"><ele>899.0</ele><time>2026-05-02T12:09:05.995Z</time></trkpt><trkpt lat="43.5509131" lon="11.3883483"><ele>899.0</ele><time>2026-05-02T12:09:06.995Z</time></trkpt><trkpt lat="43.551017" lon="11.3883872"><ele>899.0000000000001</ele><time>2026-05-02T12:09:07.995Z</time></trkpt><trkpt lat="43.5511118" lon="11.3884379"><ele>899.0000000000001</ele><time>2026-05-02T12:09:08.995Z</time></trkpt><trkpt lat="43.5512121" lon="11.3884856"><ele>899.0</ele><time>2026-05-02T12:09:09.995Z</time></trkpt><trkpt lat="43.5513047" lon="11.3885376"><ele>899.0</ele><time>2026-05-02T12:09:10.995Z</time></trkpt><trkpt lat="43.551382" lon="11.3885869"><ele>899.5000000000001</ele><time>2026-05-02T12:09:11.995Z</time></trkpt><trkpt lat="43.5514565" lon="11.388629"><ele>900.0</ele><time>2026-05-02T12:09:12.995Z</time></trkpt><trkpt lat="43.5515384" lon="11.3886635"><ele>900.5</ele><time>2026-05-02T12:09:13.995Z</time></trkpt><trkpt lat="43.5516267" lon="11.3886638"><ele>901.0</ele><time>2026-05-02T12:09:14.995Z</time></trkpt><trkpt lat="43.5517049" lon="11.3886588"><ele>901.5000000000001</ele><time>2026-05-02T12:09:15.995Z</time></trkpt><trkpt lat="43.5517861" lon="11.3886554"><ele>902.0</ele><time>2026-05-02T12:09:17.995Z</time></trkpt><trkpt lat="43.5518779" lon="11.3887072"><ele>902.0000000000001</ele><time>2026-05-02T12:09:19.995Z</time></trkpt><trkpt lat="43.5519455" lon="11.3888296"><ele>902.0</ele><time>2026-05-02T12:09:21.995Z</time></trkpt><trkpt lat="43.5519723" lon="11.3889295"><ele>902.0</ele><time>2026-05-02T12:09:22.995Z</time></trkpt><trkpt lat="43.5520145" lon="11.3889975"><ele>902.0</ele><time>2026-05-02T12:09:23.995Z</time></trkpt><trkpt lat="43.5520859" lon="11.3890447"><ele>902.0000000000001</ele><time>2026-05-02T12:09:25.995Z</time></trkpt><trkpt lat="43.5521742" lon="11.3890278"><ele>902.0</ele><time>2026-05-02T12:09:27.995Z</time></trkpt><trkpt lat="43.5522715" lon="11.3889404"><ele>902.1666666666667</ele><time>2026-05-02T12:09:29.995Z</time></trkpt><trkpt lat="43.5523377" lon="11.3888953"><ele>902.3333333333334</ele><time>2026-05-02T12:09:30.995Z</time></trkpt><trkpt lat="43.552409" lon="11.3888317"><ele>902.5</ele><time>2026-05-02T12:09:31.995Z</time></trkpt><trkpt lat="43.5524833" lon="11.3887539"><ele>902.6666666666667</ele><time>2026-05-02T12:09:32.995Z</time></trkpt><trkpt lat="43.552562" lon="11.3886703"><ele>902.8333333333334</ele><time>2026-05-02T12:09:33.996Z</time></trkpt><trkpt lat="43.5526368" lon="11.3885956"><ele>903.0</ele><time>2026-05-02T12:09:34.995Z</time></trkpt><trkpt lat="43.5526959" lon="11.3885325"><ele>903.0</ele><time>2026-05-02T12:09:35.995Z</time></trkpt><trkpt lat="43.5527655" lon="11.3884655"><ele>903.0</ele><time>2026-05-02T12:09:36.995Z</time></trkpt><trkpt lat="43.5528434" lon="11.3884025"><ele>903.0</ele><time>2026-05-02T12:09:37.995Z</time></trkpt><trkpt lat="43.5529127" lon="11.3883579"><ele>903.0</ele><time>2026-05-02T12:09:38.995Z</time></trkpt><trkpt lat="43.5529737" lon="11.3883024"><ele>903.0</ele><time>2026-05-02T12:09:39.995Z</time></trkpt><trkpt lat="43.553036" lon="11.3882435"><ele>903.0</ele><time>2026-05-02T12:09:40.995Z</time></trkpt><trkpt lat="43.5530944" lon="11.3881828"><ele>901.4285714285714</ele><time>2026-05-02T12:09:41.995Z</time></trkpt><trkpt lat="43.5531642" lon="11.3881179"><ele>899.8571428571429</ele><time>2026-05-02T12:09:42.995Z</time></trkpt><trkpt lat="43.5532237" lon="11.3880754"><ele>898.2857142857142</ele><time>2026-05-02T12:09:43.995Z</time></trkpt><trkpt lat="43.5532801" lon="11.38803"><ele>896.7142857142858</ele><time>2026-05-02T12:09:44.995Z</time></trkpt><trkpt lat="43.5533369" lon="11.3879639"><ele>895.1428571428571</ele><time>2026-05-02T12:09:45.995Z</time></trkpt><trkpt lat="43.5533906" lon="11.3879095"><ele>893.5714285714286</ele><time>2026-05-02T12:09:46.995Z</time></trkpt><trkpt lat="43.5534407" lon="11.3878396"><ele>892.0</ele><time>2026-05-02T12:09:47.995Z</time></trkpt><trkpt lat="43.553547" lon="11.3877435"><ele>891.9999999999999</ele><time>2026-05-02T12:09:49.996Z</time></trkpt><trkpt lat="43.5536077" lon="11.3877123"><ele>892.0</ele><time>2026-05-02T12:09:50.995Z</time></trkpt><trkpt lat="43.5536757" lon="11.387663"><ele>892.0</ele><time>2026-05-02T12:09:51.995Z</time></trkpt><trkpt lat="43.5537368" lon="11.3875975"><ele>892.0</ele><time>2026-05-02T12:09:52.995Z</time></trkpt><trkpt lat="43.5537894" lon="11.387515"><ele>891.9999999999999</ele><time>2026-05-02T12:09:53.995Z</time></trkpt><trkpt lat="43.5538313" lon="11.3874198"><ele>892.0</ele><time>2026-05-02T12:09:54.995Z</time></trkpt><trkpt lat="43.5538411" lon="11.3873232"><ele>890.9999999999999</ele><time>2026-05-02T12:09:55.995Z</time></trkpt><trkpt lat="43.5538764" lon="11.3872393"><ele>890.0</ele><time>2026-05-02T12:09:56.995Z</time></trkpt><trkpt lat="43.5539176" lon="11.3871683"><ele>889.0</ele><time>2026-05-02T12:09:57.995Z</time></trkpt><trkpt lat="43.5540141" lon="11.3870929"><ele>888.0</ele><time>2026-05-02T12:09:59.995Z</time></trkpt><trkpt lat="43.5540989" lon="11.3870787"><ele>886.9999999999999</ele><time>2026-05-02T12:10:00.995Z</time></trkpt><trkpt lat="43.554188" lon="11.3870587"><ele>886.0</ele><time>2026-05-02T12:10:01.995Z</time></trkpt><trkpt lat="43.5542828" lon="11.3870493"><ele>886.0</ele><time>2026-05-02T12:10:02.995Z</time></trkpt><trkpt lat="43.5543916" lon="11.3870206"><ele>885.9999999999999</ele><time>2026-05-02T12:10:03.995Z</time></trkpt><trkpt lat="43.5544783" lon="11.3869935"><ele>885.9999999999999</ele><time>2026-05-02T12:10:04.995Z</time></trkpt><trkpt lat="43.5545673" lon="11.3869599"><ele>886.0</ele><time>2026-05-02T12:10:05.995Z</time></trkpt><trkpt lat="43.5546673" lon="11.3869247"><ele>886.0</ele><time>2026-05-02T12:10:06.996Z</time></trkpt><trkpt lat="43.5547793" lon="11.386916"><ele>886.0</ele><time>2026-05-02T12:10:07.995Z</time></trkpt><trkpt lat="43.5548934" lon="11.3869227"><ele>886.0</ele><time>2026-05-02T12:10:08.995Z</time></trkpt><trkpt lat="43.5550233" lon="11.3869357"><ele>886.0</ele><time>2026-05-02T12:10:09.995Z</time></trkpt><trkpt lat="43.5551453" lon="11.3869518"><ele>886.0</ele><time>2026-05-02T12:10:10.995Z</time></trkpt><trkpt lat="43.5552705" lon="11.3869577"><ele>883.75</ele><time>2026-05-02T12:10:11.995Z</time></trkpt><trkpt lat="43.5553909" lon="11.3869676"><ele>881.5</ele><time>2026-05-02T12:10:12.995Z</time></trkpt><trkpt lat="43.5555199" lon="11.3869685"><ele>879.25</ele><time>2026-05-02T12:10:13.995Z</time></trkpt><trkpt lat="43.5556393" lon="11.3869543"><ele>877.0</ele><time>2026-05-02T12:10:14.995Z</time></trkpt><trkpt lat="43.5557491" lon="11.3869383"><ele>877.0</ele><time>2026-05-02T12:10:15.995Z</time></trkpt><trkpt lat="43.5558597" lon="11.3869264"><ele>877.0</ele><time>2026-05-02T12:10:16.995Z</time></trkpt><trkpt lat="43.5559769" lon="11.3869074"><ele>877.0</ele><time>2026-05-02T12:10:17.995Z</time></trkpt><trkpt lat="43.5560819" lon="11.386892"><ele>877.0</ele><time>2026-05-02T12:10:18.996Z</time></trkpt><trkpt lat="43.5561732" lon="11.3868834"><ele>877.0</ele><time>2026-05-02T12:10:19.995Z</time></trkpt><trkpt lat="43.5562706" lon="11.3868656"><ele>875.8333333333333</ele><time>2026-05-02T12:10:20.995Z</time></trkpt><trkpt lat="43.5563606" lon="11.3868417"><ele>874.6666666666666</ele><time>2026-05-02T12:10:21.995Z</time></trkpt><trkpt lat="43.5564282" lon="11.386798"><ele>873.5</ele><time>2026-05-02T12:10:22.995Z</time></trkpt><trkpt lat="43.5564979" lon="11.3867543"><ele>872.3333333333333</ele><time>2026-05-02T12:10:23.995Z</time></trkpt><trkpt lat="43.5565726" lon="11.3866951"><ele>871.1666666666666</ele><time>2026-05-02T12:10:24.995Z</time></trkpt><trkpt lat="43.5566326" lon="11.3866349"><ele>870.0</ele><time>2026-05-02T12:10:25.995Z</time></trkpt><trkpt lat="43.5566793" lon="11.3865374"><ele>870.0</ele><time>2026-05-02T12:10:26.995Z</time></trkpt><trkpt lat="43.5567098" lon="11.3864087"><ele>870.0</ele><time>2026-05-02T12:10:27.995Z</time></trkpt><trkpt lat="43.5567578" lon="11.3862882"><ele>870.0</ele><time>2026-05-02T12:10:28.995Z</time></trkpt><trkpt lat="43.5567966" lon="11.3861978"><ele>870.0</ele><time>2026-05-02T12:10:29.995Z</time></trkpt><trkpt lat="43.5568561" lon="11.3861008"><ele>870.0</ele><time>2026-05-02T12:10:30.995Z</time></trkpt><trkpt lat="43.556927" lon="11.3859983"><ele>870.0</ele><time>2026-05-02T12:10:31.995Z</time></trkpt><trkpt lat="43.5570004" lon="11.3858827"><ele>870.0</ele><time>2026-05-02T12:10:32.995Z</time></trkpt><trkpt lat="43.557072" lon="11.3857446"><ele>870.0</ele><time>2026-05-02T12:10:33.995Z</time></trkpt><trkpt lat="43.5571333" lon="11.3856116"><ele>870.0</ele><time>2026-05-02T12:10:34.995Z</time></trkpt><trkpt lat="43.5571906" lon="11.3854898"><ele>870.0</ele><time>2026-05-02T12:10:35.995Z</time></trkpt><trkpt lat="43.5572457" lon="11.385382"><ele>870.0</ele><time>2026-05-02T12:10:36.995Z</time></trkpt><trkpt lat="43.5572985" lon="11.3852756"><ele>870.0</ele><time>2026-05-02T12:10:37.995Z</time></trkpt><trkpt lat="43.5573587" lon="11.3851818"><ele>870.0</ele><time>2026-05-02T12:10:38.995Z</time></trkpt><trkpt lat="43.5574173" lon="11.3850981"><ele>870.0</ele><time>2026-05-02T12:10:39.995Z</time></trkpt><trkpt lat="43.5574815" lon="11.385012"><ele>870.0</ele><time>2026-05-02T12:10:40.996Z</time></trkpt><trkpt lat="43.5575474" lon="11.3849274"><ele>870.0</ele><time>2026-05-02T12:10:41.995Z</time></trkpt><trkpt lat="43.5576121" lon="11.3848527"><ele>870.0</ele><time>2026-05-02T12:10:42.995Z</time></trkpt><trkpt lat="43.5576734" lon="11.3847583"><ele>870.0</ele><time>2026-05-02T12:10:43.995Z</time></trkpt><trkpt lat="43.5577265" lon="11.3846525"><ele>870.0</ele><time>2026-05-02T12:10:44.995Z</time></trkpt><trkpt lat="43.5577782" lon="11.3845474"><ele>870.1666666666666</ele><time>2026-05-02T12:10:45.995Z</time></trkpt><trkpt lat="43.5578327" lon="11.3844391"><ele>870.3333333333333</ele><time>2026-05-02T12:10:46.995Z</time></trkpt><trkpt lat="43.5578863" lon="11.3843531"><ele>870.5</ele><time>2026-05-02T12:10:47.995Z</time></trkpt><trkpt lat="43.5579456" lon="11.38427"><ele>870.6666666666666</ele><time>2026-05-02T12:10:48.995Z</time></trkpt><trkpt lat="43.5580089" lon="11.3842039"><ele>870.8333333333333</ele><time>2026-05-02T12:10:49.995Z</time></trkpt><trkpt lat="43.5580643" lon="11.3841584"><ele>871.0</ele><time>2026-05-02T12:10:50.995Z</time></trkpt><trkpt lat="43.5581581" lon="11.3840695"><ele>868.4999999999999</ele><time>2026-05-02T12:10:52.995Z</time></trkpt><trkpt lat="43.5582513" lon="11.3839533"><ele>866.0</ele><time>2026-05-02T12:10:54.995Z</time></trkpt><trkpt lat="43.558298" lon="11.3838861"><ele>863.5</ele><time>2026-05-02T12:10:55.995Z</time></trkpt><trkpt lat="43.5583415" lon="11.3838148"><ele>861.0</ele><time>2026-05-02T12:10:56.995Z</time></trkpt><trkpt lat="43.5584028" lon="11.383749"><ele>858.4999999999999</ele><time>2026-05-02T12:10:57.995Z</time></trkpt><trkpt lat="43.5584761" lon="11.383696"><ele>856.0</ele><time>2026-05-02T12:10:58.995Z</time></trkpt><trkpt lat="43.5585412" lon="11.3836554"><ele>855.9999999999999</ele><time>2026-05-02T12:10:59.995Z</time></trkpt><trkpt lat="43.5586085" lon="11.3836013"><ele>856.0</ele><time>2026-05-02T12:11:00.995Z</time></trkpt><trkpt lat="43.5586768" lon="11.3835653"><ele>856.0</ele><time>2026-05-02T12:11:01.996Z</time></trkpt><trkpt lat="43.5587416" lon="11.383536"><ele>856.0</ele><time>2026-05-02T12:11:02.995Z</time></trkpt><trkpt lat="43.5588507" lon="11.3835039"><ele>855.9999999999999</ele><time>2026-05-02T12:11:04.995Z</time></trkpt><trkpt lat="43.5589146" lon="11.3834878"><ele>856.0</ele><time>2026-05-02T12:11:05.995Z</time></trkpt><trkpt lat="43.5590187" lon="11.3834158"><ele>852.8333333333333</ele><time>2026-05-02T12:11:07.996Z</time></trkpt><trkpt lat="43.5590719" lon="11.3833589"><ele>849.6666666666666</ele><time>2026-05-02T12:11:08.995Z</time></trkpt><trkpt lat="43.5591318" lon="11.3833166"><ele>846.5</ele><time>2026-05-02T12:11:09.995Z</time></trkpt><trkpt lat="43.5591975" lon="11.3832747"><ele>843.3333333333333</ele><time>2026-05-02T12:11:10.995Z</time></trkpt><trkpt lat="43.5592639" lon="11.383241"><ele>840.1666666666666</ele><time>2026-05-02T12:11:11.995Z</time></trkpt><trkpt lat="43.5593688" lon="11.3831803"><ele>837.0</ele><time>2026-05-02T12:11:13.995Z</time></trkpt><trkpt lat="43.5594117" lon="11.3830889"><ele>836.2</ele><time>2026-05-02T12:11:15.995Z</time></trkpt><trkpt lat="43.5594259" lon="11.3830031"><ele>835.4000000000001</ele><time>2026-05-02T12:11:20.995Z</time></trkpt><trkpt lat="43.5595027" lon="11.3829315"><ele>834.5999999999999</ele><time>2026-05-02T12:11:22.996Z</time></trkpt><trkpt lat="43.5595954" lon="11.3828338"><ele>833.8</ele><time>2026-05-02T12:11:24.995Z</time></trkpt><trkpt lat="43.5596809" lon="11.3827386"><ele>833.0</ele><time>2026-05-02T12:11:26.995Z</time></trkpt><trkpt lat="43.5597643" lon="11.3826619"><ele>833.0</ele><time>2026-05-02T12:11:28.995Z</time></trkpt><trkpt lat="43.5598071" lon="11.3825928"><ele>833.0</ele><time>2026-05-02T12:11:29.995Z</time></trkpt><trkpt lat="43.559844" lon="11.3825164"><ele>833.0</ele><time>2026-05-02T12:11:30.995Z</time></trkpt><trkpt lat="43.5598881" lon="11.3824335"><ele>833.0</ele><time>2026-05-02T12:11:31.995Z</time></trkpt><trkpt lat="43.5599422" lon="11.3823486"><ele>833.0</ele><time>2026-05-02T12:11:32.995Z</time></trkpt><trkpt lat="43.5599965" lon="11.3822686"><ele>833.0</ele><time>2026-05-02T12:11:33.995Z</time></trkpt><trkpt lat="43.5600372" lon="11.3822023"><ele>833.0</ele><time>2026-05-02T12:11:34.996Z</time></trkpt><trkpt lat="43.5601152" lon="11.3820783"><ele>834.0000000000001</ele><time>2026-05-02T12:11:36.995Z</time></trkpt><trkpt lat="43.5601603" lon="11.3820049"><ele>835.0</ele><time>2026-05-02T12:11:37.995Z</time></trkpt><trkpt lat="43.5602167" lon="11.3818914"><ele>836.0</ele><time>2026-05-02T12:11:39.996Z</time></trkpt><trkpt lat="43.5602347" lon="11.3817629"><ele>837.0</ele><time>2026-05-02T12:11:41.995Z</time></trkpt><trkpt lat="43.5602182" lon="11.38165"><ele>838.0000000000001</ele><time>2026-05-02T12:11:43.996Z</time></trkpt><trkpt lat="43.5602929" lon="11.3816587"><ele>839.0</ele><time>2026-05-02T12:12:08.995Z</time></trkpt><trkpt lat="43.5603462" lon="11.3815758"><ele>838.1428571428571</ele><time>2026-05-02T12:12:11.995Z</time></trkpt><trkpt lat="43.5603985" lon="11.3815017"><ele>837.2857142857143</ele><time>2026-05-02T12:12:17.995Z</time></trkpt><trkpt lat="43.5604376" lon="11.3814188"><ele>836.4285714285714</ele><time>2026-05-02T12:12:28.995Z</time></trkpt><trkpt lat="43.5604629" lon="11.3813378"><ele>835.5714285714286</ele><time>2026-05-02T12:12:37.995Z</time></trkpt><trkpt lat="43.5604953" lon="11.3812495"><ele>834.7142857142858</ele><time>2026-05-02T12:12:42.995Z</time></trkpt><trkpt lat="43.560521" lon="11.3811355"><ele>833.8571428571429</ele><time>2026-05-02T12:12:45.995Z</time></trkpt><trkpt lat="43.5605404" lon="11.3810426"><ele>833.0</ele><time>2026-05-02T12:12:48.995Z</time></trkpt><trkpt lat="43.5605494" lon="11.3809456"><ele>835.5999999999999</ele><time>2026-05-02T12:12:51.995Z</time></trkpt><trkpt lat="43.5605518" lon="11.3808148"><ele>838.1999999999999</ele><time>2026-05-02T12:12:54.995Z</time></trkpt><trkpt lat="43.5605524" lon="11.3806962"><ele>840.8</ele><time>2026-05-02T12:12:57.995Z</time></trkpt><trkpt lat="43.560581" lon="11.3806114"><ele>843.4</ele><time>2026-05-02T12:13:05.995Z</time></trkpt><trkpt lat="43.5606564" lon="11.3806033"><ele>846.0</ele><time>2026-05-02T12:13:07.995Z</time></trkpt><trkpt lat="43.5607899" lon="11.3805585"><ele>847.4</ele><time>2026-05-02T12:13:09.995Z</time></trkpt><trkpt lat="43.5608745" lon="11.3805149"><ele>848.8</ele><time>2026-05-02T12:13:10.996Z</time></trkpt><trkpt lat="43.5609587" lon="11.3804761"><ele>850.1999999999999</ele><time>2026-05-02T12:13:11.996Z</time></trkpt><trkpt lat="43.5610534" lon="11.3804407"><ele>851.5999999999999</ele><time>2026-05-02T12:13:12.995Z</time></trkpt><trkpt lat="43.56114" lon="11.3804041"><ele>853.0</ele><time>2026-05-02T12:13:13.995Z</time></trkpt><trkpt lat="43.5612195" lon="11.380363"><ele>852.9999999999999</ele><time>2026-05-02T12:13:14.995Z</time></trkpt><trkpt lat="43.5613032" lon="11.3803045"><ele>853.0</ele><time>2026-05-02T12:13:15.995Z</time></trkpt><trkpt lat="43.5613731" lon="11.380243"><ele>853.0</ele><time>2026-05-02T12:13:16.995Z</time></trkpt><trkpt lat="43.5614313" lon="11.3801744"><ele>853.0</ele><time>2026-05-02T12:13:17.995Z</time></trkpt><trkpt lat="43.5614738" lon="11.3800985"><ele>852.9999999999999</ele><time>2026-05-02T12:13:18.995Z</time></trkpt><trkpt lat="43.5615143" lon="11.3800194"><ele>853.0</ele><time>2026-05-02T12:13:19.995Z</time></trkpt><trkpt lat="43.5615557" lon="11.379943"><ele>852.9999999999999</ele><time>2026-05-02T12:13:20.995Z</time></trkpt><trkpt lat="43.5616068" lon="11.3798639"><ele>853.0</ele><time>2026-05-02T12:13:21.995Z</time></trkpt><trkpt lat="43.5616627" lon="11.3797838"><ele>853.0</ele><time>2026-05-02T12:13:22.995Z</time></trkpt><trkpt lat="43.5617149" lon="11.3796982"><ele>853.0</ele><time>2026-05-02T12:13:23.995Z</time></trkpt><trkpt lat="43.5617658" lon="11.379609"><ele>852.9999999999999</ele><time>2026-05-02T12:13:24.995Z</time></trkpt><trkpt lat="43.5618243" lon="11.3795147"><ele>853.0</ele><time>2026-05-02T12:13:25.995Z</time></trkpt><trkpt lat="43.561882" lon="11.3794229"><ele>851.3333333333333</ele><time>2026-05-02T12:13:26.995Z</time></trkpt><trkpt lat="43.5619415" lon="11.3793292"><ele>849.6666666666666</ele><time>2026-05-02T12:13:27.995Z</time></trkpt><trkpt lat="43.5619944" lon="11.3792326"><ele>848.0</ele><time>2026-05-02T12:13:28.995Z</time></trkpt><trkpt lat="43.5620412" lon="11.3791276"><ele>846.3333333333333</ele><time>2026-05-02T12:13:29.995Z</time></trkpt><trkpt lat="43.5620833" lon="11.37902"><ele>844.6666666666666</ele><time>2026-05-02T12:13:30.995Z</time></trkpt><trkpt lat="43.5621238" lon="11.3789103"><ele>843.0</ele><time>2026-05-02T12:13:31.995Z</time></trkpt><trkpt lat="43.5621729" lon="11.3788118"><ele>843.0</ele><time>2026-05-02T12:13:32.995Z</time></trkpt><trkpt lat="43.5622207" lon="11.3787195"><ele>843.0</ele><time>2026-05-02T12:13:33.995Z</time></trkpt><trkpt lat="43.5622802" lon="11.3786278"><ele>843.0</ele><time>2026-05-02T12:13:34.995Z</time></trkpt><trkpt lat="43.562342" lon="11.3785436"><ele>843.0</ele><time>2026-05-02T12:13:35.995Z</time></trkpt><trkpt lat="43.5624036" lon="11.3784612"><ele>843.0</ele><time>2026-05-02T12:13:36.995Z</time></trkpt><trkpt lat="43.5624695" lon="11.3783859"><ele>843.0</ele><time>2026-05-02T12:13:37.996Z</time></trkpt><trkpt lat="43.5625496" lon="11.3783097"><ele>843.0</ele><time>2026-05-02T12:13:38.995Z</time></trkpt><trkpt lat="43.5626324" lon="11.3782525"><ele>843.0</ele><time>2026-05-02T12:13:39.995Z</time></trkpt><trkpt lat="43.5627132" lon="11.3782139"><ele>843.0</ele><time>2026-05-02T12:13:40.995Z</time></trkpt><trkpt lat="43.5628054" lon="11.3781681"><ele>843.0</ele><time>2026-05-02T12:13:41.995Z</time></trkpt><trkpt lat="43.5629012" lon="11.378125"><ele>843.0</ele><time>2026-05-02T12:13:42.995Z</time></trkpt><trkpt lat="43.5629882" lon="11.3780865"><ele>841.3333333333334</ele><time>2026-05-02T12:13:43.995Z</time></trkpt><trkpt lat="43.5630686" lon="11.3780526"><ele>839.6666666666667</ele><time>2026-05-02T12:13:44.995Z</time></trkpt><trkpt lat="43.5631469" lon="11.3780187"><ele>838.0</ele><time>2026-05-02T12:13:45.995Z</time></trkpt><trkpt lat="43.5632168" lon="11.3779759"><ele>836.3333333333334</ele><time>2026-05-02T12:13:46.995Z</time></trkpt><trkpt lat="43.5632949" lon="11.3779346"><ele>834.6666666666667</ele><time>2026-05-02T12:13:47.995Z</time></trkpt><trkpt lat="43.563373" lon="11.3778928"><ele>833.0</ele><time>2026-05-02T12:13:48.995Z</time></trkpt><trkpt lat="43.5634369" lon="11.3778638"><ele>832.3333333333334</ele><time>2026-05-02T12:13:49.995Z</time></trkpt><trkpt lat="43.5635129" lon="11.3778322"><ele>831.6666666666667</ele><time>2026-05-02T12:13:50.996Z</time></trkpt><trkpt lat="43.5635906" lon="11.3778109"><ele>831.0</ele><time>2026-05-02T12:13:51.995Z</time></trkpt><trkpt lat="43.5636666" lon="11.3777907"><ele>830.3333333333333</ele><time>2026-05-02T12:13:52.995Z</time></trkpt><trkpt lat="43.5637374" lon="11.3778113"><ele>829.6666666666666</ele><time>2026-05-02T12:13:53.995Z</time></trkpt><trkpt lat="43.5638062" lon="11.3778425"><ele>829.0</ele><time>2026-05-02T12:13:54.995Z</time></trkpt><trkpt lat="43.5638688" lon="11.3778861"><ele>828.1666666666666</ele><time>2026-05-02T12:13:55.995Z</time></trkpt><trkpt lat="43.5639131" lon="11.377949"><ele>827.3333333333333</ele><time>2026-05-02T12:13:56.995Z</time></trkpt><trkpt lat="43.5639424" lon="11.3781164"><ele>826.5</ele><time>2026-05-02T12:13:58.995Z</time></trkpt><trkpt lat="43.5639179" lon="11.3782173"><ele>825.6666666666667</ele><time>2026-05-02T12:13:59.995Z</time></trkpt><trkpt lat="43.5638831" lon="11.3783202"><ele>824.8333333333334</ele><time>2026-05-02T12:14:00.995Z</time></trkpt><trkpt lat="43.5638463" lon="11.378407"><ele>824.0</ele><time>2026-05-02T12:14:01.995Z</time></trkpt><trkpt lat="43.5638243" lon="11.3785024"><ele>823.7142857142857</ele><time>2026-05-02T12:14:02.995Z</time></trkpt><trkpt lat="43.5638303" lon="11.3785976"><ele>823.4285714285714</ele><time>2026-05-02T12:14:03.995Z</time></trkpt><trkpt lat="43.5638576" lon="11.378692"><ele>823.1428571428571</ele><time>2026-05-02T12:14:04.995Z</time></trkpt><trkpt lat="43.5638957" lon="11.3787757"><ele>822.8571428571429</ele><time>2026-05-02T12:14:05.995Z</time></trkpt><trkpt lat="43.5639514" lon="11.3788301"><ele>822.5714285714286</ele><time>2026-05-02T12:14:06.995Z</time></trkpt><trkpt lat="43.5640348" lon="11.3788471"><ele>822.2857142857142</ele><time>2026-05-02T12:14:07.995Z</time></trkpt><trkpt lat="43.5641131" lon="11.3788538"><ele>822.0</ele><time>2026-05-02T12:14:08.995Z</time></trkpt><trkpt lat="43.5642022" lon="11.3788438"><ele>822.0</ele><time>2026-05-02T12:14:09.995Z</time></trkpt><trkpt lat="43.5642932" lon="11.3788294"><ele>822.0</ele><time>2026-05-02T12:14:10.995Z</time></trkpt><trkpt lat="43.5643749" lon="11.3788162"><ele>822.0</ele><time>2026-05-02T12:14:11.995Z</time></trkpt><trkpt lat="43.5644695" lon="11.3787946"><ele>822.0</ele><time>2026-05-02T12:14:12.995Z</time></trkpt><trkpt lat="43.5645618" lon="11.378767"><ele>822.0</ele><time>2026-05-02T12:14:13.995Z</time></trkpt><trkpt lat="43.5646459" lon="11.3787262"><ele>819.5</ele><time>2026-05-02T12:14:14.995Z</time></trkpt><trkpt lat="43.564736" lon="11.3786812"><ele>817.0</ele><time>2026-05-02T12:14:15.995Z</time></trkpt><trkpt lat="43.5648212" lon="11.3786474"><ele>814.5</ele><time>2026-05-02T12:14:16.995Z</time></trkpt><trkpt lat="43.5649007" lon="11.3785935"><ele>812.0</ele><time>2026-05-02T12:14:17.995Z</time></trkpt><trkpt lat="43.5649766" lon="11.3785451"><ele>809.5</ele><time>2026-05-02T12:14:18.995Z</time></trkpt><trkpt lat="43.5650497" lon="11.3784812"><ele>807.0</ele><time>2026-05-02T12:14:19.995Z</time></trkpt><trkpt lat="43.5651136" lon="11.3784086"><ele>807.0</ele><time>2026-05-02T12:14:20.995Z</time></trkpt><trkpt lat="43.5651737" lon="11.3783358"><ele>807.0</ele><time>2026-05-02T12:14:21.995Z</time></trkpt><trkpt lat="43.5652364" lon="11.3782663"><ele>807.0</ele><time>2026-05-02T12:14:22.995Z</time></trkpt><trkpt lat="43.5653006" lon="11.378186"><ele>807.0</ele><time>2026-05-02T12:14:23.995Z</time></trkpt><trkpt lat="43.5653614" lon="11.3781003"><ele>807.0</ele><time>2026-05-02T12:14:24.995Z</time></trkpt><trkpt lat="43.5654229" lon="11.3780188"><ele>807.0</ele><time>2026-05-02T12:14:25.995Z</time></trkpt><trkpt lat="43.565488" lon="11.3779393"><ele>804.8333333333334</ele><time>2026-05-02T12:14:26.995Z</time></trkpt><trkpt lat="43.5655526" lon="11.3778712"><ele>802.6666666666667</ele><time>2026-05-02T12:14:27.995Z</time></trkpt><trkpt lat="43.5656232" lon="11.3778037"><ele>800.5</ele><time>2026-05-02T12:14:28.995Z</time></trkpt><trkpt lat="43.5656986" lon="11.3777384"><ele>798.3333333333334</ele><time>2026-05-02T12:14:29.995Z</time></trkpt><trkpt lat="43.5657858" lon="11.377694"><ele>796.1666666666667</ele><time>2026-05-02T12:14:30.995Z</time></trkpt><trkpt lat="43.5658756" lon="11.3776745"><ele>794.0</ele><time>2026-05-02T12:14:31.996Z</time></trkpt><trkpt lat="43.5659709" lon="11.3776869"><ele>794.0</ele><time>2026-05-02T12:14:32.995Z</time></trkpt><trkpt lat="43.5660601" lon="11.3777113"><ele>794.0</ele><time>2026-05-02T12:14:33.995Z</time></trkpt><trkpt lat="43.5661477" lon="11.3777466"><ele>794.0</ele><time>2026-05-02T12:14:34.995Z</time></trkpt><trkpt lat="43.5662312" lon="11.3777975"><ele>794.0</ele><time>2026-05-02T12:14:35.995Z</time></trkpt><trkpt lat="43.5663107" lon="11.3778529"><ele>794.0</ele><time>2026-05-02T12:14:36.995Z</time></trkpt><trkpt lat="43.5663939" lon="11.3779072"><ele>792.4000000000001</ele><time>2026-05-02T12:14:37.995Z</time></trkpt><trkpt lat="43.5664788" lon="11.3779583"><ele>790.8</ele><time>2026-05-02T12:14:38.996Z</time></trkpt><trkpt lat="43.5665691" lon="11.377999"><ele>789.2</ele><time>2026-05-02T12:14:39.995Z</time></trkpt><trkpt lat="43.5666667" lon="11.3780299"><ele>787.5999999999999</ele><time>2026-05-02T12:14:40.995Z</time></trkpt><trkpt lat="43.5667638" lon="11.3780636"><ele>786.0</ele><time>2026-05-02T12:14:41.995Z</time></trkpt><trkpt lat="43.5668558" lon="11.3780934"><ele>786.0</ele><time>2026-05-02T12:14:42.995Z</time></trkpt><trkpt lat="43.5669512" lon="11.3781242"><ele>786.0</ele><time>2026-05-02T12:14:43.995Z</time></trkpt><trkpt lat="43.5670468" lon="11.3781491"><ele>786.0</ele><time>2026-05-02T12:14:44.995Z</time></trkpt><trkpt lat="43.5671468" lon="11.3781772"><ele>786.0</ele><time>2026-05-02T12:14:45.995Z</time></trkpt><trkpt lat="43.5672433" lon="11.3782063"><ele>786.0</ele><time>2026-05-02T12:14:46.995Z</time></trkpt><trkpt lat="43.5673365" lon="11.3782184"><ele>784.3333333333334</ele><time>2026-05-02T12:14:47.995Z</time></trkpt><trkpt lat="43.5674241" lon="11.3782233"><ele>782.6666666666667</ele><time>2026-05-02T12:14:48.995Z</time></trkpt><trkpt lat="43.5675136" lon="11.3782276"><ele>781.0</ele><time>2026-05-02T12:14:49.995Z</time></trkpt><trkpt lat="43.5676037" lon="11.378211"><ele>779.3333333333334</ele><time>2026-05-02T12:14:50.995Z</time></trkpt><trkpt lat="43.5676855" lon="11.3781688"><ele>777.6666666666667</ele><time>2026-05-02T12:14:51.995Z</time></trkpt><trkpt lat="43.5677626" lon="11.3781047"><ele>776.0</ele><time>2026-05-02T12:14:52.995Z</time></trkpt><trkpt lat="43.5678356" lon="11.3780355"><ele>773.8</ele><time>2026-05-02T12:14:53.995Z</time></trkpt><trkpt lat="43.5679115" lon="11.3779611"><ele>771.5999999999999</ele><time>2026-05-02T12:14:54.995Z</time></trkpt><trkpt lat="43.5679808" lon="11.3778804"><ele>769.4</ele><time>2026-05-02T12:14:55.995Z</time></trkpt><trkpt lat="43.5680435" lon="11.3777817"><ele>767.2</ele><time>2026-05-02T12:14:56.995Z</time></trkpt><trkpt lat="43.5680853" lon="11.3776727"><ele>765.0</ele><time>2026-05-02T12:14:57.995Z</time></trkpt><trkpt lat="43.568104" lon="11.3775559"><ele>765.0</ele><time>2026-05-02T12:14:58.995Z</time></trkpt><trkpt lat="43.5681028" lon="11.3774369"><ele>765.0</ele><time>2026-05-02T12:14:59.995Z</time></trkpt><trkpt lat="43.5681138" lon="11.377316"><ele>765.0</ele><time>2026-05-02T12:15:00.995Z</time></trkpt><trkpt lat="43.568137" lon="11.3772219"><ele>765.0</ele><time>2026-05-02T12:15:01.995Z</time></trkpt><trkpt lat="43.5682336" lon="11.3771091"><ele>765.0</ele><time>2026-05-02T12:15:03.995Z</time></trkpt><trkpt lat="43.5683538" lon="11.3771706"><ele>765.0</ele><time>2026-05-02T12:15:05.995Z</time></trkpt><trkpt lat="43.5684132" lon="11.3772479"><ele>765.0</ele><time>2026-05-02T12:15:06.995Z</time></trkpt><trkpt lat="43.5684645" lon="11.3773337"><ele>765.0</ele><time>2026-05-02T12:15:07.995Z</time></trkpt><trkpt lat="43.5684938" lon="11.3774319"><ele>765.0</ele><time>2026-05-02T12:15:08.995Z</time></trkpt><trkpt lat="43.5685182" lon="11.3775289"><ele>765.0</ele><time>2026-05-02T12:15:09.995Z</time></trkpt><trkpt lat="43.5685464" lon="11.3776317"><ele>765.0</ele><time>2026-05-02T12:15:10.995Z</time></trkpt><trkpt lat="43.5685774" lon="11.3777342"><ele>765.0</ele><time>2026-05-02T12:15:11.996Z</time></trkpt><trkpt lat="43.5686069" lon="11.3778359"><ele>765.0</ele><time>2026-05-02T12:15:12.995Z</time></trkpt><trkpt lat="43.5686322" lon="11.3779399"><ele>765.0</ele><time>2026-05-02T12:15:13.995Z</time></trkpt><trkpt lat="43.5686509" lon="11.3780491"><ele>765.0</ele><time>2026-05-02T12:15:14.995Z</time></trkpt><trkpt lat="43.5686708" lon="11.3781454"><ele>765.0</ele><time>2026-05-02T12:15:15.995Z</time></trkpt><trkpt lat="43.5686998" lon="11.3782287"><ele>765.0</ele><time>2026-05-02T12:15:16.995Z</time></trkpt><trkpt lat="43.5687861" lon="11.3783342"><ele>762.5714285714287</ele><time>2026-05-02T12:15:18.995Z</time></trkpt><trkpt lat="43.568853" lon="11.3783477"><ele>760.1428571428571</ele><time>2026-05-02T12:15:19.995Z</time></trkpt><trkpt lat="43.5689201" lon="11.3783341"><ele>757.7142857142858</ele><time>2026-05-02T12:15:20.995Z</time></trkpt><trkpt lat="43.5689788" lon="11.3782932"><ele>755.2857142857143</ele><time>2026-05-02T12:15:21.995Z</time></trkpt><trkpt lat="43.5690344" lon="11.3782456"><ele>752.8571428571429</ele><time>2026-05-02T12:15:22.995Z</time></trkpt><trkpt lat="43.5690899" lon="11.378185"><ele>750.4285714285714</ele><time>2026-05-02T12:15:23.995Z</time></trkpt><trkpt lat="43.5691444" lon="11.3781253"><ele>748.0</ele><time>2026-05-02T12:15:24.995Z</time></trkpt><trkpt lat="43.5692123" lon="11.3780497"><ele>748.1428571428571</ele><time>2026-05-02T12:15:26.995Z</time></trkpt><trkpt lat="43.5692807" lon="11.377996"><ele>748.2857142857143</ele><time>2026-05-02T12:15:29.995Z</time></trkpt><trkpt lat="43.5693411" lon="11.3779487"><ele>748.4285714285714</ele><time>2026-05-02T12:15:33.995Z</time></trkpt><trkpt lat="43.5694188" lon="11.3779193"><ele>748.5714285714286</ele><time>2026-05-02T12:15:37.996Z</time></trkpt><trkpt lat="43.5693805" lon="11.378015"><ele>748.7142857142858</ele><time>2026-05-02T12:15:40.995Z</time></trkpt><trkpt lat="43.5693139" lon="11.3779606"><ele>748.8571428571429</ele><time>2026-05-02T12:15:42.996Z</time></trkpt><trkpt lat="43.5692531" lon="11.3779323"><ele>749.0</ele><time>2026-05-02T12:15:44.995Z</time></trkpt><trkpt lat="43.5691929" lon="11.3778548"><ele>749.0</ele><time>2026-05-02T12:15:47.995Z</time></trkpt><trkpt lat="43.5692557" lon="11.3778882"><ele>749.0</ele><time>2026-05-02T12:16:43.994Z</time></trkpt><trkpt lat="43.5693357" lon="11.3778911"><ele>749.0</ele><time>2026-05-02T12:16:46.994Z</time></trkpt><trkpt lat="43.5694838" lon="11.3778608"><ele>749.0</ele><time>2026-05-02T12:16:48.994Z</time></trkpt><trkpt lat="43.5695675" lon="11.3778094"><ele>749.0</ele><time>2026-05-02T12:16:49.994Z</time></trkpt><trkpt lat="43.5696607" lon="11.3777494"><ele>748.2</ele><time>2026-05-02T12:16:50.994Z</time></trkpt><trkpt lat="43.56974" lon="11.3776763"><ele>747.4000000000001</ele><time>2026-05-02T12:16:51.994Z</time></trkpt><trkpt lat="43.5698193" lon="11.3776121"><ele>746.6</ele><time>2026-05-02T12:16:52.994Z</time></trkpt><trkpt lat="43.5699049" lon="11.3775503"><ele>745.8</ele><time>2026-05-02T12:16:53.994Z</time></trkpt><trkpt lat="43.5699956" lon="11.3774957"><ele>745.0</ele><time>2026-05-02T12:16:54.994Z</time></trkpt><trkpt lat="43.5700935" lon="11.3774373"><ele>745.0</ele><time>2026-05-02T12:16:55.994Z</time></trkpt><trkpt lat="43.5701924" lon="11.3773712"><ele>745.0</ele><time>2026-05-02T12:16:56.994Z</time></trkpt><trkpt lat="43.5703017" lon="11.3773039"><ele>745.0</ele><time>2026-05-02T12:16:57.994Z</time></trkpt><trkpt lat="43.5704187" lon="11.3772324"><ele>745.0</ele><time>2026-05-02T12:16:58.994Z</time></trkpt><trkpt lat="43.5705389" lon="11.377163"><ele>745.8</ele><time>2026-05-02T12:16:59.994Z</time></trkpt><trkpt lat="43.5706534" lon="11.3771039"><ele>746.6</ele><time>2026-05-02T12:17:00.994Z</time></trkpt><trkpt lat="43.5707577" lon="11.3770489"><ele>747.4000000000001</ele><time>2026-05-02T12:17:01.994Z</time></trkpt><trkpt lat="43.5708585" lon="11.3770077"><ele>748.2</ele><time>2026-05-02T12:17:02.994Z</time></trkpt><trkpt lat="43.5709589" lon="11.3769785"><ele>749.0</ele><time>2026-05-02T12:17:03.994Z</time></trkpt><trkpt lat="43.5710628" lon="11.3769689"><ele>749.0</ele><time>2026-05-02T12:17:04.994Z</time></trkpt><trkpt lat="43.5711683" lon="11.3769558"><ele>749.0</ele><time>2026-05-02T12:17:05.994Z</time></trkpt><trkpt lat="43.5712781" lon="11.3769449"><ele>749.0</ele><time>2026-05-02T12:17:06.994Z</time></trkpt><trkpt lat="43.5713891" lon="11.3769207"><ele>749.0</ele><time>2026-05-02T12:17:07.994Z</time></trkpt><trkpt lat="43.5714999" lon="11.3768875"><ele>749.0</ele><time>2026-05-02T12:17:08.994Z</time></trkpt><trkpt lat="43.5716133" lon="11.3768361"><ele>748.75</ele><time>2026-05-02T12:17:09.994Z</time></trkpt><trkpt lat="43.5717298" lon="11.3767859"><ele>748.5</ele><time>2026-05-02T12:17:10.994Z</time></trkpt><trkpt lat="43.5718453" lon="11.3767033"><ele>748.25</ele><time>2026-05-02T12:17:11.994Z</time></trkpt><trkpt lat="43.5719549" lon="11.3766318"><ele>748.0</ele><time>2026-05-02T12:17:12.994Z</time></trkpt><trkpt lat="43.5720678" lon="11.3765688"><ele>748.0</ele><time>2026-05-02T12:17:13.994Z</time></trkpt><trkpt lat="43.5721858" lon="11.3765221"><ele>748.0</ele><time>2026-05-02T12:17:14.994Z</time></trkpt><trkpt lat="43.5723" lon="11.3764806"><ele>748.0</ele><time>2026-05-02T12:17:15.994Z</time></trkpt><trkpt lat="43.5724128" lon="11.3764439"><ele>748.0</ele><time>2026-05-02T12:17:16.994Z</time></trkpt><trkpt lat="43.5725289" lon="11.3763885"><ele>746.75</ele><time>2026-05-02T12:17:17.994Z</time></trkpt><trkpt lat="43.5726437" lon="11.3763318"><ele>745.5</ele><time>2026-05-02T12:17:18.994Z</time></trkpt><trkpt lat="43.5727595" lon="11.3762904"><ele>744.25</ele><time>2026-05-02T12:17:19.994Z</time></trkpt><trkpt lat="43.5728793" lon="11.3762507"><ele>743.0</ele><time>2026-05-02T12:17:20.994Z</time></trkpt><trkpt lat="43.5730002" lon="11.3762232"><ele>742.5</ele><time>2026-05-02T12:17:21.994Z</time></trkpt><trkpt lat="43.5731208" lon="11.3761936"><ele>742.0</ele><time>2026-05-02T12:17:22.994Z</time></trkpt><trkpt lat="43.5732348" lon="11.3761502"><ele>741.5</ele><time>2026-05-02T12:17:23.994Z</time></trkpt><trkpt lat="43.5733442" lon="11.3760727"><ele>741.0</ele><time>2026-05-02T12:17:24.994Z</time></trkpt><trkpt lat="43.5734436" lon="11.3759772"><ele>741.0</ele><time>2026-05-02T12:17:25.994Z</time></trkpt><trkpt lat="43.5735543" lon="11.3758864"><ele>741.0</ele><time>2026-05-02T12:17:26.994Z</time></trkpt><trkpt lat="43.5736713" lon="11.3758129"><ele>741.0</ele><time>2026-05-02T12:17:27.994Z</time></trkpt><trkpt lat="43.5737899" lon="11.3757551"><ele>741.0</ele><time>2026-05-02T12:17:28.994Z</time></trkpt><trkpt lat="43.5739048" lon="11.3756961"><ele>742.0</ele><time>2026-05-02T12:17:29.994Z</time></trkpt><trkpt lat="43.5740134" lon="11.3756446"><ele>743.0</ele><time>2026-05-02T12:17:30.994Z</time></trkpt><trkpt lat="43.5741151" lon="11.3755974"><ele>744.0</ele><time>2026-05-02T12:17:31.994Z</time></trkpt><trkpt lat="43.5742122" lon="11.3755355"><ele>745.0</ele><time>2026-05-02T12:17:32.994Z</time></trkpt><trkpt lat="43.5743041" lon="11.3754746"><ele>746.0</ele><time>2026-05-02T12:17:33.994Z</time></trkpt><trkpt lat="43.5743939" lon="11.3754148"><ele>743.5999999999999</ele><time>2026-05-02T12:17:34.994Z</time></trkpt><trkpt lat="43.5744757" lon="11.3753422"><ele>741.2</ele><time>2026-05-02T12:17:35.994Z</time></trkpt><trkpt lat="43.5745585" lon="11.3752568"><ele>738.8</ele><time>2026-05-02T12:17:36.994Z</time></trkpt><trkpt lat="43.5746375" lon="11.3751625"><ele>736.4000000000001</ele><time>2026-05-02T12:17:37.994Z</time></trkpt><trkpt lat="43.5747067" lon="11.3750609"><ele>734.0</ele><time>2026-05-02T12:17:38.994Z</time></trkpt><trkpt lat="43.5747852" lon="11.3749461"><ele>734.0</ele><time>2026-05-02T12:17:39.994Z</time></trkpt><trkpt lat="43.57486" lon="11.3748244"><ele>734.0</ele><time>2026-05-02T12:17:40.994Z</time></trkpt><trkpt lat="43.5749325" lon="11.3747071"><ele>734.0</ele><time>2026-05-02T12:17:41.994Z</time></trkpt><trkpt lat="43.5750067" lon="11.3745941"><ele>734.0</ele><time>2026-05-02T12:17:42.994Z</time></trkpt><trkpt lat="43.5750818" lon="11.3744927"><ele>734.0</ele><time>2026-05-02T12:17:43.994Z</time></trkpt><trkpt lat="43.5751557" lon="11.3743997"><ele>732.5</ele><time>2026-05-02T12:17:44.994Z</time></trkpt><trkpt lat="43.5752187" lon="11.3743102"><ele>731.0</ele><time>2026-05-02T12:17:45.994Z</time></trkpt><trkpt lat="43.5752715" lon="11.3742261"><ele>729.5</ele><time>2026-05-02T12:17:46.994Z</time></trkpt><trkpt lat="43.5753221" lon="11.3741543"><ele>728.0</ele><time>2026-05-02T12:17:47.994Z</time></trkpt><trkpt lat="43.5753674" lon="11.3740798"><ele>726.5</ele><time>2026-05-02T12:17:48.994Z</time></trkpt><trkpt lat="43.5754047" lon="11.374009"><ele>725.0</ele><time>2026-05-02T12:17:49.994Z</time></trkpt><trkpt lat="43.5754641" lon="11.3738787"><ele>724.6</ele><time>2026-05-02T12:17:51.994Z</time></trkpt><trkpt lat="43.5755284" lon="11.3737482"><ele>724.2</ele><time>2026-05-02T12:17:53.994Z</time></trkpt><trkpt lat="43.5755875" lon="11.3736289"><ele>723.8</ele><time>2026-05-02T12:17:55.994Z</time></trkpt><trkpt lat="43.5756502" lon="11.3735319"><ele>723.4</ele><time>2026-05-02T12:17:57.994Z</time></trkpt><trkpt lat="43.5757198" lon="11.373438"><ele>723.0</ele><time>2026-05-02T12:17:59.994Z</time></trkpt><trkpt lat="43.5758134" lon="11.3733175"><ele>723.0</ele><time>2026-05-02T12:18:01.994Z</time></trkpt><trkpt lat="43.5758699" lon="11.3732545"><ele>723.0</ele><time>2026-05-02T12:18:02.994Z</time></trkpt><trkpt lat="43.5759088" lon="11.3731781"><ele>723.0</ele><time>2026-05-02T12:18:03.994Z</time></trkpt><trkpt lat="43.5759254" lon="11.3730297"><ele>723.0</ele><time>2026-05-02T12:18:05.994Z</time></trkpt><trkpt lat="43.5758944" lon="11.3728957"><ele>723.0</ele><time>2026-05-02T12:18:07.994Z</time></trkpt><trkpt lat="43.5758545" lon="11.3727359"><ele>723.0</ele><time>2026-05-02T12:18:09.994Z</time></trkpt><trkpt lat="43.5758451" lon="11.3725812"><ele>723.0</ele><time>2026-05-02T12:18:11.994Z</time></trkpt><trkpt lat="43.5758561" lon="11.3726718"><ele>723.0</ele><time>2026-05-02T12:20:19.994Z</time></trkpt><trkpt lat="43.5758545" lon="11.3727629"><ele>723.0</ele><time>2026-05-02T12:20:31.995Z</time></trkpt><trkpt lat="43.5758838" lon="11.3728531"><ele>723.0</ele><time>2026-05-02T12:21:45.994Z</time></trkpt><trkpt lat="43.5759191" lon="11.3729625"><ele>723.0</ele><time>2026-05-02T12:21:52.994Z</time></trkpt><trkpt lat="43.5759454" lon="11.3730445"><ele>723.0</ele><time>2026-05-02T12:21:54.994Z</time></trkpt><trkpt lat="43.5759393" lon="11.3731391"><ele>723.0</ele><time>2026-05-02T12:21:56.994Z</time></trkpt><trkpt lat="43.5758911" lon="11.3732409"><ele>723.0</ele><time>2026-05-02T12:21:58.994Z</time></trkpt><trkpt lat="43.5758021" lon="11.3733501"><ele>723.0</ele><time>2026-05-02T12:22:00.994Z</time></trkpt><trkpt lat="43.5757541" lon="11.3734104"><ele>723.0</ele><time>2026-05-02T12:22:01.994Z</time></trkpt><trkpt lat="43.5756674" lon="11.3735313"><ele>723.0</ele><time>2026-05-02T12:22:03.994Z</time></trkpt><trkpt lat="43.5756213" lon="11.3735945"><ele>723.0</ele><time>2026-05-02T12:22:04.994Z</time></trkpt><trkpt lat="43.5755798" lon="11.3736643"><ele>723.0</ele><time>2026-05-02T12:22:05.994Z</time></trkpt><trkpt lat="43.5755166" lon="11.3738038"><ele>723.0</ele><time>2026-05-02T12:22:07.994Z</time></trkpt><trkpt lat="43.5754627" lon="11.3739493"><ele>723.0</ele><time>2026-05-02T12:22:09.994Z</time></trkpt><trkpt lat="43.5753848" lon="11.3740894"><ele>723.3333333333334</ele><time>2026-05-02T12:22:11.994Z</time></trkpt><trkpt lat="43.5753324" lon="11.3741525"><ele>723.6666666666666</ele><time>2026-05-02T12:22:12.994Z</time></trkpt><trkpt lat="43.5752755" lon="11.3742258"><ele>724.0</ele><time>2026-05-02T12:22:13.995Z</time></trkpt><trkpt lat="43.5752177" lon="11.3743094"><ele>724.3333333333333</ele><time>2026-05-02T12:22:14.994Z</time></trkpt><trkpt lat="43.5751514" lon="11.374404"><ele>724.6666666666666</ele><time>2026-05-02T12:22:15.994Z</time></trkpt><trkpt lat="43.5750832" lon="11.3744986"><ele>725.0</ele><time>2026-05-02T12:22:16.994Z</time></trkpt><trkpt lat="43.5750112" lon="11.3745941"><ele>726.8</ele><time>2026-05-02T12:22:17.994Z</time></trkpt><trkpt lat="43.574937" lon="11.3746979"><ele>728.6</ele><time>2026-05-02T12:22:18.994Z</time></trkpt><trkpt lat="43.5748625" lon="11.3748031"><ele>730.4000000000001</ele><time>2026-05-02T12:22:19.994Z</time></trkpt><trkpt lat="43.5747927" lon="11.3749071"><ele>732.2</ele><time>2026-05-02T12:22:20.994Z</time></trkpt><trkpt lat="43.5747343" lon="11.375001"><ele>734.0</ele><time>2026-05-02T12:22:21.994Z</time></trkpt><trkpt lat="43.5746808" lon="11.3750857"><ele>734.0</ele><time>2026-05-02T12:22:22.994Z</time></trkpt><trkpt lat="43.5746238" lon="11.3751701"><ele>734.0</ele><time>2026-05-02T12:22:23.994Z</time></trkpt><trkpt lat="43.5745606" lon="11.3752483"><ele>734.0</ele><time>2026-05-02T12:22:24.994Z</time></trkpt><trkpt lat="43.574499" lon="11.3753213"><ele>734.0</ele><time>2026-05-02T12:22:25.994Z</time></trkpt><trkpt lat="43.5744341" lon="11.3753834"><ele>734.0</ele><time>2026-05-02T12:22:26.994Z</time></trkpt><trkpt lat="43.5743788" lon="11.3754283"><ele>734.0</ele><time>2026-05-02T12:22:27.994Z</time></trkpt><trkpt lat="43.5742752" lon="11.3755022"><ele>736.4000000000001</ele><time>2026-05-02T12:22:29.994Z</time></trkpt><trkpt lat="43.5741748" lon="11.3755604"><ele>738.8</ele><time>2026-05-02T12:22:31.994Z</time></trkpt><trkpt lat="43.5740774" lon="11.3756114"><ele>741.2</ele><time>2026-05-02T12:22:33.995Z</time></trkpt><trkpt lat="43.5740121" lon="11.3756488"><ele>743.5999999999999</ele><time>2026-05-02T12:22:34.994Z</time></trkpt><trkpt lat="43.5739311" lon="11.3756883"><ele>746.0</ele><time>2026-05-02T12:22:35.994Z</time></trkpt><trkpt lat="43.5738414" lon="11.3757317"><ele>746.0</ele><time>2026-05-02T12:22:36.994Z</time></trkpt><trkpt lat="43.5737493" lon="11.3757859"><ele>746.0</ele><time>2026-05-02T12:22:37.994Z</time></trkpt><trkpt lat="43.5736588" lon="11.375842"><ele>746.0</ele><time>2026-05-02T12:22:38.994Z</time></trkpt><trkpt lat="43.5735548" lon="11.3759077"><ele>746.0</ele><time>2026-05-02T12:22:39.994Z</time></trkpt><trkpt lat="43.5734525" lon="11.3759885"><ele>746.0</ele><time>2026-05-02T12:22:40.994Z</time></trkpt><trkpt lat="43.5733448" lon="11.3760715"><ele>745.25</ele><time>2026-05-02T12:22:41.994Z</time></trkpt><trkpt lat="43.5732353" lon="11.3761449"><ele>744.5</ele><time>2026-05-02T12:22:42.994Z</time></trkpt><trkpt lat="43.5731179" lon="11.3762"><ele>743.75</ele><time>2026-05-02T12:22:43.994Z</time></trkpt><trkpt lat="43.5729882" lon="11.3762334"><ele>743.0</ele><time>2026-05-02T12:22:44.994Z</time></trkpt><trkpt lat="43.5728553" lon="11.3762579"><ele>743.0</ele><time>2026-05-02T12:22:45.994Z</time></trkpt><trkpt lat="43.5727212" lon="11.3763011"><ele>743.0</ele><time>2026-05-02T12:22:46.994Z</time></trkpt><trkpt lat="43.5725899" lon="11.3763548"><ele>743.0</ele><time>2026-05-02T12:22:47.994Z</time></trkpt><trkpt lat="43.5724666" lon="11.3764196"><ele>743.0</ele><time>2026-05-02T12:22:48.994Z</time></trkpt><trkpt lat="43.5723442" lon="11.3764814"><ele>744.25</ele><time>2026-05-02T12:22:49.994Z</time></trkpt><trkpt lat="43.5722216" lon="11.3765258"><ele>745.5</ele><time>2026-05-02T12:22:50.994Z</time></trkpt><trkpt lat="43.572098" lon="11.3765688"><ele>746.75</ele><time>2026-05-02T12:22:51.995Z</time></trkpt><trkpt lat="43.5719738" lon="11.3766221"><ele>748.0</ele><time>2026-05-02T12:22:52.995Z</time></trkpt><trkpt lat="43.5718493" lon="11.3766854"><ele>748.75</ele><time>2026-05-02T12:22:53.994Z</time></trkpt><trkpt lat="43.5717227" lon="11.376751"><ele>749.5</ele><time>2026-05-02T12:22:54.994Z</time></trkpt><trkpt lat="43.5715915" lon="11.3768117"><ele>750.25</ele><time>2026-05-02T12:22:55.994Z</time></trkpt><trkpt lat="43.5714604" lon="11.3768661"><ele>751.0</ele><time>2026-05-02T12:22:56.994Z</time></trkpt><trkpt lat="43.5713242" lon="11.3769058"><ele>751.0</ele><time>2026-05-02T12:22:57.994Z</time></trkpt><trkpt lat="43.5711971" lon="11.3769374"><ele>751.0</ele><time>2026-05-02T12:22:58.994Z</time></trkpt><trkpt lat="43.571075" lon="11.3769578"><ele>751.0</ele><time>2026-05-02T12:22:59.994Z</time></trkpt><trkpt lat="43.5709573" lon="11.3769807"><ele>751.0</ele><time>2026-05-02T12:23:00.994Z</time></trkpt><trkpt lat="43.5708356" lon="11.3770207"><ele>750.5</ele><time>2026-05-02T12:23:01.994Z</time></trkpt><trkpt lat="43.5707095" lon="11.3770821"><ele>750.0</ele><time>2026-05-02T12:23:02.994Z</time></trkpt><trkpt lat="43.5705865" lon="11.3771601"><ele>749.5</ele><time>2026-05-02T12:23:03.994Z</time></trkpt><trkpt lat="43.5704568" lon="11.3772416"><ele>749.0</ele><time>2026-05-02T12:23:04.994Z</time></trkpt><trkpt lat="43.5703305" lon="11.3773235"><ele>748.0</ele><time>2026-05-02T12:23:05.994Z</time></trkpt><trkpt lat="43.570199" lon="11.3774059"><ele>747.0</ele><time>2026-05-02T12:23:06.994Z</time></trkpt><trkpt lat="43.5700757" lon="11.3774811"><ele>746.0</ele><time>2026-05-02T12:23:07.994Z</time></trkpt><trkpt lat="43.5699576" lon="11.3775481"><ele>745.0</ele><time>2026-05-02T12:23:08.994Z</time></trkpt><trkpt lat="43.5698409" lon="11.3776179"><ele>745.0</ele><time>2026-05-02T12:23:09.994Z</time></trkpt><trkpt lat="43.569724" lon="11.377698"><ele>745.0</ele><time>2026-05-02T12:23:10.994Z</time></trkpt><trkpt lat="43.5696133" lon="11.3777918"><ele>745.0</ele><time>2026-05-02T12:23:11.994Z</time></trkpt><trkpt lat="43.569509" lon="11.3778943"><ele>745.0</ele><time>2026-05-02T12:23:12.994Z</time></trkpt><trkpt lat="43.56942" lon="11.3780003"><ele>745.75</ele><time>2026-05-02T12:23:13.994Z</time></trkpt><trkpt lat="43.5693406" lon="11.3781088"><ele>746.5</ele><time>2026-05-02T12:23:14.994Z</time></trkpt><trkpt lat="43.5692668" lon="11.3782232"><ele>747.25</ele><time>2026-05-02T12:23:15.994Z</time></trkpt><trkpt lat="43.569188" lon="11.3783315"><ele>748.0</ele><time>2026-05-02T12:23:16.994Z</time></trkpt><trkpt lat="43.5691043" lon="11.3784439"><ele>748.0</ele><time>2026-05-02T12:23:17.994Z</time></trkpt><trkpt lat="43.5690152" lon="11.3785499"><ele>748.0</ele><time>2026-05-02T12:23:18.994Z</time></trkpt><trkpt lat="43.5689229" lon="11.3786633"><ele>748.0</ele><time>2026-05-02T12:23:19.994Z</time></trkpt><trkpt lat="43.5688296" lon="11.378785"><ele>748.0</ele><time>2026-05-02T12:23:20.994Z</time></trkpt><trkpt lat="43.5687347" lon="11.378906"><ele>748.25</ele><time>2026-05-02T12:23:21.995Z</time></trkpt><trkpt lat="43.5686379" lon="11.3790177"><ele>748.5</ele><time>2026-05-02T12:23:22.995Z</time></trkpt><trkpt lat="43.5685431" lon="11.3791211"><ele>748.75</ele><time>2026-05-02T12:23:23.995Z</time></trkpt><trkpt lat="43.5684485" lon="11.3792214"><ele>749.0</ele><time>2026-05-02T12:23:24.994Z</time></trkpt><trkpt lat="43.5683611" lon="11.3793069"><ele>749.0</ele><time>2026-05-02T12:23:25.994Z</time></trkpt><trkpt lat="43.5682639" lon="11.379388"><ele>749.0</ele><time>2026-05-02T12:23:26.994Z</time></trkpt><trkpt lat="43.5681858" lon="11.3794877"><ele>749.0</ele><time>2026-05-02T12:23:27.994Z</time></trkpt><trkpt lat="43.5681352" lon="11.3796343"><ele>749.0</ele><time>2026-05-02T12:23:28.994Z</time></trkpt><trkpt lat="43.568113" lon="11.3797954"><ele>748.2</ele><time>2026-05-02T12:23:29.994Z</time></trkpt><trkpt lat="43.5680694" lon="11.3799353"><ele>747.4000000000001</ele><time>2026-05-02T12:23:30.995Z</time></trkpt><trkpt lat="43.567995" lon="11.3800606"><ele>746.6</ele><time>2026-05-02T12:23:31.994Z</time></trkpt><trkpt lat="43.5679135" lon="11.3801595"><ele>745.8</ele><time>2026-05-02T12:23:32.994Z</time></trkpt><trkpt lat="43.5678275" lon="11.3802112"><ele>745.0</ele><time>2026-05-02T12:23:33.994Z</time></trkpt><trkpt lat="43.5677228" lon="11.3802362"><ele>745.0</ele><time>2026-05-02T12:23:34.994Z</time></trkpt><trkpt lat="43.5676192" lon="11.3802566"><ele>745.0</ele><time>2026-05-02T12:23:35.994Z</time></trkpt><trkpt lat="43.5675175" lon="11.3803152"><ele>745.0</ele><time>2026-05-02T12:23:36.994Z</time></trkpt><trkpt lat="43.5674107" lon="11.3803917"><ele>745.0</ele><time>2026-05-02T12:23:37.994Z</time></trkpt><trkpt lat="43.5673055" lon="11.3804771"><ele>742.8</ele><time>2026-05-02T12:23:38.994Z</time></trkpt><trkpt lat="43.567213" lon="11.3805609"><ele>740.6</ele><time>2026-05-02T12:23:39.994Z</time></trkpt><trkpt lat="43.5671198" lon="11.3806384"><ele>738.4000000000001</ele><time>2026-05-02T12:23:40.994Z</time></trkpt><trkpt lat="43.5670264" lon="11.3807091"><ele>736.2</ele><time>2026-05-02T12:23:41.994Z</time></trkpt><trkpt lat="43.566934" lon="11.3807892"><ele>734.0</ele><time>2026-05-02T12:23:42.994Z</time></trkpt><trkpt lat="43.5668418" lon="11.380877"><ele>734.0</ele><time>2026-05-02T12:23:43.994Z</time></trkpt><trkpt lat="43.5667531" lon="11.380955"><ele>734.0</ele><time>2026-05-02T12:23:44.994Z</time></trkpt><trkpt lat="43.5666574" lon="11.3810107"><ele>734.0</ele><time>2026-05-02T12:23:45.995Z</time></trkpt><trkpt lat="43.5665614" lon="11.381034"><ele>734.0</ele><time>2026-05-02T12:23:46.994Z</time></trkpt><trkpt lat="43.566464" lon="11.3810471"><ele>734.0</ele><time>2026-05-02T12:23:47.994Z</time></trkpt><trkpt lat="43.5663699" lon="11.3810664"><ele>734.0</ele><time>2026-05-02T12:23:48.994Z</time></trkpt><trkpt lat="43.5662773" lon="11.3811098"><ele>734.0</ele><time>2026-05-02T12:23:49.994Z</time></trkpt><trkpt lat="43.5661769" lon="11.381183"><ele>734.0</ele><time>2026-05-02T12:23:50.994Z</time></trkpt><trkpt lat="43.5660787" lon="11.381272"><ele>734.0</ele><time>2026-05-02T12:23:51.994Z</time></trkpt><trkpt lat="43.5659884" lon="11.3813605"><ele>734.0</ele><time>2026-05-02T12:23:52.994Z</time></trkpt><trkpt lat="43.5658982" lon="11.38145"><ele>732.6</ele><time>2026-05-02T12:23:53.994Z</time></trkpt><trkpt lat="43.5658125" lon="11.3815349"><ele>731.2</ele><time>2026-05-02T12:23:54.994Z</time></trkpt><trkpt lat="43.5657311" lon="11.3816181"><ele>729.8000000000001</ele><time>2026-05-02T12:23:55.994Z</time></trkpt><trkpt lat="43.565646" lon="11.3816924"><ele>728.4000000000001</ele><time>2026-05-02T12:23:56.994Z</time></trkpt><trkpt lat="43.5655581" lon="11.3817539"><ele>727.0</ele><time>2026-05-02T12:23:57.994Z</time></trkpt><trkpt lat="43.5654656" lon="11.3818109"><ele>727.0</ele><time>2026-05-02T12:23:58.994Z</time></trkpt><trkpt lat="43.5653771" lon="11.381866"><ele>727.0</ele><time>2026-05-02T12:23:59.994Z</time></trkpt><trkpt lat="43.5652949" lon="11.3819208"><ele>727.0</ele><time>2026-05-02T12:24:00.995Z</time></trkpt><trkpt lat="43.5652141" lon="11.3819861"><ele>727.0</ele><time>2026-05-02T12:24:01.994Z</time></trkpt><trkpt lat="43.5651418" lon="11.3820679"><ele>727.0</ele><time>2026-05-02T12:24:02.995Z</time></trkpt><trkpt lat="43.5650913" lon="11.3821647"><ele>725.3333333333334</ele><time>2026-05-02T12:24:03.994Z</time></trkpt><trkpt lat="43.5650467" lon="11.3822628"><ele>723.6666666666667</ele><time>2026-05-02T12:24:04.994Z</time></trkpt><trkpt lat="43.5650113" lon="11.3823511"><ele>722.0</ele><time>2026-05-02T12:24:05.994Z</time></trkpt><trkpt lat="43.5649498" lon="11.3824756"><ele>720.3333333333334</ele><time>2026-05-02T12:24:07.994Z</time></trkpt><trkpt lat="43.5648814" lon="11.3825392"><ele>718.6666666666666</ele><time>2026-05-02T12:24:11.994Z</time></trkpt><trkpt lat="43.5648168" lon="11.3825652"><ele>717.0</ele><time>2026-05-02T12:24:15.994Z</time></trkpt><trkpt lat="43.5647464" lon="11.3825024"><ele>717.0</ele><time>2026-05-02T12:31:45.994Z</time></trkpt><trkpt lat="43.5646814" lon="11.3824999"><ele>717.0</ele><time>2026-05-02T12:31:47.994Z</time></trkpt><trkpt lat="43.5645816" lon="11.382523"><ele>717.0</ele><time>2026-05-02T12:31:50.994Z</time></trkpt><trkpt lat="43.5644769" lon="11.3825352"><ele>717.0</ele><time>2026-05-02T12:31:52.994Z</time></trkpt><trkpt lat="43.5644084" lon="11.3825497"><ele>717.0</ele><time>2026-05-02T12:31:53.994Z</time></trkpt><trkpt lat="43.5643434" lon="11.3825684"><ele>717.0</ele><time>2026-05-02T12:31:54.994Z</time></trkpt><trkpt lat="43.5642798" lon="11.382603"><ele>716.0</ele><time>2026-05-02T12:31:55.994Z</time></trkpt><trkpt lat="43.5642062" lon="11.3827191"><ele>715.0</ele><time>2026-05-02T12:31:57.994Z</time></trkpt><trkpt lat="43.5642294" lon="11.3828584"><ele>714.0</ele><time>2026-05-02T12:31:59.994Z</time></trkpt><trkpt lat="43.5642641" lon="11.3830237"><ele>713.0</ele><time>2026-05-02T12:32:01.994Z</time></trkpt><trkpt lat="43.5642666" lon="11.3831179"><ele>712.0</ele><time>2026-05-02T12:32:02.994Z</time></trkpt><trkpt lat="43.56425" lon="11.3833053"><ele>712.0</ele><time>2026-05-02T12:32:04.994Z</time></trkpt><trkpt lat="43.5642373" lon="11.3834081"><ele>712.0</ele><time>2026-05-02T12:32:05.994Z</time></trkpt><trkpt lat="43.5642234" lon="11.3835144"><ele>712.0</ele><time>2026-05-02T12:32:06.994Z</time></trkpt><trkpt lat="43.5641942" lon="11.383625"><ele>712.0</ele><time>2026-05-02T12:32:07.995Z</time></trkpt><trkpt lat="43.5641431" lon="11.3837359"><ele>712.0</ele><time>2026-05-02T12:32:08.994Z</time></trkpt><trkpt lat="43.5640843" lon="11.3838574"><ele>712.0</ele><time>2026-05-02T12:32:09.994Z</time></trkpt><trkpt lat="43.5640281" lon="11.3839752"><ele>709.4000000000001</ele><time>2026-05-02T12:32:10.994Z</time></trkpt><trkpt lat="43.5639732" lon="11.3840852"><ele>706.8000000000001</ele><time>2026-05-02T12:32:11.994Z</time></trkpt><trkpt lat="43.563918" lon="11.3841808"><ele>704.2</ele><time>2026-05-02T12:32:12.994Z</time></trkpt><trkpt lat="43.5638599" lon="11.3842757"><ele>701.6</ele><time>2026-05-02T12:32:13.994Z</time></trkpt><trkpt lat="43.5637969" lon="11.3843665"><ele>699.0</ele><time>2026-05-02T12:32:14.994Z</time></trkpt><trkpt lat="43.5637306" lon="11.3844446"><ele>699.8000000000001</ele><time>2026-05-02T12:32:15.994Z</time></trkpt><trkpt lat="43.5636583" lon="11.3845136"><ele>700.6</ele><time>2026-05-02T12:32:16.994Z</time></trkpt><trkpt lat="43.5635799" lon="11.3845843"><ele>701.4</ele><time>2026-05-02T12:32:17.994Z</time></trkpt><trkpt lat="43.5635034" lon="11.3846609"><ele>702.2</ele><time>2026-05-02T12:32:18.994Z</time></trkpt><trkpt lat="43.5634292" lon="11.3847392"><ele>703.0</ele><time>2026-05-02T12:32:19.994Z</time></trkpt><trkpt lat="43.5633574" lon="11.3848167"><ele>703.0</ele><time>2026-05-02T12:32:20.994Z</time></trkpt><trkpt lat="43.563281" lon="11.3848791"><ele>703.0</ele><time>2026-05-02T12:32:21.995Z</time></trkpt><trkpt lat="43.5632072" lon="11.3849383"><ele>703.0</ele><time>2026-05-02T12:32:22.994Z</time></trkpt><trkpt lat="43.5631322" lon="11.3849964"><ele>703.0</ele><time>2026-05-02T12:32:23.994Z</time></trkpt><trkpt lat="43.5630607" lon="11.3850428"><ele>703.0</ele><time>2026-05-02T12:32:24.995Z</time></trkpt><trkpt lat="43.5629982" lon="11.3850856"><ele>703.0</ele><time>2026-05-02T12:32:25.994Z</time></trkpt><trkpt lat="43.5629216" lon="11.3851655"><ele>703.0</ele><time>2026-05-02T12:32:27.994Z</time></trkpt><trkpt lat="43.5628808" lon="11.3852513"><ele>703.0</ele><time>2026-05-02T12:32:30.994Z</time></trkpt><trkpt lat="43.5629579" lon="11.3852282"><ele>703.0</ele><time>2026-05-02T12:32:33.994Z</time></trkpt><trkpt lat="43.5630823" lon="11.3851624"><ele>703.0</ele><time>2026-05-02T12:32:35.994Z</time></trkpt><trkpt lat="43.5631571" lon="11.3851213"><ele>703.0</ele><time>2026-05-02T12:32:36.994Z</time></trkpt><trkpt lat="43.5632426" lon="11.3850544"><ele>703.0</ele><time>2026-05-02T12:32:37.994Z</time></trkpt><trkpt lat="43.5633354" lon="11.3849937"><ele>703.0</ele><time>2026-05-02T12:32:38.994Z</time></trkpt><trkpt lat="43.5634521" lon="11.3849456"><ele>703.0</ele><time>2026-05-02T12:32:39.994Z</time></trkpt><trkpt lat="43.5635566" lon="11.3848877"><ele>703.0</ele><time>2026-05-02T12:32:40.994Z</time></trkpt><trkpt lat="43.5636713" lon="11.3848302"><ele>702.0</ele><time>2026-05-02T12:32:41.994Z</time></trkpt><trkpt lat="43.5637941" lon="11.3847554"><ele>701.0</ele><time>2026-05-02T12:32:42.994Z</time></trkpt><trkpt lat="43.5639235" lon="11.3846906"><ele>700.0</ele><time>2026-05-02T12:32:43.995Z</time></trkpt><trkpt lat="43.5640584" lon="11.3846386"><ele>699.0</ele><time>2026-05-02T12:32:44.994Z</time></trkpt><trkpt lat="43.5641922" lon="11.3845927"><ele>699.0</ele><time>2026-05-02T12:32:45.995Z</time></trkpt><trkpt lat="43.5643275" lon="11.3845603"><ele>699.0</ele><time>2026-05-02T12:32:46.994Z</time></trkpt><trkpt lat="43.564464" lon="11.3845187"><ele>699.0</ele><time>2026-05-02T12:32:47.994Z</time></trkpt><trkpt lat="43.5645891" lon="11.3844293"><ele>699.0</ele><time>2026-05-02T12:32:48.994Z</time></trkpt><trkpt lat="43.5646811" lon="11.384299"><ele>693.25</ele><time>2026-05-02T12:32:49.994Z</time></trkpt><trkpt lat="43.5647586" lon="11.3841602"><ele>687.5</ele><time>2026-05-02T12:32:50.994Z</time></trkpt><trkpt lat="43.564844" lon="11.38403"><ele>681.75</ele><time>2026-05-02T12:32:51.994Z</time></trkpt><trkpt lat="43.5649503" lon="11.3839638"><ele>676.0</ele><time>2026-05-02T12:32:52.994Z</time></trkpt><trkpt lat="43.5650699" lon="11.3839153"><ele>676.0</ele><time>2026-05-02T12:32:53.994Z</time></trkpt><trkpt lat="43.5652076" lon="11.383871"><ele>676.0</ele><time>2026-05-02T12:32:54.994Z</time></trkpt><trkpt lat="43.5653544" lon="11.3838556"><ele>676.0</ele><time>2026-05-02T12:32:55.994Z</time></trkpt><trkpt lat="43.5654882" lon="11.3838415"><ele>676.0</ele><time>2026-05-02T12:32:56.994Z</time></trkpt><trkpt lat="43.5656306" lon="11.3838115"><ele>676.75</ele><time>2026-05-02T12:32:57.994Z</time></trkpt><trkpt lat="43.5657726" lon="11.383774"><ele>677.5</ele><time>2026-05-02T12:32:58.994Z</time></trkpt><trkpt lat="43.5659152" lon="11.3837355"><ele>678.25</ele><time>2026-05-02T12:32:59.994Z</time></trkpt><trkpt lat="43.5660498" lon="11.3837071"><ele>679.0</ele><time>2026-05-02T12:33:00.994Z</time></trkpt><trkpt lat="43.5661846" lon="11.3836969"><ele>676.25</ele><time>2026-05-02T12:33:01.994Z</time></trkpt><trkpt lat="43.5663264" lon="11.3836968"><ele>673.5</ele><time>2026-05-02T12:33:02.994Z</time></trkpt><trkpt lat="43.5664636" lon="11.3837035"><ele>670.75</ele><time>2026-05-02T12:33:03.994Z</time></trkpt><trkpt lat="43.5665931" lon="11.3837122"><ele>668.0</ele><time>2026-05-02T12:33:04.994Z</time></trkpt><trkpt lat="43.5667274" lon="11.3837213"><ele>668.0</ele><time>2026-05-02T12:33:05.994Z</time></trkpt><trkpt lat="43.5668648" lon="11.3837215"><ele>668.0</ele><time>2026-05-02T12:33:06.994Z</time></trkpt><trkpt lat="43.5670007" lon="11.3837074"><ele>668.0</ele><time>2026-05-02T12:33:07.994Z</time></trkpt><trkpt lat="43.5671341" lon="11.3836949"><ele>668.0</ele><time>2026-05-02T12:33:08.994Z</time></trkpt><trkpt lat="43.5672562" lon="11.3836738"><ele>664.75</ele><time>2026-05-02T12:33:09.994Z</time></trkpt><trkpt lat="43.5673797" lon="11.3836485"><ele>661.5</ele><time>2026-05-02T12:33:10.994Z</time></trkpt><trkpt lat="43.5674934" lon="11.3836168"><ele>658.25</ele><time>2026-05-02T12:33:11.994Z</time></trkpt><trkpt lat="43.5676039" lon="11.3835769"><ele>655.0</ele><time>2026-05-02T12:33:12.994Z</time></trkpt><trkpt lat="43.5677128" lon="11.3835383"><ele>655.0</ele><time>2026-05-02T12:33:13.994Z</time></trkpt><trkpt lat="43.5678165" lon="11.3834882"><ele>655.0</ele><time>2026-05-02T12:33:14.994Z</time></trkpt><trkpt lat="43.5679304" lon="11.3834396"><ele>655.0</ele><time>2026-05-02T12:33:15.994Z</time></trkpt><trkpt lat="43.5680533" lon="11.383399"><ele>655.0</ele><time>2026-05-02T12:33:16.994Z</time></trkpt><trkpt lat="43.5681668" lon="11.3833547"><ele>652.4</ele><time>2026-05-02T12:33:17.994Z</time></trkpt><trkpt lat="43.5682774" lon="11.3833116"><ele>649.8</ele><time>2026-05-02T12:33:18.994Z</time></trkpt><trkpt lat="43.568382" lon="11.3832756"><ele>647.2</ele><time>2026-05-02T12:33:19.994Z</time></trkpt><trkpt lat="43.5684806" lon="11.3832371"><ele>644.6</ele><time>2026-05-02T12:33:20.994Z</time></trkpt><trkpt lat="43.568566" lon="11.3832073"><ele>642.0</ele><time>2026-05-02T12:33:21.994Z</time></trkpt><trkpt lat="43.5686298" lon="11.3831844"><ele>642.0</ele><time>2026-05-02T12:33:22.994Z</time></trkpt><trkpt lat="43.5687307" lon="11.3831691"><ele>642.0</ele><time>2026-05-02T12:33:24.994Z</time></trkpt><trkpt lat="43.5688033" lon="11.3831806"><ele>642.0</ele><time>2026-05-02T12:33:27.994Z</time></trkpt><trkpt lat="43.5688035" lon="11.3830931"><ele>642.0</ele><time>2026-05-02T12:33:31.994Z</time></trkpt><trkpt lat="43.5687192" lon="11.3830869"><ele>642.0</ele><time>2026-05-02T12:33:33.994Z</time></trkpt><trkpt lat="43.5686149" lon="11.3831091"><ele>642.0</ele><time>2026-05-02T12:33:35.994Z</time></trkpt><trkpt lat="43.5685502" lon="11.3831423"><ele>642.0</ele><time>2026-05-02T12:33:36.994Z</time></trkpt><trkpt lat="43.5684671" lon="11.3831716"><ele>642.0</ele><time>2026-05-02T12:33:37.994Z</time></trkpt><trkpt lat="43.5683814" lon="11.3832003"><ele>642.0</ele><time>2026-05-02T12:33:38.994Z</time></trkpt><trkpt lat="43.5682896" lon="11.3832392"><ele>642.0</ele><time>2026-05-02T12:33:39.994Z</time></trkpt><trkpt lat="43.5681853" lon="11.3832842"><ele>642.0</ele><time>2026-05-02T12:33:40.994Z</time></trkpt><trkpt lat="43.5680828" lon="11.3833376"><ele>642.0</ele><time>2026-05-02T12:33:41.994Z</time></trkpt><trkpt lat="43.5679855" lon="11.3833876"><ele>642.0</ele><time>2026-05-02T12:33:42.994Z</time></trkpt><trkpt lat="43.5678619" lon="11.3834288"><ele>642.0</ele><time>2026-05-02T12:33:43.994Z</time></trkpt><trkpt lat="43.5677315" lon="11.3834915"><ele>642.0</ele><time>2026-05-02T12:33:44.994Z</time></trkpt><trkpt lat="43.5675852" lon="11.3835433"><ele>646.3333333333334</ele><time>2026-05-02T12:33:45.994Z</time></trkpt><trkpt lat="43.5674318" lon="11.3835893"><ele>650.6666666666667</ele><time>2026-05-02T12:33:46.994Z</time></trkpt><trkpt lat="43.5672753" lon="11.3836258"><ele>655.0</ele><time>2026-05-02T12:33:47.994Z</time></trkpt><trkpt lat="43.5671253" lon="11.3836527"><ele>659.3333333333334</ele><time>2026-05-02T12:33:48.994Z</time></trkpt><trkpt lat="43.5669719" lon="11.3836683"><ele>663.6666666666666</ele><time>2026-05-02T12:33:49.994Z</time></trkpt><trkpt lat="43.5668111" lon="11.3836757"><ele>668.0</ele><time>2026-05-02T12:33:50.994Z</time></trkpt><trkpt lat="43.5666485" lon="11.3836767"><ele>668.0</ele><time>2026-05-02T12:33:51.994Z</time></trkpt><trkpt lat="43.5664848" lon="11.3836639"><ele>668.0</ele><time>2026-05-02T12:33:52.994Z</time></trkpt><trkpt lat="43.566317" lon="11.3836504"><ele>668.0</ele><time>2026-05-02T12:33:53.994Z</time></trkpt><trkpt lat="43.5661556" lon="11.3836483"><ele>671.6666666666666</ele><time>2026-05-02T12:33:54.994Z</time></trkpt><trkpt lat="43.5659918" lon="11.3836721"><ele>675.3333333333334</ele><time>2026-05-02T12:33:55.994Z</time></trkpt><trkpt lat="43.5658311" lon="11.3837151"><ele>679.0</ele><time>2026-05-02T12:33:56.994Z</time></trkpt><trkpt lat="43.5656679" lon="11.3837779"><ele>679.0</ele><time>2026-05-02T12:33:57.994Z</time></trkpt><trkpt lat="43.5655053" lon="11.3838314"><ele>679.0</ele><time>2026-05-02T12:33:58.994Z</time></trkpt><trkpt lat="43.5653475" lon="11.3838695"><ele>679.0</ele><time>2026-05-02T12:33:59.994Z</time></trkpt><trkpt lat="43.5651995" lon="11.3838792"><ele>678.25</ele><time>2026-05-02T12:34:00.994Z</time></trkpt><trkpt lat="43.5650566" lon="11.3838793"><ele>677.5</ele><time>2026-05-02T12:34:01.994Z</time></trkpt><trkpt lat="43.564928" lon="11.3839006"><ele>676.75</ele><time>2026-05-02T12:34:02.994Z</time></trkpt><trkpt lat="43.5648028" lon="11.3839545"><ele>676.0</ele><time>2026-05-02T12:34:03.994Z</time></trkpt><trkpt lat="43.5646943" lon="11.3840702"><ele>676.0</ele><time>2026-05-02T12:34:04.994Z</time></trkpt><trkpt lat="43.5646049" lon="11.3841913"><ele>676.0</ele><time>2026-05-02T12:34:05.994Z</time></trkpt><trkpt lat="43.5644907" lon="11.3843274"><ele>676.0</ele><time>2026-05-02T12:34:06.995Z</time></trkpt><trkpt lat="43.564354" lon="11.384424"><ele>676.0</ele><time>2026-05-02T12:34:07.994Z</time></trkpt><trkpt lat="43.5642138" lon="11.3844839"><ele>683.6666666666667</ele><time>2026-05-02T12:34:08.994Z</time></trkpt><trkpt lat="43.5640736" lon="11.384526"><ele>691.3333333333334</ele><time>2026-05-02T12:34:09.994Z</time></trkpt><trkpt lat="43.5639256" lon="11.3845787"><ele>699.0</ele><time>2026-05-02T12:34:10.994Z</time></trkpt><trkpt lat="43.5637637" lon="11.3846549"><ele>700.3333333333334</ele><time>2026-05-02T12:34:11.994Z</time></trkpt><trkpt lat="43.5636127" lon="11.3847505"><ele>701.6666666666667</ele><time>2026-05-02T12:34:12.994Z</time></trkpt><trkpt lat="43.5634612" lon="11.3848559"><ele>703.0</ele><time>2026-05-02T12:34:13.994Z</time></trkpt><trkpt lat="43.5633083" lon="11.3849553"><ele>703.0</ele><time>2026-05-02T12:34:14.994Z</time></trkpt><trkpt lat="43.5631652" lon="11.3850196"><ele>703.0</ele><time>2026-05-02T12:34:15.994Z</time></trkpt><trkpt lat="43.5630473" lon="11.3850655"><ele>703.0</ele><time>2026-05-02T12:34:16.994Z</time></trkpt><trkpt lat="43.5629411" lon="11.3851225"><ele>703.0</ele><time>2026-05-02T12:34:17.994Z</time></trkpt><trkpt lat="43.5628626" lon="11.3852123"><ele>704.75</ele><time>2026-05-02T12:34:18.994Z</time></trkpt><trkpt lat="43.5628246" lon="11.3853486"><ele>706.5</ele><time>2026-05-02T12:34:19.994Z</time></trkpt><trkpt lat="43.5628261" lon="11.3855073"><ele>708.25</ele><time>2026-05-02T12:34:20.994Z</time></trkpt><trkpt lat="43.5628601" lon="11.3856666"><ele>710.0</ele><time>2026-05-02T12:34:21.994Z</time></trkpt><trkpt lat="43.5629115" lon="11.3858551"><ele>705.0</ele><time>2026-05-02T12:34:22.994Z</time></trkpt><trkpt lat="43.5629467" lon="11.3860691"><ele>700.0</ele><time>2026-05-02T12:34:23.994Z</time></trkpt><trkpt lat="43.5629591" lon="11.3862797"><ele>695.0</ele><time>2026-05-02T12:34:24.995Z</time></trkpt><trkpt lat="43.562916" lon="11.3864817"><ele>698.0</ele><time>2026-05-02T12:34:25.994Z</time></trkpt><trkpt lat="43.5628392" lon="11.3866532"><ele>701.0</ele><time>2026-05-02T12:34:26.994Z</time></trkpt><trkpt lat="43.5627506" lon="11.3868227"><ele>704.0</ele><time>2026-05-02T12:34:27.995Z</time></trkpt><trkpt lat="43.5626441" lon="11.3869528"><ele>707.0</ele><time>2026-05-02T12:34:28.995Z</time></trkpt><trkpt lat="43.5625118" lon="11.3870553"><ele>707.0</ele><time>2026-05-02T12:34:29.994Z</time></trkpt><trkpt lat="43.5623801" lon="11.3871493"><ele>707.0</ele><time>2026-05-02T12:34:30.994Z</time></trkpt><trkpt lat="43.5622572" lon="11.3872734"><ele>707.0</ele><time>2026-05-02T12:34:31.994Z</time></trkpt><trkpt lat="43.5621428" lon="11.3874375"><ele>704.0</ele><time>2026-05-02T12:34:32.994Z</time></trkpt><trkpt lat="43.5620509" lon="11.3876117"><ele>701.0</ele><time>2026-05-02T12:34:33.994Z</time></trkpt><trkpt lat="43.5619905" lon="11.3878041"><ele>698.0</ele><time>2026-05-02T12:34:34.994Z</time></trkpt><trkpt lat="43.561916" lon="11.3879782"><ele>702.0</ele><time>2026-05-02T12:34:35.995Z</time></trkpt><trkpt lat="43.5618212" lon="11.3881421"><ele>706.0</ele><time>2026-05-02T12:34:36.994Z</time></trkpt><trkpt lat="43.5617025" lon="11.388304"><ele>710.0</ele><time>2026-05-02T12:34:37.994Z</time></trkpt><trkpt lat="43.5615871" lon="11.3884658"><ele>710.0</ele><time>2026-05-02T12:34:38.994Z</time></trkpt><trkpt lat="43.5614771" lon="11.3886104"><ele>710.0</ele><time>2026-05-02T12:34:39.995Z</time></trkpt><trkpt lat="43.5613681" lon="11.3887548"><ele>710.0</ele><time>2026-05-02T12:34:40.994Z</time></trkpt><trkpt lat="43.5612617" lon="11.3888695"><ele>710.0</ele><time>2026-05-02T12:34:41.994Z</time></trkpt><trkpt lat="43.5611478" lon="11.3889597"><ele>708.5</ele><time>2026-05-02T12:34:42.994Z</time></trkpt><trkpt lat="43.561034" lon="11.3890319"><ele>707.0</ele><time>2026-05-02T12:34:43.994Z</time></trkpt><trkpt lat="43.5609289" lon="11.3890973"><ele>705.5</ele><time>2026-05-02T12:34:44.994Z</time></trkpt><trkpt lat="43.560812" lon="11.3891898"><ele>704.0</ele><time>2026-05-02T12:34:45.994Z</time></trkpt><trkpt lat="43.5606945" lon="11.3892798"><ele>704.0</ele><time>2026-05-02T12:34:46.994Z</time></trkpt><trkpt lat="43.56059" lon="11.3893972"><ele>704.0</ele><time>2026-05-02T12:34:47.994Z</time></trkpt><trkpt lat="43.5604941" lon="11.3895418"><ele>704.0</ele><time>2026-05-02T12:34:48.994Z</time></trkpt><trkpt lat="43.5603957" lon="11.3897062"><ele>704.0</ele><time>2026-05-02T12:34:49.994Z</time></trkpt><trkpt lat="43.5602902" lon="11.3898653"><ele>704.0</ele><time>2026-05-02T12:34:50.994Z</time></trkpt><trkpt lat="43.5601783" lon="11.3900119"><ele>704.0</ele><time>2026-05-02T12:34:51.994Z</time></trkpt><trkpt lat="43.5600769" lon="11.3901385"><ele>704.0</ele><time>2026-05-02T12:34:52.994Z</time></trkpt><trkpt lat="43.5599822" lon="11.3902722"><ele>704.0</ele><time>2026-05-02T12:34:53.994Z</time></trkpt><trkpt lat="43.559901" lon="11.3904086"><ele>702.4000000000001</ele><time>2026-05-02T12:34:54.994Z</time></trkpt><trkpt lat="43.5598527" lon="11.3905552"><ele>700.8</ele><time>2026-05-02T12:34:55.994Z</time></trkpt><trkpt lat="43.5598338" lon="11.390684"><ele>699.2</ele><time>2026-05-02T12:34:56.995Z</time></trkpt><trkpt lat="43.559824" lon="11.3907795"><ele>697.5999999999999</ele><time>2026-05-02T12:34:57.994Z</time></trkpt><trkpt lat="43.5598338" lon="11.3908871"><ele>696.0</ele><time>2026-05-02T12:34:59.994Z</time></trkpt><trkpt lat="43.5599419" lon="11.3909063"><ele>696.0</ele><time>2026-05-02T12:35:01.994Z</time></trkpt><trkpt lat="43.5600079" lon="11.3908816"><ele>696.0</ele><time>2026-05-02T12:35:02.994Z</time></trkpt><trkpt lat="43.5600698" lon="11.3908526"><ele>696.0</ele><time>2026-05-02T12:35:03.994Z</time></trkpt><trkpt lat="43.5601385" lon="11.3908202"><ele>696.0</ele><time>2026-05-02T12:35:04.994Z</time></trkpt><trkpt lat="43.5601969" lon="11.3907805"><ele>696.0</ele><time>2026-05-02T12:35:05.994Z</time></trkpt><trkpt lat="43.5603055" lon="11.3907837"><ele>696.0</ele><time>2026-05-02T12:35:07.994Z</time></trkpt><trkpt lat="43.5604228" lon="11.3908643"><ele>693.0</ele><time>2026-05-02T12:35:09.994Z</time></trkpt><trkpt lat="43.5604921" lon="11.3909994"><ele>690.0</ele><time>2026-05-02T12:35:11.994Z</time></trkpt><trkpt lat="43.5605278" lon="11.3911252"><ele>687.0</ele><time>2026-05-02T12:35:13.994Z</time></trkpt><trkpt lat="43.5605627" lon="11.3912495"><ele>684.0</ele><time>2026-05-02T12:35:15.994Z</time></trkpt><trkpt lat="43.560564" lon="11.3914105"><ele>681.0</ele><time>2026-05-02T12:35:17.994Z</time></trkpt><trkpt lat="43.5605392" lon="11.3914968"><ele>678.6666666666666</ele><time>2026-05-02T12:35:18.994Z</time></trkpt><trkpt lat="43.5605099" lon="11.3916402"><ele>676.3333333333334</ele><time>2026-05-02T12:35:20.995Z</time></trkpt><trkpt lat="43.5604972" lon="11.3917253"><ele>674.0</ele><time>2026-05-02T12:35:21.994Z</time></trkpt><trkpt lat="43.56049" lon="11.3918233"><ele>671.6666666666667</ele><time>2026-05-02T12:35:22.994Z</time></trkpt><trkpt lat="43.5604844" lon="11.3919319"><ele>669.3333333333334</ele><time>2026-05-02T12:35:23.994Z</time></trkpt><trkpt lat="43.5604768" lon="11.3920467"><ele>667.0</ele><time>2026-05-02T12:35:24.995Z</time></trkpt><trkpt lat="43.5604572" lon="11.3921705"><ele>665.0</ele><time>2026-05-02T12:35:25.995Z</time></trkpt><trkpt lat="43.5604318" lon="11.3922805"><ele>663.0</ele><time>2026-05-02T12:35:26.994Z</time></trkpt><trkpt lat="43.5604088" lon="11.392393"><ele>661.0</ele><time>2026-05-02T12:35:27.994Z</time></trkpt><trkpt lat="43.5603867" lon="11.3924926"><ele>659.0</ele><time>2026-05-02T12:35:28.994Z</time></trkpt><trkpt lat="43.5603748" lon="11.3925817"><ele>657.0</ele><time>2026-05-02T12:35:29.994Z</time></trkpt><trkpt lat="43.560481" lon="11.3927032"><ele>655.0</ele><time>2026-05-02T12:35:31.994Z</time></trkpt><trkpt lat="43.560572" lon="11.392734"><ele>655.0</ele><time>2026-05-02T12:35:32.994Z</time></trkpt><trkpt lat="43.5606549" lon="11.3927573"><ele>655.0</ele><time>2026-05-02T12:35:33.994Z</time></trkpt><trkpt lat="43.5607577" lon="11.3928489"><ele>655.0</ele><time>2026-05-02T12:35:35.994Z</time></trkpt><trkpt lat="43.560811" lon="11.3929125"><ele>655.0</ele><time>2026-05-02T12:35:36.994Z</time></trkpt><trkpt lat="43.5608751" lon="11.3929855"><ele>655.0</ele><time>2026-05-02T12:35:37.995Z</time></trkpt><trkpt lat="43.5609415" lon="11.3930603"><ele>655.0</ele><time>2026-05-02T12:35:38.994Z</time></trkpt><trkpt lat="43.5610094" lon="11.393138"><ele>653.7142857142858</ele><time>2026-05-02T12:35:39.995Z</time></trkpt><trkpt lat="43.5610798" lon="11.3932139"><ele>652.4285714285714</ele><time>2026-05-02T12:35:40.994Z</time></trkpt><trkpt lat="43.5611488" lon="11.3932732"><ele>651.1428571428571</ele><time>2026-05-02T12:35:41.994Z</time></trkpt><trkpt lat="43.561206" lon="11.3933168"><ele>649.8571428571429</ele><time>2026-05-02T12:35:42.994Z</time></trkpt><trkpt lat="43.5612678" lon="11.3933413"><ele>648.5714285714286</ele><time>2026-05-02T12:35:43.994Z</time></trkpt><trkpt lat="43.5613382" lon="11.3933611"><ele>647.2857142857143</ele><time>2026-05-02T12:35:44.994Z</time></trkpt><trkpt lat="43.5614008" lon="11.393383"><ele>646.0</ele><time>2026-05-02T12:35:45.994Z</time></trkpt><trkpt lat="43.5614651" lon="11.3934698"><ele>644.0</ele><time>2026-05-02T12:35:47.994Z</time></trkpt><trkpt lat="43.5614748" lon="11.393567"><ele>642.0</ele><time>2026-05-02T12:35:49.994Z</time></trkpt><trkpt lat="43.5614697" lon="11.3936689"><ele>640.0</ele><time>2026-05-02T12:35:51.994Z</time></trkpt><trkpt lat="43.5614592" lon="11.393828"><ele>638.0</ele><time>2026-05-02T12:35:53.994Z</time></trkpt><trkpt lat="43.5614747" lon="11.3939614"><ele>636.0</ele><time>2026-05-02T12:35:55.994Z</time></trkpt><trkpt lat="43.5615631" lon="11.3940458"><ele>635.8333333333334</ele><time>2026-05-02T12:35:57.994Z</time></trkpt><trkpt lat="43.5616407" lon="11.3941401"><ele>635.6666666666666</ele><time>2026-05-02T12:35:59.994Z</time></trkpt><trkpt lat="43.5616944" lon="11.3942575"><ele>635.5</ele><time>2026-05-02T12:36:01.994Z</time></trkpt><trkpt lat="43.5617361" lon="11.394381"><ele>635.3333333333333</ele><time>2026-05-02T12:36:03.994Z</time></trkpt><trkpt lat="43.5617599" lon="11.394464"><ele>635.1666666666666</ele><time>2026-05-02T12:36:10.994Z</time></trkpt><trkpt lat="43.5618152" lon="11.3945211"><ele>635.0</ele><time>2026-05-02T12:36:13.994Z</time></trkpt><trkpt lat="43.561799" lon="11.3946229"><ele>633.6666666666666</ele><time>2026-05-02T12:36:16.994Z</time></trkpt><trkpt lat="43.5617602" lon="11.3947063"><ele>632.3333333333333</ele><time>2026-05-02T12:36:19.994Z</time></trkpt><trkpt lat="43.5616963" lon="11.3947991"><ele>631.0</ele><time>2026-05-02T12:36:21.994Z</time></trkpt><trkpt lat="43.5616269" lon="11.3948893"><ele>629.6666666666666</ele><time>2026-05-02T12:36:23.994Z</time></trkpt><trkpt lat="43.561588" lon="11.39499"><ele>628.3333333333334</ele><time>2026-05-02T12:36:25.994Z</time></trkpt><trkpt lat="43.5615952" lon="11.3951021"><ele>627.0</ele><time>2026-05-02T12:36:27.994Z</time></trkpt><trkpt lat="43.5616268" lon="11.3951775"><ele>627.0</ele><time>2026-05-02T12:36:29.994Z</time></trkpt><trkpt lat="43.5617077" lon="11.3952471"><ele>627.0</ele><time>2026-05-02T12:36:31.994Z</time></trkpt><trkpt lat="43.5618134" lon="11.3953121"><ele>627.0</ele><time>2026-05-02T12:36:33.994Z</time></trkpt><trkpt lat="43.5619276" lon="11.3953728"><ele>627.0</ele><time>2026-05-02T12:36:35.994Z</time></trkpt><trkpt lat="43.5620286" lon="11.3954302"><ele>627.0</ele><time>2026-05-02T12:36:37.994Z</time></trkpt><trkpt lat="43.5621394" lon="11.3954924"><ele>623.8333333333334</ele><time>2026-05-02T12:36:39.994Z</time></trkpt><trkpt lat="43.5622159" lon="11.3955446"><ele>620.6666666666666</ele><time>2026-05-02T12:36:40.994Z</time></trkpt><trkpt lat="43.5622921" lon="11.3956015"><ele>617.5</ele><time>2026-05-02T12:36:41.995Z</time></trkpt><trkpt lat="43.5623598" lon="11.395661"><ele>614.3333333333333</ele><time>2026-05-02T12:36:42.994Z</time></trkpt><trkpt lat="43.5624267" lon="11.3957218"><ele>611.1666666666666</ele><time>2026-05-02T12:36:43.994Z</time></trkpt><trkpt lat="43.5624904" lon="11.3957777"><ele>608.0</ele><time>2026-05-02T12:36:44.994Z</time></trkpt><trkpt lat="43.5625485" lon="11.3958263"><ele>608.0</ele><time>2026-05-02T12:36:45.994Z</time></trkpt><trkpt lat="43.5626483" lon="11.3959019"><ele>608.0</ele><time>2026-05-02T12:36:47.994Z</time></trkpt><trkpt lat="43.5627474" lon="11.3959401"><ele>608.0</ele><time>2026-05-02T12:36:49.995Z</time></trkpt><trkpt lat="43.5628495" lon="11.3959387"><ele>608.0</ele><time>2026-05-02T12:36:51.995Z</time></trkpt><trkpt lat="43.5629372" lon="11.3959428"><ele>608.0</ele><time>2026-05-02T12:36:53.994Z</time></trkpt><trkpt lat="43.5630115" lon="11.3959199"><ele>606.8571428571428</ele><time>2026-05-02T12:36:55.993Z</time></trkpt><trkpt lat="43.5630882" lon="11.3958926"><ele>605.7142857142858</ele><time>2026-05-02T12:36:57.994Z</time></trkpt><trkpt lat="43.5631551" lon="11.3959511"><ele>604.5714285714286</ele><time>2026-05-02T12:36:59.993Z</time></trkpt><trkpt lat="43.5631668" lon="11.3960548"><ele>603.4285714285713</ele><time>2026-05-02T12:37:01.993Z</time></trkpt><trkpt lat="43.5631678" lon="11.3961425"><ele>602.2857142857142</ele><time>2026-05-02T12:37:03.993Z</time></trkpt><trkpt lat="43.563239" lon="11.3961096"><ele>601.1428571428571</ele><time>2026-05-02T12:37:06.993Z</time></trkpt><trkpt lat="43.5632721" lon="11.3960148"><ele>600.0</ele><time>2026-05-02T12:37:08.993Z</time></trkpt><trkpt lat="43.5633461" lon="11.3959555"><ele>600.0</ele><time>2026-05-02T12:37:10.993Z</time></trkpt><trkpt lat="43.563444" lon="11.3959185"><ele>600.0</ele><time>2026-05-02T12:37:12.993Z</time></trkpt><trkpt lat="43.5635577" lon="11.3959146"><ele>600.0</ele><time>2026-05-02T12:37:14.993Z</time></trkpt><trkpt lat="43.5636292" lon="11.3959294"><ele>600.0</ele><time>2026-05-02T12:37:15.993Z</time></trkpt><trkpt lat="43.5637154" lon="11.3959105"><ele>600.0</ele><time>2026-05-02T12:37:16.993Z</time></trkpt><trkpt lat="43.5637837" lon="11.3958712"><ele>600.0</ele><time>2026-05-02T12:37:17.993Z</time></trkpt><trkpt lat="43.5638795" lon="11.3957846"><ele>598.5</ele><time>2026-05-02T12:37:19.993Z</time></trkpt><trkpt lat="43.5639936" lon="11.3957083"><ele>597.0</ele><time>2026-05-02T12:37:21.993Z</time></trkpt><trkpt lat="43.5640592" lon="11.3956821"><ele>595.5</ele><time>2026-05-02T12:37:22.993Z</time></trkpt><trkpt lat="43.5641461" lon="11.3956614"><ele>594.0</ele><time>2026-05-02T12:37:23.993Z</time></trkpt><trkpt lat="43.5642273" lon="11.3956301"><ele>592.5</ele><time>2026-05-02T12:37:24.993Z</time></trkpt><trkpt lat="43.564298" lon="11.3956078"><ele>591.0</ele><time>2026-05-02T12:37:25.993Z</time></trkpt><trkpt lat="43.5643767" lon="11.3955875"><ele>591.0</ele><time>2026-05-02T12:37:26.994Z</time></trkpt><trkpt lat="43.5644571" lon="11.395567"><ele>591.0</ele><time>2026-05-02T12:37:27.993Z</time></trkpt><trkpt lat="43.5645387" lon="11.3955409"><ele>591.0</ele><time>2026-05-02T12:37:28.993Z</time></trkpt><trkpt lat="43.5646088" lon="11.3955139"><ele>591.0</ele><time>2026-05-02T12:37:29.993Z</time></trkpt><trkpt lat="43.5646727" lon="11.3954755"><ele>591.0</ele><time>2026-05-02T12:37:30.993Z</time></trkpt><trkpt lat="43.5647363" lon="11.3954497"><ele>591.0</ele><time>2026-05-02T12:37:31.993Z</time></trkpt><trkpt lat="43.5648465" lon="11.3954671"><ele>587.8</ele><time>2026-05-02T12:37:33.993Z</time></trkpt><trkpt lat="43.5649598" lon="11.3955025"><ele>584.6</ele><time>2026-05-02T12:37:35.993Z</time></trkpt><trkpt lat="43.5650755" lon="11.3954371"><ele>581.4</ele><time>2026-05-02T12:37:37.993Z</time></trkpt><trkpt lat="43.5651911" lon="11.3953416"><ele>578.2</ele><time>2026-05-02T12:37:39.994Z</time></trkpt><trkpt lat="43.5652527" lon="11.3953035"><ele>575.0</ele><time>2026-05-02T12:37:40.993Z</time></trkpt><trkpt lat="43.565323" lon="11.395269"><ele>573.6</ele><time>2026-05-02T12:37:41.993Z</time></trkpt><trkpt lat="43.5654299" lon="11.3951668"><ele>572.2</ele><time>2026-05-02T12:37:43.993Z</time></trkpt><trkpt lat="43.565519" lon="11.3950844"><ele>570.8</ele><time>2026-05-02T12:37:45.993Z</time></trkpt><trkpt lat="43.5656067" lon="11.3950149"><ele>569.4</ele><time>2026-05-02T12:37:47.993Z</time></trkpt><trkpt lat="43.5656919" lon="11.3949426"><ele>568.0</ele><time>2026-05-02T12:37:49.993Z</time></trkpt><trkpt lat="43.5658114" lon="11.3948805"><ele>568.0</ele><time>2026-05-02T12:37:51.993Z</time></trkpt><trkpt lat="43.5658876" lon="11.3948659"><ele>568.0</ele><time>2026-05-02T12:37:53.993Z</time></trkpt><trkpt lat="43.5659727" lon="11.3948201"><ele>568.0</ele><time>2026-05-02T12:38:51.993Z</time></trkpt><trkpt lat="43.5660603" lon="11.3947398"><ele>568.0</ele><time>2026-05-02T12:38:53.993Z</time></trkpt><trkpt lat="43.5661577" lon="11.394646"><ele>568.0</ele><time>2026-05-02T12:38:55.993Z</time></trkpt><trkpt lat="43.5662148" lon="11.3945956"><ele>565.1666666666667</ele><time>2026-05-02T12:38:56.993Z</time></trkpt><trkpt lat="43.5662882" lon="11.3945473"><ele>562.3333333333334</ele><time>2026-05-02T12:38:57.993Z</time></trkpt><trkpt lat="43.5663509" lon="11.3945068"><ele>559.5</ele><time>2026-05-02T12:38:58.993Z</time></trkpt><trkpt lat="43.5664257" lon="11.3944624"><ele>556.6666666666666</ele><time>2026-05-02T12:38:59.993Z</time></trkpt><trkpt lat="43.566504" lon="11.3944341"><ele>553.8333333333333</ele><time>2026-05-02T12:39:00.993Z</time></trkpt><trkpt lat="43.5665897" lon="11.3944276"><ele>551.0</ele><time>2026-05-02T12:39:01.993Z</time></trkpt><trkpt lat="43.5666732" lon="11.3944012"><ele>551.0</ele><time>2026-05-02T12:39:02.993Z</time></trkpt><trkpt lat="43.5667607" lon="11.3943747"><ele>551.0</ele><time>2026-05-02T12:39:03.993Z</time></trkpt><trkpt lat="43.5668488" lon="11.3943421"><ele>551.0</ele><time>2026-05-02T12:39:04.993Z</time></trkpt><trkpt lat="43.5669356" lon="11.3943145"><ele>551.0</ele><time>2026-05-02T12:39:05.993Z</time></trkpt><trkpt lat="43.5670219" lon="11.3942723"><ele>551.0</ele><time>2026-05-02T12:39:06.994Z</time></trkpt><trkpt lat="43.5671015" lon="11.3942303"><ele>551.0</ele><time>2026-05-02T12:39:07.994Z</time></trkpt><trkpt lat="43.5671768" lon="11.3942028"><ele>549.3333333333333</ele><time>2026-05-02T12:39:08.993Z</time></trkpt><trkpt lat="43.5672481" lon="11.3941881"><ele>547.6666666666666</ele><time>2026-05-02T12:39:09.993Z</time></trkpt><trkpt lat="43.5673219" lon="11.3941754"><ele>546.0</ele><time>2026-05-02T12:39:10.993Z</time></trkpt><trkpt lat="43.5673942" lon="11.3941717"><ele>544.3333333333334</ele><time>2026-05-02T12:39:11.993Z</time></trkpt><trkpt lat="43.5674736" lon="11.394175"><ele>542.6666666666667</ele><time>2026-05-02T12:39:12.993Z</time></trkpt><trkpt lat="43.567556" lon="11.3941966"><ele>541.0</ele><time>2026-05-02T12:39:13.993Z</time></trkpt><trkpt lat="43.5676387" lon="11.3942258"><ele>541.0</ele><time>2026-05-02T12:39:14.993Z</time></trkpt><trkpt lat="43.5677169" lon="11.3942722"><ele>541.0</ele><time>2026-05-02T12:39:15.993Z</time></trkpt><trkpt lat="43.5678138" lon="11.3943346"><ele>541.0</ele><time>2026-05-02T12:39:16.993Z</time></trkpt><trkpt lat="43.5679205" lon="11.3944333"><ele>541.0</ele><time>2026-05-02T12:39:17.993Z</time></trkpt><trkpt lat="43.5680375" lon="11.3945136"><ele>542.5</ele><time>2026-05-02T12:39:18.993Z</time></trkpt><trkpt lat="43.5681437" lon="11.3946014"><ele>544.0</ele><time>2026-05-02T12:39:19.993Z</time></trkpt><trkpt lat="43.5682528" lon="11.3946585"><ele>545.5</ele><time>2026-05-02T12:39:20.993Z</time></trkpt><trkpt lat="43.5683821" lon="11.3946908"><ele>547.0</ele><time>2026-05-02T12:39:21.993Z</time></trkpt><trkpt lat="43.5685342" lon="11.3947293"><ele>547.0</ele><time>2026-05-02T12:39:22.993Z</time></trkpt><trkpt lat="43.5686749" lon="11.3947616"><ele>547.0</ele><time>2026-05-02T12:39:23.993Z</time></trkpt><trkpt lat="43.5688048" lon="11.3947879"><ele>547.0</ele><time>2026-05-02T12:39:24.993Z</time></trkpt><trkpt lat="43.568934" lon="11.3948134"><ele>547.0</ele><time>2026-05-02T12:39:25.993Z</time></trkpt><trkpt lat="43.569053" lon="11.3948622"><ele>545.5</ele><time>2026-05-02T12:39:26.993Z</time></trkpt><trkpt lat="43.5691757" lon="11.3949195"><ele>544.0</ele><time>2026-05-02T12:39:27.993Z</time></trkpt><trkpt lat="43.569294" lon="11.3949896"><ele>542.5</ele><time>2026-05-02T12:39:28.993Z</time></trkpt><trkpt lat="43.5694086" lon="11.3950651"><ele>541.0</ele><time>2026-05-02T12:39:29.993Z</time></trkpt><trkpt lat="43.5695077" lon="11.3951467"><ele>538.2</ele><time>2026-05-02T12:39:30.993Z</time></trkpt><trkpt lat="43.5695982" lon="11.3952316"><ele>535.4000000000001</ele><time>2026-05-02T12:39:31.993Z</time></trkpt><trkpt lat="43.5696757" lon="11.3952951"><ele>532.6</ele><time>2026-05-02T12:39:32.993Z</time></trkpt><trkpt lat="43.5697496" lon="11.3953383"><ele>529.8000000000001</ele><time>2026-05-02T12:39:33.993Z</time></trkpt><trkpt lat="43.5698155" lon="11.3953656"><ele>527.0</ele><time>2026-05-02T12:39:34.993Z</time></trkpt><trkpt lat="43.5699502" lon="11.3953159"><ele>527.0</ele><time>2026-05-02T12:39:36.993Z</time></trkpt><trkpt lat="43.5700383" lon="11.3952596"><ele>527.0</ele><time>2026-05-02T12:39:37.993Z</time></trkpt><trkpt lat="43.5701155" lon="11.3951912"><ele>527.0</ele><time>2026-05-02T12:39:38.993Z</time></trkpt><trkpt lat="43.5702029" lon="11.3951297"><ele>527.0</ele><time>2026-05-02T12:39:39.993Z</time></trkpt><trkpt lat="43.570294" lon="11.3950642"><ele>527.0</ele><time>2026-05-02T12:39:40.993Z</time></trkpt><trkpt lat="43.5703856" lon="11.3949887"><ele>524.8000000000001</ele><time>2026-05-02T12:39:41.993Z</time></trkpt><trkpt lat="43.5704694" lon="11.3949065"><ele>522.6</ele><time>2026-05-02T12:39:42.993Z</time></trkpt><trkpt lat="43.5705413" lon="11.3948277"><ele>520.4000000000001</ele><time>2026-05-02T12:39:43.993Z</time></trkpt><trkpt lat="43.5706246" lon="11.3947483"><ele>518.2</ele><time>2026-05-02T12:39:44.993Z</time></trkpt><trkpt lat="43.5707166" lon="11.3946648"><ele>516.0</ele><time>2026-05-02T12:39:45.993Z</time></trkpt><trkpt lat="43.5708009" lon="11.3945956"><ele>516.0</ele><time>2026-05-02T12:39:46.993Z</time></trkpt><trkpt lat="43.5708696" lon="11.3945166"><ele>516.0</ele><time>2026-05-02T12:39:47.993Z</time></trkpt><trkpt lat="43.5709414" lon="11.3944347"><ele>516.0</ele><time>2026-05-02T12:39:48.993Z</time></trkpt><trkpt lat="43.5710208" lon="11.3943407"><ele>516.0</ele><time>2026-05-02T12:39:49.993Z</time></trkpt><trkpt lat="43.571095" lon="11.3942558"><ele>516.0</ele><time>2026-05-02T12:39:50.993Z</time></trkpt><trkpt lat="43.5711459" lon="11.3941811"><ele>514.5</ele><time>2026-05-02T12:39:51.993Z</time></trkpt><trkpt lat="43.5712171" lon="11.3941132"><ele>513.0</ele><time>2026-05-02T12:39:53.993Z</time></trkpt><trkpt lat="43.5713197" lon="11.3941619"><ele>511.5</ele><time>2026-05-02T12:39:55.993Z</time></trkpt><trkpt lat="43.5713571" lon="11.3942324"><ele>510.0</ele><time>2026-05-02T12:39:56.993Z</time></trkpt><trkpt lat="43.5713717" lon="11.3943232"><ele>508.5</ele><time>2026-05-02T12:39:57.994Z</time></trkpt><trkpt lat="43.5713995" lon="11.3944115"><ele>507.0</ele><time>2026-05-02T12:39:58.993Z</time></trkpt><trkpt lat="43.5714319" lon="11.3944952"><ele>507.0</ele><time>2026-05-02T12:39:59.993Z</time></trkpt><trkpt lat="43.571468" lon="11.3945675"><ele>507.0</ele><time>2026-05-02T12:40:00.993Z</time></trkpt><trkpt lat="43.5715212" lon="11.3946277"><ele>507.0</ele><time>2026-05-02T12:40:01.993Z</time></trkpt><trkpt lat="43.571578" lon="11.3946801"><ele>507.0</ele><time>2026-05-02T12:40:02.993Z</time></trkpt><trkpt lat="43.5716295" lon="11.3947413"><ele>507.0</ele><time>2026-05-02T12:40:03.993Z</time></trkpt><trkpt lat="43.5716912" lon="11.394793"><ele>507.0</ele><time>2026-05-02T12:40:04.993Z</time></trkpt><trkpt lat="43.5717454" lon="11.3948523"><ele>507.0</ele><time>2026-05-02T12:40:05.993Z</time></trkpt><trkpt lat="43.5718284" lon="11.394975"><ele>506.40000000000003</ele><time>2026-05-02T12:40:07.993Z</time></trkpt><trkpt lat="43.5718954" lon="11.3950933"><ele>505.80000000000007</ele><time>2026-05-02T12:40:09.993Z</time></trkpt><trkpt lat="43.5719583" lon="11.3950817"><ele>505.2</ele><time>2026-05-02T12:40:11.993Z</time></trkpt><trkpt lat="43.5720296" lon="11.3949459"><ele>504.6</ele><time>2026-05-02T12:40:13.993Z</time></trkpt><trkpt lat="43.5721046" lon="11.394809"><ele>504.0</ele><time>2026-05-02T12:40:15.994Z</time></trkpt><trkpt lat="43.5721434" lon="11.3947321"><ele>501.5</ele><time>2026-05-02T12:40:16.993Z</time></trkpt><trkpt lat="43.5721888" lon="11.3946667"><ele>499.0</ele><time>2026-05-02T12:40:17.993Z</time></trkpt><trkpt lat="43.5722242" lon="11.3945735"><ele>496.5</ele><time>2026-05-02T12:40:18.993Z</time></trkpt><trkpt lat="43.5722524" lon="11.394468"><ele>494.0</ele><time>2026-05-02T12:40:19.993Z</time></trkpt><trkpt lat="43.5722654" lon="11.3943386"><ele>491.5</ele><time>2026-05-02T12:40:20.993Z</time></trkpt><trkpt lat="43.5722466" lon="11.3942012"><ele>489.0</ele><time>2026-05-02T12:40:21.993Z</time></trkpt><trkpt lat="43.5722161" lon="11.3940583"><ele>489.0</ele><time>2026-05-02T12:40:22.993Z</time></trkpt><trkpt lat="43.5721676" lon="11.3939434"><ele>489.0</ele><time>2026-05-02T12:40:23.993Z</time></trkpt><trkpt lat="43.5721167" lon="11.393846"><ele>489.0</ele><time>2026-05-02T12:40:24.993Z</time></trkpt><trkpt lat="43.5720695" lon="11.3937414"><ele>489.0</ele><time>2026-05-02T12:40:25.993Z</time></trkpt><trkpt lat="43.5720545" lon="11.3936146"><ele>489.0</ele><time>2026-05-02T12:40:26.993Z</time></trkpt><trkpt lat="43.5720593" lon="11.3934784"><ele>486.6</ele><time>2026-05-02T12:40:27.993Z</time></trkpt><trkpt lat="43.5720705" lon="11.3933295"><ele>484.2</ele><time>2026-05-02T12:40:28.993Z</time></trkpt><trkpt lat="43.5720747" lon="11.3931818"><ele>481.80000000000007</ele><time>2026-05-02T12:40:29.993Z</time></trkpt><trkpt lat="43.5720643" lon="11.3930321"><ele>479.40000000000003</ele><time>2026-05-02T12:40:30.993Z</time></trkpt><trkpt lat="43.572053" lon="11.3928807"><ele>477.0</ele><time>2026-05-02T12:40:31.993Z</time></trkpt><trkpt lat="43.5720358" lon="11.3927322"><ele>477.20000000000005</ele><time>2026-05-02T12:40:32.993Z</time></trkpt><trkpt lat="43.5720164" lon="11.3925848"><ele>477.40000000000003</ele><time>2026-05-02T12:40:33.993Z</time></trkpt><trkpt lat="43.5719942" lon="11.3924356"><ele>477.59999999999997</ele><time>2026-05-02T12:40:34.993Z</time></trkpt><trkpt lat="43.5719668" lon="11.392288"><ele>477.79999999999995</ele><time>2026-05-02T12:40:35.994Z</time></trkpt><trkpt lat="43.5719415" lon="11.3921396"><ele>478.0</ele><time>2026-05-02T12:40:36.993Z</time></trkpt><trkpt lat="43.5719212" lon="11.3919955"><ele>478.0</ele><time>2026-05-02T12:40:37.993Z</time></trkpt><trkpt lat="43.5718914" lon="11.3918674"><ele>477.99999999999994</ele><time>2026-05-02T12:40:38.993Z</time></trkpt><trkpt lat="43.5718685" lon="11.391763"><ele>477.99999999999994</ele><time>2026-05-02T12:40:39.993Z</time></trkpt><trkpt lat="43.571876" lon="11.391662"><ele>478.0</ele><time>2026-05-02T12:40:41.993Z</time></trkpt><trkpt lat="43.5719952" lon="11.3916861"><ele>478.0</ele><time>2026-05-02T12:40:43.993Z</time></trkpt><trkpt lat="43.5720795" lon="11.3916962"><ele>475.79999999999995</ele><time>2026-05-02T12:40:44.993Z</time></trkpt><trkpt lat="43.5721672" lon="11.3917148"><ele>473.59999999999997</ele><time>2026-05-02T12:40:45.993Z</time></trkpt><trkpt lat="43.5722498" lon="11.3917578"><ele>471.40000000000003</ele><time>2026-05-02T12:40:46.993Z</time></trkpt><trkpt lat="43.572321" lon="11.3918349"><ele>469.20000000000005</ele><time>2026-05-02T12:40:47.993Z</time></trkpt><trkpt lat="43.572397" lon="11.3919183"><ele>467.0</ele><time>2026-05-02T12:40:48.993Z</time></trkpt><trkpt lat="43.5724764" lon="11.3919969"><ele>467.0</ele><time>2026-05-02T12:40:49.993Z</time></trkpt><trkpt lat="43.5725582" lon="11.3920854"><ele>467.00000000000006</ele><time>2026-05-02T12:40:50.993Z</time></trkpt><trkpt lat="43.5726349" lon="11.3921657"><ele>467.00000000000006</ele><time>2026-05-02T12:40:51.993Z</time></trkpt><trkpt lat="43.5727111" lon="11.3922464"><ele>467.0</ele><time>2026-05-02T12:40:52.993Z</time></trkpt><trkpt lat="43.5727838" lon="11.3923178"><ele>467.0</ele><time>2026-05-02T12:40:53.993Z</time></trkpt><trkpt lat="43.5728499" lon="11.3923913"><ele>465.3333333333333</ele><time>2026-05-02T12:40:54.993Z</time></trkpt><trkpt lat="43.5729192" lon="11.3924564"><ele>463.66666666666663</ele><time>2026-05-02T12:40:55.993Z</time></trkpt><trkpt lat="43.5729835" lon="11.3925214"><ele>462.0</ele><time>2026-05-02T12:40:56.993Z</time></trkpt><trkpt lat="43.5730446" lon="11.3925851"><ele>460.33333333333337</ele><time>2026-05-02T12:40:57.993Z</time></trkpt><trkpt lat="43.5731042" lon="11.3926474"><ele>458.6666666666667</ele><time>2026-05-02T12:40:58.993Z</time></trkpt><trkpt lat="43.5731759" lon="11.3926944"><ele>457.0</ele><time>2026-05-02T12:40:59.993Z</time></trkpt><trkpt lat="43.5732521" lon="11.3927244"><ele>457.00000000000006</ele><time>2026-05-02T12:41:00.993Z</time></trkpt><trkpt lat="43.573329" lon="11.3927426"><ele>457.0</ele><time>2026-05-02T12:41:01.994Z</time></trkpt><trkpt lat="43.5734021" lon="11.3927656"><ele>457.0</ele><time>2026-05-02T12:41:02.994Z</time></trkpt><trkpt lat="43.5734821" lon="11.3928139"><ele>457.0</ele><time>2026-05-02T12:41:03.993Z</time></trkpt><trkpt lat="43.5735514" lon="11.3928592"><ele>457.00000000000006</ele><time>2026-05-02T12:41:04.993Z</time></trkpt><trkpt lat="43.5736213" lon="11.3929021"><ele>457.0</ele><time>2026-05-02T12:41:05.993Z</time></trkpt><trkpt lat="43.5736906" lon="11.3929475"><ele>456.00000000000006</ele><time>2026-05-02T12:41:06.993Z</time></trkpt><trkpt lat="43.5737566" lon="11.3929838"><ele>455.0</ele><time>2026-05-02T12:41:07.993Z</time></trkpt><trkpt lat="43.5738196" lon="11.3930157"><ele>454.0</ele><time>2026-05-02T12:41:08.993Z</time></trkpt><trkpt lat="43.5739227" lon="11.3930108"><ele>453.0</ele><time>2026-05-02T12:41:10.993Z</time></trkpt><trkpt lat="43.5740209" lon="11.3929321"><ele>452.00000000000006</ele><time>2026-05-02T12:41:12.993Z</time></trkpt><trkpt lat="43.5740893" lon="11.3929472"><ele>451.0</ele><time>2026-05-02T12:41:13.993Z</time></trkpt><trkpt lat="43.5741472" lon="11.392991"><ele>450.50000000000006</ele><time>2026-05-02T12:41:14.993Z</time></trkpt><trkpt lat="43.5742003" lon="11.3930456"><ele>450.0</ele><time>2026-05-02T12:41:15.993Z</time></trkpt><trkpt lat="43.5742617" lon="11.3931134"><ele>449.5</ele><time>2026-05-02T12:41:16.993Z</time></trkpt><trkpt lat="43.5743366" lon="11.3931687"><ele>449.0</ele><time>2026-05-02T12:41:17.993Z</time></trkpt><trkpt lat="43.5744125" lon="11.3932176"><ele>448.50000000000006</ele><time>2026-05-02T12:41:18.993Z</time></trkpt><trkpt lat="43.5744917" lon="11.3932746"><ele>448.0</ele><time>2026-05-02T12:41:19.993Z</time></trkpt><trkpt lat="43.5745733" lon="11.3933376"><ele>446.59999999999997</ele><time>2026-05-02T12:41:20.993Z</time></trkpt><trkpt lat="43.5746546" lon="11.3934012"><ele>445.19999999999993</ele><time>2026-05-02T12:41:21.993Z</time></trkpt><trkpt lat="43.5747425" lon="11.3934509"><ele>443.8</ele><time>2026-05-02T12:41:22.993Z</time></trkpt><trkpt lat="43.5748341" lon="11.3935099"><ele>442.4</ele><time>2026-05-02T12:41:23.993Z</time></trkpt><trkpt lat="43.5749301" lon="11.3935736"><ele>441.0</ele><time>2026-05-02T12:41:24.993Z</time></trkpt><trkpt lat="43.5750214" lon="11.3936423"><ele>441.0</ele><time>2026-05-02T12:41:25.993Z</time></trkpt><trkpt lat="43.5751092" lon="11.3937045"><ele>441.0</ele><time>2026-05-02T12:41:26.993Z</time></trkpt><trkpt lat="43.5751972" lon="11.3937486"><ele>441.0</ele><time>2026-05-02T12:41:27.993Z</time></trkpt><trkpt lat="43.5752848" lon="11.393808"><ele>441.0</ele><time>2026-05-02T12:41:28.993Z</time></trkpt><trkpt lat="43.5753718" lon="11.3938594"><ele>441.0</ele><time>2026-05-02T12:41:29.993Z</time></trkpt><trkpt lat="43.5754643" lon="11.3939101"><ele>440.20000000000005</ele><time>2026-05-02T12:41:30.993Z</time></trkpt><trkpt lat="43.5755536" lon="11.3939521"><ele>439.40000000000003</ele><time>2026-05-02T12:41:31.993Z</time></trkpt><trkpt lat="43.5756435" lon="11.3940139"><ele>438.6</ele><time>2026-05-02T12:41:32.993Z</time></trkpt><trkpt lat="43.5757256" lon="11.3940752"><ele>437.8</ele><time>2026-05-02T12:41:33.993Z</time></trkpt><trkpt lat="43.5758069" lon="11.394139"><ele>437.0</ele><time>2026-05-02T12:41:34.993Z</time></trkpt><trkpt lat="43.5758754" lon="11.3942066"><ele>436.99999999999994</ele><time>2026-05-02T12:41:35.993Z</time></trkpt><trkpt lat="43.5759389" lon="11.3943039"><ele>437.0</ele><time>2026-05-02T12:41:36.993Z</time></trkpt><trkpt lat="43.5760057" lon="11.3943988"><ele>437.0</ele><time>2026-05-02T12:41:37.993Z</time></trkpt><trkpt lat="43.5760677" lon="11.3944821"><ele>437.0</ele><time>2026-05-02T12:41:38.993Z</time></trkpt><trkpt lat="43.5761309" lon="11.3945551"><ele>436.99999999999994</ele><time>2026-05-02T12:41:39.993Z</time></trkpt><trkpt lat="43.5761789" lon="11.3946384"><ele>437.0</ele><time>2026-05-02T12:41:40.993Z</time></trkpt><trkpt lat="43.5762193" lon="11.3947339"><ele>435.66666666666663</ele><time>2026-05-02T12:41:41.993Z</time></trkpt><trkpt lat="43.5762511" lon="11.3948546"><ele>434.3333333333333</ele><time>2026-05-02T12:41:42.993Z</time></trkpt><trkpt lat="43.5762769" lon="11.3949917"><ele>433.0</ele><time>2026-05-02T12:41:43.993Z</time></trkpt><trkpt lat="43.5763013" lon="11.3951104"><ele>431.66666666666663</ele><time>2026-05-02T12:41:44.993Z</time></trkpt><trkpt lat="43.5763146" lon="11.3952138"><ele>430.3333333333333</ele><time>2026-05-02T12:41:45.993Z</time></trkpt><trkpt lat="43.5763241" lon="11.3953306"><ele>429.0</ele><time>2026-05-02T12:41:46.993Z</time></trkpt><trkpt lat="43.576332" lon="11.3954755"><ele>430.0</ele><time>2026-05-02T12:41:47.993Z</time></trkpt><trkpt lat="43.5763469" lon="11.3956176"><ele>431.0</ele><time>2026-05-02T12:41:48.993Z</time></trkpt><trkpt lat="43.5763605" lon="11.3957558"><ele>432.0</ele><time>2026-05-02T12:41:49.993Z</time></trkpt><trkpt lat="43.5763776" lon="11.3958936"><ele>433.0</ele><time>2026-05-02T12:41:50.993Z</time></trkpt><trkpt lat="43.5763935" lon="11.3960247"><ele>434.0</ele><time>2026-05-02T12:41:51.993Z</time></trkpt><trkpt lat="43.5763973" lon="11.3961556"><ele>434.0</ele><time>2026-05-02T12:41:52.993Z</time></trkpt><trkpt lat="43.5764" lon="11.3962635"><ele>434.0</ele><time>2026-05-02T12:41:53.993Z</time></trkpt><trkpt lat="43.5763844" lon="11.3963671"><ele>434.0</ele><time>2026-05-02T12:41:54.993Z</time></trkpt><trkpt lat="43.5763541" lon="11.3964493"><ele>434.0</ele><time>2026-05-02T12:41:55.993Z</time></trkpt><trkpt lat="43.5762927" lon="11.396551"><ele>434.0</ele><time>2026-05-02T12:41:57.993Z</time></trkpt><trkpt lat="43.5763405" lon="11.3966146"><ele>434.0</ele><time>2026-05-02T12:42:02.993Z</time></trkpt><trkpt lat="43.5764038" lon="11.396605"><ele>434.0</ele><time>2026-05-02T12:42:14.993Z</time></trkpt><trkpt lat="43.5765265" lon="11.3965943"><ele>434.2</ele><time>2026-05-02T12:42:16.993Z</time></trkpt><trkpt lat="43.5765932" lon="11.3966112"><ele>434.4</ele><time>2026-05-02T12:42:17.994Z</time></trkpt><trkpt lat="43.5767122" lon="11.3966615"><ele>434.6</ele><time>2026-05-02T12:42:19.993Z</time></trkpt><trkpt lat="43.57683" lon="11.3966888"><ele>434.8</ele><time>2026-05-02T12:42:21.993Z</time></trkpt><trkpt lat="43.576933" lon="11.3966339"><ele>435.0</ele><time>2026-05-02T12:42:23.993Z</time></trkpt><trkpt lat="43.5769899" lon="11.3966748"><ele>435.0</ele><time>2026-05-02T12:42:25.994Z</time></trkpt><trkpt lat="43.5770047" lon="11.3968059"><ele>435.0</ele><time>2026-05-02T12:42:27.993Z</time></trkpt><trkpt lat="43.5770014" lon="11.396962"><ele>435.0</ele><time>2026-05-02T12:42:29.993Z</time></trkpt><trkpt lat="43.5770354" lon="11.3970821"><ele>435.0</ele><time>2026-05-02T12:42:31.993Z</time></trkpt><trkpt lat="43.577125" lon="11.397111"><ele>435.0</ele><time>2026-05-02T12:42:33.993Z</time></trkpt><trkpt lat="43.577232" lon="11.3971716"><ele>434.4</ele><time>2026-05-02T12:42:35.993Z</time></trkpt><trkpt lat="43.5773299" lon="11.3972324"><ele>433.8</ele><time>2026-05-02T12:42:37.993Z</time></trkpt><trkpt lat="43.5774065" lon="11.3972705"><ele>433.20000000000005</ele><time>2026-05-02T12:42:39.993Z</time></trkpt><trkpt lat="43.5775134" lon="11.3973119"><ele>432.6</ele><time>2026-05-02T12:42:41.993Z</time></trkpt><trkpt lat="43.5775754" lon="11.3973286"><ele>432.0</ele><time>2026-05-02T12:42:42.993Z</time></trkpt><trkpt lat="43.5776822" lon="11.3973345"><ele>432.0</ele><time>2026-05-02T12:42:44.993Z</time></trkpt><trkpt lat="43.5777548" lon="11.397341"><ele>432.0</ele><time>2026-05-02T12:42:45.993Z</time></trkpt><trkpt lat="43.5778381" lon="11.3973504"><ele>432.0</ele><time>2026-05-02T12:42:46.993Z</time></trkpt><trkpt lat="43.5779409" lon="11.3973571"><ele>432.0</ele><time>2026-05-02T12:42:47.993Z</time></trkpt><trkpt lat="43.57803" lon="11.3973609"><ele>432.0</ele><time>2026-05-02T12:42:48.993Z</time></trkpt><trkpt lat="43.5780952" lon="11.3973624"><ele>432.0</ele><time>2026-05-02T12:42:49.993Z</time></trkpt><trkpt lat="43.5781608" lon="11.3973382"><ele>430.40000000000003</ele><time>2026-05-02T12:42:50.993Z</time></trkpt><trkpt lat="43.578224" lon="11.3972908"><ele>428.80000000000007</ele><time>2026-05-02T12:42:51.993Z</time></trkpt><trkpt lat="43.5782945" lon="11.3972106"><ele>427.2</ele><time>2026-05-02T12:42:52.993Z</time></trkpt><trkpt lat="43.5783656" lon="11.3971091"><ele>425.6</ele><time>2026-05-02T12:42:53.993Z</time></trkpt><trkpt lat="43.5784282" lon="11.397012"><ele>424.0</ele><time>2026-05-02T12:42:54.993Z</time></trkpt><trkpt lat="43.5784959" lon="11.3969085"><ele>422.0</ele><time>2026-05-02T12:42:55.993Z</time></trkpt><trkpt lat="43.5785674" lon="11.3968286"><ele>420.0</ele><time>2026-05-02T12:42:56.993Z</time></trkpt><trkpt lat="43.5786343" lon="11.3967508"><ele>418.0</ele><time>2026-05-02T12:42:57.993Z</time></trkpt><trkpt lat="43.5787286" lon="11.3966489"><ele>416.0</ele><time>2026-05-02T12:42:58.993Z</time></trkpt><trkpt lat="43.5788111" lon="11.3965739"><ele>414.0</ele><time>2026-05-02T12:42:59.993Z</time></trkpt><trkpt lat="43.5788869" lon="11.3965104"><ele>413.5</ele><time>2026-05-02T12:43:00.993Z</time></trkpt><trkpt lat="43.5789589" lon="11.3964565"><ele>413.0</ele><time>2026-05-02T12:43:01.993Z</time></trkpt><trkpt lat="43.5790338" lon="11.3963955"><ele>412.5</ele><time>2026-05-02T12:43:02.993Z</time></trkpt><trkpt lat="43.5791144" lon="11.3963473"><ele>412.0</ele><time>2026-05-02T12:43:03.994Z</time></trkpt><trkpt lat="43.5791853" lon="11.3963505"><ele>411.5</ele><time>2026-05-02T12:43:04.993Z</time></trkpt><trkpt lat="43.5792692" lon="11.3964009"><ele>411.0</ele><time>2026-05-02T12:43:05.993Z</time></trkpt><trkpt lat="43.579354" lon="11.3964726"><ele>411.0</ele><time>2026-05-02T12:43:06.993Z</time></trkpt><trkpt lat="43.5794454" lon="11.3965364"><ele>411.0</ele><time>2026-05-02T12:43:07.993Z</time></trkpt><trkpt lat="43.5795428" lon="11.3965647"><ele>411.0</ele><time>2026-05-02T12:43:08.993Z</time></trkpt><trkpt lat="43.5796543" lon="11.3965646"><ele>411.0</ele><time>2026-05-02T12:43:09.993Z</time></trkpt><trkpt lat="43.5797791" lon="11.3965463"><ele>411.0</ele><time>2026-05-02T12:43:10.993Z</time></trkpt><trkpt lat="43.579895" lon="11.3965132"><ele>410.20000000000005</ele><time>2026-05-02T12:43:11.993Z</time></trkpt><trkpt lat="43.5799963" lon="11.3964657"><ele>409.40000000000003</ele><time>2026-05-02T12:43:12.993Z</time></trkpt><trkpt lat="43.5800923" lon="11.3964194"><ele>408.6</ele><time>2026-05-02T12:43:13.993Z</time></trkpt><trkpt lat="43.5801785" lon="11.3963679"><ele>407.8</ele><time>2026-05-02T12:43:14.993Z</time></trkpt><trkpt lat="43.5802527" lon="11.3963158"><ele>407.0</ele><time>2026-05-02T12:43:15.993Z</time></trkpt><trkpt lat="43.5803109" lon="11.3961897"><ele>406.49999999999994</ele><time>2026-05-02T12:43:17.993Z</time></trkpt><trkpt lat="43.5802965" lon="11.396073"><ele>406.0</ele><time>2026-05-02T12:43:18.993Z</time></trkpt><trkpt lat="43.5802838" lon="11.3959589"><ele>405.5</ele><time>2026-05-02T12:43:19.993Z</time></trkpt><trkpt lat="43.580273" lon="11.3958546"><ele>405.0</ele><time>2026-05-02T12:43:20.993Z</time></trkpt><trkpt lat="43.5802753" lon="11.3957536"><ele>404.49999999999994</ele><time>2026-05-02T12:43:21.993Z</time></trkpt><trkpt lat="43.5802905" lon="11.3956629"><ele>404.0</ele><time>2026-05-02T12:43:22.993Z</time></trkpt><trkpt lat="43.5803541" lon="11.3955517"><ele>403.0</ele><time>2026-05-02T12:43:24.993Z</time></trkpt><trkpt lat="43.5804806" lon="11.3954885"><ele>402.0</ele><time>2026-05-02T12:43:26.993Z</time></trkpt><trkpt lat="43.5805824" lon="11.3954683"><ele>401.0</ele><time>2026-05-02T12:43:27.993Z</time></trkpt><trkpt lat="43.580686" lon="11.3954383"><ele>400.0</ele><time>2026-05-02T12:43:28.993Z</time></trkpt><trkpt lat="43.5807821" lon="11.3953998"><ele>399.0</ele><time>2026-05-02T12:43:29.993Z</time></trkpt><trkpt lat="43.580877" lon="11.3953889"><ele>399.0</ele><time>2026-05-02T12:43:30.993Z</time></trkpt><trkpt lat="43.5809668" lon="11.3954086"><ele>399.0</ele><time>2026-05-02T12:43:31.993Z</time></trkpt><trkpt lat="43.5810557" lon="11.3954423"><ele>399.0</ele><time>2026-05-02T12:43:32.993Z</time></trkpt><trkpt lat="43.581144" lon="11.395473"><ele>399.0</ele><time>2026-05-02T12:43:33.993Z</time></trkpt><trkpt lat="43.5812283" lon="11.3954557"><ele>399.0</ele><time>2026-05-02T12:43:34.993Z</time></trkpt><trkpt lat="43.5813058" lon="11.3954124"><ele>399.0</ele><time>2026-05-02T12:43:35.993Z</time></trkpt><trkpt lat="43.5813883" lon="11.3953482"><ele>398.0</ele><time>2026-05-02T12:43:36.993Z</time></trkpt><trkpt lat="43.5814867" lon="11.3953133"><ele>397.0</ele><time>2026-05-02T12:43:37.994Z</time></trkpt><trkpt lat="43.5816023" lon="11.3953033"><ele>396.0</ele><time>2026-05-02T12:43:38.993Z</time></trkpt><trkpt lat="43.581708" lon="11.3952771"><ele>395.0</ele><time>2026-05-02T12:43:39.993Z</time></trkpt><trkpt lat="43.581814" lon="11.3952271"><ele>394.0</ele><time>2026-05-02T12:43:40.993Z</time></trkpt><trkpt lat="43.5819326" lon="11.395145"><ele>394.79999999999995</ele><time>2026-05-02T12:43:41.993Z</time></trkpt><trkpt lat="43.5820401" lon="11.3951024"><ele>395.59999999999997</ele><time>2026-05-02T12:43:42.993Z</time></trkpt><trkpt lat="43.5821478" lon="11.3950995"><ele>396.4</ele><time>2026-05-02T12:43:43.993Z</time></trkpt><trkpt lat="43.582237" lon="11.3951489"><ele>397.2</ele><time>2026-05-02T12:43:44.994Z</time></trkpt><trkpt lat="43.5823054" lon="11.3952163"><ele>398.0</ele><time>2026-05-02T12:43:45.993Z</time></trkpt><trkpt lat="43.5823722" lon="11.395241"><ele>397.99999999999994</ele><time>2026-05-02T12:43:46.993Z</time></trkpt><trkpt lat="43.5824603" lon="11.3951559"><ele>398.0</ele><time>2026-05-02T12:43:48.993Z</time></trkpt><trkpt lat="43.5825105" lon="11.3950839"><ele>398.0</ele><time>2026-05-02T12:43:49.993Z</time></trkpt><trkpt lat="43.5825672" lon="11.3950309"><ele>398.0</ele><time>2026-05-02T12:43:50.993Z</time></trkpt><trkpt lat="43.5826382" lon="11.3950078"><ele>397.99999999999994</ele><time>2026-05-02T12:43:51.993Z</time></trkpt><trkpt lat="43.5827361" lon="11.3949943"><ele>398.0</ele><time>2026-05-02T12:43:52.993Z</time></trkpt><trkpt lat="43.5828469" lon="11.3949969"><ele>398.79999999999995</ele><time>2026-05-02T12:43:53.993Z</time></trkpt><trkpt lat="43.5829615" lon="11.3950187"><ele>399.6</ele><time>2026-05-02T12:43:54.993Z</time></trkpt><trkpt lat="43.5830623" lon="11.3950358"><ele>400.4</ele><time>2026-05-02T12:43:55.993Z</time></trkpt><trkpt lat="43.5831313" lon="11.3950215"><ele>401.20000000000005</ele><time>2026-05-02T12:43:56.993Z</time></trkpt><trkpt lat="43.5832067" lon="11.3949673"><ele>402.0</ele><time>2026-05-02T12:43:57.993Z</time></trkpt><trkpt lat="43.58329" lon="11.3948637"><ele>402.0</ele><time>2026-05-02T12:43:58.993Z</time></trkpt><trkpt lat="43.5833899" lon="11.3947418"><ele>402.0</ele><time>2026-05-02T12:43:59.993Z</time></trkpt><trkpt lat="43.5835036" lon="11.3946184"><ele>402.0</ele><time>2026-05-02T12:44:00.993Z</time></trkpt><trkpt lat="43.5836102" lon="11.3944966"><ele>402.0</ele><time>2026-05-02T12:44:01.993Z</time></trkpt><trkpt lat="43.5837045" lon="11.3944038"><ele>403.8</ele><time>2026-05-02T12:44:02.993Z</time></trkpt><trkpt lat="43.583792" lon="11.3943248"><ele>405.6</ele><time>2026-05-02T12:44:03.993Z</time></trkpt><trkpt lat="43.58386" lon="11.3942434"><ele>407.40000000000003</ele><time>2026-05-02T12:44:04.993Z</time></trkpt><trkpt lat="43.5839114" lon="11.3941263"><ele>409.20000000000005</ele><time>2026-05-02T12:44:05.993Z</time></trkpt><trkpt lat="43.5839576" lon="11.3939798"><ele>411.0</ele><time>2026-05-02T12:44:06.993Z</time></trkpt><trkpt lat="43.5839921" lon="11.3938201"><ele>412.8</ele><time>2026-05-02T12:44:07.993Z</time></trkpt><trkpt lat="43.5840213" lon="11.3936707"><ele>414.6</ele><time>2026-05-02T12:44:08.993Z</time></trkpt><trkpt lat="43.5840457" lon="11.3935257"><ele>416.4</ele><time>2026-05-02T12:44:09.993Z</time></trkpt><trkpt lat="43.5840507" lon="11.3933779"><ele>418.2</ele><time>2026-05-02T12:44:10.993Z</time></trkpt><trkpt lat="43.5840535" lon="11.3932284"><ele>420.0</ele><time>2026-05-02T12:44:11.993Z</time></trkpt><trkpt lat="43.5840474" lon="11.3930683"><ele>421.8</ele><time>2026-05-02T12:44:12.993Z</time></trkpt><trkpt lat="43.584057" lon="11.3929148"><ele>423.6</ele><time>2026-05-02T12:44:13.993Z</time></trkpt><trkpt lat="43.5840714" lon="11.3927605"><ele>425.4</ele><time>2026-05-02T12:44:14.993Z</time></trkpt><trkpt lat="43.5840829" lon="11.3926309"><ele>427.2</ele><time>2026-05-02T12:44:15.993Z</time></trkpt><trkpt lat="43.584072" lon="11.3925329"><ele>429.0</ele><time>2026-05-02T12:44:16.993Z</time></trkpt><trkpt lat="43.5840551" lon="11.3924302"><ele>429.0</ele><time>2026-05-02T12:44:17.993Z</time></trkpt><trkpt lat="43.584022" lon="11.3923214"><ele>429.0</ele><time>2026-05-02T12:44:18.993Z</time></trkpt><trkpt lat="43.5839798" lon="11.3922215"><ele>429.0</ele><time>2026-05-02T12:44:19.993Z</time></trkpt><trkpt lat="43.5839182" lon="11.3921075"><ele>429.0</ele><time>2026-05-02T12:44:20.993Z</time></trkpt><trkpt lat="43.5838503" lon="11.3920158"><ele>429.0</ele><time>2026-05-02T12:44:21.993Z</time></trkpt><trkpt lat="43.5837679" lon="11.3919378"><ele>429.3333333333333</ele><time>2026-05-02T12:44:22.993Z</time></trkpt><trkpt lat="43.5836887" lon="11.3918824"><ele>429.66666666666663</ele><time>2026-05-02T12:44:23.993Z</time></trkpt><trkpt lat="43.5836107" lon="11.3918417"><ele>430.0</ele><time>2026-05-02T12:44:24.993Z</time></trkpt><trkpt lat="43.5835302" lon="11.3918207"><ele>430.3333333333333</ele><time>2026-05-02T12:44:25.993Z</time></trkpt><trkpt lat="43.5834565" lon="11.3917823"><ele>430.66666666666663</ele><time>2026-05-02T12:44:26.993Z</time></trkpt><trkpt lat="43.5833888" lon="11.3916952"><ele>431.0</ele><time>2026-05-02T12:44:27.993Z</time></trkpt><trkpt lat="43.5833168" lon="11.3915506"><ele>431.0</ele><time>2026-05-02T12:44:28.993Z</time></trkpt><trkpt lat="43.5832719" lon="11.3914036"><ele>431.0</ele><time>2026-05-02T12:44:29.994Z</time></trkpt><trkpt lat="43.5832475" lon="11.391276"><ele>431.0</ele><time>2026-05-02T12:44:30.993Z</time></trkpt><trkpt lat="43.5832525" lon="11.391145"><ele>431.0</ele><time>2026-05-02T12:44:31.993Z</time></trkpt><trkpt lat="43.583279" lon="11.3909959"><ele>431.0</ele><time>2026-05-02T12:44:32.993Z</time></trkpt><trkpt lat="43.5833304" lon="11.3908186"><ele>431.4</ele><time>2026-05-02T12:44:33.993Z</time></trkpt><trkpt lat="43.5833727" lon="11.3906368"><ele>431.8</ele><time>2026-05-02T12:44:34.993Z</time></trkpt><trkpt lat="43.5834053" lon="11.3904659"><ele>432.19999999999993</ele><time>2026-05-02T12:44:35.993Z</time></trkpt><trkpt lat="43.5834258" lon="11.390336"><ele>432.59999999999997</ele><time>2026-05-02T12:44:36.993Z</time></trkpt><trkpt lat="43.58344" lon="11.3902236"><ele>433.0</ele><time>2026-05-02T12:44:37.993Z</time></trkpt><trkpt lat="43.5834337" lon="11.3901282"><ele>435.0</ele><time>2026-05-02T12:44:38.993Z</time></trkpt><trkpt lat="43.5833156" lon="11.3900396"><ele>437.0</ele><time>2026-05-02T12:44:40.993Z</time></trkpt><trkpt lat="43.5832188" lon="11.3900135"><ele>439.0</ele><time>2026-05-02T12:44:41.993Z</time></trkpt><trkpt lat="43.5830896" lon="11.3899743"><ele>441.0</ele><time>2026-05-02T12:44:42.993Z</time></trkpt><trkpt lat="43.5829521" lon="11.3899039"><ele>441.8</ele><time>2026-05-02T12:44:43.993Z</time></trkpt><trkpt lat="43.5828179" lon="11.3898424"><ele>442.6</ele><time>2026-05-02T12:44:44.993Z</time></trkpt><trkpt lat="43.5826982" lon="11.3897827"><ele>443.4</ele><time>2026-05-02T12:44:45.993Z</time></trkpt><trkpt lat="43.582601" lon="11.3897253"><ele>444.2</ele><time>2026-05-02T12:44:46.993Z</time></trkpt><trkpt lat="43.5825461" lon="11.3896623"><ele>445.0</ele><time>2026-05-02T12:44:47.993Z</time></trkpt><trkpt lat="43.5824583" lon="11.3895987"><ele>447.00000000000006</ele><time>2026-05-02T12:44:49.993Z</time></trkpt><trkpt lat="43.5824521" lon="11.3895104"><ele>449.0</ele><time>2026-05-02T12:44:51.993Z</time></trkpt><trkpt lat="43.5825318" lon="11.3894333"><ele>451.0</ele><time>2026-05-02T12:44:53.993Z</time></trkpt><trkpt lat="43.5826174" lon="11.3893812"><ele>453.0</ele><time>2026-05-02T12:44:54.993Z</time></trkpt><trkpt lat="43.5826971" lon="11.3893071"><ele>455.00000000000006</ele><time>2026-05-02T12:44:55.993Z</time></trkpt><trkpt lat="43.582771" lon="11.3892214"><ele>457.0</ele><time>2026-05-02T12:44:56.993Z</time></trkpt><trkpt lat="43.5828438" lon="11.3891516"><ele>456.0</ele><time>2026-05-02T12:44:57.993Z</time></trkpt><trkpt lat="43.582911" lon="11.3891066"><ele>455.00000000000006</ele><time>2026-05-02T12:44:58.993Z</time></trkpt><trkpt lat="43.5830038" lon="11.3891087"><ele>454.00000000000006</ele><time>2026-05-02T12:44:59.993Z</time></trkpt><trkpt lat="43.583104" lon="11.389137"><ele>453.0</ele><time>2026-05-02T12:45:00.993Z</time></trkpt><trkpt lat="43.5832007" lon="11.3891643"><ele>452.0</ele><time>2026-05-02T12:45:01.993Z</time></trkpt><trkpt lat="43.583281" lon="11.3891872"><ele>452.0</ele><time>2026-05-02T12:45:02.993Z</time></trkpt><trkpt lat="43.583392" lon="11.3891918"><ele>452.00000000000006</ele><time>2026-05-02T12:45:04.993Z</time></trkpt><trkpt lat="43.583494" lon="11.389184"><ele>452.00000000000006</ele><time>2026-05-02T12:45:06.993Z</time></trkpt><trkpt lat="43.5835623" lon="11.3892084"><ele>452.0</ele><time>2026-05-02T12:45:07.993Z</time></trkpt><trkpt lat="43.5836501" lon="11.3892546"><ele>452.0</ele><time>2026-05-02T12:45:08.994Z</time></trkpt><trkpt lat="43.5837475" lon="11.3892937"><ele>450.8</ele><time>2026-05-02T12:45:09.994Z</time></trkpt><trkpt lat="43.58384" lon="11.3893283"><ele>449.6</ele><time>2026-05-02T12:45:10.993Z</time></trkpt><trkpt lat="43.5839384" lon="11.3893626"><ele>448.40000000000003</ele><time>2026-05-02T12:45:11.993Z</time></trkpt><trkpt lat="43.5840383" lon="11.3894019"><ele>447.20000000000005</ele><time>2026-05-02T12:45:12.993Z</time></trkpt><trkpt lat="43.5841528" lon="11.3894382"><ele>446.0</ele><time>2026-05-02T12:45:13.993Z</time></trkpt><trkpt lat="43.5842942" lon="11.3894559"><ele>446.0</ele><time>2026-05-02T12:45:14.993Z</time></trkpt><trkpt lat="43.5844347" lon="11.3894452"><ele>446.0</ele><time>2026-05-02T12:45:15.993Z</time></trkpt><trkpt lat="43.5845747" lon="11.3894136"><ele>446.0</ele><time>2026-05-02T12:45:16.993Z</time></trkpt><trkpt lat="43.5847068" lon="11.3893562"><ele>446.0</ele><time>2026-05-02T12:45:17.993Z</time></trkpt><trkpt lat="43.5848343" lon="11.3892579"><ele>447.3333333333333</ele><time>2026-05-02T12:45:18.993Z</time></trkpt><trkpt lat="43.5849576" lon="11.3891244"><ele>448.66666666666663</ele><time>2026-05-02T12:45:19.993Z</time></trkpt><trkpt lat="43.5850807" lon="11.3889777"><ele>450.0</ele><time>2026-05-02T12:45:20.993Z</time></trkpt><trkpt lat="43.5852032" lon="11.3888322"><ele>449.33333333333337</ele><time>2026-05-02T12:45:21.993Z</time></trkpt><trkpt lat="43.5853283" lon="11.3886878"><ele>448.6666666666667</ele><time>2026-05-02T12:45:22.993Z</time></trkpt><trkpt lat="43.5854523" lon="11.3885483"><ele>448.0</ele><time>2026-05-02T12:45:23.993Z</time></trkpt><trkpt lat="43.5855752" lon="11.3884063"><ele>448.0</ele><time>2026-05-02T12:45:24.993Z</time></trkpt><trkpt lat="43.5856869" lon="11.3882745"><ele>448.0</ele><time>2026-05-02T12:45:25.993Z</time></trkpt><trkpt lat="43.5858082" lon="11.388158"><ele>448.0</ele><time>2026-05-02T12:45:26.993Z</time></trkpt><trkpt lat="43.5859366" lon="11.3880691"><ele>448.0</ele><time>2026-05-02T12:45:27.993Z</time></trkpt><trkpt lat="43.5860722" lon="11.3880159"><ele>447.33333333333337</ele><time>2026-05-02T12:45:28.993Z</time></trkpt><trkpt lat="43.5862192" lon="11.3879809"><ele>446.66666666666663</ele><time>2026-05-02T12:45:29.993Z</time></trkpt><trkpt lat="43.5863716" lon="11.3879889"><ele>446.0</ele><time>2026-05-02T12:45:30.993Z</time></trkpt><trkpt lat="43.5865249" lon="11.3880102"><ele>446.0</ele><time>2026-05-02T12:45:31.993Z</time></trkpt><trkpt lat="43.5866809" lon="11.3880525"><ele>446.0</ele><time>2026-05-02T12:45:32.993Z</time></trkpt><trkpt lat="43.5868349" lon="11.3880842"><ele>446.0</ele><time>2026-05-02T12:45:33.993Z</time></trkpt><trkpt lat="43.5869939" lon="11.3881106"><ele>442.66666666666663</ele><time>2026-05-02T12:45:34.993Z</time></trkpt><trkpt lat="43.5871511" lon="11.3881437"><ele>439.33333333333337</ele><time>2026-05-02T12:45:35.993Z</time></trkpt><trkpt lat="43.5873052" lon="11.3881854"><ele>436.0</ele><time>2026-05-02T12:45:36.993Z</time></trkpt><trkpt lat="43.5874563" lon="11.3882174"><ele>436.0</ele><time>2026-05-02T12:45:37.993Z</time></trkpt><trkpt lat="43.587605" lon="11.3882469"><ele>436.0</ele><time>2026-05-02T12:45:38.993Z</time></trkpt><trkpt lat="43.5877536" lon="11.3882851"><ele>436.0</ele><time>2026-05-02T12:45:39.993Z</time></trkpt><trkpt lat="43.5879049" lon="11.3883281"><ele>433.0</ele><time>2026-05-02T12:45:40.993Z</time></trkpt><trkpt lat="43.5880612" lon="11.388387"><ele>430.0</ele><time>2026-05-02T12:45:41.993Z</time></trkpt><trkpt lat="43.5882177" lon="11.3884531"><ele>427.0</ele><time>2026-05-02T12:45:42.993Z</time></trkpt><trkpt lat="43.5883769" lon="11.3885234"><ele>427.0</ele><time>2026-05-02T12:45:43.993Z</time></trkpt><trkpt lat="43.5885323" lon="11.3886181"><ele>427.0</ele><time>2026-05-02T12:45:44.993Z</time></trkpt><trkpt lat="43.588684" lon="11.3887244"><ele>427.0</ele><time>2026-05-02T12:45:45.993Z</time></trkpt><trkpt lat="43.5888294" lon="11.388825"><ele>428.33333333333337</ele><time>2026-05-02T12:45:46.993Z</time></trkpt><trkpt lat="43.5889724" lon="11.38893"><ele>429.66666666666663</ele><time>2026-05-02T12:45:47.993Z</time></trkpt><trkpt lat="43.5891135" lon="11.3890267"><ele>431.0</ele><time>2026-05-02T12:45:48.993Z</time></trkpt><trkpt lat="43.5892674" lon="11.389089"><ele>431.0</ele><time>2026-05-02T12:45:49.993Z</time></trkpt><trkpt lat="43.5894194" lon="11.3891382"><ele>431.0</ele><time>2026-05-02T12:45:50.993Z</time></trkpt><trkpt lat="43.5895767" lon="11.3891494"><ele>431.0</ele><time>2026-05-02T12:45:51.993Z</time></trkpt><trkpt lat="43.5897486" lon="11.3891415"><ele>427.3333333333333</ele><time>2026-05-02T12:45:52.993Z</time></trkpt><trkpt lat="43.5899142" lon="11.3891135"><ele>423.66666666666663</ele><time>2026-05-02T12:45:53.994Z</time></trkpt><trkpt lat="43.5900766" lon="11.3890847"><ele>420.0</ele><time>2026-05-02T12:45:54.993Z</time></trkpt><trkpt lat="43.5902366" lon="11.3890351"><ele>415.0</ele><time>2026-05-02T12:45:55.993Z</time></trkpt><trkpt lat="43.5903888" lon="11.3889528"><ele>410.0</ele><time>2026-05-02T12:45:56.993Z</time></trkpt><trkpt lat="43.5905321" lon="11.3888894"><ele>405.0</ele><time>2026-05-02T12:45:57.993Z</time></trkpt><trkpt lat="43.5906801" lon="11.3888674"><ele>405.0</ele><time>2026-05-02T12:45:58.993Z</time></trkpt><trkpt lat="43.5908302" lon="11.3888653"><ele>405.0</ele><time>2026-05-02T12:45:59.993Z</time></trkpt><trkpt lat="43.5909816" lon="11.3888528"><ele>405.0</ele><time>2026-05-02T12:46:00.993Z</time></trkpt><trkpt lat="43.5911409" lon="11.3888308"><ele>398.0</ele><time>2026-05-02T12:46:01.993Z</time></trkpt><trkpt lat="43.5912993" lon="11.3888101"><ele>391.0</ele><time>2026-05-02T12:46:02.993Z</time></trkpt><trkpt lat="43.5914535" lon="11.3887839"><ele>384.0</ele><time>2026-05-02T12:46:03.993Z</time></trkpt><trkpt lat="43.5916041" lon="11.3887622"><ele>384.0</ele><time>2026-05-02T12:46:04.993Z</time></trkpt><trkpt lat="43.5917404" lon="11.388761"><ele>384.0</ele><time>2026-05-02T12:46:05.993Z</time></trkpt><trkpt lat="43.5918704" lon="11.3888158"><ele>384.0</ele><time>2026-05-02T12:46:06.993Z</time></trkpt><trkpt lat="43.5919753" lon="11.3889303"><ele>384.0</ele><time>2026-05-02T12:46:07.993Z</time></trkpt><trkpt lat="43.5920215" lon="11.3890717"><ele>382.6</ele><time>2026-05-02T12:46:08.994Z</time></trkpt><trkpt lat="43.5920305" lon="11.3892428"><ele>381.2</ele><time>2026-05-02T12:46:09.993Z</time></trkpt><trkpt lat="43.5920263" lon="11.3894028"><ele>379.8</ele><time>2026-05-02T12:46:10.993Z</time></trkpt><trkpt lat="43.5920549" lon="11.3895345"><ele>378.40000000000003</ele><time>2026-05-02T12:46:11.993Z</time></trkpt><trkpt lat="43.5921169" lon="11.3896309"><ele>377.0</ele><time>2026-05-02T12:46:12.993Z</time></trkpt><trkpt lat="43.5922138" lon="11.3896586"><ele>377.0</ele><time>2026-05-02T12:46:13.993Z</time></trkpt><trkpt lat="43.5923235" lon="11.3895797"><ele>377.0</ele><time>2026-05-02T12:46:14.993Z</time></trkpt><trkpt lat="43.5923888" lon="11.3894408"><ele>377.0</ele><time>2026-05-02T12:46:15.993Z</time></trkpt><trkpt lat="43.5924121" lon="11.3892616"><ele>377.0</ele><time>2026-05-02T12:46:16.993Z</time></trkpt><trkpt lat="43.5924253" lon="11.389062"><ele>377.0</ele><time>2026-05-02T12:46:17.993Z</time></trkpt><trkpt lat="43.5924336" lon="11.3888599"><ele>377.0</ele><time>2026-05-02T12:46:18.993Z</time></trkpt><trkpt lat="43.5924446" lon="11.3886427"><ele>377.0</ele><time>2026-05-02T12:46:19.993Z</time></trkpt><trkpt lat="43.5924642" lon="11.3884255"><ele>374.6666666666667</ele><time>2026-05-02T12:46:20.993Z</time></trkpt><trkpt lat="43.5924787" lon="11.3882116"><ele>372.3333333333333</ele><time>2026-05-02T12:46:21.993Z</time></trkpt><trkpt lat="43.5924964" lon="11.3880092"><ele>370.0</ele><time>2026-05-02T12:46:22.993Z</time></trkpt><trkpt lat="43.5925012" lon="11.3878035"><ele>369.75</ele><time>2026-05-02T12:46:23.993Z</time></trkpt><trkpt lat="43.5925028" lon="11.3875985"><ele>369.5</ele><time>2026-05-02T12:46:24.993Z</time></trkpt><trkpt lat="43.5924905" lon="11.3874068"><ele>369.25</ele><time>2026-05-02T12:46:25.993Z</time></trkpt><trkpt lat="43.5924764" lon="11.3872408"><ele>369.0</ele><time>2026-05-02T12:46:26.993Z</time></trkpt><trkpt lat="43.5924754" lon="11.3870937"><ele>367.75</ele><time>2026-05-02T12:46:27.993Z</time></trkpt><trkpt lat="43.5925128" lon="11.3869574"><ele>366.5</ele><time>2026-05-02T12:46:28.993Z</time></trkpt><trkpt lat="43.5925923" lon="11.3868409"><ele>365.25</ele><time>2026-05-02T12:46:29.994Z</time></trkpt><trkpt lat="43.5927363" lon="11.3867696"><ele>364.0</ele><time>2026-05-02T12:46:30.993Z</time></trkpt><trkpt lat="43.5928811" lon="11.3867292"><ele>361.0</ele><time>2026-05-02T12:46:31.993Z</time></trkpt><trkpt lat="43.5930392" lon="11.3867028"><ele>358.0</ele><time>2026-05-02T12:46:32.993Z</time></trkpt><trkpt lat="43.5931986" lon="11.3866797"><ele>355.0</ele><time>2026-05-02T12:46:33.993Z</time></trkpt><trkpt lat="43.5933532" lon="11.3866655"><ele>355.0</ele><time>2026-05-02T12:46:34.993Z</time></trkpt><trkpt lat="43.5935132" lon="11.3866557"><ele>355.0</ele><time>2026-05-02T12:46:35.993Z</time></trkpt><trkpt lat="43.5936559" lon="11.3866415"><ele>355.0</ele><time>2026-05-02T12:46:36.993Z</time></trkpt><trkpt lat="43.593793" lon="11.3866221"><ele>355.0</ele><time>2026-05-02T12:46:37.993Z</time></trkpt><trkpt lat="43.5939175" lon="11.3866141"><ele>353.0</ele><time>2026-05-02T12:46:38.993Z</time></trkpt><trkpt lat="43.5940315" lon="11.386656"><ele>351.0</ele><time>2026-05-02T12:46:39.993Z</time></trkpt><trkpt lat="43.5941461" lon="11.3867237"><ele>349.0</ele><time>2026-05-02T12:46:40.993Z</time></trkpt><trkpt lat="43.5942382" lon="11.3868702"><ele>347.0</ele><time>2026-05-02T12:46:41.993Z</time></trkpt><trkpt lat="43.594288" lon="11.3870693"><ele>347.25</ele><time>2026-05-02T12:46:42.993Z</time></trkpt><trkpt lat="43.59429" lon="11.3872664"><ele>347.5</ele><time>2026-05-02T12:46:43.993Z</time></trkpt><trkpt lat="43.5942849" lon="11.3874502"><ele>347.75</ele><time>2026-05-02T12:46:44.993Z</time></trkpt><trkpt lat="43.5942895" lon="11.3876412"><ele>348.0</ele><time>2026-05-02T12:46:45.993Z</time></trkpt><trkpt lat="43.5943454" lon="11.3878277"><ele>348.0</ele><time>2026-05-02T12:46:46.993Z</time></trkpt><trkpt lat="43.5944346" lon="11.3880013"><ele>348.0</ele><time>2026-05-02T12:46:47.993Z</time></trkpt><trkpt lat="43.5945556" lon="11.3881551"><ele>348.0</ele><time>2026-05-02T12:46:48.993Z</time></trkpt><trkpt lat="43.5946896" lon="11.3882939"><ele>343.6666666666667</ele><time>2026-05-02T12:46:49.993Z</time></trkpt><trkpt lat="43.5948231" lon="11.3884206"><ele>339.33333333333337</ele><time>2026-05-02T12:46:50.993Z</time></trkpt><trkpt lat="43.5949538" lon="11.3885247"><ele>335.0</ele><time>2026-05-02T12:46:51.993Z</time></trkpt><trkpt lat="43.5950865" lon="11.3886008"><ele>335.0</ele><time>2026-05-02T12:46:52.993Z</time></trkpt><trkpt lat="43.5952218" lon="11.3886314"><ele>335.0</ele><time>2026-05-02T12:46:53.993Z</time></trkpt><trkpt lat="43.5953514" lon="11.3886281"><ele>335.0</ele><time>2026-05-02T12:46:54.993Z</time></trkpt><trkpt lat="43.595442" lon="11.3886104"><ele>335.0</ele><time>2026-05-02T12:46:55.993Z</time></trkpt><trkpt lat="43.5955454" lon="11.3886374"><ele>336.25</ele><time>2026-05-02T12:46:57.993Z</time></trkpt><trkpt lat="43.5956082" lon="11.3888087"><ele>337.5</ele><time>2026-05-02T12:46:59.993Z</time></trkpt><trkpt lat="43.5956376" lon="11.388947"><ele>338.75</ele><time>2026-05-02T12:47:00.993Z</time></trkpt><trkpt lat="43.5956678" lon="11.3890991"><ele>340.0</ele><time>2026-05-02T12:47:01.994Z</time></trkpt><trkpt lat="43.5957012" lon="11.389271"><ele>340.3333333333333</ele><time>2026-05-02T12:47:02.993Z</time></trkpt><trkpt lat="43.5957486" lon="11.3894511"><ele>340.6666666666667</ele><time>2026-05-02T12:47:03.993Z</time></trkpt><trkpt lat="43.595809" lon="11.3896534"><ele>341.0</ele><time>2026-05-02T12:47:04.993Z</time></trkpt><trkpt lat="43.5958702" lon="11.3898625"><ele>340.33333333333337</ele><time>2026-05-02T12:47:05.993Z</time></trkpt><trkpt lat="43.5959353" lon="11.3900845"><ele>339.6666666666667</ele><time>2026-05-02T12:47:06.994Z</time></trkpt><trkpt lat="43.5959943" lon="11.3903063"><ele>339.0</ele><time>2026-05-02T12:47:07.993Z</time></trkpt><trkpt lat="43.5960592" lon="11.3905362"><ele>337.6666666666667</ele><time>2026-05-02T12:47:08.993Z</time></trkpt><trkpt lat="43.5961264" lon="11.3907762"><ele>336.33333333333337</ele><time>2026-05-02T12:47:09.993Z</time></trkpt><trkpt lat="43.5962046" lon="11.391025"><ele>335.0</ele><time>2026-05-02T12:47:10.993Z</time></trkpt><trkpt lat="43.5962865" lon="11.3912704"><ele>337.6666666666667</ele><time>2026-05-02T12:47:11.993Z</time></trkpt><trkpt lat="43.5963799" lon="11.3915237"><ele>340.3333333333333</ele><time>2026-05-02T12:47:12.993Z</time></trkpt><trkpt lat="43.596476" lon="11.3917786"><ele>343.0</ele><time>2026-05-02T12:47:13.993Z</time></trkpt><trkpt lat="43.5965759" lon="11.3920312"><ele>339.66666666666663</ele><time>2026-05-02T12:47:14.993Z</time></trkpt><trkpt lat="43.5966738" lon="11.3922799"><ele>336.3333333333333</ele><time>2026-05-02T12:47:15.993Z</time></trkpt><trkpt lat="43.5967689" lon="11.3925377"><ele>333.0</ele><time>2026-05-02T12:47:16.993Z</time></trkpt><trkpt lat="43.5968674" lon="11.3927843"><ele>332.6666666666667</ele><time>2026-05-02T12:47:17.993Z</time></trkpt><trkpt lat="43.5969751" lon="11.3930292"><ele>332.33333333333337</ele><time>2026-05-02T12:47:18.993Z</time></trkpt><trkpt lat="43.5970977" lon="11.3932473"><ele>332.0</ele><time>2026-05-02T12:47:19.993Z</time></trkpt><trkpt lat="43.5972421" lon="11.3934351"><ele>332.0</ele><time>2026-05-02T12:47:20.993Z</time></trkpt><trkpt lat="43.5974101" lon="11.393571"><ele>332.0</ele><time>2026-05-02T12:47:21.993Z</time></trkpt><trkpt lat="43.5975906" lon="11.3936868"><ele>332.0</ele><time>2026-05-02T12:47:22.993Z</time></trkpt><trkpt lat="43.5977497" lon="11.3938032"><ele>330.6666666666667</ele><time>2026-05-02T12:47:23.993Z</time></trkpt><trkpt lat="43.5978607" lon="11.3939758"><ele>329.3333333333333</ele><time>2026-05-02T12:47:24.993Z</time></trkpt><trkpt lat="43.5979321" lon="11.3941845"><ele>328.0</ele><time>2026-05-02T12:47:25.993Z</time></trkpt><trkpt lat="43.597964" lon="11.3944214"><ele>328.0</ele><time>2026-05-02T12:47:26.993Z</time></trkpt><trkpt lat="43.5979801" lon="11.3946504"><ele>328.0</ele><time>2026-05-02T12:47:27.993Z</time></trkpt><trkpt lat="43.5979864" lon="11.3948837"><ele>328.0</ele><time>2026-05-02T12:47:28.994Z</time></trkpt><trkpt lat="43.5980196" lon="11.3951167"><ele>328.0</ele><time>2026-05-02T12:47:29.993Z</time></trkpt><trkpt lat="43.5980844" lon="11.3953432"><ele>328.0</ele><time>2026-05-02T12:47:30.993Z</time></trkpt><trkpt lat="43.5981673" lon="11.3955576"><ele>328.0</ele><time>2026-05-02T12:47:31.993Z</time></trkpt><trkpt lat="43.5982637" lon="11.3957767"><ele>326.3333333333333</ele><time>2026-05-02T12:47:32.993Z</time></trkpt><trkpt lat="43.5983721" lon="11.3959871"><ele>324.6666666666667</ele><time>2026-05-02T12:47:33.993Z</time></trkpt><trkpt lat="43.5984918" lon="11.3961911"><ele>323.0</ele><time>2026-05-02T12:47:34.993Z</time></trkpt><trkpt lat="43.5986148" lon="11.3964021"><ele>324.0</ele><time>2026-05-02T12:47:35.993Z</time></trkpt><trkpt lat="43.5987342" lon="11.396608"><ele>325.0</ele><time>2026-05-02T12:47:36.993Z</time></trkpt><trkpt lat="43.5988469" lon="11.396796"><ele>326.0</ele><time>2026-05-02T12:47:37.993Z</time></trkpt><trkpt lat="43.5989628" lon="11.3969513"><ele>326.0</ele><time>2026-05-02T12:47:38.993Z</time></trkpt><trkpt lat="43.599104" lon="11.3970908"><ele>326.0</ele><time>2026-05-02T12:47:39.993Z</time></trkpt><trkpt lat="43.5992526" lon="11.3972208"><ele>326.0</ele><time>2026-05-02T12:47:40.993Z</time></trkpt><trkpt lat="43.5994049" lon="11.397335"><ele>327.6666666666667</ele><time>2026-05-02T12:47:41.993Z</time></trkpt><trkpt lat="43.5995632" lon="11.3974479"><ele>329.3333333333333</ele><time>2026-05-02T12:47:42.993Z</time></trkpt><trkpt lat="43.5997104" lon="11.3975741"><ele>331.0</ele><time>2026-05-02T12:47:43.993Z</time></trkpt><trkpt lat="43.5998673" lon="11.397732"><ele>331.0</ele><time>2026-05-02T12:47:44.993Z</time></trkpt><trkpt lat="43.6000319" lon="11.3979143"><ele>331.0</ele><time>2026-05-02T12:47:45.993Z</time></trkpt><trkpt lat="43.6001917" lon="11.3981179"><ele>331.0</ele><time>2026-05-02T12:47:46.993Z</time></trkpt><trkpt lat="43.6003405" lon="11.3983303"><ele>330.66666666666663</ele><time>2026-05-02T12:47:47.993Z</time></trkpt><trkpt lat="43.6004788" lon="11.3985525"><ele>330.3333333333333</ele><time>2026-05-02T12:47:48.993Z</time></trkpt><trkpt lat="43.6006051" lon="11.3987758"><ele>330.0</ele><time>2026-05-02T12:47:49.993Z</time></trkpt><trkpt lat="43.6007147" lon="11.3989882"><ele>327.6666666666667</ele><time>2026-05-02T12:47:50.993Z</time></trkpt><trkpt lat="43.6008073" lon="11.3991987"><ele>325.33333333333337</ele><time>2026-05-02T12:47:51.993Z</time></trkpt><trkpt lat="43.6008716" lon="11.3994129"><ele>323.0</ele><time>2026-05-02T12:47:52.993Z</time></trkpt><trkpt lat="43.6009079" lon="11.3996502"><ele>321.6666666666667</ele><time>2026-05-02T12:47:53.993Z</time></trkpt><trkpt lat="43.6009011" lon="11.3999081"><ele>320.3333333333333</ele><time>2026-05-02T12:47:54.993Z</time></trkpt><trkpt lat="43.6008583" lon="11.4001947"><ele>319.0</ele><time>2026-05-02T12:47:55.993Z</time></trkpt><trkpt lat="43.6008078" lon="11.4004886"><ele>318.66666666666663</ele><time>2026-05-02T12:47:56.993Z</time></trkpt><trkpt lat="43.6007517" lon="11.4007834"><ele>318.3333333333333</ele><time>2026-05-02T12:47:57.993Z</time></trkpt><trkpt lat="43.6007048" lon="11.4010901"><ele>318.0</ele><time>2026-05-02T12:47:58.994Z</time></trkpt><trkpt lat="43.6006573" lon="11.4013986"><ele>319.0</ele><time>2026-05-02T12:47:59.993Z</time></trkpt><trkpt lat="43.60061" lon="11.4017042"><ele>320.0</ele><time>2026-05-02T12:48:00.993Z</time></trkpt><trkpt lat="43.6005592" lon="11.4019937"><ele>321.0</ele><time>2026-05-02T12:48:01.993Z</time></trkpt><trkpt lat="43.6005147" lon="11.4022402"><ele>321.3333333333333</ele><time>2026-05-02T12:48:02.993Z</time></trkpt><trkpt lat="43.6004483" lon="11.4024557"><ele>321.66666666666663</ele><time>2026-05-02T12:48:03.993Z</time></trkpt><trkpt lat="43.6003428" lon="11.4026412"><ele>322.0</ele><time>2026-05-02T12:48:04.993Z</time></trkpt><trkpt lat="43.6001847" lon="11.4027967"><ele>322.0</ele><time>2026-05-02T12:48:05.993Z</time></trkpt><trkpt lat="43.6000129" lon="11.4029391"><ele>322.0</ele><time>2026-05-02T12:48:06.993Z</time></trkpt><trkpt lat="43.5998379" lon="11.4030862"><ele>322.0</ele><time>2026-05-02T12:48:07.993Z</time></trkpt><trkpt lat="43.5996755" lon="11.4032275"><ele>323.3333333333333</ele><time>2026-05-02T12:48:08.993Z</time></trkpt><trkpt lat="43.599519" lon="11.4033705"><ele>324.6666666666667</ele><time>2026-05-02T12:48:09.993Z</time></trkpt><trkpt lat="43.5993757" lon="11.4035012"><ele>326.0</ele><time>2026-05-02T12:48:10.993Z</time></trkpt><trkpt lat="43.59924" lon="11.4035992"><ele>323.0</ele><time>2026-05-02T12:48:11.993Z</time></trkpt><trkpt lat="43.599129" lon="11.403693"><ele>320.0</ele><time>2026-05-02T12:48:12.993Z</time></trkpt><trkpt lat="43.5990526" lon="11.4038179"><ele>317.0</ele><time>2026-05-02T12:48:13.993Z</time></trkpt><trkpt lat="43.599024" lon="11.4039733"><ele>314.0</ele><time>2026-05-02T12:48:14.993Z</time></trkpt><trkpt lat="43.5990647" lon="11.404125"><ele>313.6666666666667</ele><time>2026-05-02T12:48:15.993Z</time></trkpt><trkpt lat="43.5991859" lon="11.4043222"><ele>313.3333333333333</ele><time>2026-05-02T12:48:16.993Z</time></trkpt><trkpt lat="43.599299" lon="11.4045111"><ele>313.0</ele><time>2026-05-02T12:48:17.993Z</time></trkpt><trkpt lat="43.5994198" lon="11.4047138"><ele>314.66666666666663</ele><time>2026-05-02T12:48:18.993Z</time></trkpt><trkpt lat="43.5995336" lon="11.4049297"><ele>316.3333333333333</ele><time>2026-05-02T12:48:19.993Z</time></trkpt><trkpt lat="43.5996448" lon="11.4051477"><ele>318.0</ele><time>2026-05-02T12:48:20.993Z</time></trkpt><trkpt lat="43.5997618" lon="11.4053696"><ele>315.3333333333333</ele><time>2026-05-02T12:48:21.993Z</time></trkpt><trkpt lat="43.5999021" lon="11.4055724"><ele>312.66666666666663</ele><time>2026-05-02T12:48:22.993Z</time></trkpt><trkpt lat="43.6000762" lon="11.4057267"><ele>310.0</ele><time>2026-05-02T12:48:23.993Z</time></trkpt><trkpt lat="43.6002736" lon="11.405844"><ele>316.0</ele><time>2026-05-02T12:48:24.994Z</time></trkpt><trkpt lat="43.6004602" lon="11.4059565"><ele>322.0</ele><time>2026-05-02T12:48:25.993Z</time></trkpt><trkpt lat="43.600596" lon="11.4061122"><ele>328.0</ele><time>2026-05-02T12:48:26.993Z</time></trkpt><trkpt lat="43.6006997" lon="11.4063067"><ele>323.0</ele><time>2026-05-02T12:48:27.993Z</time></trkpt><trkpt lat="43.6007813" lon="11.4065261"><ele>318.0</ele><time>2026-05-02T12:48:28.993Z</time></trkpt><trkpt lat="43.6008529" lon="11.4067713"><ele>313.0</ele><time>2026-05-02T12:48:29.993Z</time></trkpt><trkpt lat="43.6009186" lon="11.4069956"><ele>311.0</ele><time>2026-05-02T12:48:30.993Z</time></trkpt><trkpt lat="43.600978" lon="11.4072306"><ele>309.0</ele><time>2026-05-02T12:48:31.993Z</time></trkpt><trkpt lat="43.6010191" lon="11.4074721"><ele>307.0</ele><time>2026-05-02T12:48:32.993Z</time></trkpt><trkpt lat="43.6010415" lon="11.4077025"><ele>307.0</ele><time>2026-05-02T12:48:33.993Z</time></trkpt><trkpt lat="43.6010477" lon="11.4079242"><ele>307.0</ele><time>2026-05-02T12:48:34.993Z</time></trkpt><trkpt lat="43.6009981" lon="11.4081014"><ele>307.0</ele><time>2026-05-02T12:48:35.994Z</time></trkpt><trkpt lat="43.6008584" lon="11.40818"><ele>307.0</ele><time>2026-05-02T12:48:36.993Z</time></trkpt><trkpt lat="43.6007017" lon="11.4082047"><ele>306.0</ele><time>2026-05-02T12:48:37.993Z</time></trkpt><trkpt lat="43.6005535" lon="11.408231"><ele>305.0</ele><time>2026-05-02T12:48:38.993Z</time></trkpt><trkpt lat="43.6004349" lon="11.4083105"><ele>304.0</ele><time>2026-05-02T12:48:39.993Z</time></trkpt><trkpt lat="43.6003575" lon="11.4084546"><ele>303.0</ele><time>2026-05-02T12:48:40.993Z</time></trkpt><trkpt lat="43.6003197" lon="11.4086297"><ele>307.6666666666667</ele><time>2026-05-02T12:48:41.993Z</time></trkpt><trkpt lat="43.6003517" lon="11.408834"><ele>312.33333333333337</ele><time>2026-05-02T12:48:42.993Z</time></trkpt><trkpt lat="43.6004241" lon="11.4090443"><ele>317.0</ele><time>2026-05-02T12:48:43.993Z</time></trkpt><trkpt lat="43.6005105" lon="11.4092612"><ele>317.0</ele><time>2026-05-02T12:48:44.993Z</time></trkpt><trkpt lat="43.6006043" lon="11.4094731"><ele>317.0</ele><time>2026-05-02T12:48:45.993Z</time></trkpt><trkpt lat="43.6006953" lon="11.4096941"><ele>317.0</ele><time>2026-05-02T12:48:46.993Z</time></trkpt><trkpt lat="43.6007522" lon="11.4099346"><ele>314.6666666666667</ele><time>2026-05-02T12:48:47.993Z</time></trkpt><trkpt lat="43.6007631" lon="11.4101937"><ele>312.3333333333333</ele><time>2026-05-02T12:48:48.993Z</time></trkpt><trkpt lat="43.6007426" lon="11.4104585"><ele>310.0</ele><time>2026-05-02T12:48:49.993Z</time></trkpt><trkpt lat="43.6006992" lon="11.4107125"><ele>308.66666666666663</ele><time>2026-05-02T12:48:50.993Z</time></trkpt><trkpt lat="43.6006356" lon="11.4109489"><ele>307.3333333333333</ele><time>2026-05-02T12:48:51.993Z</time></trkpt><trkpt lat="43.6005677" lon="11.4111369"><ele>306.0</ele><time>2026-05-02T12:48:52.993Z</time></trkpt><trkpt lat="43.6005079" lon="11.4112992"><ele>304.0</ele><time>2026-05-02T12:48:53.993Z</time></trkpt><trkpt lat="43.60047" lon="11.4114587"><ele>302.0</ele><time>2026-05-02T12:48:54.993Z</time></trkpt><trkpt lat="43.6004625" lon="11.4116225"><ele>300.0</ele><time>2026-05-02T12:48:55.993Z</time></trkpt><trkpt lat="43.6004876" lon="11.4117727"><ele>298.0</ele><time>2026-05-02T12:48:56.993Z</time></trkpt><trkpt lat="43.6005248" lon="11.411903"><ele>298.0</ele><time>2026-05-02T12:48:57.993Z</time></trkpt><trkpt lat="43.6005841" lon="11.4120037"><ele>298.0</ele><time>2026-05-02T12:48:58.994Z</time></trkpt><trkpt lat="43.6006595" lon="11.4120898"><ele>298.0</ele><time>2026-05-02T12:48:59.993Z</time></trkpt><trkpt lat="43.6007397" lon="11.4121183"><ele>298.0</ele><time>2026-05-02T12:49:00.993Z</time></trkpt><trkpt lat="43.6008392" lon="11.4120995"><ele>298.0</ele><time>2026-05-02T12:49:01.993Z</time></trkpt><trkpt lat="43.6009399" lon="11.4120481"><ele>298.0</ele><time>2026-05-02T12:49:02.993Z</time></trkpt><trkpt lat="43.6010462" lon="11.4119888"><ele>298.0</ele><time>2026-05-02T12:49:03.993Z</time></trkpt><trkpt lat="43.6011439" lon="11.4119372"><ele>298.0</ele><time>2026-05-02T12:49:04.993Z</time></trkpt><trkpt lat="43.60123" lon="11.4118941"><ele>298.0</ele><time>2026-05-02T12:49:05.993Z</time></trkpt><trkpt lat="43.6013066" lon="11.4118838"><ele>298.0</ele><time>2026-05-02T12:49:06.993Z</time></trkpt><trkpt lat="43.6013754" lon="11.411939"><ele>298.0</ele><time>2026-05-02T12:49:07.993Z</time></trkpt><trkpt lat="43.6014124" lon="11.4120621"><ele>298.0</ele><time>2026-05-02T12:49:08.993Z</time></trkpt><trkpt lat="43.6014016" lon="11.4121975"><ele>298.0</ele><time>2026-05-02T12:49:09.993Z</time></trkpt><trkpt lat="43.6013774" lon="11.4123479"><ele>298.0</ele><time>2026-05-02T12:49:10.993Z</time></trkpt><trkpt lat="43.6013451" lon="11.4124943"><ele>298.0</ele><time>2026-05-02T12:49:11.993Z</time></trkpt><trkpt lat="43.601332" lon="11.4126429"><ele>297.8</ele><time>2026-05-02T12:49:12.993Z</time></trkpt><trkpt lat="43.6013606" lon="11.4127724"><ele>297.6</ele><time>2026-05-02T12:49:13.994Z</time></trkpt><trkpt lat="43.6014081" lon="11.4128748"><ele>297.4</ele><time>2026-05-02T12:49:14.993Z</time></trkpt><trkpt lat="43.6015379" lon="11.4128704"><ele>297.2</ele><time>2026-05-02T12:49:15.993Z</time></trkpt><trkpt lat="43.6016487" lon="11.4128624"><ele>297.0</ele><time>2026-05-02T12:49:16.993Z</time></trkpt><trkpt lat="43.6017728" lon="11.4128886"><ele>296.5</ele><time>2026-05-02T12:49:17.993Z</time></trkpt><trkpt lat="43.6018737" lon="11.41299"><ele>296.0</ele><time>2026-05-02T12:49:18.993Z</time></trkpt><trkpt lat="43.6019408" lon="11.4131437"><ele>295.5</ele><time>2026-05-02T12:49:19.993Z</time></trkpt><trkpt lat="43.6019594" lon="11.4133381"><ele>295.0</ele><time>2026-05-02T12:49:20.993Z</time></trkpt><trkpt lat="43.6019325" lon="11.4135481"><ele>295.0</ele><time>2026-05-02T12:49:21.994Z</time></trkpt><trkpt lat="43.6019074" lon="11.4137546"><ele>295.0</ele><time>2026-05-02T12:49:22.993Z</time></trkpt><trkpt lat="43.6019093" lon="11.4139725"><ele>295.0</ele><time>2026-05-02T12:49:23.993Z</time></trkpt><trkpt lat="43.6019418" lon="11.4141831"><ele>296.3333333333333</ele><time>2026-05-02T12:49:24.993Z</time></trkpt><trkpt lat="43.6019757" lon="11.4144088"><ele>297.6666666666667</ele><time>2026-05-02T12:49:25.993Z</time></trkpt><trkpt lat="43.6019998" lon="11.4146318"><ele>299.0</ele><time>2026-05-02T12:49:26.993Z</time></trkpt><trkpt lat="43.6020048" lon="11.4148404"><ele>301.0</ele><time>2026-05-02T12:49:27.993Z</time></trkpt><trkpt lat="43.6019902" lon="11.4150437"><ele>303.0</ele><time>2026-05-02T12:49:28.993Z</time></trkpt><trkpt lat="43.6019622" lon="11.4152532"><ele>305.0</ele><time>2026-05-02T12:49:29.993Z</time></trkpt><trkpt lat="43.60194" lon="11.4154785"><ele>305.6666666666667</ele><time>2026-05-02T12:49:30.993Z</time></trkpt><trkpt lat="43.601918" lon="11.4157028"><ele>306.3333333333333</ele><time>2026-05-02T12:49:31.993Z</time></trkpt><trkpt lat="43.6019" lon="11.4159266"><ele>307.0</ele><time>2026-05-02T12:49:32.993Z</time></trkpt><trkpt lat="43.6018759" lon="11.4161513"><ele>306.75</ele><time>2026-05-02T12:49:33.993Z</time></trkpt><trkpt lat="43.601858" lon="11.4163628"><ele>306.5</ele><time>2026-05-02T12:49:34.993Z</time></trkpt><trkpt lat="43.6018329" lon="11.4165593"><ele>306.25</ele><time>2026-05-02T12:49:35.993Z</time></trkpt><trkpt lat="43.6018175" lon="11.416737"><ele>306.0</ele><time>2026-05-02T12:49:36.993Z</time></trkpt><trkpt lat="43.6018048" lon="11.4169068"><ele>306.0</ele><time>2026-05-02T12:49:37.993Z</time></trkpt><trkpt lat="43.6018118" lon="11.417059"><ele>306.0</ele><time>2026-05-02T12:49:38.993Z</time></trkpt><trkpt lat="43.6018424" lon="11.4171997"><ele>306.0</ele><time>2026-05-02T12:49:39.993Z</time></trkpt><trkpt lat="43.6019253" lon="11.4173231"><ele>306.0</ele><time>2026-05-02T12:49:40.993Z</time></trkpt><trkpt lat="43.6020475" lon="11.4174175"><ele>305.3333333333333</ele><time>2026-05-02T12:49:41.993Z</time></trkpt><trkpt lat="43.6021832" lon="11.4174647"><ele>304.66666666666663</ele><time>2026-05-02T12:49:42.993Z</time></trkpt><trkpt lat="43.6023483" lon="11.4174552"><ele>304.0</ele><time>2026-05-02T12:49:43.993Z</time></trkpt><trkpt lat="43.6025143" lon="11.4174363"><ele>304.0</ele><time>2026-05-02T12:49:44.993Z</time></trkpt><trkpt lat="43.6026883" lon="11.4174274"><ele>304.0</ele><time>2026-05-02T12:49:45.993Z</time></trkpt><trkpt lat="43.602866" lon="11.4174347"><ele>304.0</ele><time>2026-05-02T12:49:46.993Z</time></trkpt><trkpt lat="43.6030358" lon="11.4174294"><ele>302.0</ele><time>2026-05-02T12:49:47.993Z</time></trkpt><trkpt lat="43.6032068" lon="11.4174288"><ele>300.0</ele><time>2026-05-02T12:49:48.993Z</time></trkpt><trkpt lat="43.6033752" lon="11.4174491"><ele>298.0</ele><time>2026-05-02T12:49:49.993Z</time></trkpt><trkpt lat="43.6035472" lon="11.417518"><ele>296.66666666666663</ele><time>2026-05-02T12:49:50.993Z</time></trkpt><trkpt lat="43.6036985" lon="11.4176347"><ele>295.3333333333333</ele><time>2026-05-02T12:49:51.993Z</time></trkpt><trkpt lat="43.6038309" lon="11.4178079"><ele>294.0</ele><time>2026-05-02T12:49:52.993Z</time></trkpt><trkpt lat="43.6039351" lon="11.4180137"><ele>292.3333333333333</ele><time>2026-05-02T12:49:53.993Z</time></trkpt><trkpt lat="43.6039963" lon="11.4182632"><ele>290.66666666666663</ele><time>2026-05-02T12:49:54.993Z</time></trkpt><trkpt lat="43.6040465" lon="11.4185282"><ele>289.0</ele><time>2026-05-02T12:49:55.993Z</time></trkpt><trkpt lat="43.6040992" lon="11.4188046"><ele>287.66666666666663</ele><time>2026-05-02T12:49:56.993Z</time></trkpt><trkpt lat="43.6041394" lon="11.4190887"><ele>286.3333333333333</ele><time>2026-05-02T12:49:57.993Z</time></trkpt><trkpt lat="43.6041698" lon="11.4193457"><ele>285.0</ele><time>2026-05-02T12:49:58.993Z</time></trkpt><trkpt lat="43.6042061" lon="11.4195944"><ele>284.6666666666667</ele><time>2026-05-02T12:49:59.993Z</time></trkpt><trkpt lat="43.6042481" lon="11.4198353"><ele>284.33333333333337</ele><time>2026-05-02T12:50:00.993Z</time></trkpt><trkpt lat="43.6043016" lon="11.4200536"><ele>284.0</ele><time>2026-05-02T12:50:01.993Z</time></trkpt><trkpt lat="43.6043699" lon="11.4202571"><ele>284.0</ele><time>2026-05-02T12:50:02.993Z</time></trkpt><trkpt lat="43.6044438" lon="11.4204437"><ele>284.0</ele><time>2026-05-02T12:50:03.993Z</time></trkpt><trkpt lat="43.6045233" lon="11.4206279"><ele>284.0</ele><time>2026-05-02T12:50:04.993Z</time></trkpt><trkpt lat="43.6046062" lon="11.4208168"><ele>279.0</ele><time>2026-05-02T12:50:05.993Z</time></trkpt><trkpt lat="43.6046831" lon="11.4210005"><ele>274.0</ele><time>2026-05-02T12:50:06.993Z</time></trkpt><trkpt lat="43.6047562" lon="11.4211927"><ele>269.0</ele><time>2026-05-02T12:50:07.993Z</time></trkpt><trkpt lat="43.6048108" lon="11.4213965"><ele>269.0</ele><time>2026-05-02T12:50:08.993Z</time></trkpt><trkpt lat="43.604839" lon="11.4216062"><ele>269.0</ele><time>2026-05-02T12:50:09.993Z</time></trkpt><trkpt lat="43.6048626" lon="11.4218169"><ele>269.0</ele><time>2026-05-02T12:50:10.993Z</time></trkpt><trkpt lat="43.6048845" lon="11.4220216"><ele>268.5</ele><time>2026-05-02T12:50:11.993Z</time></trkpt><trkpt lat="43.6049152" lon="11.4222164"><ele>268.0</ele><time>2026-05-02T12:50:12.993Z</time></trkpt><trkpt lat="43.6049598" lon="11.4224107"><ele>267.5</ele><time>2026-05-02T12:50:13.993Z</time></trkpt><trkpt lat="43.6050152" lon="11.4225908"><ele>267.0</ele><time>2026-05-02T12:50:14.993Z</time></trkpt><trkpt lat="43.605075" lon="11.4227697"><ele>267.0</ele><time>2026-05-02T12:50:15.993Z</time></trkpt><trkpt lat="43.6051334" lon="11.4229436"><ele>267.0</ele><time>2026-05-02T12:50:16.993Z</time></trkpt><trkpt lat="43.6051906" lon="11.4231149"><ele>267.0</ele><time>2026-05-02T12:50:17.993Z</time></trkpt><trkpt lat="43.6052524" lon="11.4232737"><ele>267.0</ele><time>2026-05-02T12:50:18.993Z</time></trkpt><trkpt lat="43.6053281" lon="11.4234254"><ele>265.5</ele><time>2026-05-02T12:50:19.994Z</time></trkpt><trkpt lat="43.605411" lon="11.4235602"><ele>264.0</ele><time>2026-05-02T12:50:20.993Z</time></trkpt><trkpt lat="43.6054959" lon="11.423689"><ele>262.5</ele><time>2026-05-02T12:50:21.993Z</time></trkpt><trkpt lat="43.6055726" lon="11.4238145"><ele>261.0</ele><time>2026-05-02T12:50:22.993Z</time></trkpt><trkpt lat="43.6056496" lon="11.4239508"><ele>261.0</ele><time>2026-05-02T12:50:23.993Z</time></trkpt><trkpt lat="43.6057266" lon="11.4241116"><ele>261.0</ele><time>2026-05-02T12:50:24.993Z</time></trkpt><trkpt lat="43.6058027" lon="11.4242883"><ele>261.0</ele><time>2026-05-02T12:50:25.993Z</time></trkpt><trkpt lat="43.6058839" lon="11.4244707"><ele>261.0</ele><time>2026-05-02T12:50:26.993Z</time></trkpt><trkpt lat="43.6059731" lon="11.4246565"><ele>263.0</ele><time>2026-05-02T12:50:27.993Z</time></trkpt><trkpt lat="43.606067" lon="11.424854"><ele>265.0</ele><time>2026-05-02T12:50:28.993Z</time></trkpt><trkpt lat="43.6061707" lon="11.4250452"><ele>267.0</ele><time>2026-05-02T12:50:29.993Z</time></trkpt><trkpt lat="43.606265" lon="11.4252237"><ele>267.0</ele><time>2026-05-02T12:50:30.993Z</time></trkpt><trkpt lat="43.6063455" lon="11.4253845"><ele>267.0</ele><time>2026-05-02T12:50:31.993Z</time></trkpt><trkpt lat="43.6064194" lon="11.4255383"><ele>267.0</ele><time>2026-05-02T12:50:32.993Z</time></trkpt><trkpt lat="43.6064906" lon="11.4256881"><ele>267.0</ele><time>2026-05-02T12:50:33.993Z</time></trkpt><trkpt lat="43.6065545" lon="11.4258405"><ele>267.0</ele><time>2026-05-02T12:50:34.993Z</time></trkpt><trkpt lat="43.6066211" lon="11.4260038"><ele>267.0</ele><time>2026-05-02T12:50:35.993Z</time></trkpt><trkpt lat="43.606683" lon="11.4261883"><ele>267.0</ele><time>2026-05-02T12:50:36.994Z</time></trkpt><trkpt lat="43.6067379" lon="11.4263796"><ele>267.0</ele><time>2026-05-02T12:50:37.993Z</time></trkpt><trkpt lat="43.6067754" lon="11.4265532"><ele>267.0</ele><time>2026-05-02T12:50:38.993Z</time></trkpt><trkpt lat="43.6067887" lon="11.426702"><ele>267.0</ele><time>2026-05-02T12:50:39.993Z</time></trkpt><trkpt lat="43.6067961" lon="11.4268387"><ele>267.0</ele><time>2026-05-02T12:50:40.993Z</time></trkpt><trkpt lat="43.6067959" lon="11.4269644"><ele>267.0</ele><time>2026-05-02T12:50:41.993Z</time></trkpt><trkpt lat="43.6068028" lon="11.4270859"><ele>267.0</ele><time>2026-05-02T12:50:42.993Z</time></trkpt><trkpt lat="43.6068077" lon="11.4272165"><ele>267.2</ele><time>2026-05-02T12:50:43.993Z</time></trkpt><trkpt lat="43.6068159" lon="11.427364"><ele>267.4</ele><time>2026-05-02T12:50:44.993Z</time></trkpt><trkpt lat="43.6068264" lon="11.427523"><ele>267.6</ele><time>2026-05-02T12:50:45.993Z</time></trkpt><trkpt lat="43.6068366" lon="11.4276778"><ele>267.8</ele><time>2026-05-02T12:50:46.993Z</time></trkpt><trkpt lat="43.6068456" lon="11.4278171"><ele>268.0</ele><time>2026-05-02T12:50:47.993Z</time></trkpt><trkpt lat="43.6068461" lon="11.4279441"><ele>268.3333333333333</ele><time>2026-05-02T12:50:48.993Z</time></trkpt><trkpt lat="43.6068484" lon="11.4280601"><ele>268.6666666666667</ele><time>2026-05-02T12:50:49.993Z</time></trkpt><trkpt lat="43.6068409" lon="11.4281977"><ele>269.0</ele><time>2026-05-02T12:50:51.993Z</time></trkpt><trkpt lat="43.6101165" lon="11.431527"><ele>280.0</ele><time>2026-05-02T12:53:27.741Z</time></trkpt><trkpt lat="43.6128998" lon="11.4339319"><ele>280.0</ele><time>2026-05-02T12:53:39.99Z</time></trkpt><trkpt lat="43.6130187" lon="11.4342308"><ele>280.0</ele><time>2026-05-02T12:53:41.002Z</time></trkpt><trkpt lat="43.6131357" lon="11.4343224"><ele>280.0</ele><time>2026-05-02T12:53:41.985Z</time></trkpt><trkpt lat="43.6133159" lon="11.4344176"><ele>280.0</ele><time>2026-05-02T12:53:42.989Z</time></trkpt><trkpt lat="43.6136408" lon="11.4345305"><ele>280.0</ele><time>2026-05-02T12:53:44.99Z</time></trkpt><trkpt lat="43.6138055" lon="11.4346147"><ele>279.66666666666663</ele><time>2026-05-02T12:53:45.99Z</time></trkpt><trkpt lat="43.613963" lon="11.4346814"><ele>279.3333333333333</ele><time>2026-05-02T12:53:46.99Z</time></trkpt><trkpt lat="43.6141153" lon="11.4347589"><ele>279.0</ele><time>2026-05-02T12:53:47.99Z</time></trkpt><trkpt lat="43.6142697" lon="11.4348371"><ele>279.0</ele><time>2026-05-02T12:53:48.99Z</time></trkpt><trkpt lat="43.6144291" lon="11.4349286"><ele>279.0</ele><time>2026-05-02T12:53:49.99Z</time></trkpt><trkpt lat="43.6145729" lon="11.4350557"><ele>279.0</ele><time>2026-05-02T12:53:50.99Z</time></trkpt><trkpt lat="43.6146913" lon="11.43524"><ele>279.3333333333333</ele><time>2026-05-02T12:53:51.99Z</time></trkpt><trkpt lat="43.6148054" lon="11.43544"><ele>279.66666666666663</ele><time>2026-05-02T12:53:52.99Z</time></trkpt><trkpt lat="43.6149189" lon="11.4356383"><ele>280.0</ele><time>2026-05-02T12:53:53.99Z</time></trkpt><trkpt lat="43.6150388" lon="11.4357685"><ele>278.5</ele><time>2026-05-02T12:53:54.991Z</time></trkpt><trkpt lat="43.6151395" lon="11.4358219"><ele>277.0</ele><time>2026-05-02T12:53:55.99Z</time></trkpt><trkpt lat="43.6152316" lon="11.435827"><ele>275.5</ele><time>2026-05-02T12:53:56.99Z</time></trkpt><trkpt lat="43.6152995" lon="11.4358088"><ele>274.0</ele><time>2026-05-02T12:53:57.99Z</time></trkpt><trkpt lat="43.6153776" lon="11.4358029"><ele>272.5</ele><time>2026-05-02T12:53:58.99Z</time></trkpt><trkpt lat="43.6154667" lon="11.4358191"><ele>271.0</ele><time>2026-05-02T12:53:59.99Z</time></trkpt><trkpt lat="43.6155553" lon="11.4358669"><ele>269.75</ele><time>2026-05-02T12:54:00.99Z</time></trkpt><trkpt lat="43.6156502" lon="11.4359159"><ele>268.5</ele><time>2026-05-02T12:54:01.99Z</time></trkpt><trkpt lat="43.6157577" lon="11.4359706"><ele>267.25</ele><time>2026-05-02T12:54:02.99Z</time></trkpt><trkpt lat="43.6158755" lon="11.4360285"><ele>266.0</ele><time>2026-05-02T12:54:03.99Z</time></trkpt><trkpt lat="43.6160066" lon="11.4361062"><ele>266.0</ele><time>2026-05-02T12:54:04.99Z</time></trkpt><trkpt lat="43.616149" lon="11.4361843"><ele>266.0</ele><time>2026-05-02T12:54:05.99Z</time></trkpt><trkpt lat="43.6163075" lon="11.4362577"><ele>266.0</ele><time>2026-05-02T12:54:06.99Z</time></trkpt><trkpt lat="43.6164686" lon="11.4363279"><ele>264.6666666666667</ele><time>2026-05-02T12:54:07.99Z</time></trkpt><trkpt lat="43.616629" lon="11.436402"><ele>263.3333333333333</ele><time>2026-05-02T12:54:08.991Z</time></trkpt><trkpt lat="43.6167864" lon="11.4364784"><ele>262.0</ele><time>2026-05-02T12:54:09.99Z</time></trkpt><trkpt lat="43.6169361" lon="11.4365479"><ele>280.0</ele><time>2026-05-02T12:54:10.99Z</time></trkpt><trkpt lat="43.6326389" lon="11.4271768"><ele>281.2</ele><time>2026-05-02T12:57:33.104Z</time></trkpt><trkpt lat="43.6325975" lon="11.4270742"><ele>282.4</ele><time>2026-05-02T12:59:15.99Z</time></trkpt><trkpt lat="43.6326577" lon="11.4269309"><ele>283.6</ele><time>2026-05-02T12:59:18.991Z</time></trkpt><trkpt lat="43.6327208" lon="11.4268058"><ele>284.8</ele><time>2026-05-02T12:59:20.991Z</time></trkpt><trkpt lat="43.6327567" lon="11.4267202"><ele>286.0</ele><time>2026-05-02T12:59:21.99Z</time></trkpt><trkpt lat="43.6327974" lon="11.4266253"><ele>285.66666666666663</ele><time>2026-05-02T12:59:22.99Z</time></trkpt><trkpt lat="43.6328434" lon="11.4265315"><ele>285.3333333333333</ele><time>2026-05-02T12:59:23.99Z</time></trkpt><trkpt lat="43.632895" lon="11.4264403"><ele>285.0</ele><time>2026-05-02T12:59:24.99Z</time></trkpt><trkpt lat="43.6329362" lon="11.4263585"><ele>284.6666666666667</ele><time>2026-05-02T12:59:25.99Z</time></trkpt><trkpt lat="43.6329753" lon="11.4262765"><ele>284.33333333333337</ele><time>2026-05-02T12:59:26.99Z</time></trkpt><trkpt lat="43.6330852" lon="11.4262097"><ele>284.0</ele><time>2026-05-02T12:59:28.991Z</time></trkpt><trkpt lat="43.6331907" lon="11.4262502"><ele>284.0</ele><time>2026-05-02T12:59:30.99Z</time></trkpt><trkpt lat="43.633275" lon="11.4263111"><ele>284.0</ele><time>2026-05-02T12:59:41.99Z</time></trkpt><trkpt lat="43.633394" lon="11.4263454"><ele>284.0</ele><time>2026-05-02T12:59:43.99Z</time></trkpt><trkpt lat="43.6334629" lon="11.4263814"><ele>284.0</ele><time>2026-05-02T12:59:44.99Z</time></trkpt><trkpt lat="43.6335358" lon="11.4264328"><ele>284.0</ele><time>2026-05-02T12:59:45.99Z</time></trkpt><trkpt lat="43.6336165" lon="11.4264939"><ele>284.0</ele><time>2026-05-02T12:59:46.99Z</time></trkpt><trkpt lat="43.6336976" lon="11.4265529"><ele>284.0</ele><time>2026-05-02T12:59:47.99Z</time></trkpt><trkpt lat="43.6337671" lon="11.4266127"><ele>284.0</ele><time>2026-05-02T12:59:48.99Z</time></trkpt><trkpt lat="43.6338319" lon="11.426669"><ele>284.0</ele><time>2026-05-02T12:59:49.99Z</time></trkpt><trkpt lat="43.6338974" lon="11.4267227"><ele>284.0</ele><time>2026-05-02T12:59:50.99Z</time></trkpt><trkpt lat="43.6339587" lon="11.4267768"><ele>284.0</ele><time>2026-05-02T12:59:51.99Z</time></trkpt><trkpt lat="43.6340183" lon="11.426832"><ele>284.0</ele><time>2026-05-02T12:59:52.99Z</time></trkpt><trkpt lat="43.6340774" lon="11.4268784"><ele>284.0</ele><time>2026-05-02T12:59:53.99Z</time></trkpt><trkpt lat="43.6341395" lon="11.4269131"><ele>284.0</ele><time>2026-05-02T12:59:54.99Z</time></trkpt><trkpt lat="43.6342044" lon="11.4269262"><ele>284.0</ele><time>2026-05-02T12:59:55.99Z</time></trkpt><trkpt lat="43.6342699" lon="11.4269245"><ele>284.0</ele><time>2026-05-02T12:59:56.99Z</time></trkpt><trkpt lat="43.6343327" lon="11.426908"><ele>284.0</ele><time>2026-05-02T12:59:57.99Z</time></trkpt><trkpt lat="43.6343992" lon="11.426884"><ele>284.0</ele><time>2026-05-02T12:59:58.99Z</time></trkpt><trkpt lat="43.6345099" lon="11.4267987"><ele>282.83333333333337</ele><time>2026-05-02T13:00:00.99Z</time></trkpt><trkpt lat="43.6345743" lon="11.4267567"><ele>281.6666666666667</ele><time>2026-05-02T13:00:01.99Z</time></trkpt><trkpt lat="43.6346417" lon="11.4267053"><ele>280.5</ele><time>2026-05-02T13:00:02.99Z</time></trkpt><trkpt lat="43.6347165" lon="11.4266449"><ele>279.3333333333333</ele><time>2026-05-02T13:00:03.99Z</time></trkpt><trkpt lat="43.6348023" lon="11.4265774"><ele>278.16666666666663</ele><time>2026-05-02T13:00:04.99Z</time></trkpt><trkpt lat="43.6348865" lon="11.4265008"><ele>277.0</ele><time>2026-05-02T13:00:05.99Z</time></trkpt><trkpt lat="43.6349759" lon="11.4264232"><ele>277.0</ele><time>2026-05-02T13:00:06.99Z</time></trkpt><trkpt lat="43.6350559" lon="11.4263235"><ele>277.0</ele><time>2026-05-02T13:00:07.99Z</time></trkpt><trkpt lat="43.6351364" lon="11.4262201"><ele>277.0</ele><time>2026-05-02T13:00:08.99Z</time></trkpt><trkpt lat="43.6352191" lon="11.4261089"><ele>277.0</ele><time>2026-05-02T13:00:09.99Z</time></trkpt><trkpt lat="43.6353023" lon="11.4260023"><ele>277.0</ele><time>2026-05-02T13:00:10.99Z</time></trkpt><trkpt lat="43.6353892" lon="11.4258977"><ele>276.4</ele><time>2026-05-02T13:00:11.99Z</time></trkpt><trkpt lat="43.6354778" lon="11.4258027"><ele>275.79999999999995</ele><time>2026-05-02T13:00:12.99Z</time></trkpt><trkpt lat="43.6355609" lon="11.4257082"><ele>275.2</ele><time>2026-05-02T13:00:13.99Z</time></trkpt><trkpt lat="43.6356399" lon="11.425604"><ele>274.59999999999997</ele><time>2026-05-02T13:00:14.99Z</time></trkpt><trkpt lat="43.635708" lon="11.425502"><ele>274.0</ele><time>2026-05-02T13:00:15.99Z</time></trkpt><trkpt lat="43.6357738" lon="11.4254156"><ele>274.66666666666663</ele><time>2026-05-02T13:00:16.99Z</time></trkpt><trkpt lat="43.6358381" lon="11.4253339"><ele>275.3333333333333</ele><time>2026-05-02T13:00:17.99Z</time></trkpt><trkpt lat="43.6359077" lon="11.4252793"><ele>276.0</ele><time>2026-05-02T13:00:18.99Z</time></trkpt><trkpt lat="43.6359891" lon="11.4252535"><ele>276.6666666666667</ele><time>2026-05-02T13:00:19.991Z</time></trkpt><trkpt lat="43.6360859" lon="11.4252493"><ele>277.33333333333337</ele><time>2026-05-02T13:00:20.99Z</time></trkpt><trkpt lat="43.6361772" lon="11.4252646"><ele>278.0</ele><time>2026-05-02T13:00:21.99Z</time></trkpt><trkpt lat="43.6362706" lon="11.4252881"><ele>278.0</ele><time>2026-05-02T13:00:22.99Z</time></trkpt><trkpt lat="43.6363641" lon="11.4252962"><ele>278.0</ele><time>2026-05-02T13:00:23.99Z</time></trkpt><trkpt lat="43.6364581" lon="11.4252861"><ele>278.0</ele><time>2026-05-02T13:00:24.99Z</time></trkpt><trkpt lat="43.636555" lon="11.4252654"><ele>278.0</ele><time>2026-05-02T13:00:25.99Z</time></trkpt><trkpt lat="43.6366512" lon="11.4252453"><ele>278.0</ele><time>2026-05-02T13:00:26.99Z</time></trkpt><trkpt lat="43.6367358" lon="11.4252204"><ele>278.0</ele><time>2026-05-02T13:00:27.99Z</time></trkpt><trkpt lat="43.6368114" lon="11.4251958"><ele>278.0</ele><time>2026-05-02T13:00:28.99Z</time></trkpt><trkpt lat="43.636892" lon="11.4251826"><ele>278.0</ele><time>2026-05-02T13:00:29.99Z</time></trkpt><trkpt lat="43.6369647" lon="11.4251907"><ele>278.0</ele><time>2026-05-02T13:00:30.99Z</time></trkpt><trkpt lat="43.6370424" lon="11.4252448"><ele>278.0</ele><time>2026-05-02T13:00:32.99Z</time></trkpt><trkpt lat="43.6371001" lon="11.4253306"><ele>278.0</ele><time>2026-05-02T13:00:45.99Z</time></trkpt><trkpt lat="43.6371416" lon="11.4254089"><ele>277.2</ele><time>2026-05-02T13:00:46.99Z</time></trkpt><trkpt lat="43.6371763" lon="11.4255074"><ele>276.4</ele><time>2026-05-02T13:00:47.99Z</time></trkpt><trkpt lat="43.6372043" lon="11.4256264"><ele>275.59999999999997</ele><time>2026-05-02T13:00:48.99Z</time></trkpt><trkpt lat="43.6372194" lon="11.4257681"><ele>274.8</ele><time>2026-05-02T13:00:49.99Z</time></trkpt><trkpt lat="43.6372441" lon="11.4259121"><ele>274.0</ele><time>2026-05-02T13:00:50.99Z</time></trkpt><trkpt lat="43.6372782" lon="11.4260423"><ele>274.0</ele><time>2026-05-02T13:00:51.99Z</time></trkpt><trkpt lat="43.6373342" lon="11.4261915"><ele>274.0</ele><time>2026-05-02T13:00:52.99Z</time></trkpt><trkpt lat="43.6373895" lon="11.4263285"><ele>274.0</ele><time>2026-05-02T13:00:53.99Z</time></trkpt><trkpt lat="43.6374441" lon="11.4264422"><ele>274.0</ele><time>2026-05-02T13:00:54.99Z</time></trkpt><trkpt lat="43.637498" lon="11.4265507"><ele>274.0</ele><time>2026-05-02T13:00:55.99Z</time></trkpt><trkpt lat="43.6375496" lon="11.4266552"><ele>273.3333333333333</ele><time>2026-05-02T13:00:56.99Z</time></trkpt><trkpt lat="43.6375973" lon="11.4267507"><ele>272.66666666666663</ele><time>2026-05-02T13:00:57.99Z</time></trkpt><trkpt lat="43.6376431" lon="11.4268297"><ele>272.0</ele><time>2026-05-02T13:00:58.99Z</time></trkpt><trkpt lat="43.637705" lon="11.4269277"><ele>271.3333333333333</ele><time>2026-05-02T13:01:00.99Z</time></trkpt><trkpt lat="43.6377504" lon="11.4270169"><ele>270.6666666666667</ele><time>2026-05-02T13:03:03.99Z</time></trkpt><trkpt lat="43.63781" lon="11.4271433"><ele>270.0</ele><time>2026-05-02T13:03:05.99Z</time></trkpt><trkpt lat="43.637851" lon="11.4272297"><ele>269.8</ele><time>2026-05-02T13:03:06.99Z</time></trkpt><trkpt lat="43.637899" lon="11.4273327"><ele>269.6</ele><time>2026-05-02T13:03:07.99Z</time></trkpt><trkpt lat="43.6379542" lon="11.4274534"><ele>269.4</ele><time>2026-05-02T13:03:08.99Z</time></trkpt><trkpt lat="43.6380128" lon="11.4275743"><ele>269.2</ele><time>2026-05-02T13:03:09.99Z</time></trkpt><trkpt lat="43.6380746" lon="11.4277063"><ele>269.0</ele><time>2026-05-02T13:03:10.99Z</time></trkpt><trkpt lat="43.6381358" lon="11.4278536"><ele>268.75</ele><time>2026-05-02T13:03:11.99Z</time></trkpt><trkpt lat="43.6382065" lon="11.4280148"><ele>268.5</ele><time>2026-05-02T13:03:12.99Z</time></trkpt><trkpt lat="43.6382755" lon="11.4281708"><ele>268.25</ele><time>2026-05-02T13:03:13.99Z</time></trkpt><trkpt lat="43.6383437" lon="11.4283453"><ele>268.0</ele><time>2026-05-02T13:03:14.99Z</time></trkpt><trkpt lat="43.6384153" lon="11.4285081"><ele>268.0</ele><time>2026-05-02T13:03:15.99Z</time></trkpt><trkpt lat="43.6384826" lon="11.4286786"><ele>268.0</ele><time>2026-05-02T13:03:16.99Z</time></trkpt><trkpt lat="43.638541" lon="11.4288597"><ele>268.0</ele><time>2026-05-02T13:03:17.99Z</time></trkpt><trkpt lat="43.6385966" lon="11.4290501"><ele>268.0</ele><time>2026-05-02T13:03:18.99Z</time></trkpt><trkpt lat="43.6386459" lon="11.4292428"><ele>267.5</ele><time>2026-05-02T13:03:19.99Z</time></trkpt><trkpt lat="43.6386948" lon="11.4294302"><ele>267.0</ele><time>2026-05-02T13:03:20.99Z</time></trkpt><trkpt lat="43.6387457" lon="11.4296217"><ele>266.5</ele><time>2026-05-02T13:03:21.99Z</time></trkpt><trkpt lat="43.6387946" lon="11.4298234"><ele>266.0</ele><time>2026-05-02T13:03:22.99Z</time></trkpt><trkpt lat="43.638849" lon="11.4300204"><ele>266.0</ele><time>2026-05-02T13:03:23.99Z</time></trkpt><trkpt lat="43.6389004" lon="11.43022"><ele>266.0</ele><time>2026-05-02T13:03:24.99Z</time></trkpt><trkpt lat="43.6389521" lon="11.4304206"><ele>266.0</ele><time>2026-05-02T13:03:25.99Z</time></trkpt><trkpt lat="43.639004" lon="11.4306184"><ele>266.6666666666667</ele><time>2026-05-02T13:03:26.99Z</time></trkpt><trkpt lat="43.6390576" lon="11.430817"><ele>267.3333333333333</ele><time>2026-05-02T13:03:27.99Z</time></trkpt><trkpt lat="43.6391055" lon="11.4310135"><ele>268.0</ele><time>2026-05-02T13:03:28.99Z</time></trkpt><trkpt lat="43.639153" lon="11.4312227"><ele>267.0</ele><time>2026-05-02T13:03:29.99Z</time></trkpt><trkpt lat="43.6391849" lon="11.4314316"><ele>266.0</ele><time>2026-05-02T13:03:30.99Z</time></trkpt><trkpt lat="43.6392026" lon="11.431646"><ele>265.0</ele><time>2026-05-02T13:03:31.99Z</time></trkpt><trkpt lat="43.639203" lon="11.4318599"><ele>265.0</ele><time>2026-05-02T13:03:32.99Z</time></trkpt><trkpt lat="43.6391789" lon="11.4320782"><ele>265.0</ele><time>2026-05-02T13:03:33.99Z</time></trkpt><trkpt lat="43.6391455" lon="11.4322895"><ele>265.0</ele><time>2026-05-02T13:03:34.99Z</time></trkpt><trkpt lat="43.6391043" lon="11.4324989"><ele>265.0</ele><time>2026-05-02T13:03:35.99Z</time></trkpt><trkpt lat="43.6390598" lon="11.432707"><ele>265.0</ele><time>2026-05-02T13:03:36.99Z</time></trkpt><trkpt lat="43.639007" lon="11.4329133"><ele>265.0</ele><time>2026-05-02T13:03:37.99Z</time></trkpt><trkpt lat="43.6389482" lon="11.4331178"><ele>265.3333333333333</ele><time>2026-05-02T13:03:38.99Z</time></trkpt><trkpt lat="43.6388813" lon="11.4333183"><ele>265.6666666666667</ele><time>2026-05-02T13:03:39.99Z</time></trkpt><trkpt lat="43.6388088" lon="11.4335151"><ele>266.0</ele><time>2026-05-02T13:03:40.991Z</time></trkpt><trkpt lat="43.6387359" lon="11.4337099"><ele>266.33333333333337</ele><time>2026-05-02T13:03:41.99Z</time></trkpt><trkpt lat="43.6386643" lon="11.4339052"><ele>266.6666666666667</ele><time>2026-05-02T13:03:42.99Z</time></trkpt><trkpt lat="43.6385909" lon="11.4341059"><ele>267.0</ele><time>2026-05-02T13:03:43.99Z</time></trkpt><trkpt lat="43.638516" lon="11.434307"><ele>266.0</ele><time>2026-05-02T13:03:44.99Z</time></trkpt><trkpt lat="43.6384394" lon="11.4345028"><ele>265.0</ele><time>2026-05-02T13:03:45.99Z</time></trkpt><trkpt lat="43.6383644" lon="11.434703"><ele>264.0</ele><time>2026-05-02T13:03:46.99Z</time></trkpt><trkpt lat="43.63829" lon="11.4348994"><ele>264.0</ele><time>2026-05-02T13:03:47.99Z</time></trkpt><trkpt lat="43.6382189" lon="11.4350893"><ele>264.0</ele><time>2026-05-02T13:03:48.99Z</time></trkpt><trkpt lat="43.6381517" lon="11.4352634"><ele>264.0</ele><time>2026-05-02T13:03:49.99Z</time></trkpt><trkpt lat="43.6380898" lon="11.4354277"><ele>264.0</ele><time>2026-05-02T13:03:50.99Z</time></trkpt><trkpt lat="43.6380375" lon="11.4355797"><ele>264.25</ele><time>2026-05-02T13:03:51.99Z</time></trkpt><trkpt lat="43.6379836" lon="11.4357224"><ele>264.5</ele><time>2026-05-02T13:03:52.99Z</time></trkpt><trkpt lat="43.6379349" lon="11.4358638"><ele>264.75</ele><time>2026-05-02T13:03:53.99Z</time></trkpt><trkpt lat="43.637887" lon="11.4360014"><ele>265.0</ele><time>2026-05-02T13:03:54.99Z</time></trkpt><trkpt lat="43.6378332" lon="11.4361436"><ele>264.75</ele><time>2026-05-02T13:03:55.99Z</time></trkpt><trkpt lat="43.6377819" lon="11.4362995"><ele>264.5</ele><time>2026-05-02T13:03:56.991Z</time></trkpt><trkpt lat="43.6377275" lon="11.436464"><ele>264.25</ele><time>2026-05-02T13:03:57.99Z</time></trkpt><trkpt lat="43.6376695" lon="11.436633"><ele>264.0</ele><time>2026-05-02T13:03:58.99Z</time></trkpt><trkpt lat="43.6376099" lon="11.4368013"><ele>263.8</ele><time>2026-05-02T13:03:59.99Z</time></trkpt><trkpt lat="43.637554" lon="11.4369615"><ele>263.59999999999997</ele><time>2026-05-02T13:04:00.99Z</time></trkpt><trkpt lat="43.6375023" lon="11.4370936"><ele>263.4</ele><time>2026-05-02T13:04:01.99Z</time></trkpt><trkpt lat="43.6374604" lon="11.4371946"><ele>263.2</ele><time>2026-05-02T13:04:02.99Z</time></trkpt><trkpt lat="43.637428" lon="11.4372734"><ele>263.0</ele><time>2026-05-02T13:04:03.99Z</time></trkpt><trkpt lat="43.6374101" lon="11.4374016"><ele>262.6</ele><time>2026-05-02T13:04:05.99Z</time></trkpt><trkpt lat="43.6374855" lon="11.4374669"><ele>262.20000000000005</ele><time>2026-05-02T13:04:07.99Z</time></trkpt><trkpt lat="43.6375975" lon="11.4375816"><ele>261.8</ele><time>2026-05-02T13:04:09.99Z</time></trkpt><trkpt lat="43.6376573" lon="11.437653"><ele>261.40000000000003</ele><time>2026-05-02T13:04:10.99Z</time></trkpt><trkpt lat="43.6377221" lon="11.437726"><ele>261.0</ele><time>2026-05-02T13:04:11.991Z</time></trkpt><trkpt lat="43.6377995" lon="11.4377877"><ele>261.1666666666667</ele><time>2026-05-02T13:04:12.99Z</time></trkpt><trkpt lat="43.637871" lon="11.4378581"><ele>261.3333333333333</ele><time>2026-05-02T13:04:13.99Z</time></trkpt><trkpt lat="43.6379342" lon="11.4379285"><ele>261.5</ele><time>2026-05-02T13:04:14.99Z</time></trkpt><trkpt lat="43.6380095" lon="11.4379975"><ele>261.66666666666663</ele><time>2026-05-02T13:04:15.99Z</time></trkpt><trkpt lat="43.6380855" lon="11.4380534"><ele>261.8333333333333</ele><time>2026-05-02T13:04:16.99Z</time></trkpt><trkpt lat="43.6381567" lon="11.4381153"><ele>262.0</ele><time>2026-05-02T13:04:17.99Z</time></trkpt><trkpt lat="43.6382292" lon="11.4381809"><ele>260.8</ele><time>2026-05-02T13:04:18.99Z</time></trkpt><trkpt lat="43.6382934" lon="11.4382393"><ele>259.6</ele><time>2026-05-02T13:04:19.99Z</time></trkpt><trkpt lat="43.6383509" lon="11.4382814"><ele>258.40000000000003</ele><time>2026-05-02T13:04:20.99Z</time></trkpt><trkpt lat="43.6384258" lon="11.4384233"><ele>257.2</ele><time>2026-05-02T13:04:22.99Z</time></trkpt><trkpt lat="43.6384787" lon="11.4384984"><ele>256.0</ele><time>2026-05-02T13:04:23.99Z</time></trkpt><trkpt lat="43.6385983" lon="11.4385161"><ele>256.8</ele><time>2026-05-02T13:04:25.99Z</time></trkpt><trkpt lat="43.6387072" lon="11.438515"><ele>257.6</ele><time>2026-05-02T13:04:27.99Z</time></trkpt><trkpt lat="43.6387845" lon="11.4385362"><ele>258.4</ele><time>2026-05-02T13:04:28.99Z</time></trkpt><trkpt lat="43.6388633" lon="11.4385874"><ele>259.2</ele><time>2026-05-02T13:04:29.99Z</time></trkpt><trkpt lat="43.6389355" lon="11.4386544"><ele>260.0</ele><time>2026-05-02T13:04:30.99Z</time></trkpt><trkpt lat="43.6390068" lon="11.4387282"><ele>259.5714285714286</ele><time>2026-05-02T13:04:31.99Z</time></trkpt><trkpt lat="43.6390695" lon="11.4388026"><ele>259.14285714285717</ele><time>2026-05-02T13:04:32.99Z</time></trkpt><trkpt lat="43.6391138" lon="11.4388692"><ele>258.7142857142857</ele><time>2026-05-02T13:04:33.99Z</time></trkpt><trkpt lat="43.6391355" lon="11.4389592"><ele>258.28571428571433</ele><time>2026-05-02T13:04:34.99Z</time></trkpt><trkpt lat="43.6391635" lon="11.4390547"><ele>257.8571428571429</ele><time>2026-05-02T13:04:35.99Z</time></trkpt><trkpt lat="43.639201" lon="11.4391466"><ele>257.42857142857144</ele><time>2026-05-02T13:04:36.99Z</time></trkpt><trkpt lat="43.6392396" lon="11.4392417"><ele>257.0</ele><time>2026-05-02T13:04:37.99Z</time></trkpt><trkpt lat="43.639283" lon="11.4393461"><ele>257.0</ele><time>2026-05-02T13:04:38.99Z</time></trkpt><trkpt lat="43.6393319" lon="11.4394386"><ele>257.0</ele><time>2026-05-02T13:04:39.99Z</time></trkpt><trkpt lat="43.6394032" lon="11.4395115"><ele>257.0</ele><time>2026-05-02T13:04:40.99Z</time></trkpt><trkpt lat="43.6394877" lon="11.4395581"><ele>257.0</ele><time>2026-05-02T13:04:41.99Z</time></trkpt><trkpt lat="43.6395859" lon="11.4396069"><ele>257.0</ele><time>2026-05-02T13:04:42.99Z</time></trkpt><trkpt lat="43.6396589" lon="11.4396421"><ele>257.0</ele><time>2026-05-02T13:04:43.99Z</time></trkpt><trkpt lat="43.63972" lon="11.4396794"><ele>253.6</ele><time>2026-05-02T13:04:44.991Z</time></trkpt><trkpt lat="43.6398344" lon="11.4397424"><ele>250.2</ele><time>2026-05-02T13:04:46.99Z</time></trkpt><trkpt lat="43.6399063" lon="11.4397406"><ele>246.8</ele><time>2026-05-02T13:04:47.99Z</time></trkpt><trkpt lat="43.6399933" lon="11.4397282"><ele>243.4</ele><time>2026-05-02T13:04:48.99Z</time></trkpt><trkpt lat="43.6400827" lon="11.4397193"><ele>240.0</ele><time>2026-05-02T13:04:49.99Z</time></trkpt><trkpt lat="43.6401712" lon="11.4396958"><ele>240.0</ele><time>2026-05-02T13:04:50.99Z</time></trkpt><trkpt lat="43.6402463" lon="11.4396896"><ele>240.0</ele><time>2026-05-02T13:04:51.99Z</time></trkpt><trkpt lat="43.6403142" lon="11.4396926"><ele>240.0</ele><time>2026-05-02T13:04:52.99Z</time></trkpt><trkpt lat="43.64042" lon="11.4397573"><ele>240.0</ele><time>2026-05-02T13:04:54.99Z</time></trkpt><trkpt lat="43.6405004" lon="11.4397449"><ele>240.0</ele><time>2026-05-02T13:04:56.99Z</time></trkpt><trkpt lat="43.6405964" lon="11.4397359"><ele>240.0</ele><time>2026-05-02T13:04:58.99Z</time></trkpt><trkpt lat="43.6407298" lon="11.4397331"><ele>240.33333333333334</ele><time>2026-05-02T13:05:00.99Z</time></trkpt><trkpt lat="43.640814" lon="11.4397582"><ele>240.66666666666669</ele><time>2026-05-02T13:05:01.99Z</time></trkpt><trkpt lat="43.6408732" lon="11.4398227"><ele>241.0</ele><time>2026-05-02T13:05:02.99Z</time></trkpt><trkpt lat="43.6409437" lon="11.4398986"><ele>241.33333333333334</ele><time>2026-05-02T13:05:03.99Z</time></trkpt><trkpt lat="43.6410116" lon="11.4399624"><ele>241.66666666666669</ele><time>2026-05-02T13:05:04.99Z</time></trkpt><trkpt lat="43.6410767" lon="11.4400417"><ele>242.0</ele><time>2026-05-02T13:05:05.99Z</time></trkpt><trkpt lat="43.6411349" lon="11.4401182"><ele>242.00000000000003</ele><time>2026-05-02T13:05:06.99Z</time></trkpt><trkpt lat="43.6411884" lon="11.4401899"><ele>242.0</ele><time>2026-05-02T13:05:07.99Z</time></trkpt><trkpt lat="43.6412504" lon="11.4402582"><ele>242.0</ele><time>2026-05-02T13:05:08.99Z</time></trkpt><trkpt lat="43.6413119" lon="11.4403126"><ele>242.0</ele><time>2026-05-02T13:05:09.99Z</time></trkpt><trkpt lat="43.6413818" lon="11.4403444"><ele>242.00000000000003</ele><time>2026-05-02T13:05:10.99Z</time></trkpt><trkpt lat="43.6414598" lon="11.4403726"><ele>242.0</ele><time>2026-05-02T13:05:11.99Z</time></trkpt><trkpt lat="43.6415386" lon="11.4403857"><ele>242.00000000000003</ele><time>2026-05-02T13:05:12.99Z</time></trkpt><trkpt lat="43.641609" lon="11.4403864"><ele>242.0</ele><time>2026-05-02T13:05:13.99Z</time></trkpt><trkpt lat="43.641689" lon="11.4404041"><ele>242.0</ele><time>2026-05-02T13:05:14.99Z</time></trkpt><trkpt lat="43.6417682" lon="11.4404599"><ele>242.0</ele><time>2026-05-02T13:05:15.99Z</time></trkpt><trkpt lat="43.641833" lon="11.4405167"><ele>242.00000000000003</ele><time>2026-05-02T13:05:16.99Z</time></trkpt><trkpt lat="43.6419005" lon="11.440585"><ele>242.0</ele><time>2026-05-02T13:05:17.99Z</time></trkpt><trkpt lat="43.6419627" lon="11.4406466"><ele>240.50000000000003</ele><time>2026-05-02T13:05:18.99Z</time></trkpt><trkpt lat="43.6420269" lon="11.4407115"><ele>239.0</ele><time>2026-05-02T13:05:19.99Z</time></trkpt><trkpt lat="43.642106" lon="11.4407701"><ele>237.5</ele><time>2026-05-02T13:05:20.99Z</time></trkpt><trkpt lat="43.6421747" lon="11.4408089"><ele>236.0</ele><time>2026-05-02T13:05:21.99Z</time></trkpt><trkpt lat="43.6422484" lon="11.4408642"><ele>234.50000000000003</ele><time>2026-05-02T13:05:22.99Z</time></trkpt><trkpt lat="43.6423382" lon="11.4409193"><ele>233.0</ele><time>2026-05-02T13:05:23.99Z</time></trkpt><trkpt lat="43.6424226" lon="11.4409758"><ele>233.00000000000003</ele><time>2026-05-02T13:05:24.99Z</time></trkpt><trkpt lat="43.6424869" lon="11.4410405"><ele>233.0</ele><time>2026-05-02T13:05:25.99Z</time></trkpt><trkpt lat="43.6425496" lon="11.4411175"><ele>233.0</ele><time>2026-05-02T13:05:26.99Z</time></trkpt><trkpt lat="43.6426266" lon="11.4411813"><ele>233.0</ele><time>2026-05-02T13:05:27.99Z</time></trkpt><trkpt lat="43.6427006" lon="11.4412582"><ele>233.00000000000003</ele><time>2026-05-02T13:05:28.99Z</time></trkpt><trkpt lat="43.6427725" lon="11.4413439"><ele>233.0</ele><time>2026-05-02T13:05:29.99Z</time></trkpt><trkpt lat="43.6428417" lon="11.4414293"><ele>232.60000000000002</ele><time>2026-05-02T13:05:30.99Z</time></trkpt><trkpt lat="43.6429067" lon="11.4415179"><ele>232.20000000000002</ele><time>2026-05-02T13:05:31.99Z</time></trkpt><trkpt lat="43.6429669" lon="11.4416134"><ele>231.8</ele><time>2026-05-02T13:05:32.99Z</time></trkpt><trkpt lat="43.6430285" lon="11.4417199"><ele>231.4</ele><time>2026-05-02T13:05:33.99Z</time></trkpt><trkpt lat="43.6430978" lon="11.441823"><ele>231.0</ele><time>2026-05-02T13:05:34.99Z</time></trkpt><trkpt lat="43.6431643" lon="11.4419169"><ele>231.0</ele><time>2026-05-02T13:05:35.991Z</time></trkpt><trkpt lat="43.643233" lon="11.4420061"><ele>231.0</ele><time>2026-05-02T13:05:36.99Z</time></trkpt><trkpt lat="43.6433052" lon="11.4420847"><ele>231.0</ele><time>2026-05-02T13:05:37.99Z</time></trkpt><trkpt lat="43.6433749" lon="11.4421572"><ele>231.0</ele><time>2026-05-02T13:05:38.99Z</time></trkpt><trkpt lat="43.6434359" lon="11.4422148"><ele>231.0</ele><time>2026-05-02T13:05:39.99Z</time></trkpt><trkpt lat="43.6434982" lon="11.4422604"><ele>231.0</ele><time>2026-05-02T13:05:40.99Z</time></trkpt><trkpt lat="43.6435567" lon="11.4423119"><ele>231.4</ele><time>2026-05-02T13:05:41.99Z</time></trkpt><trkpt lat="43.6436126" lon="11.4423793"><ele>231.8</ele><time>2026-05-02T13:05:42.99Z</time></trkpt><trkpt lat="43.643713" lon="11.4425016"><ele>232.20000000000002</ele><time>2026-05-02T13:05:44.99Z</time></trkpt><trkpt lat="43.6437642" lon="11.4425673"><ele>232.60000000000002</ele><time>2026-05-02T13:05:45.99Z</time></trkpt><trkpt lat="43.6438199" lon="11.4426205"><ele>233.0</ele><time>2026-05-02T13:05:46.99Z</time></trkpt><trkpt lat="43.6439127" lon="11.4426982"><ele>233.00000000000003</ele><time>2026-05-02T13:05:48.99Z</time></trkpt><trkpt lat="43.6439475" lon="11.4427774"><ele>233.0</ele><time>2026-05-02T13:05:50.99Z</time></trkpt><trkpt lat="43.6439525" lon="11.4428968"><ele>233.0</ele><time>2026-05-02T13:05:52.99Z</time></trkpt><trkpt lat="43.6439626" lon="11.4430156"><ele>233.0</ele><time>2026-05-02T13:05:54.99Z</time></trkpt><trkpt lat="43.6439576" lon="11.44319"><ele>233.00000000000003</ele><time>2026-05-02T13:05:56.99Z</time></trkpt><trkpt lat="43.6439568" lon="11.4432825"><ele>233.0</ele><time>2026-05-02T13:05:57.99Z</time></trkpt><trkpt lat="43.6439869" lon="11.443433"><ele>233.33333333333334</ele><time>2026-05-02T13:05:59.99Z</time></trkpt><trkpt lat="43.6439895" lon="11.4435847"><ele>233.66666666666669</ele><time>2026-05-02T13:06:01.99Z</time></trkpt><trkpt lat="43.6439928" lon="11.4436804"><ele>234.0</ele><time>2026-05-02T13:06:02.99Z</time></trkpt><trkpt lat="43.6440017" lon="11.4438443"><ele>234.33333333333331</ele><time>2026-05-02T13:06:04.99Z</time></trkpt><trkpt lat="43.6440184" lon="11.4439321"><ele>234.66666666666666</ele><time>2026-05-02T13:06:05.99Z</time></trkpt><trkpt lat="43.6440275" lon="11.4440188"><ele>235.0</ele><time>2026-05-02T13:06:06.99Z</time></trkpt><trkpt lat="43.6440324" lon="11.4441589"><ele>232.66666666666666</ele><time>2026-05-02T13:06:08.99Z</time></trkpt><trkpt lat="43.6440406" lon="11.4442863"><ele>230.33333333333331</ele><time>2026-05-02T13:06:10.99Z</time></trkpt><trkpt lat="43.6440434" lon="11.4443786"><ele>228.0</ele><time>2026-05-02T13:06:11.99Z</time></trkpt><trkpt lat="43.6440547" lon="11.4445214"><ele>225.66666666666669</ele><time>2026-05-02T13:06:13.99Z</time></trkpt><trkpt lat="43.6440565" lon="11.4446364"><ele>223.33333333333334</ele><time>2026-05-02T13:06:15.99Z</time></trkpt><trkpt lat="43.6441241" lon="11.4447074"><ele>221.0</ele><time>2026-05-02T13:06:17.99Z</time></trkpt><trkpt lat="43.6442306" lon="11.4447586"><ele>218.33333333333334</ele><time>2026-05-02T13:06:19.99Z</time></trkpt><trkpt lat="43.6443057" lon="11.4447938"><ele>215.66666666666669</ele><time>2026-05-02T13:06:20.991Z</time></trkpt><trkpt lat="43.644386" lon="11.4448187"><ele>213.0</ele><time>2026-05-02T13:06:21.99Z</time></trkpt><trkpt lat="43.6444603" lon="11.4448495"><ele>210.33333333333331</ele><time>2026-05-02T13:06:22.99Z</time></trkpt><trkpt lat="43.6445362" lon="11.4448665"><ele>207.66666666666666</ele><time>2026-05-02T13:06:23.99Z</time></trkpt><trkpt lat="43.6446202" lon="11.4448503"><ele>205.0</ele><time>2026-05-02T13:06:24.99Z</time></trkpt><trkpt lat="43.644711" lon="11.4448239"><ele>205.0</ele><time>2026-05-02T13:06:25.99Z</time></trkpt><trkpt lat="43.6448082" lon="11.4447911"><ele>205.0</ele><time>2026-05-02T13:06:26.99Z</time></trkpt><trkpt lat="43.644896" lon="11.4447696"><ele>205.0</ele><time>2026-05-02T13:06:27.99Z</time></trkpt><trkpt lat="43.6449891" lon="11.4447459"><ele>205.0</ele><time>2026-05-02T13:06:28.99Z</time></trkpt><trkpt lat="43.6450808" lon="11.4447268"><ele>205.0</ele><time>2026-05-02T13:06:29.99Z</time></trkpt><trkpt lat="43.6451845" lon="11.4447192"><ele>205.0</ele><time>2026-05-02T13:06:30.99Z</time></trkpt><trkpt lat="43.645285" lon="11.444723"><ele>205.0</ele><time>2026-05-02T13:06:31.99Z</time></trkpt><trkpt lat="43.6453733" lon="11.4447421"><ele>205.0</ele><time>2026-05-02T13:06:32.99Z</time></trkpt><trkpt lat="43.6454687" lon="11.4447596"><ele>205.0</ele><time>2026-05-02T13:06:33.99Z</time></trkpt><trkpt lat="43.6455581" lon="11.4447813"><ele>205.0</ele><time>2026-05-02T13:06:34.99Z</time></trkpt><trkpt lat="43.6456453" lon="11.4448176"><ele>203.16666666666666</ele><time>2026-05-02T13:06:35.99Z</time></trkpt><trkpt lat="43.6457231" lon="11.4448451"><ele>201.33333333333331</ele><time>2026-05-02T13:06:36.99Z</time></trkpt><trkpt lat="43.6458039" lon="11.4448659"><ele>199.5</ele><time>2026-05-02T13:06:37.99Z</time></trkpt><trkpt lat="43.6458801" lon="11.4448699"><ele>197.66666666666669</ele><time>2026-05-02T13:06:38.99Z</time></trkpt><trkpt lat="43.6459714" lon="11.4448492"><ele>195.83333333333334</ele><time>2026-05-02T13:06:39.99Z</time></trkpt><trkpt lat="43.6460444" lon="11.4448072"><ele>194.0</ele><time>2026-05-02T13:06:40.99Z</time></trkpt><trkpt lat="43.6461161" lon="11.44475"><ele>193.00000000000003</ele><time>2026-05-02T13:06:41.99Z</time></trkpt><trkpt lat="43.6461837" lon="11.4446974"><ele>192.0</ele><time>2026-05-02T13:06:42.99Z</time></trkpt><trkpt lat="43.6462573" lon="11.4446464"><ele>191.0</ele><time>2026-05-02T13:06:43.99Z</time></trkpt><trkpt lat="43.6463285" lon="11.4445947"><ele>190.0</ele><time>2026-05-02T13:06:44.99Z</time></trkpt><trkpt lat="43.6464024" lon="11.4445627"><ele>189.0</ele><time>2026-05-02T13:06:45.99Z</time></trkpt><trkpt lat="43.6464717" lon="11.4445621"><ele>188.0</ele><time>2026-05-02T13:06:46.99Z</time></trkpt><trkpt lat="43.6465408" lon="11.4445838"><ele>187.0</ele><time>2026-05-02T13:06:47.99Z</time></trkpt><trkpt lat="43.6465927" lon="11.4446477"><ele>186.0</ele><time>2026-05-02T13:06:48.99Z</time></trkpt><trkpt lat="43.6466256" lon="11.4447528"><ele>185.0</ele><time>2026-05-02T13:06:49.99Z</time></trkpt><trkpt lat="43.6466549" lon="11.444851"><ele>184.0</ele><time>2026-05-02T13:06:50.991Z</time></trkpt><trkpt lat="43.6466689" lon="11.444942"><ele>183.0</ele><time>2026-05-02T13:06:51.99Z</time></trkpt><trkpt lat="43.6466349" lon="11.4450895"><ele>182.0</ele><time>2026-05-02T13:06:53.99Z</time></trkpt><trkpt lat="43.6465772" lon="11.4451568"><ele>182.0</ele><time>2026-05-02T13:06:54.99Z</time></trkpt><trkpt lat="43.6464684" lon="11.4451707"><ele>182.0</ele><time>2026-05-02T13:06:56.99Z</time></trkpt><trkpt lat="43.6463985" lon="11.4451581"><ele>182.0</ele><time>2026-05-02T13:06:57.99Z</time></trkpt><trkpt lat="43.6463318" lon="11.4451403"><ele>182.0</ele><time>2026-05-02T13:06:58.99Z</time></trkpt><trkpt lat="43.6462679" lon="11.4451498"><ele>182.0</ele><time>2026-05-02T13:06:59.99Z</time></trkpt><trkpt lat="43.6462027" lon="11.445182"><ele>182.0</ele><time>2026-05-02T13:07:00.99Z</time></trkpt><trkpt lat="43.6461364" lon="11.4452152"><ele>182.5</ele><time>2026-05-02T13:07:01.991Z</time></trkpt><trkpt lat="43.6460739" lon="11.4452707"><ele>183.0</ele><time>2026-05-02T13:07:02.99Z</time></trkpt><trkpt lat="43.6460167" lon="11.4453168"><ele>183.5</ele><time>2026-05-02T13:07:03.99Z</time></trkpt><trkpt lat="43.6459439" lon="11.4453563"><ele>184.0</ele><time>2026-05-02T13:07:04.99Z</time></trkpt><trkpt lat="43.6458999" lon="11.4454305"><ele>184.5</ele><time>2026-05-02T13:07:05.99Z</time></trkpt><trkpt lat="43.6458775" lon="11.4455509"><ele>185.0</ele><time>2026-05-02T13:07:06.99Z</time></trkpt><trkpt lat="43.6458601" lon="11.4456775"><ele>185.0</ele><time>2026-05-02T13:07:07.99Z</time></trkpt><trkpt lat="43.6458489" lon="11.4457974"><ele>185.0</ele><time>2026-05-02T13:07:08.991Z</time></trkpt><trkpt lat="43.6458529" lon="11.4459226"><ele>185.0</ele><time>2026-05-02T13:07:09.991Z</time></trkpt><trkpt lat="43.6458754" lon="11.4460224"><ele>185.0</ele><time>2026-05-02T13:07:10.99Z</time></trkpt><trkpt lat="43.6459105" lon="11.4461092"><ele>185.0</ele><time>2026-05-02T13:07:11.99Z</time></trkpt><trkpt lat="43.6459519" lon="11.4461883"><ele>185.0</ele><time>2026-05-02T13:07:12.99Z</time></trkpt><trkpt lat="43.6460062" lon="11.4462763"><ele>183.6</ele><time>2026-05-02T13:07:13.99Z</time></trkpt><trkpt lat="43.6460785" lon="11.4463873"><ele>182.2</ele><time>2026-05-02T13:07:14.99Z</time></trkpt><trkpt lat="43.6461617" lon="11.4464828"><ele>180.8</ele><time>2026-05-02T13:07:15.99Z</time></trkpt><trkpt lat="43.6462491" lon="11.446563"><ele>179.4</ele><time>2026-05-02T13:07:16.99Z</time></trkpt><trkpt lat="43.6463206" lon="11.4466395"><ele>178.0</ele><time>2026-05-02T13:07:17.99Z</time></trkpt><trkpt lat="43.646402" lon="11.4467096"><ele>175.83333333333334</ele><time>2026-05-02T13:07:18.99Z</time></trkpt><trkpt lat="43.6464876" lon="11.446771"><ele>173.66666666666669</ele><time>2026-05-02T13:07:19.99Z</time></trkpt><trkpt lat="43.6465639" lon="11.4468371"><ele>171.5</ele><time>2026-05-02T13:07:20.991Z</time></trkpt><trkpt lat="43.6466264" lon="11.4469059"><ele>169.33333333333334</ele><time>2026-05-02T13:07:21.99Z</time></trkpt><trkpt lat="43.6466881" lon="11.4469802"><ele>167.16666666666666</ele><time>2026-05-02T13:07:22.99Z</time></trkpt><trkpt lat="43.6467432" lon="11.4470728"><ele>165.0</ele><time>2026-05-02T13:07:23.99Z</time></trkpt><trkpt lat="43.6467873" lon="11.4471691"><ele>164.5</ele><time>2026-05-02T13:07:24.99Z</time></trkpt><trkpt lat="43.6468357" lon="11.4472717"><ele>164.0</ele><time>2026-05-02T13:07:25.991Z</time></trkpt><trkpt lat="43.6468772" lon="11.4473725"><ele>163.5</ele><time>2026-05-02T13:07:26.99Z</time></trkpt><trkpt lat="43.6469026" lon="11.4474791"><ele>163.0</ele><time>2026-05-02T13:07:27.99Z</time></trkpt><trkpt lat="43.6469023" lon="11.4475823"><ele>162.5</ele><time>2026-05-02T13:07:28.99Z</time></trkpt><trkpt lat="43.6468945" lon="11.4476878"><ele>162.0</ele><time>2026-05-02T13:07:29.99Z</time></trkpt><trkpt lat="43.6468963" lon="11.4478067"><ele>162.0</ele><time>2026-05-02T13:07:30.99Z</time></trkpt><trkpt lat="43.6468841" lon="11.4479049"><ele>162.0</ele><time>2026-05-02T13:07:31.99Z</time></trkpt><trkpt lat="43.6468685" lon="11.4480055"><ele>162.0</ele><time>2026-05-02T13:07:32.99Z</time></trkpt><trkpt lat="43.6468463" lon="11.4481087"><ele>162.0</ele><time>2026-05-02T13:07:33.99Z</time></trkpt><trkpt lat="43.6468165" lon="11.448193"><ele>162.0</ele><time>2026-05-02T13:07:34.99Z</time></trkpt><trkpt lat="43.6467717" lon="11.4482766"><ele>162.0</ele><time>2026-05-02T13:07:35.99Z</time></trkpt><trkpt lat="43.646718" lon="11.4483735"><ele>160.0</ele><time>2026-05-02T13:07:36.99Z</time></trkpt><trkpt lat="43.6466582" lon="11.4484676"><ele>158.0</ele><time>2026-05-02T13:07:37.99Z</time></trkpt><trkpt lat="43.6466017" lon="11.4485525"><ele>156.0</ele><time>2026-05-02T13:07:38.99Z</time></trkpt><trkpt lat="43.6465404" lon="11.44864"><ele>154.0</ele><time>2026-05-02T13:07:39.99Z</time></trkpt><trkpt lat="43.6464826" lon="11.4487032"><ele>152.0</ele><time>2026-05-02T13:07:40.99Z</time></trkpt><trkpt lat="43.6463595" lon="11.4487053"><ele>152.0</ele><time>2026-05-02T13:07:42.99Z</time></trkpt><trkpt lat="43.6462888" lon="11.4486776"><ele>152.0</ele><time>2026-05-02T13:07:43.99Z</time></trkpt><trkpt lat="43.646217" lon="11.4486279"><ele>152.0</ele><time>2026-05-02T13:07:44.99Z</time></trkpt><trkpt lat="43.6461535" lon="11.4485689"><ele>152.0</ele><time>2026-05-02T13:07:45.99Z</time></trkpt><trkpt lat="43.6460317" lon="11.4485228"><ele>152.0</ele><time>2026-05-02T13:07:47.99Z</time></trkpt><trkpt lat="43.6459608" lon="11.4485385"><ele>152.0</ele><time>2026-05-02T13:07:48.99Z</time></trkpt><trkpt lat="43.6458815" lon="11.4485845"><ele>151.6</ele><time>2026-05-02T13:07:49.99Z</time></trkpt><trkpt lat="43.6457974" lon="11.448673"><ele>151.2</ele><time>2026-05-02T13:07:50.99Z</time></trkpt><trkpt lat="43.6457093" lon="11.4487856"><ele>150.8</ele><time>2026-05-02T13:07:51.99Z</time></trkpt><trkpt lat="43.6456286" lon="11.4488947"><ele>150.4</ele><time>2026-05-02T13:07:52.99Z</time></trkpt><trkpt lat="43.6455531" lon="11.4489852"><ele>150.0</ele><time>2026-05-02T13:07:53.99Z</time></trkpt><trkpt lat="43.6454852" lon="11.4490646"><ele>148.0</ele><time>2026-05-02T13:07:54.99Z</time></trkpt><trkpt lat="43.6454295" lon="11.4491356"><ele>146.0</ele><time>2026-05-02T13:07:55.99Z</time></trkpt><trkpt lat="43.6453961" lon="11.449222"><ele>144.0</ele><time>2026-05-02T13:07:56.99Z</time></trkpt><trkpt lat="43.6453876" lon="11.4493356"><ele>142.0</ele><time>2026-05-02T13:07:57.99Z</time></trkpt><trkpt lat="43.6454003" lon="11.4494535"><ele>140.0</ele><time>2026-05-02T13:07:58.99Z</time></trkpt><trkpt lat="43.6454293" lon="11.4495852"><ele>138.0</ele><time>2026-05-02T13:07:59.99Z</time></trkpt><trkpt lat="43.6454588" lon="11.4497214"><ele>136.33333333333334</ele><time>2026-05-02T13:08:00.99Z</time></trkpt><trkpt lat="43.6454839" lon="11.449855"><ele>134.66666666666666</ele><time>2026-05-02T13:08:01.99Z</time></trkpt><trkpt lat="43.6455051" lon="11.4499785"><ele>133.0</ele><time>2026-05-02T13:08:02.99Z</time></trkpt><trkpt lat="43.6455269" lon="11.4500746"><ele>131.33333333333331</ele><time>2026-05-02T13:08:03.99Z</time></trkpt><trkpt lat="43.6455484" lon="11.4502141"><ele>129.66666666666666</ele><time>2026-05-02T13:08:05.99Z</time></trkpt><trkpt lat="43.6455104" lon="11.4503022"><ele>128.0</ele><time>2026-05-02T13:08:07.99Z</time></trkpt><trkpt lat="43.6454031" lon="11.4502795"><ele>128.0</ele><time>2026-05-02T13:08:09.99Z</time></trkpt><trkpt lat="43.6453162" lon="11.450255"><ele>128.0</ele><time>2026-05-02T13:08:10.99Z</time></trkpt><trkpt lat="43.6452323" lon="11.450237"><ele>128.0</ele><time>2026-05-02T13:08:11.99Z</time></trkpt><trkpt lat="43.645133" lon="11.4502372"><ele>128.0</ele><time>2026-05-02T13:08:12.99Z</time></trkpt><trkpt lat="43.6450345" lon="11.4502516"><ele>128.0</ele><time>2026-05-02T13:08:13.99Z</time></trkpt><trkpt lat="43.644933" lon="11.45026"><ele>127.83333333333333</ele><time>2026-05-02T13:08:14.99Z</time></trkpt><trkpt lat="43.644831" lon="11.4502722"><ele>127.66666666666666</ele><time>2026-05-02T13:08:15.99Z</time></trkpt><trkpt lat="43.6447366" lon="11.4502783"><ele>127.5</ele><time>2026-05-02T13:08:16.99Z</time></trkpt><trkpt lat="43.6446498" lon="11.4503043"><ele>127.33333333333334</ele><time>2026-05-02T13:08:17.99Z</time></trkpt><trkpt lat="43.6445918" lon="11.450359"><ele>127.16666666666667</ele><time>2026-05-02T13:08:18.99Z</time></trkpt><trkpt lat="43.6445081" lon="11.4503821"><ele>127.0</ele><time>2026-05-02T13:08:21.99Z</time></trkpt><trkpt lat="43.6444542" lon="11.4502351"><ele>127.0</ele><time>2026-05-02T13:08:23.99Z</time></trkpt><trkpt lat="43.6443541" lon="11.4501355"><ele>126.99999999999999</ele><time>2026-05-02T13:08:25.99Z</time></trkpt><trkpt lat="43.64427" lon="11.4501443"><ele>126.99999999999999</ele><time>2026-05-02T13:08:26.99Z</time></trkpt><trkpt lat="43.6441606" lon="11.4501726"><ele>127.0</ele><time>2026-05-02T13:08:27.99Z</time></trkpt><trkpt lat="43.6440641" lon="11.4501828"><ele>127.0</ele><time>2026-05-02T13:08:28.99Z</time></trkpt><trkpt lat="43.643963" lon="11.4501982"><ele>127.0</ele><time>2026-05-02T13:08:29.99Z</time></trkpt><trkpt lat="43.6438649" lon="11.4502152"><ele>126.99999999999999</ele><time>2026-05-02T13:08:30.99Z</time></trkpt><trkpt lat="43.6437602" lon="11.4502234"><ele>126.99999999999999</ele><time>2026-05-02T13:08:31.99Z</time></trkpt><trkpt lat="43.6436525" lon="11.4502409"><ele>127.0</ele><time>2026-05-02T13:08:32.99Z</time></trkpt><trkpt lat="43.6435578" lon="11.4502453"><ele>127.0</ele><time>2026-05-02T13:08:33.99Z</time></trkpt><trkpt lat="43.6434749" lon="11.4502552"><ele>126.83333333333334</ele><time>2026-05-02T13:08:34.99Z</time></trkpt><trkpt lat="43.6434076" lon="11.4502748"><ele>126.66666666666667</ele><time>2026-05-02T13:08:35.99Z</time></trkpt><trkpt lat="43.643339" lon="11.4501911"><ele>126.5</ele><time>2026-05-02T13:08:37.99Z</time></trkpt><trkpt lat="43.6433572" lon="11.4501049"><ele>126.33333333333334</ele><time>2026-05-02T13:08:38.99Z</time></trkpt><trkpt lat="43.6434863" lon="11.4500705"><ele>126.16666666666667</ele><time>2026-05-02T13:08:40.99Z</time></trkpt><trkpt lat="43.6435618" lon="11.4500687"><ele>126.0</ele><time>2026-05-02T13:08:41.99Z</time></trkpt><trkpt lat="43.6436259" lon="11.4500731"><ele>126.19999999999999</ele><time>2026-05-02T13:08:42.99Z</time></trkpt><trkpt lat="43.643728" lon="11.4500066"><ele>126.39999999999999</ele><time>2026-05-02T13:08:44.99Z</time></trkpt><trkpt lat="43.6437457" lon="11.4498437"><ele>126.6</ele><time>2026-05-02T13:08:46.99Z</time></trkpt><trkpt lat="43.6438277" lon="11.4497623"><ele>126.8</ele><time>2026-05-02T13:08:48.991Z</time></trkpt><trkpt lat="43.6439076" lon="11.4497559"><ele>127.0</ele><time>2026-05-02T13:08:49.99Z</time></trkpt><trkpt lat="43.6439804" lon="11.4497661"><ele>127.0</ele><time>2026-05-02T13:08:50.99Z</time></trkpt><trkpt lat="43.6440476" lon="11.4497687"><ele>127.0</ele><time>2026-05-02T13:08:51.99Z</time></trkpt><trkpt lat="43.644157" lon="11.4497657"><ele>127.0</ele><time>2026-05-02T13:08:53.99Z</time></trkpt><trkpt lat="43.6442259" lon="11.449795"><ele>127.0</ele><time>2026-05-02T13:08:55.99Z</time></trkpt></trkseg></trk></gpx>